<?xml version='1.0' encoding='UTF-8'?><gpx version="1.1" creator="JPX - https://github.com/jenetics/jpx" xmlns="http://www.topografix.com/GPX/1/1"><trk><trkseg><trkpt lat="43.10221462763708" lon="10.590744646733967"><ele>123.0</ele><time>2026-03-22T08:21:39Z</time></trkpt><trkpt lat="43.10217716848407" lon="10.590834711160074"><ele>123.00000000000001</ele><time>2026-03-22T08:21:41Z</time></trkpt><trkpt lat="43.102111711132856" lon="10.590917455376433"><ele>123.00000000000001</ele><time>2026-03-22T08:21:43Z</time></trkpt><trkpt lat="43.10207436803355" lon="10.591032558410392"><ele>123.0</ele><time>2026-03-22T08:21:45Z</time></trkpt><trkpt lat="43.102028753656455" lon="10.5911691807135"><ele>123.0</ele><time>2026-03-22T08:21:47.999Z</time></trkpt><trkpt lat="43.10201154341488" lon="10.591307393448506"><ele>123.60000000000001</ele><time>2026-03-22T08:21:49.999Z</time></trkpt><trkpt lat="43.101984834501465" lon="10.591438800696196"><ele>124.20000000000002</ele><time>2026-03-22T08:21:51.999Z</time></trkpt><trkpt lat="43.101991300659996" lon="10.591558228235703"><ele>124.8</ele><time>2026-03-22T08:21:53.999Z</time></trkpt><trkpt lat="43.10193713733097" lon="10.591671981670164"><ele>125.4</ele><time>2026-03-22T08:21:55.999Z</time></trkpt><trkpt lat="43.10189810085139" lon="10.591762609631687"><ele>126.0</ele><time>2026-03-22T08:21:57.999Z</time></trkpt><trkpt lat="43.101868424893674" lon="10.591876476653523"><ele>127.4</ele><time>2026-03-22T08:21:59.999Z</time></trkpt><trkpt lat="43.10183343817946" lon="10.592021492194625"><ele>128.8</ele><time>2026-03-22T08:22:01.999Z</time></trkpt><trkpt lat="43.10181102186274" lon="10.592152036518856"><ele>130.20000000000002</ele><time>2026-03-22T08:22:03.999Z</time></trkpt><trkpt lat="43.10181105974508" lon="10.59228381004057"><ele>131.6</ele><time>2026-03-22T08:22:05.999Z</time></trkpt><trkpt lat="43.10179659860611" lon="10.592419005266756"><ele>133.0</ele><time>2026-03-22T08:22:07.999Z</time></trkpt><trkpt lat="43.1018062818167" lon="10.592540411310265"><ele>133.0</ele><time>2026-03-22T08:22:09.999Z</time></trkpt><trkpt lat="43.101782104424245" lon="10.592668180549303"><ele>133.0</ele><time>2026-03-22T08:22:12Z</time></trkpt><trkpt lat="43.10174577069729" lon="10.592759593065246"><ele>133.0</ele><time>2026-03-22T08:22:14Z</time></trkpt><trkpt lat="43.10172337174768" lon="10.59288661569253"><ele>133.0</ele><time>2026-03-22T08:22:16Z</time></trkpt><trkpt lat="43.1016884917692" lon="10.592977707021827"><ele>133.0</ele><time>2026-03-22T08:22:18Z</time></trkpt><trkpt lat="43.101685847722" lon="10.593080041415416"><ele>133.0</ele><time>2026-03-22T08:22:20Z</time></trkpt><trkpt lat="43.10168951078789" lon="10.593185062836822"><ele>133.0</ele><time>2026-03-22T08:22:23Z</time></trkpt><trkpt lat="43.101661708791475" lon="10.593106487005972"><ele>133.0</ele><time>2026-03-22T08:23:53Z</time></trkpt><trkpt lat="43.101666363251674" lon="10.593009887570187"><ele>133.0</ele><time>2026-03-22T08:23:55Z</time></trkpt><trkpt lat="43.10169270002648" lon="10.592901857669307"><ele>133.0</ele><time>2026-03-22T08:23:57Z</time></trkpt><trkpt lat="43.10174341766855" lon="10.592794807407815"><ele>133.0</ele><time>2026-03-22T08:23:59Z</time></trkpt><trkpt lat="43.10176208143181" lon="10.59267275141099"><ele>133.0</ele><time>2026-03-22T08:24:02Z</time></trkpt><trkpt lat="43.10177956323908" lon="10.592555860419143"><ele>133.0</ele><time>2026-03-22T08:24:04.999Z</time></trkpt><trkpt lat="43.10176028582787" lon="10.592457543491209"><ele>133.0</ele><time>2026-03-22T08:24:20Z</time></trkpt><trkpt lat="43.1017586105824" lon="10.59235450510825"><ele>133.0</ele><time>2026-03-22T08:24:22Z</time></trkpt><trkpt lat="43.1017709257796" lon="10.592240024276673"><ele>133.0</ele><time>2026-03-22T08:24:24Z</time></trkpt><trkpt lat="43.1017786099035" lon="10.592101164494466"><ele>133.0</ele><time>2026-03-22T08:24:26Z</time></trkpt><trkpt lat="43.10184369619087" lon="10.591946235781576"><ele>131.6</ele><time>2026-03-22T08:24:28Z</time></trkpt><trkpt lat="43.101888001066676" lon="10.591812926720165"><ele>130.20000000000002</ele><time>2026-03-22T08:24:30Z</time></trkpt><trkpt lat="43.101916222290455" lon="10.591682656112875"><ele>128.8</ele><time>2026-03-22T08:24:32Z</time></trkpt><trkpt lat="43.10195715477413" lon="10.59158573759025"><ele>127.4</ele><time>2026-03-22T08:24:34Z</time></trkpt><trkpt lat="43.101970940271016" lon="10.59144402258311"><ele>126.0</ele><time>2026-03-22T08:24:36Z</time></trkpt><trkpt lat="43.10198496696838" lon="10.591291840126003"><ele>125.4</ele><time>2026-03-22T08:24:38Z</time></trkpt><trkpt lat="43.10199712568643" lon="10.591164953068182"><ele>124.8</ele><time>2026-03-22T08:24:40Z</time></trkpt><trkpt lat="43.10203391790545" lon="10.591036200535665"><ele>124.20000000000002</ele><time>2026-03-22T08:24:42Z</time></trkpt><trkpt lat="43.102084061609915" lon="10.590942890693388"><ele>123.60000000000001</ele><time>2026-03-22T08:24:44Z</time></trkpt><trkpt lat="43.10213515933712" lon="10.590814282911998"><ele>123.0</ele><time>2026-03-22T08:24:46Z</time></trkpt><trkpt lat="43.102157298182846" lon="10.59072084937033"><ele>123.0</ele><time>2026-03-22T08:24:48Z</time></trkpt><trkpt lat="43.102193451615946" lon="10.59064662099561"><ele>123.0</ele><time>2026-03-22T08:25:15Z</time></trkpt><trkpt lat="43.1022694889809" lon="10.590701750838024"><ele>123.0</ele><time>2026-03-22T08:25:18Z</time></trkpt><trkpt lat="43.102322149068364" lon="10.590750006265864"><ele>123.0</ele><time>2026-03-22T08:25:20Z</time></trkpt><trkpt lat="43.10238642022134" lon="10.590815631274914"><ele>123.0</ele><time>2026-03-22T08:25:22Z</time></trkpt><trkpt lat="43.10244248680591" lon="10.590874622512283"><ele>123.0</ele><time>2026-03-22T08:25:24Z</time></trkpt><trkpt lat="43.10252222678778" lon="10.590946596162746"><ele>124.33333333333333</ele><time>2026-03-22T08:25:27Z</time></trkpt><trkpt lat="43.10260287062275" lon="10.591002844081094"><ele>125.66666666666666</ele><time>2026-03-22T08:25:29Z</time></trkpt><trkpt lat="43.10268168250408" lon="10.591053312369251"><ele>127.0</ele><time>2026-03-22T08:25:31Z</time></trkpt><trkpt lat="43.10274106752064" lon="10.591121278388577"><ele>128.33333333333331</ele><time>2026-03-22T08:25:33Z</time></trkpt><trkpt lat="43.10281604254129" lon="10.591198601185283"><ele>129.66666666666666</ele><time>2026-03-22T08:25:35Z</time></trkpt><trkpt lat="43.102864454325385" lon="10.591289662746124"><ele>131.0</ele><time>2026-03-22T08:25:37Z</time></trkpt><trkpt lat="43.102925838351084" lon="10.591366124368347"><ele>131.5</ele><time>2026-03-22T08:25:39Z</time></trkpt><trkpt lat="43.10297912684285" lon="10.591448522664429"><ele>132.0</ele><time>2026-03-22T08:25:41Z</time></trkpt><trkpt lat="43.10300860514589" lon="10.591578876720996"><ele>132.5</ele><time>2026-03-22T08:25:43Z</time></trkpt><trkpt lat="43.10303885353286" lon="10.591656285416953"><ele>133.0</ele><time>2026-03-22T08:25:45Z</time></trkpt><trkpt lat="43.10306388233938" lon="10.591762997221574"><ele>133.5</ele><time>2026-03-22T08:25:49Z</time></trkpt><trkpt lat="43.10311577309077" lon="10.59186431528184"><ele>134.0</ele><time>2026-03-22T08:25:52Z</time></trkpt><trkpt lat="43.10315843242895" lon="10.59194865243086"><ele>136.0</ele><time>2026-03-22T08:25:54Z</time></trkpt><trkpt lat="43.10320223132283" lon="10.592031641664628"><ele>138.0</ele><time>2026-03-22T08:25:56Z</time></trkpt><trkpt lat="43.10325814142007" lon="10.592114216442054"><ele>140.0</ele><time>2026-03-22T08:25:58Z</time></trkpt><trkpt lat="43.10331327010859" lon="10.592160742613657"><ele>142.0</ele><time>2026-03-22T08:26:00Z</time></trkpt><trkpt lat="43.103383474430835" lon="10.592258133776632"><ele>144.0</ele><time>2026-03-22T08:26:03Z</time></trkpt><trkpt lat="43.103414733774315" lon="10.592359411433398"><ele>146.0</ele><time>2026-03-22T08:26:05Z</time></trkpt><trkpt lat="43.10343655262389" lon="10.592478380939601"><ele>146.0</ele><time>2026-03-22T08:26:08Z</time></trkpt><trkpt lat="43.10344543304793" lon="10.592615165855573"><ele>146.0</ele><time>2026-03-22T08:26:11Z</time></trkpt><trkpt lat="43.10344503894465" lon="10.592730430640284"><ele>146.0</ele><time>2026-03-22T08:26:14Z</time></trkpt><trkpt lat="43.103435540326984" lon="10.59283340798353"><ele>146.0</ele><time>2026-03-22T08:26:16Z</time></trkpt><trkpt lat="43.103429646308236" lon="10.592923816192231"><ele>146.0</ele><time>2026-03-22T08:26:18Z</time></trkpt><trkpt lat="43.103450436555654" lon="10.593036088825894"><ele>146.0</ele><time>2026-03-22T08:26:20Z</time></trkpt><trkpt lat="43.103484323945196" lon="10.592934867548829"><ele>146.0</ele><time>2026-03-22T08:27:40Z</time></trkpt><trkpt lat="43.103483702735446" lon="10.592815921650198"><ele>146.0</ele><time>2026-03-22T08:27:44Z</time></trkpt><trkpt lat="43.1034713304149" lon="10.592723212137507"><ele>146.0</ele><time>2026-03-22T08:27:46Z</time></trkpt><trkpt lat="43.10346936615186" lon="10.592630849484632"><ele>146.0</ele><time>2026-03-22T08:27:49Z</time></trkpt><trkpt lat="43.10346350282645" lon="10.592544092621672"><ele>146.0</ele><time>2026-03-22T08:27:51Z</time></trkpt><trkpt lat="43.10344707709753" lon="10.5924461293232"><ele>146.0</ele><time>2026-03-22T08:27:53Z</time></trkpt><trkpt lat="43.10340980259556" lon="10.592330312987524"><ele>146.0</ele><time>2026-03-22T08:27:56Z</time></trkpt><trkpt lat="43.10336239845938" lon="10.592231689963297"><ele>146.0</ele><time>2026-03-22T08:27:59Z</time></trkpt><trkpt lat="43.103303209838465" lon="10.59215625742115"><ele>146.0</ele><time>2026-03-22T08:28:02Z</time></trkpt><trkpt lat="43.10324286500889" lon="10.592129493991033"><ele>146.0</ele><time>2026-03-22T08:28:04Z</time></trkpt><trkpt lat="43.10320224940038" lon="10.592060771245444"><ele>146.0</ele><time>2026-03-22T08:28:06Z</time></trkpt><trkpt lat="43.1031546821791" lon="10.591997296248245"><ele>146.0</ele><time>2026-03-22T08:28:08Z</time></trkpt><trkpt lat="43.10310713251406" lon="10.59189860346733"><ele>146.0</ele><time>2026-03-22T08:28:10Z</time></trkpt><trkpt lat="43.10308807962816" lon="10.591812083114652"><ele>144.0</ele><time>2026-03-22T08:28:12Z</time></trkpt><trkpt lat="43.103053124163594" lon="10.591726369687656"><ele>142.0</ele><time>2026-03-22T08:28:14Z</time></trkpt><trkpt lat="43.103027219322925" lon="10.59162754797106"><ele>140.0</ele><time>2026-03-22T08:28:17Z</time></trkpt><trkpt lat="43.10299350060685" lon="10.591533388504924"><ele>138.0</ele><time>2026-03-22T08:28:19Z</time></trkpt><trkpt lat="43.10296333543349" lon="10.591451467679164"><ele>136.0</ele><time>2026-03-22T08:28:21Z</time></trkpt><trkpt lat="43.10292193030718" lon="10.591386452601382"><ele>134.0</ele><time>2026-03-22T08:28:23Z</time></trkpt><trkpt lat="43.102839224412044" lon="10.591280116518396"><ele>134.0</ele><time>2026-03-22T08:28:26Z</time></trkpt><trkpt lat="43.10276843537632" lon="10.591196784810016"><ele>134.0</ele><time>2026-03-22T08:28:28Z</time></trkpt><trkpt lat="43.102727920806025" lon="10.59112437356101"><ele>134.0</ele><time>2026-03-22T08:28:30Z</time></trkpt><trkpt lat="43.10265841243566" lon="10.591069433508023"><ele>134.0</ele><time>2026-03-22T08:28:32Z</time></trkpt><trkpt lat="43.102587421244664" lon="10.59102046757591"><ele>134.0</ele><time>2026-03-22T08:28:34Z</time></trkpt><trkpt lat="43.10252368035278" lon="10.590952382894612"><ele>134.0</ele><time>2026-03-22T08:28:37Z</time></trkpt><trkpt lat="43.102441616012015" lon="10.59087456754812"><ele>132.16666666666666</ele><time>2026-03-22T08:28:40Z</time></trkpt><trkpt lat="43.10237081058689" lon="10.590819241707031"><ele>130.33333333333331</ele><time>2026-03-22T08:28:43Z</time></trkpt><trkpt lat="43.10227923542396" lon="10.59073136035305"><ele>128.5</ele><time>2026-03-22T08:28:46Z</time></trkpt><trkpt lat="43.102219356885406" lon="10.590644635003125"><ele>126.66666666666666</ele><time>2026-03-22T08:28:49Z</time></trkpt><trkpt lat="43.10218657872622" lon="10.5905544100727"><ele>124.83333333333333</ele><time>2026-03-22T08:28:51Z</time></trkpt><trkpt lat="43.10218730620781" lon="10.590460095981545"><ele>123.0</ele><time>2026-03-22T08:28:53Z</time></trkpt><trkpt lat="43.102179966091384" lon="10.590339976041271"><ele>121.80000000000001</ele><time>2026-03-22T08:28:56Z</time></trkpt><trkpt lat="43.10216705967383" lon="10.590205732532707"><ele>120.60000000000001</ele><time>2026-03-22T08:28:59Z</time></trkpt><trkpt lat="43.102158512511856" lon="10.590107336259171"><ele>119.39999999999999</ele><time>2026-03-22T08:29:01Z</time></trkpt><trkpt lat="43.10214806275064" lon="10.589914347097716"><ele>118.19999999999999</ele><time>2026-03-22T08:29:03Z</time></trkpt><trkpt lat="43.10214553201582" lon="10.589823754499337"><ele>117.0</ele><time>2026-03-22T08:29:04Z</time></trkpt><trkpt lat="43.102143040929214" lon="10.589650532180523"><ele>117.0</ele><time>2026-03-22T08:29:06Z</time></trkpt><trkpt lat="43.10215630022897" lon="10.589556254936076"><ele>117.0</ele><time>2026-03-22T08:29:07Z</time></trkpt><trkpt lat="43.10217498876613" lon="10.589452044987803"><ele>117.0</ele><time>2026-03-22T08:29:08Z</time></trkpt><trkpt lat="43.10220335265604" lon="10.58935028476235"><ele>117.0</ele><time>2026-03-22T08:29:09Z</time></trkpt><trkpt lat="43.10223364537254" lon="10.589243129951102"><ele>117.0</ele><time>2026-03-22T08:29:10Z</time></trkpt><trkpt lat="43.102265134449596" lon="10.589153022545164"><ele>117.0</ele><time>2026-03-22T08:29:11Z</time></trkpt><trkpt lat="43.10229675822956" lon="10.58907061218375"><ele>117.0</ele><time>2026-03-22T08:29:12Z</time></trkpt><trkpt lat="43.102324893717" lon="10.588980276772272"><ele>117.0</ele><time>2026-03-22T08:29:13Z</time></trkpt><trkpt lat="43.102369056863786" lon="10.588889242244253"><ele>117.0</ele><time>2026-03-22T08:29:14Z</time></trkpt><trkpt lat="43.10240003486592" lon="10.58876856416272"><ele>117.0</ele><time>2026-03-22T08:29:15Z</time></trkpt><trkpt lat="43.10243960104154" lon="10.588655416095417"><ele>117.0</ele><time>2026-03-22T08:29:16Z</time></trkpt><trkpt lat="43.102466484083976" lon="10.588553647443101"><ele>117.0</ele><time>2026-03-22T08:29:17Z</time></trkpt><trkpt lat="43.10251400058788" lon="10.588458979739167"><ele>117.0</ele><time>2026-03-22T08:29:18Z</time></trkpt><trkpt lat="43.102554934024845" lon="10.588368489800699"><ele>117.0</ele><time>2026-03-22T08:29:19Z</time></trkpt><trkpt lat="43.10258721660035" lon="10.588293836390477"><ele>117.0</ele><time>2026-03-22T08:29:20Z</time></trkpt><trkpt lat="43.102648296325285" lon="10.588143787018799"><ele>117.0</ele><time>2026-03-22T08:29:22Z</time></trkpt><trkpt lat="43.10269349097811" lon="10.588070926799064"><ele>117.0</ele><time>2026-03-22T08:29:23Z</time></trkpt><trkpt lat="43.10273557380469" lon="10.587993579069702"><ele>117.0</ele><time>2026-03-22T08:29:24Z</time></trkpt><trkpt lat="43.10277378443009" lon="10.58790929193865"><ele>116.0</ele><time>2026-03-22T08:29:25Z</time></trkpt><trkpt lat="43.1028044518576" lon="10.587805708468553"><ele>115.0</ele><time>2026-03-22T08:29:26Z</time></trkpt><trkpt lat="43.10284025112898" lon="10.587715509439535"><ele>114.0</ele><time>2026-03-22T08:29:27Z</time></trkpt><trkpt lat="43.10286063372063" lon="10.587606388785451"><ele>113.0</ele><time>2026-03-22T08:29:28Z</time></trkpt><trkpt lat="43.10287320470083" lon="10.587509103416588"><ele>112.0</ele><time>2026-03-22T08:29:29Z</time></trkpt><trkpt lat="43.10289488765363" lon="10.58741005721132"><ele>111.0</ele><time>2026-03-22T08:29:30Z</time></trkpt><trkpt lat="43.10293012448894" lon="10.587313543037475"><ele>111.0</ele><time>2026-03-22T08:29:31Z</time></trkpt><trkpt lat="43.102957367016444" lon="10.587223601693886"><ele>111.0</ele><time>2026-03-22T08:29:32Z</time></trkpt><trkpt lat="43.102990479712155" lon="10.58713487837031"><ele>111.0</ele><time>2026-03-22T08:29:33Z</time></trkpt><trkpt lat="43.103025187392866" lon="10.587054965254843"><ele>111.0</ele><time>2026-03-22T08:29:34Z</time></trkpt><trkpt lat="43.10302077663204" lon="10.586904290805556"><ele>111.0</ele><time>2026-03-22T08:29:36Z</time></trkpt><trkpt lat="43.10303315351301" lon="10.586818814269115"><ele>111.0</ele><time>2026-03-22T08:29:37Z</time></trkpt><trkpt lat="43.10306702977401" lon="10.58672630482713"><ele>111.0</ele><time>2026-03-22T08:29:38Z</time></trkpt><trkpt lat="43.10310717426703" lon="10.586633790995702"><ele>111.0</ele><time>2026-03-22T08:29:39Z</time></trkpt><trkpt lat="43.10319246470679" lon="10.58653066722361"><ele>111.0</ele><time>2026-03-22T08:29:41Z</time></trkpt><trkpt lat="43.103220047664514" lon="10.5864436314219"><ele>111.0</ele><time>2026-03-22T08:29:42Z</time></trkpt><trkpt lat="43.103246008575255" lon="10.58636265998954"><ele>111.0</ele><time>2026-03-22T08:29:43Z</time></trkpt><trkpt lat="43.10326848631659" lon="10.58623068495578"><ele>111.0</ele><time>2026-03-22T08:29:45Z</time></trkpt><trkpt lat="43.10328427025528" lon="10.586142595668623"><ele>110.0</ele><time>2026-03-22T08:29:48Z</time></trkpt><trkpt lat="43.1033821556563" lon="10.586110402057695"><ele>109.0</ele><time>2026-03-22T08:29:55Z</time></trkpt><trkpt lat="43.103479811007574" lon="10.586051320669329"><ele>108.0</ele><time>2026-03-22T08:29:57Z</time></trkpt><trkpt lat="43.103551115505304" lon="10.586040150054165"><ele>107.0</ele><time>2026-03-22T08:29:58Z</time></trkpt><trkpt lat="43.10365250882806" lon="10.585993135611272"><ele>106.0</ele><time>2026-03-22T08:30:00Z</time></trkpt><trkpt lat="43.10374126996493" lon="10.585872820928634"><ele>106.0</ele><time>2026-03-22T08:30:02Z</time></trkpt><trkpt lat="43.10376772860659" lon="10.585769605165572"><ele>106.0</ele><time>2026-03-22T08:30:03Z</time></trkpt><trkpt lat="43.10379523869627" lon="10.58568768116654"><ele>106.0</ele><time>2026-03-22T08:30:04Z</time></trkpt><trkpt lat="43.10382721948985" lon="10.585595406666112"><ele>106.0</ele><time>2026-03-22T08:30:05Z</time></trkpt><trkpt lat="43.10384649674329" lon="10.585512616531808"><ele>106.0</ele><time>2026-03-22T08:30:06Z</time></trkpt><trkpt lat="43.103861971057235" lon="10.585418307422167"><ele>106.0</ele><time>2026-03-22T08:30:07Z</time></trkpt><trkpt lat="43.10387621024668" lon="10.585323103040384"><ele>106.0</ele><time>2026-03-22T08:30:08Z</time></trkpt><trkpt lat="43.103920754021736" lon="10.585158818798053"><ele>106.0</ele><time>2026-03-22T08:30:10Z</time></trkpt><trkpt lat="43.10396024483942" lon="10.585086725885006"><ele>106.0</ele><time>2026-03-22T08:30:11Z</time></trkpt><trkpt lat="43.10399985704641" lon="10.58501367307338"><ele>106.0</ele><time>2026-03-22T08:30:12Z</time></trkpt><trkpt lat="43.1040860684379" lon="10.584885961954173"><ele>106.0</ele><time>2026-03-22T08:30:14Z</time></trkpt><trkpt lat="43.10415304194574" lon="10.58475043277016"><ele>106.0</ele><time>2026-03-22T08:30:16Z</time></trkpt><trkpt lat="43.10419232865638" lon="10.584622612797855"><ele>105.6</ele><time>2026-03-22T08:30:18Z</time></trkpt><trkpt lat="43.10425700712132" lon="10.584555250767577"><ele>105.19999999999999</ele><time>2026-03-22T08:30:20Z</time></trkpt><trkpt lat="43.10436178464971" lon="10.584473384779367"><ele>104.80000000000001</ele><time>2026-03-22T08:30:22Z</time></trkpt><trkpt lat="43.104456017347424" lon="10.584368937161884"><ele>104.4</ele><time>2026-03-22T08:30:24Z</time></trkpt><trkpt lat="43.104522129241076" lon="10.584245105938464"><ele>104.0</ele><time>2026-03-22T08:30:26Z</time></trkpt><trkpt lat="43.10458457266602" lon="10.584135955050527"><ele>103.6</ele><time>2026-03-22T08:30:28Z</time></trkpt><trkpt lat="43.104680764412926" lon="10.58406232473197"><ele>103.2</ele><time>2026-03-22T08:30:30Z</time></trkpt><trkpt lat="43.10473367481185" lon="10.5840059095043"><ele>102.8</ele><time>2026-03-22T08:30:31Z</time></trkpt><trkpt lat="43.10479221696421" lon="10.583951182835966"><ele>102.39999999999999</ele><time>2026-03-22T08:30:32Z</time></trkpt><trkpt lat="43.10488447162461" lon="10.583841581533234"><ele>102.0</ele><time>2026-03-22T08:30:34Z</time></trkpt><trkpt lat="43.104996199246116" lon="10.583741382918772"><ele>101.0</ele><time>2026-03-22T08:30:36Z</time></trkpt><trkpt lat="43.10505405221566" lon="10.583680127106968"><ele>100.0</ele><time>2026-03-22T08:30:37Z</time></trkpt><trkpt lat="43.105168213005804" lon="10.583593606435157"><ele>99.0</ele><time>2026-03-22T08:30:39Z</time></trkpt><trkpt lat="43.10527493630695" lon="10.583527989325699"><ele>98.0</ele><time>2026-03-22T08:30:41Z</time></trkpt><trkpt lat="43.10535097794828" lon="10.583430685232532"><ele>97.0</ele><time>2026-03-22T08:30:43Z</time></trkpt><trkpt lat="43.105413222076045" lon="10.583343152561373"><ele>97.0</ele><time>2026-03-22T08:30:45Z</time></trkpt><trkpt lat="43.10546875456232" lon="10.58324134545776"><ele>97.0</ele><time>2026-03-22T08:30:47Z</time></trkpt><trkpt lat="43.10548985374845" lon="10.583105413088557"><ele>97.0</ele><time>2026-03-22T08:30:49Z</time></trkpt><trkpt lat="43.10547634384517" lon="10.582961057032929"><ele>97.0</ele><time>2026-03-22T08:30:51Z</time></trkpt><trkpt lat="43.10548257109302" lon="10.582853028514355"><ele>97.0</ele><time>2026-03-22T08:30:53Z</time></trkpt><trkpt lat="43.105499265478024" lon="10.582746605366035"><ele>96.83333333333334</ele><time>2026-03-22T08:30:55Z</time></trkpt><trkpt lat="43.10556827657628" lon="10.582651519764555"><ele>96.66666666666667</ele><time>2026-03-22T08:30:57Z</time></trkpt><trkpt lat="43.10564406121325" lon="10.582592111281087"><ele>96.5</ele><time>2026-03-22T08:30:59Z</time></trkpt><trkpt lat="43.10568286553049" lon="10.582487986640036"><ele>96.33333333333334</ele><time>2026-03-22T08:31:01Z</time></trkpt><trkpt lat="43.1057487949369" lon="10.582416005535833"><ele>96.16666666666667</ele><time>2026-03-22T08:31:03Z</time></trkpt><trkpt lat="43.10581679152783" lon="10.582362973330628"><ele>96.0</ele><time>2026-03-22T08:31:05Z</time></trkpt><trkpt lat="43.10587392471843" lon="10.58226926695982"><ele>96.0</ele><time>2026-03-22T08:31:07Z</time></trkpt><trkpt lat="43.10593506728774" lon="10.582178919153112"><ele>96.0</ele><time>2026-03-22T08:31:09Z</time></trkpt><trkpt lat="43.106004304901056" lon="10.582134681281381"><ele>96.0</ele><time>2026-03-22T08:31:11Z</time></trkpt><trkpt lat="43.106065482285196" lon="10.582095967787408"><ele>96.0</ele><time>2026-03-22T08:31:13Z</time></trkpt><trkpt lat="43.106113306007536" lon="10.58202005149325"><ele>96.0</ele><time>2026-03-22T08:31:15Z</time></trkpt><trkpt lat="43.10613367227072" lon="10.581919262140548"><ele>96.0</ele><time>2026-03-22T08:31:18Z</time></trkpt><trkpt lat="43.10615177829102" lon="10.58181580350798"><ele>95.57142857142857</ele><time>2026-03-22T08:31:20Z</time></trkpt><trkpt lat="43.106166492051806" lon="10.58172835428426"><ele>95.14285714285714</ele><time>2026-03-22T08:31:22Z</time></trkpt><trkpt lat="43.10617335218071" lon="10.58160617765771"><ele>94.71428571428572</ele><time>2026-03-22T08:31:24Z</time></trkpt><trkpt lat="43.10620325138287" lon="10.581521240628257"><ele>94.28571428571428</ele><time>2026-03-22T08:31:26Z</time></trkpt><trkpt lat="43.106245783091836" lon="10.581432237903796"><ele>93.85714285714286</ele><time>2026-03-22T08:31:28Z</time></trkpt><trkpt lat="43.10627575088487" lon="10.581355443927405"><ele>93.42857142857143</ele><time>2026-03-22T08:31:29Z</time></trkpt><trkpt lat="43.10629975474134" lon="10.581273648046778"><ele>93.0</ele><time>2026-03-22T08:31:30Z</time></trkpt><trkpt lat="43.10631315145411" lon="10.581107792730492"><ele>92.2</ele><time>2026-03-22T08:31:32Z</time></trkpt><trkpt lat="43.10632311121669" lon="10.580959739549785"><ele>91.4</ele><time>2026-03-22T08:31:34Z</time></trkpt><trkpt lat="43.1063632289352" lon="10.58080959523916"><ele>90.60000000000001</ele><time>2026-03-22T08:31:36Z</time></trkpt><trkpt lat="43.106398629881774" lon="10.580652669116965"><ele>89.80000000000001</ele><time>2026-03-22T08:31:38Z</time></trkpt><trkpt lat="43.10643794642408" lon="10.580581899590682"><ele>89.0</ele><time>2026-03-22T08:31:39Z</time></trkpt><trkpt lat="43.10650917252723" lon="10.580441778048197"><ele>88.6</ele><time>2026-03-22T08:31:41Z</time></trkpt><trkpt lat="43.106559272226605" lon="10.580284961170443"><ele>88.2</ele><time>2026-03-22T08:31:43Z</time></trkpt><trkpt lat="43.10661110574126" lon="10.5801498364114"><ele>87.8</ele><time>2026-03-22T08:31:45Z</time></trkpt><trkpt lat="43.10664939461358" lon="10.580045860914067"><ele>87.39999999999999</ele><time>2026-03-22T08:31:47Z</time></trkpt><trkpt lat="43.10668288680719" lon="10.579908254472787"><ele>87.0</ele><time>2026-03-22T08:31:49Z</time></trkpt><trkpt lat="43.10667652645147" lon="10.579792956086083"><ele>87.0</ele><time>2026-03-22T08:31:51Z</time></trkpt><trkpt lat="43.106640423640116" lon="10.579712062843667"><ele>87.0</ele><time>2026-03-22T08:31:52Z</time></trkpt><trkpt lat="43.10661328590276" lon="10.579625228852455"><ele>87.0</ele><time>2026-03-22T08:31:54Z</time></trkpt><trkpt lat="43.106581850505144" lon="10.57950729012951"><ele>87.0</ele><time>2026-03-22T08:31:56Z</time></trkpt><trkpt lat="43.10657498644427" lon="10.579384247112706"><ele>87.0</ele><time>2026-03-22T08:31:58Z</time></trkpt><trkpt lat="43.106591381357745" lon="10.579297430270554"><ele>87.0</ele><time>2026-03-22T08:32:01Z</time></trkpt><trkpt lat="43.10658600016903" lon="10.57917983897699"><ele>86.83333333333333</ele><time>2026-03-22T08:32:04Z</time></trkpt><trkpt lat="43.1066158187286" lon="10.579103897019822"><ele>86.66666666666667</ele><time>2026-03-22T08:32:06Z</time></trkpt><trkpt lat="43.106602931830516" lon="10.578982840159412"><ele>86.5</ele><time>2026-03-22T08:32:08Z</time></trkpt><trkpt lat="43.10659712741481" lon="10.578834501518974"><ele>86.33333333333334</ele><time>2026-03-22T08:32:10Z</time></trkpt><trkpt lat="43.10660200324838" lon="10.578706562056304"><ele>86.16666666666667</ele><time>2026-03-22T08:32:12Z</time></trkpt><trkpt lat="43.10657941038196" lon="10.578615122026232"><ele>86.0</ele><time>2026-03-22T08:32:13Z</time></trkpt><trkpt lat="43.106560461858" lon="10.57847613467977"><ele>87.19999999999999</ele><time>2026-03-22T08:32:15Z</time></trkpt><trkpt lat="43.10651861991702" lon="10.57835190127245"><ele>88.39999999999999</ele><time>2026-03-22T08:32:17Z</time></trkpt><trkpt lat="43.106464154626224" lon="10.578243700478474"><ele>89.6</ele><time>2026-03-22T08:32:19Z</time></trkpt><trkpt lat="43.10641626305498" lon="10.578145394556755"><ele>90.8</ele><time>2026-03-22T08:32:21Z</time></trkpt><trkpt lat="43.106422919760625" lon="10.578023016430262"><ele>92.0</ele><time>2026-03-22T08:32:23Z</time></trkpt><trkpt lat="43.106494854740454" lon="10.577882903564014"><ele>92.6</ele><time>2026-03-22T08:32:25Z</time></trkpt><trkpt lat="43.10656810503229" lon="10.577754658105409"><ele>93.19999999999999</ele><time>2026-03-22T08:32:27Z</time></trkpt><trkpt lat="43.10661305113836" lon="10.577628592045569"><ele>93.8</ele><time>2026-03-22T08:32:29Z</time></trkpt><trkpt lat="43.10666186800554" lon="10.577509286774564"><ele>94.4</ele><time>2026-03-22T08:32:31Z</time></trkpt><trkpt lat="43.106724224743644" lon="10.57740619059109"><ele>95.0</ele><time>2026-03-22T08:32:33Z</time></trkpt><trkpt lat="43.106766955332496" lon="10.577326100233156"><ele>93.42857142857143</ele><time>2026-03-22T08:32:38Z</time></trkpt><trkpt lat="43.10680263075178" lon="10.577244842540805"><ele>91.85714285714286</ele><time>2026-03-22T08:32:41Z</time></trkpt><trkpt lat="43.10684359846269" lon="10.577143203892813"><ele>90.28571428571428</ele><time>2026-03-22T08:32:45Z</time></trkpt><trkpt lat="43.106867091476886" lon="10.577035858178176"><ele>88.71428571428572</ele><time>2026-03-22T08:32:48Z</time></trkpt><trkpt lat="43.106881241887855" lon="10.576941889138634"><ele>87.14285714285714</ele><time>2026-03-22T08:32:51Z</time></trkpt><trkpt lat="43.10684894155846" lon="10.577022111921266"><ele>85.57142857142857</ele><time>2026-03-22T08:37:25Z</time></trkpt><trkpt lat="43.10683727656364" lon="10.577108666033391"><ele>84.0</ele><time>2026-03-22T08:37:29Z</time></trkpt><trkpt lat="43.10678461862268" lon="10.57716559676686"><ele>84.0</ele><time>2026-03-22T08:42:05Z</time></trkpt><trkpt lat="43.106741423013375" lon="10.577276532390549"><ele>84.0</ele><time>2026-03-22T08:43:57Z</time></trkpt><trkpt lat="43.106704220088474" lon="10.577379650294034"><ele>84.0</ele><time>2026-03-22T08:44:00Z</time></trkpt><trkpt lat="43.10666588830937" lon="10.577470163851974"><ele>84.0</ele><time>2026-03-22T08:44:02Z</time></trkpt><trkpt lat="43.106627738124374" lon="10.577614967726896"><ele>84.0</ele><time>2026-03-22T08:44:04Z</time></trkpt><trkpt lat="43.10659759345623" lon="10.577756489619057"><ele>84.33333333333333</ele><time>2026-03-22T08:44:06Z</time></trkpt><trkpt lat="43.106547662409376" lon="10.577875255034414"><ele>84.66666666666667</ele><time>2026-03-22T08:44:08Z</time></trkpt><trkpt lat="43.106504634969184" lon="10.577987831286482"><ele>85.0</ele><time>2026-03-22T08:44:10Z</time></trkpt><trkpt lat="43.10650077201268" lon="10.578087515557808"><ele>85.33333333333334</ele><time>2026-03-22T08:44:13Z</time></trkpt><trkpt lat="43.10651441740949" lon="10.578213965483389"><ele>85.66666666666667</ele><time>2026-03-22T08:44:15Z</time></trkpt><trkpt lat="43.10656623112913" lon="10.578298652262601"><ele>86.0</ele><time>2026-03-22T08:44:17Z</time></trkpt><trkpt lat="43.10658323164227" lon="10.57838870474289"><ele>86.0</ele><time>2026-03-22T08:44:18Z</time></trkpt><trkpt lat="43.10661439015963" lon="10.578473358353905"><ele>86.0</ele><time>2026-03-22T08:44:19Z</time></trkpt><trkpt lat="43.106606410495495" lon="10.578649723759927"><ele>86.0</ele><time>2026-03-22T08:44:21Z</time></trkpt><trkpt lat="43.106592924732894" lon="10.578747908617848"><ele>86.0</ele><time>2026-03-22T08:44:22Z</time></trkpt><trkpt lat="43.10660746772328" lon="10.578845403909568"><ele>86.0</ele><time>2026-03-22T08:44:23Z</time></trkpt><trkpt lat="43.10660171719202" lon="10.578944654040313"><ele>86.0</ele><time>2026-03-22T08:44:25Z</time></trkpt><trkpt lat="43.10660758855895" lon="10.57909328776688"><ele>86.0</ele><time>2026-03-22T08:44:28Z</time></trkpt><trkpt lat="43.10660742091689" lon="10.579201136539604"><ele>86.0</ele><time>2026-03-22T08:44:30Z</time></trkpt><trkpt lat="43.10659554314379" lon="10.579321258651753"><ele>86.0</ele><time>2026-03-22T08:44:32Z</time></trkpt><trkpt lat="43.10660878920851" lon="10.57947128183643"><ele>86.0</ele><time>2026-03-22T08:44:34Z</time></trkpt><trkpt lat="43.106617794183414" lon="10.579575637814266"><ele>86.0</ele><time>2026-03-22T08:44:36Z</time></trkpt><trkpt lat="43.10665250965225" lon="10.579699408723405"><ele>86.19999999999999</ele><time>2026-03-22T08:44:38Z</time></trkpt><trkpt lat="43.10667237021804" lon="10.579791078376049"><ele>86.39999999999999</ele><time>2026-03-22T08:44:39Z</time></trkpt><trkpt lat="43.106663439441895" lon="10.579939720118157"><ele>86.6</ele><time>2026-03-22T08:44:41Z</time></trkpt><trkpt lat="43.106651251201775" lon="10.580077690992182"><ele>86.8</ele><time>2026-03-22T08:44:43Z</time></trkpt><trkpt lat="43.10660875745726" lon="10.580159474236792"><ele>87.0</ele><time>2026-03-22T08:44:44Z</time></trkpt><trkpt lat="43.10654926219149" lon="10.580297591752888"><ele>87.33333333333333</ele><time>2026-03-22T08:44:46Z</time></trkpt><trkpt lat="43.10653136406435" lon="10.580386969940465"><ele>87.66666666666667</ele><time>2026-03-22T08:44:47Z</time></trkpt><trkpt lat="43.10650352649369" lon="10.580468730399264"><ele>88.0</ele><time>2026-03-22T08:44:48Z</time></trkpt><trkpt lat="43.10647342329555" lon="10.580550399004018"><ele>88.33333333333334</ele><time>2026-03-22T08:44:49Z</time></trkpt><trkpt lat="43.106417152441686" lon="10.580693244162708"><ele>88.66666666666667</ele><time>2026-03-22T08:44:51Z</time></trkpt><trkpt lat="43.10639223615213" lon="10.580788564651982"><ele>89.0</ele><time>2026-03-22T08:44:52Z</time></trkpt><trkpt lat="43.10636511923211" lon="10.580951084183575"><ele>89.0</ele><time>2026-03-22T08:44:54Z</time></trkpt><trkpt lat="43.106354653687085" lon="10.581075116843357"><ele>89.0</ele><time>2026-03-22T08:44:56Z</time></trkpt><trkpt lat="43.106341882206" lon="10.58119588384373"><ele>89.0</ele><time>2026-03-22T08:44:58Z</time></trkpt><trkpt lat="43.106296183912505" lon="10.58132571954346"><ele>89.0</ele><time>2026-03-22T08:45:00Z</time></trkpt><trkpt lat="43.1062391788506" lon="10.581462887029025"><ele>89.0</ele><time>2026-03-22T08:45:02Z</time></trkpt><trkpt lat="43.106209784779466" lon="10.58159020399878"><ele>89.66666666666667</ele><time>2026-03-22T08:45:04Z</time></trkpt><trkpt lat="43.1061850901456" lon="10.581703679843173"><ele>90.33333333333334</ele><time>2026-03-22T08:45:06Z</time></trkpt><trkpt lat="43.106162625730825" lon="10.581859751227608"><ele>91.0</ele><time>2026-03-22T08:45:08Z</time></trkpt><trkpt lat="43.10614092802722" lon="10.581960082528896"><ele>91.66666666666667</ele><time>2026-03-22T08:45:10Z</time></trkpt><trkpt lat="43.10610666170186" lon="10.582041063348907"><ele>92.33333333333333</ele><time>2026-03-22T08:45:12Z</time></trkpt><trkpt lat="43.106030272096355" lon="10.582110331217242"><ele>93.0</ele><time>2026-03-22T08:45:13.999Z</time></trkpt><trkpt lat="43.10593938221056" lon="10.582174543511227"><ele>93.60000000000001</ele><time>2026-03-22T08:45:16Z</time></trkpt><trkpt lat="43.105878878487864" lon="10.582235736656607"><ele>94.2</ele><time>2026-03-22T08:45:18Z</time></trkpt><trkpt lat="43.10583213502537" lon="10.58235481210961"><ele>94.8</ele><time>2026-03-22T08:45:20Z</time></trkpt><trkpt lat="43.10575052166206" lon="10.582422216406664"><ele>95.4</ele><time>2026-03-22T08:45:22Z</time></trkpt><trkpt lat="43.10567168033443" lon="10.582503539235242"><ele>96.0</ele><time>2026-03-22T08:45:24Z</time></trkpt><trkpt lat="43.10561016598467" lon="10.582596246978584"><ele>96.19999999999999</ele><time>2026-03-22T08:45:26Z</time></trkpt><trkpt lat="43.10554971909787" lon="10.58264971214714"><ele>96.39999999999999</ele><time>2026-03-22T08:45:28Z</time></trkpt><trkpt lat="43.105512087792384" lon="10.582772739299585"><ele>96.6</ele><time>2026-03-22T08:45:30Z</time></trkpt><trkpt lat="43.105497874782465" lon="10.582858953533558"><ele>96.8</ele><time>2026-03-22T08:45:31Z</time></trkpt><trkpt lat="43.105495063540666" lon="10.583008729001039"><ele>97.0</ele><time>2026-03-22T08:45:33Z</time></trkpt><trkpt lat="43.1054780795329" lon="10.583152996863888"><ele>97.0</ele><time>2026-03-22T08:45:35Z</time></trkpt><trkpt lat="43.105438848457965" lon="10.58324085552833"><ele>97.0</ele><time>2026-03-22T08:45:37Z</time></trkpt><trkpt lat="43.10532898650151" lon="10.583384814528056"><ele>97.0</ele><time>2026-03-22T08:45:39Z</time></trkpt><trkpt lat="43.10527370776295" lon="10.583468875283511"><ele>97.0</ele><time>2026-03-22T08:45:40Z</time></trkpt><trkpt lat="43.105208057679505" lon="10.583516644485924"><ele>97.0</ele><time>2026-03-22T08:45:41Z</time></trkpt><trkpt lat="43.10514445070801" lon="10.583548302419496"><ele>98.0</ele><time>2026-03-22T08:45:42Z</time></trkpt><trkpt lat="43.10504193478862" lon="10.583685823397458"><ele>99.0</ele><time>2026-03-22T08:45:44Z</time></trkpt><trkpt lat="43.10497033837601" lon="10.583750688018576"><ele>100.0</ele><time>2026-03-22T08:45:45Z</time></trkpt><trkpt lat="43.104888884564005" lon="10.583812321428365"><ele>101.0</ele><time>2026-03-22T08:45:46Z</time></trkpt><trkpt lat="43.104809062735775" lon="10.583887102643507"><ele>102.0</ele><time>2026-03-22T08:45:47Z</time></trkpt><trkpt lat="43.104737662258174" lon="10.583947680826842"><ele>102.0</ele><time>2026-03-22T08:45:48Z</time></trkpt><trkpt lat="43.10468199044407" lon="10.58400072246188"><ele>102.0</ele><time>2026-03-22T08:45:49Z</time></trkpt><trkpt lat="43.10463520816891" lon="10.584066280875318"><ele>102.0</ele><time>2026-03-22T08:45:50Z</time></trkpt><trkpt lat="43.10454661165244" lon="10.584148216792872"><ele>102.0</ele><time>2026-03-22T08:45:52Z</time></trkpt><trkpt lat="43.104443679474905" lon="10.584272593057257"><ele>102.0</ele><time>2026-03-22T08:45:54Z</time></trkpt><trkpt lat="43.10438434887638" lon="10.584356091331264"><ele>102.0</ele><time>2026-03-22T08:45:55Z</time></trkpt><trkpt lat="43.10428521994277" lon="10.584455315991573"><ele>102.0</ele><time>2026-03-22T08:45:57Z</time></trkpt><trkpt lat="43.104232056732634" lon="10.58451423529994"><ele>102.0</ele><time>2026-03-22T08:45:58Z</time></trkpt><trkpt lat="43.10415082479885" lon="10.584646224738947"><ele>102.0</ele><time>2026-03-22T08:46:00Z</time></trkpt><trkpt lat="43.10411993921303" lon="10.58473485637876"><ele>102.0</ele><time>2026-03-22T08:46:01Z</time></trkpt><trkpt lat="43.10408100983804" lon="10.584803385414453"><ele>102.66666666666667</ele><time>2026-03-22T08:46:02Z</time></trkpt><trkpt lat="43.10403665246163" lon="10.584881718921157"><ele>103.33333333333334</ele><time>2026-03-22T08:46:03Z</time></trkpt><trkpt lat="43.10398219349481" lon="10.584974839817107"><ele>104.0</ele><time>2026-03-22T08:46:04Z</time></trkpt><trkpt lat="43.1039346033941" lon="10.585069481808388"><ele>104.66666666666667</ele><time>2026-03-22T08:46:05Z</time></trkpt><trkpt lat="43.10389471227709" lon="10.58513992842372"><ele>105.33333333333334</ele><time>2026-03-22T08:46:06Z</time></trkpt><trkpt lat="43.103869407423446" lon="10.585241202897222"><ele>106.0</ele><time>2026-03-22T08:46:07Z</time></trkpt><trkpt lat="43.103824464190794" lon="10.58542077268514"><ele>106.00000000000001</ele><time>2026-03-22T08:46:09Z</time></trkpt><trkpt lat="43.10380330028702" lon="10.585515719369084"><ele>106.0</ele><time>2026-03-22T08:46:10Z</time></trkpt><trkpt lat="43.103776750843856" lon="10.58560886739407"><ele>106.0</ele><time>2026-03-22T08:46:11Z</time></trkpt><trkpt lat="43.10375161835639" lon="10.585692990349385"><ele>106.0</ele><time>2026-03-22T08:46:12Z</time></trkpt><trkpt lat="43.103678178558425" lon="10.585841053840708"><ele>106.00000000000001</ele><time>2026-03-22T08:46:14Z</time></trkpt><trkpt lat="43.10362153088175" lon="10.585887782167243"><ele>106.0</ele><time>2026-03-22T08:46:15Z</time></trkpt><trkpt lat="43.10352822522103" lon="10.585960483033086"><ele>106.00000000000001</ele><time>2026-03-22T08:46:17Z</time></trkpt><trkpt lat="43.103458448637376" lon="10.585975142485372"><ele>106.0</ele><time>2026-03-22T08:46:18Z</time></trkpt><trkpt lat="43.103375025952516" lon="10.586021476898134"><ele>106.0</ele><time>2026-03-22T08:46:20Z</time></trkpt><trkpt lat="43.103306090287425" lon="10.585956502679199"><ele>106.0</ele><time>2026-03-22T08:46:24Z</time></trkpt><trkpt lat="43.10331761093399" lon="10.585834109609678"><ele>106.00000000000001</ele><time>2026-03-22T08:46:26Z</time></trkpt><trkpt lat="43.103393183525746" lon="10.585720719159902"><ele>106.0</ele><time>2026-03-22T08:46:28Z</time></trkpt><trkpt lat="43.10341890403281" lon="10.585590056862769"><ele>106.00000000000001</ele><time>2026-03-22T08:46:31Z</time></trkpt><trkpt lat="43.1034172486508" lon="10.58546387292213"><ele>106.0</ele><time>2026-03-22T08:46:33Z</time></trkpt><trkpt lat="43.10340424774234" lon="10.585372196824485"><ele>106.0</ele><time>2026-03-22T08:46:34Z</time></trkpt><trkpt lat="43.10339660681257" lon="10.585263362543234"><ele>106.0</ele><time>2026-03-22T08:46:35Z</time></trkpt><trkpt lat="43.103381958911235" lon="10.585115216885791"><ele>106.00000000000001</ele><time>2026-03-22T08:46:37Z</time></trkpt><trkpt lat="43.1033211103282" lon="10.585017666958342"><ele>106.0</ele><time>2026-03-22T08:46:39Z</time></trkpt><trkpt lat="43.103229012130804" lon="10.585008272523272"><ele>108.25</ele><time>2026-03-22T08:46:41Z</time></trkpt><trkpt lat="43.10312518770022" lon="10.585148165461758"><ele>110.5</ele><time>2026-03-22T08:46:43Z</time></trkpt><trkpt lat="43.10307390236993" lon="10.585259664891012"><ele>112.75</ele><time>2026-03-22T08:46:44Z</time></trkpt><trkpt lat="43.10300236373048" lon="10.585377964348448"><ele>115.0</ele><time>2026-03-22T08:46:45Z</time></trkpt><trkpt lat="43.10292148693152" lon="10.585515252586875"><ele>115.0</ele><time>2026-03-22T08:46:46Z</time></trkpt><trkpt lat="43.1028420348756" lon="10.585653786341458"><ele>115.0</ele><time>2026-03-22T08:46:47Z</time></trkpt><trkpt lat="43.1027669153251" lon="10.585792025529194"><ele>115.0</ele><time>2026-03-22T08:46:48Z</time></trkpt><trkpt lat="43.10269397203739" lon="10.585916725161555"><ele>115.0</ele><time>2026-03-22T08:46:49Z</time></trkpt><trkpt lat="43.10262511306529" lon="10.586039271250963"><ele>115.0</ele><time>2026-03-22T08:46:50Z</time></trkpt><trkpt lat="43.10256271610971" lon="10.586162696384378"><ele>115.0</ele><time>2026-03-22T08:46:51Z</time></trkpt><trkpt lat="43.10250304532666" lon="10.586280134491771"><ele>115.0</ele><time>2026-03-22T08:46:52Z</time></trkpt><trkpt lat="43.10244085679601" lon="10.586401218464937"><ele>115.0</ele><time>2026-03-22T08:46:53Z</time></trkpt><trkpt lat="43.102376017476146" lon="10.586521222996437"><ele>115.0</ele><time>2026-03-22T08:46:54Z</time></trkpt><trkpt lat="43.1023241379671" lon="10.586631415645847"><ele>115.33333333333334</ele><time>2026-03-22T08:46:55Z</time></trkpt><trkpt lat="43.10228082946361" lon="10.586744232300727"><ele>115.66666666666667</ele><time>2026-03-22T08:46:56Z</time></trkpt><trkpt lat="43.10224941470231" lon="10.586861507614476"><ele>116.0</ele><time>2026-03-22T08:46:57Z</time></trkpt><trkpt lat="43.10223391727534" lon="10.586965365962739"><ele>116.33333333333334</ele><time>2026-03-22T08:46:58Z</time></trkpt><trkpt lat="43.10222371030817" lon="10.587053347138463"><ele>116.66666666666667</ele><time>2026-03-22T08:46:58.999Z</time></trkpt><trkpt lat="43.102184997210685" lon="10.587171912315656"><ele>117.0</ele><time>2026-03-22T08:47:00.999Z</time></trkpt><trkpt lat="43.10210066651457" lon="10.587238211878933"><ele>117.0</ele><time>2026-03-22T08:47:02.999Z</time></trkpt><trkpt lat="43.10203602067058" lon="10.587241094101824"><ele>117.0</ele><time>2026-03-22T08:47:05.999Z</time></trkpt><trkpt lat="43.10195533270976" lon="10.587204724120454"><ele>117.0</ele><time>2026-03-22T08:47:07.999Z</time></trkpt><trkpt lat="43.10183396954921" lon="10.587152311017139"><ele>117.0</ele><time>2026-03-22T08:47:10.018Z</time></trkpt><trkpt lat="43.10176664330342" lon="10.587121836388222"><ele>117.0</ele><time>2026-03-22T08:47:10.999Z</time></trkpt><trkpt lat="43.1016922659188" lon="10.587062021546256"><ele>117.0</ele><time>2026-03-22T08:47:11.999Z</time></trkpt><trkpt lat="43.101590207599436" lon="10.586977279606643"><ele>121.6</ele><time>2026-03-22T08:47:12.999Z</time></trkpt><trkpt lat="43.101547088092445" lon="10.586907219509193"><ele>126.19999999999999</ele><time>2026-03-22T08:47:13.999Z</time></trkpt><trkpt lat="43.101505461228896" lon="10.586812879228306"><ele>130.8</ele><time>2026-03-22T08:47:14.999Z</time></trkpt><trkpt lat="43.10146943999027" lon="10.586710320282773"><ele>135.4</ele><time>2026-03-22T08:47:15.999Z</time></trkpt><trkpt lat="43.10144236212835" lon="10.586616283862528"><ele>140.0</ele><time>2026-03-22T08:47:16.999Z</time></trkpt><trkpt lat="43.101490640904316" lon="10.586426791056686"><ele>140.0</ele><time>2026-03-22T08:47:18.999Z</time></trkpt><trkpt lat="43.1015480347375" lon="10.586386402483134"><ele>140.0</ele><time>2026-03-22T08:47:19.999Z</time></trkpt><trkpt lat="43.10161406428566" lon="10.586305600946417"><ele>140.0</ele><time>2026-03-22T08:47:20.999Z</time></trkpt><trkpt lat="43.1016676115158" lon="10.586246575464077"><ele>140.0</ele><time>2026-03-22T08:47:22Z</time></trkpt><trkpt lat="43.10172681675874" lon="10.586183727047421"><ele>140.0</ele><time>2026-03-22T08:47:23Z</time></trkpt><trkpt lat="43.101782680873185" lon="10.586123487939759"><ele>140.0</ele><time>2026-03-22T08:47:24Z</time></trkpt><trkpt lat="43.10184287261463" lon="10.586068602928094"><ele>140.0</ele><time>2026-03-22T08:47:25Z</time></trkpt><trkpt lat="43.10196200904915" lon="10.585996394532115"><ele>137.66666666666666</ele><time>2026-03-22T08:47:27Z</time></trkpt><trkpt lat="43.10208011383228" lon="10.585974840460597"><ele>135.33333333333331</ele><time>2026-03-22T08:47:29Z</time></trkpt><trkpt lat="43.10218788099744" lon="10.585957112782037"><ele>133.0</ele><time>2026-03-22T08:47:31Z</time></trkpt><trkpt lat="43.10225055897164" lon="10.585914373103932"><ele>130.66666666666666</ele><time>2026-03-22T08:47:32Z</time></trkpt><trkpt lat="43.102306405417075" lon="10.585851191249336"><ele>128.33333333333334</ele><time>2026-03-22T08:47:33Z</time></trkpt><trkpt lat="43.1023618775568" lon="10.58578491665429"><ele>126.0</ele><time>2026-03-22T08:47:34Z</time></trkpt><trkpt lat="43.102412196913335" lon="10.585709362155832"><ele>125.14285714285714</ele><time>2026-03-22T08:47:35Z</time></trkpt><trkpt lat="43.10246568708398" lon="10.585631487931243"><ele>124.28571428571428</ele><time>2026-03-22T08:47:36Z</time></trkpt><trkpt lat="43.1025208115218" lon="10.5855673907592"><ele>123.42857142857143</ele><time>2026-03-22T08:47:37Z</time></trkpt><trkpt lat="43.10257839430173" lon="10.585505194305927"><ele>122.57142857142857</ele><time>2026-03-22T08:47:38Z</time></trkpt><trkpt lat="43.10262833717484" lon="10.585450640982835"><ele>121.71428571428571</ele><time>2026-03-22T08:47:39Z</time></trkpt><trkpt lat="43.10269733819999" lon="10.585388849493473"><ele>120.85714285714286</ele><time>2026-03-22T08:47:41Z</time></trkpt><trkpt lat="43.1027275406904" lon="10.58531014416367"><ele>120.0</ele><time>2026-03-22T08:48:01Z</time></trkpt><trkpt lat="43.10262830453404" lon="10.58525427703856"><ele>120.0</ele><time>2026-03-22T08:48:04Z</time></trkpt><trkpt lat="43.1025636140361" lon="10.58523088477606"><ele>120.0</ele><time>2026-03-22T08:48:05Z</time></trkpt><trkpt lat="43.102447555281394" lon="10.585181619604352"><ele>120.0</ele><time>2026-03-22T08:48:06Z</time></trkpt><trkpt lat="43.10237127620497" lon="10.585131317652896"><ele>120.0</ele><time>2026-03-22T08:48:07Z</time></trkpt><trkpt lat="43.1023064052796" lon="10.585070657270942"><ele>120.0</ele><time>2026-03-22T08:48:08Z</time></trkpt><trkpt lat="43.102230955977674" lon="10.585025447853482"><ele>120.0</ele><time>2026-03-22T08:48:09Z</time></trkpt><trkpt lat="43.10216286840684" lon="10.584970874747436"><ele>122.16666666666667</ele><time>2026-03-22T08:48:10Z</time></trkpt><trkpt lat="43.10208949018941" lon="10.584925098340138"><ele>124.33333333333334</ele><time>2026-03-22T08:48:11Z</time></trkpt><trkpt lat="43.102010449704736" lon="10.584888087821593"><ele>126.5</ele><time>2026-03-22T08:48:12Z</time></trkpt><trkpt lat="43.10193360721685" lon="10.584850188488812"><ele>128.66666666666669</ele><time>2026-03-22T08:48:13Z</time></trkpt><trkpt lat="43.10187573724594" lon="10.584808957457703"><ele>130.83333333333334</ele><time>2026-03-22T08:48:14Z</time></trkpt><trkpt lat="43.101810598516735" lon="10.584754081818888"><ele>133.0</ele><time>2026-03-22T08:48:15Z</time></trkpt><trkpt lat="43.10175915511617" lon="10.58468471507034"><ele>133.0</ele><time>2026-03-22T08:48:16Z</time></trkpt><trkpt lat="43.101711611731815" lon="10.584613342879322"><ele>133.0</ele><time>2026-03-22T08:48:17Z</time></trkpt><trkpt lat="43.10158832085116" lon="10.584552595400151"><ele>133.0</ele><time>2026-03-22T08:48:19Z</time></trkpt><trkpt lat="43.101505594109156" lon="10.584545001652883"><ele>133.0</ele><time>2026-03-22T08:48:20Z</time></trkpt><trkpt lat="43.10141829991254" lon="10.584556861831791"><ele>133.0</ele><time>2026-03-22T08:48:21Z</time></trkpt><trkpt lat="43.10133803063441" lon="10.58457902651673"><ele>135.33333333333334</ele><time>2026-03-22T08:48:22Z</time></trkpt><trkpt lat="43.10126269829735" lon="10.584596368407334"><ele>137.66666666666669</ele><time>2026-03-22T08:48:23Z</time></trkpt><trkpt lat="43.101194545742054" lon="10.584603137703583"><ele>140.0</ele><time>2026-03-22T08:48:24Z</time></trkpt><trkpt lat="43.10110547235786" lon="10.584611086175853"><ele>142.33333333333334</ele><time>2026-03-22T08:48:26Z</time></trkpt><trkpt lat="43.10106586607212" lon="10.584525956789008"><ele>144.66666666666666</ele><time>2026-03-22T08:48:32Z</time></trkpt><trkpt lat="43.10111430498028" lon="10.584372039351281"><ele>147.0</ele><time>2026-03-22T08:48:34Z</time></trkpt><trkpt lat="43.10113032192204" lon="10.584249948450507"><ele>147.66666666666666</ele><time>2026-03-22T08:48:35Z</time></trkpt><trkpt lat="43.101148092862395" lon="10.58412099619317"><ele>148.33333333333334</ele><time>2026-03-22T08:48:36Z</time></trkpt><trkpt lat="43.10116984532951" lon="10.584003000028297"><ele>149.0</ele><time>2026-03-22T08:48:37Z</time></trkpt><trkpt lat="43.1011998452352" lon="10.58386710496599"><ele>149.66666666666669</ele><time>2026-03-22T08:48:38Z</time></trkpt><trkpt lat="43.10123113180056" lon="10.58376237595798"><ele>150.33333333333334</ele><time>2026-03-22T08:48:39Z</time></trkpt><trkpt lat="43.10125817045192" lon="10.583675082499111"><ele>151.0</ele><time>2026-03-22T08:48:40Z</time></trkpt><trkpt lat="43.10129092882491" lon="10.583560825007494"><ele>151.0</ele><time>2026-03-22T08:48:42Z</time></trkpt><trkpt lat="43.10122750254355" lon="10.583515417880363"><ele>151.0</ele><time>2026-03-22T08:48:46Z</time></trkpt><trkpt lat="43.101145256434904" lon="10.5835781579385"><ele>151.0</ele><time>2026-03-22T08:48:47Z</time></trkpt><trkpt lat="43.101058027601795" lon="10.58363246643523"><ele>151.0</ele><time>2026-03-22T08:48:48Z</time></trkpt><trkpt lat="43.10094109836991" lon="10.583691535299213"><ele>151.0</ele><time>2026-03-22T08:48:49Z</time></trkpt><trkpt lat="43.100806381977804" lon="10.583771581832703"><ele>152.75</ele><time>2026-03-22T08:48:50Z</time></trkpt><trkpt lat="43.100669035907934" lon="10.58385745892067"><ele>154.5</ele><time>2026-03-22T08:48:51Z</time></trkpt><trkpt lat="43.10052654961964" lon="10.583929095107099"><ele>156.25</ele><time>2026-03-22T08:48:52Z</time></trkpt><trkpt lat="43.10040913582885" lon="10.58399401433457"><ele>158.0</ele><time>2026-03-22T08:48:53Z</time></trkpt><trkpt lat="43.10029880805165" lon="10.584061764395612"><ele>158.0</ele><time>2026-03-22T08:48:54Z</time></trkpt><trkpt lat="43.100184877101434" lon="10.58412618727667"><ele>158.0</ele><time>2026-03-22T08:48:55Z</time></trkpt><trkpt lat="43.100090567446244" lon="10.584182223107419"><ele>158.0</ele><time>2026-03-22T08:48:56Z</time></trkpt><trkpt lat="43.10000433841684" lon="10.584223292260262"><ele>158.0</ele><time>2026-03-22T08:48:57Z</time></trkpt><trkpt lat="43.09994172961298" lon="10.58425983266245"><ele>158.0</ele><time>2026-03-22T08:48:58Z</time></trkpt><trkpt lat="43.09984810507244" lon="10.58438071723238"><ele>157.0</ele><time>2026-03-22T08:48:59Z</time></trkpt><trkpt lat="43.0997966631747" lon="10.584530990648938"><ele>156.0</ele><time>2026-03-22T08:49:00Z</time></trkpt><trkpt lat="43.09976607395142" lon="10.58470477782181"><ele>155.0</ele><time>2026-03-22T08:49:01Z</time></trkpt><trkpt lat="43.09973533350263" lon="10.584879843600339"><ele>154.0</ele><time>2026-03-22T08:49:02Z</time></trkpt><trkpt lat="43.099701840408336" lon="10.58505313770208"><ele>154.0</ele><time>2026-03-22T08:49:03Z</time></trkpt><trkpt lat="43.09966945203864" lon="10.585219553268512"><ele>154.0</ele><time>2026-03-22T08:49:04Z</time></trkpt><trkpt lat="43.09962810974404" lon="10.585393607982029"><ele>154.0</ele><time>2026-03-22T08:49:05Z</time></trkpt><trkpt lat="43.09959126247943" lon="10.585530840271561"><ele>154.0</ele><time>2026-03-22T08:49:06Z</time></trkpt><trkpt lat="43.09954138203586" lon="10.585662979187648"><ele>155.6</ele><time>2026-03-22T08:49:07Z</time></trkpt><trkpt lat="43.09948673326682" lon="10.585790880539031"><ele>157.2</ele><time>2026-03-22T08:49:08Z</time></trkpt><trkpt lat="43.09943664864686" lon="10.585931554141602"><ele>158.79999999999998</ele><time>2026-03-22T08:49:09Z</time></trkpt><trkpt lat="43.09938572941964" lon="10.586026595989683"><ele>160.4</ele><time>2026-03-22T08:49:10Z</time></trkpt><trkpt lat="43.09934066402166" lon="10.586151776580346"><ele>162.0</ele><time>2026-03-22T08:49:11Z</time></trkpt><trkpt lat="43.09929425572654" lon="10.58628312706426"><ele>161.2</ele><time>2026-03-22T08:49:12Z</time></trkpt><trkpt lat="43.09925228233562" lon="10.586433515124888"><ele>160.39999999999998</ele><time>2026-03-22T08:49:13Z</time></trkpt><trkpt lat="43.099213056069686" lon="10.58658697545375"><ele>159.60000000000002</ele><time>2026-03-22T08:49:14Z</time></trkpt><trkpt lat="43.099173962566304" lon="10.586726073761694"><ele>158.8</ele><time>2026-03-22T08:49:15Z</time></trkpt><trkpt lat="43.099142412397285" lon="10.586852687566427"><ele>158.0</ele><time>2026-03-22T08:49:16Z</time></trkpt><trkpt lat="43.09905886623586" lon="10.58696636556717"><ele>159.4</ele><time>2026-03-22T08:49:17Z</time></trkpt><trkpt lat="43.09899851503648" lon="10.587050248595267"><ele>160.8</ele><time>2026-03-22T08:49:18Z</time></trkpt><trkpt lat="43.09886607554169" lon="10.587148735834036"><ele>162.2</ele><time>2026-03-22T08:49:20Z</time></trkpt><trkpt lat="43.09875926001787" lon="10.587161081928395"><ele>163.6</ele><time>2026-03-22T08:49:21Z</time></trkpt><trkpt lat="43.09868465453953" lon="10.587163565651231"><ele>165.0</ele><time>2026-03-22T08:49:22Z</time></trkpt><trkpt lat="43.098616956259505" lon="10.587212482602679"><ele>165.0</ele><time>2026-03-22T08:49:23Z</time></trkpt><trkpt lat="43.09852538681197" lon="10.587282784650979"><ele>165.0</ele><time>2026-03-22T08:49:24Z</time></trkpt><trkpt lat="43.09844234484075" lon="10.58740305817342"><ele>165.0</ele><time>2026-03-22T08:49:25Z</time></trkpt><trkpt lat="43.098382246157314" lon="10.587523408087634"><ele>165.0</ele><time>2026-03-22T08:49:26Z</time></trkpt><trkpt lat="43.09830734241062" lon="10.58760185805698"><ele>165.0</ele><time>2026-03-22T08:49:27Z</time></trkpt><trkpt lat="43.098245583855416" lon="10.58770478901783"><ele>163.6</ele><time>2026-03-22T08:49:28Z</time></trkpt><trkpt lat="43.09817523560416" lon="10.587802588003182"><ele>162.2</ele><time>2026-03-22T08:49:29Z</time></trkpt><trkpt lat="43.09809746647947" lon="10.587902258390343"><ele>160.8</ele><time>2026-03-22T08:49:30Z</time></trkpt><trkpt lat="43.09801948146006" lon="10.587997147735155"><ele>159.4</ele><time>2026-03-22T08:49:31Z</time></trkpt><trkpt lat="43.09794601960984" lon="10.588086073741886"><ele>158.0</ele><time>2026-03-22T08:49:32Z</time></trkpt><trkpt lat="43.097887659596005" lon="10.58815895021334"><ele>158.0</ele><time>2026-03-22T08:49:33Z</time></trkpt><trkpt lat="43.09783997362783" lon="10.588223444859603"><ele>158.0</ele><time>2026-03-22T08:49:34Z</time></trkpt><trkpt lat="43.0977883360152" lon="10.58831139996429"><ele>158.0</ele><time>2026-03-22T08:49:35Z</time></trkpt><trkpt lat="43.097583783674665" lon="10.588244965214642"><ele>158.0</ele><time>2026-03-22T08:49:36Z</time></trkpt><trkpt lat="43.09747033531832" lon="10.588269762037148"><ele>159.25</ele><time>2026-03-22T08:49:37Z</time></trkpt><trkpt lat="43.09735353775316" lon="10.588282465656608"><ele>160.5</ele><time>2026-03-22T08:49:38Z</time></trkpt><trkpt lat="43.09723259565648" lon="10.58829886310548"><ele>161.75</ele><time>2026-03-22T08:49:39Z</time></trkpt><trkpt lat="43.09710412565639" lon="10.58831120959506"><ele>163.0</ele><time>2026-03-22T08:49:40Z</time></trkpt><trkpt lat="43.09696984842052" lon="10.588321642947633"><ele>163.0</ele><time>2026-03-22T08:49:41Z</time></trkpt><trkpt lat="43.096839952920455" lon="10.58832809833578"><ele>163.0</ele><time>2026-03-22T08:49:42Z</time></trkpt><trkpt lat="43.096719333238596" lon="10.588326883916688"><ele>163.0</ele><time>2026-03-22T08:49:43Z</time></trkpt><trkpt lat="43.096611274097064" lon="10.588322101655855"><ele>163.0</ele><time>2026-03-22T08:49:44Z</time></trkpt><trkpt lat="43.09651377739079" lon="10.588322932829275"><ele>162.4</ele><time>2026-03-22T08:49:45Z</time></trkpt><trkpt lat="43.09642026049332" lon="10.588334230609988"><ele>161.8</ele><time>2026-03-22T08:49:46Z</time></trkpt><trkpt lat="43.09633260057638" lon="10.588352557128973"><ele>161.2</ele><time>2026-03-22T08:49:47Z</time></trkpt><trkpt lat="43.09624885505618" lon="10.588422471986767"><ele>160.6</ele><time>2026-03-22T08:49:48Z</time></trkpt><trkpt lat="43.09619369381553" lon="10.588560798045869"><ele>160.0</ele><time>2026-03-22T08:49:49Z</time></trkpt><trkpt lat="43.09612474891279" lon="10.58870411086074"><ele>160.0</ele><time>2026-03-22T08:49:50Z</time></trkpt><trkpt lat="43.09604826780104" lon="10.588831872548358"><ele>160.0</ele><time>2026-03-22T08:49:51Z</time></trkpt><trkpt lat="43.09596416970433" lon="10.588941328158114"><ele>160.0</ele><time>2026-03-22T08:49:52Z</time></trkpt><trkpt lat="43.09587402363055" lon="10.58905339987917"><ele>160.0</ele><time>2026-03-22T08:49:53Z</time></trkpt><trkpt lat="43.095773609756" lon="10.589119545554114"><ele>161.16666666666669</ele><time>2026-03-22T08:49:54Z</time></trkpt><trkpt lat="43.0956844519342" lon="10.589158071275959"><ele>162.33333333333334</ele><time>2026-03-22T08:49:55Z</time></trkpt><trkpt lat="43.09560112463452" lon="10.589144137064809"><ele>163.5</ele><time>2026-03-22T08:49:56Z</time></trkpt><trkpt lat="43.09552735039181" lon="10.5891067032707"><ele>164.66666666666666</ele><time>2026-03-22T08:49:57Z</time></trkpt><trkpt lat="43.095461460358486" lon="10.589033951468483"><ele>165.83333333333331</ele><time>2026-03-22T08:49:58Z</time></trkpt><trkpt lat="43.09541090662587" lon="10.588926875529276"><ele>167.0</ele><time>2026-03-22T08:49:59Z</time></trkpt><trkpt lat="43.095385937649965" lon="10.588800950447766"><ele>166.5</ele><time>2026-03-22T08:50:00Z</time></trkpt><trkpt lat="43.095373753282715" lon="10.58867161492112"><ele>166.0</ele><time>2026-03-22T08:50:01Z</time></trkpt><trkpt lat="43.09535602625279" lon="10.588519204386174"><ele>165.5</ele><time>2026-03-22T08:50:02Z</time></trkpt><trkpt lat="43.09536074676846" lon="10.588350401284526"><ele>165.0</ele><time>2026-03-22T08:50:03Z</time></trkpt><trkpt lat="43.09535501386847" lon="10.588180093490134"><ele>165.0</ele><time>2026-03-22T08:50:04Z</time></trkpt><trkpt lat="43.09536438867709" lon="10.58800711649829"><ele>165.0</ele><time>2026-03-22T08:50:05Z</time></trkpt><trkpt lat="43.09536143160242" lon="10.587832716682176"><ele>165.0</ele><time>2026-03-22T08:50:06Z</time></trkpt><trkpt lat="43.095369540836025" lon="10.587665146647723"><ele>165.0</ele><time>2026-03-22T08:50:07Z</time></trkpt><trkpt lat="43.09539763623975" lon="10.587504281449506"><ele>165.6</ele><time>2026-03-22T08:50:08Z</time></trkpt><trkpt lat="43.09539782129381" lon="10.587351610030883"><ele>166.2</ele><time>2026-03-22T08:50:09Z</time></trkpt><trkpt lat="43.09540474467419" lon="10.587216726648705"><ele>166.8</ele><time>2026-03-22T08:50:10Z</time></trkpt><trkpt lat="43.09538726612301" lon="10.587061133720313"><ele>167.4</ele><time>2026-03-22T08:50:11Z</time></trkpt><trkpt lat="43.095349770072964" lon="10.586899995489373"><ele>168.0</ele><time>2026-03-22T08:50:12Z</time></trkpt><trkpt lat="43.095298013827595" lon="10.586701008933957"><ele>168.0</ele><time>2026-03-22T08:50:13Z</time></trkpt><trkpt lat="43.095246690121826" lon="10.586525361025672"><ele>168.0</ele><time>2026-03-22T08:50:14Z</time></trkpt><trkpt lat="43.09519966541111" lon="10.586350704207446"><ele>168.0</ele><time>2026-03-22T08:50:15Z</time></trkpt><trkpt lat="43.09514340367365" lon="10.586177849657743"><ele>168.0</ele><time>2026-03-22T08:50:16Z</time></trkpt><trkpt lat="43.09510080499545" lon="10.58600859883451"><ele>167.25</ele><time>2026-03-22T08:50:17Z</time></trkpt><trkpt lat="43.09505203031908" lon="10.585839741071128"><ele>166.5</ele><time>2026-03-22T08:50:18Z</time></trkpt><trkpt lat="43.095003883297565" lon="10.585671341281097"><ele>165.75</ele><time>2026-03-22T08:50:19Z</time></trkpt><trkpt lat="43.094958367842096" lon="10.5854977159222"><ele>165.0</ele><time>2026-03-22T08:50:20Z</time></trkpt><trkpt lat="43.09491758563579" lon="10.585324858490882"><ele>165.0</ele><time>2026-03-22T08:50:21Z</time></trkpt><trkpt lat="43.094877951550444" lon="10.58516308546544"><ele>165.0</ele><time>2026-03-22T08:50:22Z</time></trkpt><trkpt lat="43.09484377549519" lon="10.585019106152481"><ele>165.0</ele><time>2026-03-22T08:50:23Z</time></trkpt><trkpt lat="43.09480479981335" lon="10.584885828986096"><ele>165.0</ele><time>2026-03-22T08:50:24Z</time></trkpt><trkpt lat="43.094764656171854" lon="10.584738972639341"><ele>165.0</ele><time>2026-03-22T08:50:25Z</time></trkpt><trkpt lat="43.09472501925018" lon="10.584587039396029"><ele>165.0</ele><time>2026-03-22T08:50:26Z</time></trkpt><trkpt lat="43.09468499287063" lon="10.584428511089149"><ele>165.0</ele><time>2026-03-22T08:50:27Z</time></trkpt><trkpt lat="43.094659536450614" lon="10.584263590565437"><ele>165.0</ele><time>2026-03-22T08:50:28Z</time></trkpt><trkpt lat="43.094647476162734" lon="10.584095573856327"><ele>165.75</ele><time>2026-03-22T08:50:29Z</time></trkpt><trkpt lat="43.09464640509813" lon="10.583922344021069"><ele>166.5</ele><time>2026-03-22T08:50:30Z</time></trkpt><trkpt lat="43.09464440526297" lon="10.583749938452163"><ele>167.25</ele><time>2026-03-22T08:50:31Z</time></trkpt><trkpt lat="43.09465096841771" lon="10.583576382305424"><ele>168.0</ele><time>2026-03-22T08:50:32Z</time></trkpt><trkpt lat="43.094670931517804" lon="10.583406254564304"><ele>168.0</ele><time>2026-03-22T08:50:33Z</time></trkpt><trkpt lat="43.09469372003313" lon="10.583243751737879"><ele>168.0</ele><time>2026-03-22T08:50:34Z</time></trkpt><trkpt lat="43.094713509612454" lon="10.583085174699058"><ele>168.0</ele><time>2026-03-22T08:50:35Z</time></trkpt><trkpt lat="43.09472627804294" lon="10.582916006614603"><ele>168.0</ele><time>2026-03-22T08:50:36Z</time></trkpt><trkpt lat="43.09472764460628" lon="10.582739726023918"><ele>167.75</ele><time>2026-03-22T08:50:37Z</time></trkpt><trkpt lat="43.09471790068197" lon="10.58256532391143"><ele>167.5</ele><time>2026-03-22T08:50:38Z</time></trkpt><trkpt lat="43.09470529932039" lon="10.58238579196063"><ele>167.25</ele><time>2026-03-22T08:50:39Z</time></trkpt><trkpt lat="43.09468411045593" lon="10.582198553543915"><ele>167.0</ele><time>2026-03-22T08:50:40Z</time></trkpt><trkpt lat="43.09465955652853" lon="10.58201069702319"><ele>167.0</ele><time>2026-03-22T08:50:41Z</time></trkpt><trkpt lat="43.09463088734451" lon="10.581828974992826"><ele>167.0</ele><time>2026-03-22T08:50:42Z</time></trkpt><trkpt lat="43.09459639585301" lon="10.581637589197456"><ele>167.0</ele><time>2026-03-22T08:50:43Z</time></trkpt><trkpt lat="43.09455897359801" lon="10.581434159850938"><ele>167.0</ele><time>2026-03-22T08:50:44Z</time></trkpt><trkpt lat="43.09452070969408" lon="10.581232483375652"><ele>165.25</ele><time>2026-03-22T08:50:45Z</time></trkpt><trkpt lat="43.094483786343346" lon="10.58103288689482"><ele>163.5</ele><time>2026-03-22T08:50:46Z</time></trkpt><trkpt lat="43.09444124783066" lon="10.580837747321088"><ele>161.75</ele><time>2026-03-22T08:50:47Z</time></trkpt><trkpt lat="43.094397349756626" lon="10.580645040253277"><ele>160.0</ele><time>2026-03-22T08:50:48Z</time></trkpt><trkpt lat="43.094355469407965" lon="10.580455483648256"><ele>159.33333333333334</ele><time>2026-03-22T08:50:49Z</time></trkpt><trkpt lat="43.09431149811292" lon="10.58026031121241"><ele>158.66666666666666</ele><time>2026-03-22T08:50:50Z</time></trkpt><trkpt lat="43.094262617891225" lon="10.580061733969838"><ele>158.0</ele><time>2026-03-22T08:50:51Z</time></trkpt><trkpt lat="43.09421056948131" lon="10.579859939707541"><ele>158.0</ele><time>2026-03-22T08:50:52Z</time></trkpt><trkpt lat="43.09415502616092" lon="10.579654962320896"><ele>158.0</ele><time>2026-03-22T08:50:53Z</time></trkpt><trkpt lat="43.0941010113044" lon="10.579450644072223"><ele>158.0</ele><time>2026-03-22T08:50:54Z</time></trkpt><trkpt lat="43.09404745140964" lon="10.579248113272179"><ele>158.33333333333331</ele><time>2026-03-22T08:50:55Z</time></trkpt><trkpt lat="43.093994353708645" lon="10.579045021217532"><ele>158.66666666666666</ele><time>2026-03-22T08:50:56Z</time></trkpt><trkpt lat="43.09393956419659" lon="10.578845686361435"><ele>159.0</ele><time>2026-03-22T08:50:57Z</time></trkpt><trkpt lat="43.0938855528629" lon="10.578650890155311"><ele>159.0</ele><time>2026-03-22T08:50:58Z</time></trkpt><trkpt lat="43.09382995216046" lon="10.57845133321218"><ele>159.0</ele><time>2026-03-22T08:50:59Z</time></trkpt><trkpt lat="43.09377535641545" lon="10.578257162275065"><ele>159.0</ele><time>2026-03-22T08:51:00Z</time></trkpt><trkpt lat="43.09372331976216" lon="10.578066752041334"><ele>159.0</ele><time>2026-03-22T08:51:01Z</time></trkpt><trkpt lat="43.093670719705266" lon="10.5778845861797"><ele>159.0</ele><time>2026-03-22T08:51:02Z</time></trkpt><trkpt lat="43.093627035314775" lon="10.577706192917057"><ele>159.0</ele><time>2026-03-22T08:51:03Z</time></trkpt><trkpt lat="43.093598192905176" lon="10.577527557317907"><ele>159.0</ele><time>2026-03-22T08:51:04Z</time></trkpt><trkpt lat="43.09358675401332" lon="10.5773579745543"><ele>159.25</ele><time>2026-03-22T08:51:05Z</time></trkpt><trkpt lat="43.093589776896366" lon="10.57718049074741"><ele>159.5</ele><time>2026-03-22T08:51:06Z</time></trkpt><trkpt lat="43.093607809586715" lon="10.577006821554905"><ele>159.75</ele><time>2026-03-22T08:51:07Z</time></trkpt><trkpt lat="43.09362325369638" lon="10.576841567936786"><ele>160.0</ele><time>2026-03-22T08:51:08Z</time></trkpt><trkpt lat="43.09362573219202" lon="10.57668305008807"><ele>160.0</ele><time>2026-03-22T08:51:09Z</time></trkpt><trkpt lat="43.093592213119315" lon="10.576514493986345"><ele>160.0</ele><time>2026-03-22T08:51:10Z</time></trkpt><trkpt lat="43.093530975198554" lon="10.576366832224883"><ele>160.0</ele><time>2026-03-22T08:51:11Z</time></trkpt><trkpt lat="43.093462195275855" lon="10.5762059724084"><ele>160.0</ele><time>2026-03-22T08:51:12Z</time></trkpt><trkpt lat="43.0933798760149" lon="10.57604621926979"><ele>159.0</ele><time>2026-03-22T08:51:13Z</time></trkpt><trkpt lat="43.093294280073785" lon="10.575891001535027"><ele>158.0</ele><time>2026-03-22T08:51:14Z</time></trkpt><trkpt lat="43.093200391990074" lon="10.575734611574678"><ele>157.0</ele><time>2026-03-22T08:51:15Z</time></trkpt><trkpt lat="43.09309867253988" lon="10.57558157384949"><ele>156.0</ele><time>2026-03-22T08:51:16Z</time></trkpt><trkpt lat="43.093003981334064" lon="10.57542796675535"><ele>154.5</ele><time>2026-03-22T08:51:17Z</time></trkpt><trkpt lat="43.09292107245647" lon="10.575278782199016"><ele>153.0</ele><time>2026-03-22T08:51:18Z</time></trkpt><trkpt lat="43.092832943984945" lon="10.57512618601536"><ele>151.5</ele><time>2026-03-22T08:51:19Z</time></trkpt><trkpt lat="43.09276204756292" lon="10.574955636920475"><ele>150.0</ele><time>2026-03-22T08:51:20Z</time></trkpt><trkpt lat="43.09270030958348" lon="10.57479011304907"><ele>150.0</ele><time>2026-03-22T08:51:21Z</time></trkpt><trkpt lat="43.09263668420493" lon="10.574632890100204"><ele>150.0</ele><time>2026-03-22T08:51:22Z</time></trkpt><trkpt lat="43.092580815117984" lon="10.574477334345602"><ele>150.0</ele><time>2026-03-22T08:51:23Z</time></trkpt><trkpt lat="43.09252233828442" lon="10.574328254559232"><ele>150.0</ele><time>2026-03-22T08:51:24Z</time></trkpt><trkpt lat="43.0924587677522" lon="10.574170393833471"><ele>147.5</ele><time>2026-03-22T08:51:24.999Z</time></trkpt><trkpt lat="43.09240483780464" lon="10.574010403322289"><ele>145.0</ele><time>2026-03-22T08:51:25.999Z</time></trkpt><trkpt lat="43.09234060189201" lon="10.573851712033262"><ele>142.5</ele><time>2026-03-22T08:51:26.999Z</time></trkpt><trkpt lat="43.0922892583337" lon="10.573687933822898"><ele>140.0</ele><time>2026-03-22T08:51:27.999Z</time></trkpt><trkpt lat="43.092232990306414" lon="10.573522542308512"><ele>140.0</ele><time>2026-03-22T08:51:28.999Z</time></trkpt><trkpt lat="43.092175956730316" lon="10.573358457624304"><ele>140.0</ele><time>2026-03-22T08:51:29.999Z</time></trkpt><trkpt lat="43.09211789247948" lon="10.573189822368589"><ele>140.0</ele><time>2026-03-22T08:51:30.999Z</time></trkpt><trkpt lat="43.092067705348846" lon="10.573026577180956"><ele>140.0</ele><time>2026-03-22T08:51:31.999Z</time></trkpt><trkpt lat="43.09201662062855" lon="10.572866292655897"><ele>140.25</ele><time>2026-03-22T08:51:32.999Z</time></trkpt><trkpt lat="43.09196576647364" lon="10.572711001573175"><ele>140.5</ele><time>2026-03-22T08:51:34Z</time></trkpt><trkpt lat="43.09192138025907" lon="10.572559777144434"><ele>140.75</ele><time>2026-03-22T08:51:35Z</time></trkpt><trkpt lat="43.091881113211464" lon="10.572405082619245"><ele>141.0</ele><time>2026-03-22T08:51:36Z</time></trkpt><trkpt lat="43.09184062671994" lon="10.572245814387152"><ele>141.0</ele><time>2026-03-22T08:51:37Z</time></trkpt><trkpt lat="43.0917997576035" lon="10.572082753901764"><ele>141.0</ele><time>2026-03-22T08:51:38Z</time></trkpt><trkpt lat="43.091761857566425" lon="10.571926890955485"><ele>141.0</ele><time>2026-03-22T08:51:39Z</time></trkpt><trkpt lat="43.091727359059604" lon="10.571770866103197"><ele>141.0</ele><time>2026-03-22T08:51:40Z</time></trkpt><trkpt lat="43.09169528222535" lon="10.57160908190126"><ele>140.5</ele><time>2026-03-22T08:51:41Z</time></trkpt><trkpt lat="43.09165807193884" lon="10.57145311340168"><ele>140.0</ele><time>2026-03-22T08:51:42Z</time></trkpt><trkpt lat="43.09162039465701" lon="10.571290255077892"><ele>139.5</ele><time>2026-03-22T08:51:43Z</time></trkpt><trkpt lat="43.09158426348333" lon="10.571123652718027"><ele>139.0</ele><time>2026-03-22T08:51:44Z</time></trkpt><trkpt lat="43.09154635359273" lon="10.57095335198454"><ele>135.5</ele><time>2026-03-22T08:51:45Z</time></trkpt><trkpt lat="43.09150900195934" lon="10.570780927082142"><ele>132.0</ele><time>2026-03-22T08:51:46Z</time></trkpt><trkpt lat="43.09146238814557" lon="10.570610691040518"><ele>128.5</ele><time>2026-03-22T08:51:47Z</time></trkpt><trkpt lat="43.09140395485341" lon="10.570453017012943"><ele>125.0</ele><time>2026-03-22T08:51:48Z</time></trkpt><trkpt lat="43.091324313158665" lon="10.570301302962193"><ele>124.75</ele><time>2026-03-22T08:51:49Z</time></trkpt><trkpt lat="43.091222026675325" lon="10.570164272098218"><ele>124.5</ele><time>2026-03-22T08:51:50Z</time></trkpt><trkpt lat="43.09110894579224" lon="10.570042205621423"><ele>124.25</ele><time>2026-03-22T08:51:51Z</time></trkpt><trkpt lat="43.09098136208154" lon="10.569934090709776"><ele>124.0</ele><time>2026-03-22T08:51:52Z</time></trkpt><trkpt lat="43.09085573585535" lon="10.569834534852127"><ele>122.75</ele><time>2026-03-22T08:51:53Z</time></trkpt><trkpt lat="43.09073249583762" lon="10.56973357328614"><ele>121.5</ele><time>2026-03-22T08:51:54Z</time></trkpt><trkpt lat="43.09061299042627" lon="10.569633455328265"><ele>120.25</ele><time>2026-03-22T08:51:55Z</time></trkpt><trkpt lat="43.0904983795994" lon="10.569537831541739"><ele>119.0</ele><time>2026-03-22T08:51:56Z</time></trkpt><trkpt lat="43.09038629155353" lon="10.569441111723998"><ele>119.0</ele><time>2026-03-22T08:51:57Z</time></trkpt><trkpt lat="43.09028738317565" lon="10.56935251040201"><ele>119.0</ele><time>2026-03-22T08:51:58Z</time></trkpt><trkpt lat="43.090205280657884" lon="10.569265697961006"><ele>119.0</ele><time>2026-03-22T08:51:59Z</time></trkpt><trkpt lat="43.09014285313997" lon="10.56918436695285"><ele>119.0</ele><time>2026-03-22T08:52:00Z</time></trkpt><trkpt lat="43.090107780668774" lon="10.569094982504717"><ele>119.0</ele><time>2026-03-22T08:52:01Z</time></trkpt><trkpt lat="43.09009097291499" lon="10.568993473496167"><ele>119.0</ele><time>2026-03-22T08:52:02Z</time></trkpt><trkpt lat="43.09011790334309" lon="10.568866216044555"><ele>119.0</ele><time>2026-03-22T08:52:03Z</time></trkpt><trkpt lat="43.09016551511321" lon="10.568710131981868"><ele>119.0</ele><time>2026-03-22T08:52:04Z</time></trkpt><trkpt lat="43.09021730057492" lon="10.56853654539223"><ele>119.0</ele><time>2026-03-22T08:52:05Z</time></trkpt><trkpt lat="43.090274036826905" lon="10.568355008672537"><ele>117.75</ele><time>2026-03-22T08:52:06Z</time></trkpt><trkpt lat="43.09033254878698" lon="10.568168338151029"><ele>116.5</ele><time>2026-03-22T08:52:07Z</time></trkpt><trkpt lat="43.090389832415696" lon="10.5679797015826"><ele>115.25</ele><time>2026-03-22T08:52:08Z</time></trkpt><trkpt lat="43.09044674363896" lon="10.567790331847286"><ele>114.0</ele><time>2026-03-22T08:52:09Z</time></trkpt><trkpt lat="43.09050461775192" lon="10.567610708763619"><ele>111.75</ele><time>2026-03-22T08:52:10Z</time></trkpt><trkpt lat="43.09055639950578" lon="10.567438903212217"><ele>109.5</ele><time>2026-03-22T08:52:11Z</time></trkpt><trkpt lat="43.09060398746628" lon="10.567268638987878"><ele>107.25</ele><time>2026-03-22T08:52:12Z</time></trkpt><trkpt lat="43.09065065581628" lon="10.56709385474446"><ele>105.0</ele><time>2026-03-22T08:52:13Z</time></trkpt><trkpt lat="43.09069902055982" lon="10.566928961100409"><ele>104.8</ele><time>2026-03-22T08:52:14Z</time></trkpt><trkpt lat="43.09074431821529" lon="10.566761157494788"><ele>104.6</ele><time>2026-03-22T08:52:15Z</time></trkpt><trkpt lat="43.09078780261429" lon="10.566629223486343"><ele>104.4</ele><time>2026-03-22T08:52:16Z</time></trkpt><trkpt lat="43.09082100406069" lon="10.566510589011783"><ele>104.2</ele><time>2026-03-22T08:52:17Z</time></trkpt><trkpt lat="43.090841036667555" lon="10.5663875007757"><ele>104.0</ele><time>2026-03-22T08:52:18Z</time></trkpt><trkpt lat="43.09082019291355" lon="10.566232454191738"><ele>101.33333333333333</ele><time>2026-03-22T08:52:19Z</time></trkpt><trkpt lat="43.09076573289523" lon="10.566053745588174"><ele>98.66666666666666</ele><time>2026-03-22T08:52:20Z</time></trkpt><trkpt lat="43.09070175981821" lon="10.56585089407483"><ele>96.0</ele><time>2026-03-22T08:52:21Z</time></trkpt><trkpt lat="43.09064174274563" lon="10.5656363749919"><ele>93.0</ele><time>2026-03-22T08:52:22Z</time></trkpt><trkpt lat="43.09057713517759" lon="10.565423274299981"><ele>90.0</ele><time>2026-03-22T08:52:23Z</time></trkpt><trkpt lat="43.090516495110194" lon="10.565199012895114"><ele>87.0</ele><time>2026-03-22T08:52:24Z</time></trkpt><trkpt lat="43.09045736349484" lon="10.564974182295957"><ele>85.66666666666667</ele><time>2026-03-22T08:52:25Z</time></trkpt><trkpt lat="43.09039782691452" lon="10.564750534241382"><ele>84.33333333333334</ele><time>2026-03-22T08:52:26Z</time></trkpt><trkpt lat="43.090340325804256" lon="10.564526551492767"><ele>83.0</ele><time>2026-03-22T08:52:27Z</time></trkpt><trkpt lat="43.090276553275544" lon="10.564313988497084"><ele>82.0</ele><time>2026-03-22T08:52:28Z</time></trkpt><trkpt lat="43.090217000490696" lon="10.564095012531315"><ele>81.0</ele><time>2026-03-22T08:52:29Z</time></trkpt><trkpt lat="43.09015849168028" lon="10.563880196895404"><ele>80.0</ele><time>2026-03-22T08:52:30Z</time></trkpt><trkpt lat="43.0901032939879" lon="10.563668188007874"><ele>78.0</ele><time>2026-03-22T08:52:31Z</time></trkpt><trkpt lat="43.09004149328273" lon="10.563451441783236"><ele>76.0</ele><time>2026-03-22T08:52:32Z</time></trkpt><trkpt lat="43.08998128719881" lon="10.563238356594486"><ele>74.0</ele><time>2026-03-22T08:52:33Z</time></trkpt><trkpt lat="43.089915683431556" lon="10.563024860912122"><ele>69.0</ele><time>2026-03-22T08:52:34Z</time></trkpt><trkpt lat="43.0898526061617" lon="10.562805055474918"><ele>64.0</ele><time>2026-03-22T08:52:35Z</time></trkpt><trkpt lat="43.08979096796189" lon="10.562577618994316"><ele>59.0</ele><time>2026-03-22T08:52:36Z</time></trkpt><trkpt lat="43.08973135336034" lon="10.562359332369784"><ele>59.0</ele><time>2026-03-22T08:52:37Z</time></trkpt><trkpt lat="43.08967393524594" lon="10.562148898512563"><ele>59.0</ele><time>2026-03-22T08:52:38Z</time></trkpt><trkpt lat="43.089617080008935" lon="10.561941363879361"><ele>59.0</ele><time>2026-03-22T08:52:39Z</time></trkpt><trkpt lat="43.08956132935967" lon="10.561734490154048"><ele>57.0</ele><time>2026-03-22T08:52:40Z</time></trkpt><trkpt lat="43.08950646040651" lon="10.561529265988893"><ele>55.0</ele><time>2026-03-22T08:52:41Z</time></trkpt><trkpt lat="43.08944810671571" lon="10.561327227500309"><ele>53.0</ele><time>2026-03-22T08:52:42Z</time></trkpt><trkpt lat="43.089393958002674" lon="10.561128297567203"><ele>51.75</ele><time>2026-03-22T08:52:43Z</time></trkpt><trkpt lat="43.08934406023336" lon="10.560931738894427"><ele>50.5</ele><time>2026-03-22T08:52:44Z</time></trkpt><trkpt lat="43.08929164873371" lon="10.560744260569674"><ele>49.25</ele><time>2026-03-22T08:52:45Z</time></trkpt><trkpt lat="43.08923921951531" lon="10.560552062775956"><ele>48.0</ele><time>2026-03-22T08:52:46Z</time></trkpt><trkpt lat="43.0891921959673" lon="10.560360904721579"><ele>46.333333333333336</ele><time>2026-03-22T08:52:47Z</time></trkpt><trkpt lat="43.08913976789421" lon="10.56016245058827"><ele>44.66666666666667</ele><time>2026-03-22T08:52:48Z</time></trkpt><trkpt lat="43.089087428515626" lon="10.559966915182063"><ele>43.0</ele><time>2026-03-22T08:52:49Z</time></trkpt><trkpt lat="43.08903540188549" lon="10.55977150797801"><ele>43.0</ele><time>2026-03-22T08:52:50Z</time></trkpt><trkpt lat="43.088981048632434" lon="10.559577243991011"><ele>43.0</ele><time>2026-03-22T08:52:51Z</time></trkpt><trkpt lat="43.08892691132455" lon="10.559388032473795"><ele>43.0</ele><time>2026-03-22T08:52:52Z</time></trkpt><trkpt lat="43.08887351474363" lon="10.559195670898358"><ele>42.25</ele><time>2026-03-22T08:52:53Z</time></trkpt><trkpt lat="43.088820483790855" lon="10.559008018208166"><ele>41.5</ele><time>2026-03-22T08:52:54Z</time></trkpt><trkpt lat="43.088766040504474" lon="10.558817126257898"><ele>40.75</ele><time>2026-03-22T08:52:55Z</time></trkpt><trkpt lat="43.088715943662784" lon="10.558625511458173"><ele>40.0</ele><time>2026-03-22T08:52:56Z</time></trkpt><trkpt lat="43.08866909711017" lon="10.558436818752762"><ele>39.5</ele><time>2026-03-22T08:52:57Z</time></trkpt><trkpt lat="43.08861589471515" lon="10.558252239664558"><ele>39.0</ele><time>2026-03-22T08:52:58Z</time></trkpt><trkpt lat="43.08856330391108" lon="10.55806467303814"><ele>38.5</ele><time>2026-03-22T08:52:59Z</time></trkpt><trkpt lat="43.08851318909517" lon="10.557879225771769"><ele>38.0</ele><time>2026-03-22T08:53:00Z</time></trkpt><trkpt lat="43.08846076122508" lon="10.557690804697492"><ele>37.25</ele><time>2026-03-22T08:53:01Z</time></trkpt><trkpt lat="43.088408671643116" lon="10.55750202851321"><ele>36.5</ele><time>2026-03-22T08:53:02Z</time></trkpt><trkpt lat="43.08835779218876" lon="10.557311083854195"><ele>35.75</ele><time>2026-03-22T08:53:03Z</time></trkpt><trkpt lat="43.088307373979966" lon="10.557122163785603"><ele>35.0</ele><time>2026-03-22T08:53:04Z</time></trkpt><trkpt lat="43.08825519396519" lon="10.556932806816981"><ele>34.33333333333333</ele><time>2026-03-22T08:53:05Z</time></trkpt><trkpt lat="43.088195802217164" lon="10.556737254733411"><ele>33.666666666666664</ele><time>2026-03-22T08:53:06Z</time></trkpt><trkpt lat="43.088143008132086" lon="10.556541964789309"><ele>33.0</ele><time>2026-03-22T08:53:07Z</time></trkpt><trkpt lat="43.08808934938209" lon="10.556351519233685"><ele>32.75</ele><time>2026-03-22T08:53:08Z</time></trkpt><trkpt lat="43.088039527049126" lon="10.556157082047692"><ele>32.5</ele><time>2026-03-22T08:53:09Z</time></trkpt><trkpt lat="43.08798688491071" lon="10.555962120647024"><ele>32.25</ele><time>2026-03-22T08:53:10Z</time></trkpt><trkpt lat="43.08793426530847" lon="10.555774527012"><ele>32.0</ele><time>2026-03-22T08:53:11Z</time></trkpt><trkpt lat="43.08788210615897" lon="10.555586232026918"><ele>32.0</ele><time>2026-03-22T08:53:12Z</time></trkpt><trkpt lat="43.08782755581618" lon="10.555393729208186"><ele>32.0</ele><time>2026-03-22T08:53:13Z</time></trkpt><trkpt lat="43.08778007203277" lon="10.55520386196458"><ele>32.0</ele><time>2026-03-22T08:53:14Z</time></trkpt><trkpt lat="43.08772861328175" lon="10.555008916889259"><ele>32.0</ele><time>2026-03-22T08:53:15Z</time></trkpt><trkpt lat="43.08767680787655" lon="10.554814989549966"><ele>31.25</ele><time>2026-03-22T08:53:16Z</time></trkpt><trkpt lat="43.08762332468745" lon="10.554622787094244"><ele>30.5</ele><time>2026-03-22T08:53:17Z</time></trkpt><trkpt lat="43.08757209708495" lon="10.55443180821849"><ele>29.75</ele><time>2026-03-22T08:53:18Z</time></trkpt><trkpt lat="43.087520909422736" lon="10.554239625699072"><ele>29.0</ele><time>2026-03-22T08:53:19Z</time></trkpt><trkpt lat="43.0874721978039" lon="10.554048191615118"><ele>28.25</ele><time>2026-03-22T08:53:20Z</time></trkpt><trkpt lat="43.08741894576835" lon="10.553856593109623"><ele>27.5</ele><time>2026-03-22T08:53:21Z</time></trkpt><trkpt lat="43.08736587943716" lon="10.553671362852404"><ele>26.75</ele><time>2026-03-22T08:53:22Z</time></trkpt><trkpt lat="43.08731162892875" lon="10.5534738301214"><ele>26.0</ele><time>2026-03-22T08:53:23Z</time></trkpt><trkpt lat="43.08725910002698" lon="10.553288923349525"><ele>25.666666666666664</ele><time>2026-03-22T08:53:24Z</time></trkpt><trkpt lat="43.08720705199791" lon="10.553093627535494"><ele>25.333333333333336</ele><time>2026-03-22T08:53:25Z</time></trkpt><trkpt lat="43.08715434570449" lon="10.552896881614418"><ele>25.0</ele><time>2026-03-22T08:53:26Z</time></trkpt><trkpt lat="43.08709362485892" lon="10.552701991635354"><ele>24.666666666666668</ele><time>2026-03-22T08:53:27Z</time></trkpt><trkpt lat="43.087038930093904" lon="10.55250281722403"><ele>24.333333333333336</ele><time>2026-03-22T08:53:28Z</time></trkpt><trkpt lat="43.08698754441676" lon="10.552302230848978"><ele>24.0</ele><time>2026-03-22T08:53:29Z</time></trkpt><trkpt lat="43.086935492426235" lon="10.55210338788476"><ele>23.666666666666668</ele><time>2026-03-22T08:53:30Z</time></trkpt><trkpt lat="43.08688078423826" lon="10.551902938941204"><ele>23.333333333333336</ele><time>2026-03-22T08:53:31Z</time></trkpt><trkpt lat="43.0868291781021" lon="10.55170451054242"><ele>23.0</ele><time>2026-03-22T08:53:32Z</time></trkpt><trkpt lat="43.0867746444117" lon="10.55150967370454"><ele>23.0</ele><time>2026-03-22T08:53:33Z</time></trkpt><trkpt lat="43.08671988888713" lon="10.551312432440444"><ele>23.0</ele><time>2026-03-22T08:53:34Z</time></trkpt><trkpt lat="43.08666533853488" lon="10.55111870818479"><ele>23.0</ele><time>2026-03-22T08:53:35Z</time></trkpt><trkpt lat="43.08661044687741" lon="10.550924173686466"><ele>22.75</ele><time>2026-03-22T08:53:36Z</time></trkpt><trkpt lat="43.08655698796386" lon="10.550736521497523"><ele>22.5</ele><time>2026-03-22T08:53:37Z</time></trkpt><trkpt lat="43.08649978500954" lon="10.550542790180756"><ele>22.25</ele><time>2026-03-22T08:53:38Z</time></trkpt><trkpt lat="43.08644578438818" lon="10.550355185727721"><ele>22.0</ele><time>2026-03-22T08:53:39Z</time></trkpt><trkpt lat="43.08639274536122" lon="10.550169937596284"><ele>21.75</ele><time>2026-03-22T08:53:40Z</time></trkpt><trkpt lat="43.08634596621266" lon="10.549988126658066"><ele>21.5</ele><time>2026-03-22T08:53:41Z</time></trkpt><trkpt lat="43.08629255551686" lon="10.549802553496393"><ele>21.25</ele><time>2026-03-22T08:53:42Z</time></trkpt><trkpt lat="43.08624214496788" lon="10.54961738347302"><ele>21.0</ele><time>2026-03-22T08:53:43Z</time></trkpt><trkpt lat="43.08618820144181" lon="10.549429385037477"><ele>20.75</ele><time>2026-03-22T08:53:44Z</time></trkpt><trkpt lat="43.08613380450947" lon="10.549239398889581"><ele>20.5</ele><time>2026-03-22T08:53:45Z</time></trkpt><trkpt lat="43.08608148770197" lon="10.549052248631357"><ele>20.25</ele><time>2026-03-22T08:53:46Z</time></trkpt><trkpt lat="43.08603237495766" lon="10.548865844387958"><ele>20.0</ele><time>2026-03-22T08:53:47Z</time></trkpt><trkpt lat="43.08599035365729" lon="10.548687915333682"><ele>19.75</ele><time>2026-03-22T08:53:48Z</time></trkpt><trkpt lat="43.08594873247544" lon="10.548520859101844"><ele>19.5</ele><time>2026-03-22T08:53:49Z</time></trkpt><trkpt lat="43.08591079093567" lon="10.548359631699142"><ele>19.25</ele><time>2026-03-22T08:53:50Z</time></trkpt><trkpt lat="43.08587296920561" lon="10.54820981728156"><ele>19.0</ele><time>2026-03-22T08:53:51Z</time></trkpt><trkpt lat="43.0858442328082" lon="10.548079603752367"><ele>19.0</ele><time>2026-03-22T08:53:52Z</time></trkpt><trkpt lat="43.08582228071326" lon="10.547983263907481"><ele>19.0</ele><time>2026-03-22T08:53:53Z</time></trkpt><trkpt lat="43.08578591358455" lon="10.547846668070953"><ele>19.0</ele><time>2026-03-22T08:53:55Z</time></trkpt><trkpt lat="43.08574825378618" lon="10.547705884697947"><ele>19.0</ele><time>2026-03-22T08:53:57Z</time></trkpt><trkpt lat="43.08564944351462" lon="10.547666619398102"><ele>19.0</ele><time>2026-03-22T08:53:59Z</time></trkpt><trkpt lat="43.08558037909799" lon="10.547754692014825"><ele>19.0</ele><time>2026-03-22T08:54:00Z</time></trkpt><trkpt lat="43.08554412478507" lon="10.547880150156976"><ele>19.0</ele><time>2026-03-22T08:54:01Z</time></trkpt><trkpt lat="43.0854435424218" lon="10.547928768292808"><ele>19.0</ele><time>2026-03-22T08:54:02Z</time></trkpt><trkpt lat="43.08533837861868" lon="10.548002546590734"><ele>19.0</ele><time>2026-03-22T08:54:03Z</time></trkpt><trkpt lat="43.08522767305986" lon="10.548077606120527"><ele>19.0</ele><time>2026-03-22T08:54:04Z</time></trkpt><trkpt lat="43.08510407590353" lon="10.548160706984941"><ele>19.0</ele><time>2026-03-22T08:54:05Z</time></trkpt><trkpt lat="43.084972550080536" lon="10.548249138510956"><ele>19.0</ele><time>2026-03-22T08:54:06Z</time></trkpt><trkpt lat="43.084831736585976" lon="10.54834362634359"><ele>19.0</ele><time>2026-03-22T08:54:07Z</time></trkpt><trkpt lat="43.08468696856006" lon="10.548440683585941"><ele>19.0</ele><time>2026-03-22T08:54:08Z</time></trkpt><trkpt lat="43.084542527434714" lon="10.548537521978718"><ele>19.0</ele><time>2026-03-22T08:54:09Z</time></trkpt><trkpt lat="43.08439219024676" lon="10.548638313201494"><ele>19.0</ele><time>2026-03-22T08:54:10Z</time></trkpt><trkpt lat="43.08423937236805" lon="10.548741711340664"><ele>19.333333333333332</ele><time>2026-03-22T08:54:11Z</time></trkpt><trkpt lat="43.08409025605049" lon="10.548841799157206"><ele>19.666666666666668</ele><time>2026-03-22T08:54:12Z</time></trkpt><trkpt lat="43.08393632895964" lon="10.54894524908"><ele>20.0</ele><time>2026-03-22T08:54:13Z</time></trkpt><trkpt lat="43.08378121716506" lon="10.54904949520685"><ele>20.0</ele><time>2026-03-22T08:54:14Z</time></trkpt><trkpt lat="43.08362570931222" lon="10.549154007516064"><ele>20.0</ele><time>2026-03-22T08:54:15Z</time></trkpt><trkpt lat="43.08347046912515" lon="10.549258339939101"><ele>20.0</ele><time>2026-03-22T08:54:16Z</time></trkpt><trkpt lat="43.0833258875393" lon="10.54935550902727"><ele>20.0</ele><time>2026-03-22T08:54:17Z</time></trkpt><trkpt lat="43.08316498254325" lon="10.549463648584643"><ele>20.0</ele><time>2026-03-22T08:54:18Z</time></trkpt><trkpt lat="43.083005913506994" lon="10.549570554275025"><ele>20.0</ele><time>2026-03-22T08:54:19Z</time></trkpt><trkpt lat="43.082853496586324" lon="10.54967298925349"><ele>20.666666666666668</ele><time>2026-03-22T08:54:20Z</time></trkpt><trkpt lat="43.08270223341407" lon="10.54977464884694"><ele>21.333333333333332</ele><time>2026-03-22T08:54:21Z</time></trkpt><trkpt lat="43.082561304647" lon="10.54989253184279"><ele>22.0</ele><time>2026-03-22T08:54:22Z</time></trkpt><trkpt lat="43.082412218768454" lon="10.549989708159098"><ele>22.0</ele><time>2026-03-22T08:54:23Z</time></trkpt><trkpt lat="43.08226777182698" lon="10.550079859855447"><ele>22.0</ele><time>2026-03-22T08:54:24Z</time></trkpt><trkpt lat="43.08213616279507" lon="10.550168171607833"><ele>22.0</ele><time>2026-03-22T08:54:25Z</time></trkpt><trkpt lat="43.08200421325133" lon="10.550256892400185"><ele>22.0</ele><time>2026-03-22T08:54:26Z</time></trkpt><trkpt lat="43.08188047613101" lon="10.550339752971322"><ele>22.0</ele><time>2026-03-22T08:54:27Z</time></trkpt><trkpt lat="43.081763484930335" lon="10.550421839809637"><ele>22.0</ele><time>2026-03-22T08:54:28Z</time></trkpt><trkpt lat="43.08165513274767" lon="10.550500565683206"><ele>22.0</ele><time>2026-03-22T08:54:29Z</time></trkpt><trkpt lat="43.0815536217763" lon="10.550571826113814"><ele>22.333333333333332</ele><time>2026-03-22T08:54:30Z</time></trkpt><trkpt lat="43.08145758089386" lon="10.55063679454263"><ele>22.666666666666664</ele><time>2026-03-22T08:54:31Z</time></trkpt><trkpt lat="43.08137094262741" lon="10.550689581697098"><ele>23.0</ele><time>2026-03-22T08:54:32Z</time></trkpt><trkpt lat="43.081304575173974" lon="10.550746229261039"><ele>23.333333333333332</ele><time>2026-03-22T08:54:33Z</time></trkpt><trkpt lat="43.081257450497276" lon="10.550814872817446"><ele>23.666666666666668</ele><time>2026-03-22T08:54:34Z</time></trkpt><trkpt lat="43.08119529676554" lon="10.550784110652332"><ele>24.0</ele><time>2026-03-22T08:54:35Z</time></trkpt><trkpt lat="43.081229482523455" lon="10.55101760633002"><ele>24.0</ele><time>2026-03-22T08:54:36Z</time></trkpt><trkpt lat="43.08124154634912" lon="10.55115540696285"><ele>24.0</ele><time>2026-03-22T08:54:37Z</time></trkpt><trkpt lat="43.08122225976555" lon="10.551324621249266"><ele>24.0</ele><time>2026-03-22T08:54:38Z</time></trkpt><trkpt lat="43.081211977220065" lon="10.551522235286095"><ele>24.0</ele><time>2026-03-22T08:54:39Z</time></trkpt><trkpt lat="43.08119945143142" lon="10.551730931539831"><ele>25.0</ele><time>2026-03-22T08:54:40Z</time></trkpt><trkpt lat="43.08118432162432" lon="10.55196148631977"><ele>26.0</ele><time>2026-03-22T08:54:41Z</time></trkpt><trkpt lat="43.08119927605713" lon="10.552216230461019"><ele>27.0</ele><time>2026-03-22T08:54:42Z</time></trkpt><trkpt lat="43.081178242571596" lon="10.552472098862115"><ele>27.0</ele><time>2026-03-22T08:54:43Z</time></trkpt><trkpt lat="43.0811533428918" lon="10.552725558834995"><ele>27.0</ele><time>2026-03-22T08:54:44Z</time></trkpt><trkpt lat="43.081111289763676" lon="10.552969641971155"><ele>27.0</ele><time>2026-03-22T08:54:45Z</time></trkpt><trkpt lat="43.08105533769839" lon="10.553227833616539"><ele>27.666666666666664</ele><time>2026-03-22T08:54:46Z</time></trkpt><trkpt lat="43.080973453183354" lon="10.55348921835517"><ele>28.333333333333332</ele><time>2026-03-22T08:54:47Z</time></trkpt><trkpt lat="43.08089918901912" lon="10.553752758227203"><ele>29.0</ele><time>2026-03-22T08:54:48Z</time></trkpt><trkpt lat="43.08084879116907" lon="10.554036924593937"><ele>29.666666666666664</ele><time>2026-03-22T08:54:49Z</time></trkpt><trkpt lat="43.080787264826064" lon="10.554316183632245"><ele>30.333333333333336</ele><time>2026-03-22T08:54:50Z</time></trkpt><trkpt lat="43.08073731978765" lon="10.554603038643084"><ele>31.0</ele><time>2026-03-22T08:54:51Z</time></trkpt><trkpt lat="43.08069369247367" lon="10.55488447754746"><ele>31.0</ele><time>2026-03-22T08:54:52Z</time></trkpt><trkpt lat="43.08065652342942" lon="10.555173156838102"><ele>31.0</ele><time>2026-03-22T08:54:53Z</time></trkpt><trkpt lat="43.080618771443994" lon="10.55545489469287"><ele>31.0</ele><time>2026-03-22T08:54:54Z</time></trkpt><trkpt lat="43.08058302416064" lon="10.55572640007062"><ele>31.666666666666668</ele><time>2026-03-22T08:54:55Z</time></trkpt><trkpt lat="43.08055927258977" lon="10.555993391723225"><ele>32.333333333333336</ele><time>2026-03-22T08:54:56Z</time></trkpt><trkpt lat="43.08054999117046" lon="10.556263371545528"><ele>33.0</ele><time>2026-03-22T08:54:57Z</time></trkpt><trkpt lat="43.08055897214289" lon="10.556526536171543"><ele>33.333333333333336</ele><time>2026-03-22T08:54:58Z</time></trkpt><trkpt lat="43.080580113973106" lon="10.556797042554713"><ele>33.66666666666667</ele><time>2026-03-22T08:54:59Z</time></trkpt><trkpt lat="43.08058800142349" lon="10.557071978924853"><ele>34.0</ele><time>2026-03-22T08:55:00Z</time></trkpt><trkpt lat="43.08063652224092" lon="10.557334432130972"><ele>34.66666666666667</ele><time>2026-03-22T08:55:01Z</time></trkpt><trkpt lat="43.080690259992025" lon="10.55759190031114"><ele>35.333333333333336</ele><time>2026-03-22T08:55:02Z</time></trkpt><trkpt lat="43.08074434938898" lon="10.557845057654708"><ele>36.0</ele><time>2026-03-22T08:55:03Z</time></trkpt><trkpt lat="43.08081168741018" lon="10.558091568761846"><ele>37.666666666666664</ele><time>2026-03-22T08:55:04Z</time></trkpt><trkpt lat="43.08085006289763" lon="10.558346169877867"><ele>39.33333333333333</ele><time>2026-03-22T08:55:05Z</time></trkpt><trkpt lat="43.08086471685101" lon="10.558601214722026"><ele>41.0</ele><time>2026-03-22T08:55:06Z</time></trkpt><trkpt lat="43.080831601327866" lon="10.558855893808646"><ele>41.0</ele><time>2026-03-22T08:55:07Z</time></trkpt><trkpt lat="43.08079121201193" lon="10.55910031974081"><ele>41.0</ele><time>2026-03-22T08:55:08Z</time></trkpt><trkpt lat="43.08074716080322" lon="10.559352409302893"><ele>41.0</ele><time>2026-03-22T08:55:09Z</time></trkpt><trkpt lat="43.080688057955484" lon="10.55960216710858"><ele>41.666666666666664</ele><time>2026-03-22T08:55:10Z</time></trkpt><trkpt lat="43.08062951750497" lon="10.55985588814362"><ele>42.333333333333336</ele><time>2026-03-22T08:55:11Z</time></trkpt><trkpt lat="43.08057090981758" lon="10.560113031542091"><ele>43.0</ele><time>2026-03-22T08:55:12Z</time></trkpt><trkpt lat="43.08051280695734" lon="10.560371434230355"><ele>44.0</ele><time>2026-03-22T08:55:13Z</time></trkpt><trkpt lat="43.08045908763056" lon="10.560632774443322"><ele>45.0</ele><time>2026-03-22T08:55:14Z</time></trkpt><trkpt lat="43.080403711130835" lon="10.560889626730832"><ele>46.0</ele><time>2026-03-22T08:55:15Z</time></trkpt><trkpt lat="43.080328755869694" lon="10.561138763456063"><ele>46.333333333333336</ele><time>2026-03-22T08:55:16Z</time></trkpt><trkpt lat="43.08026929276459" lon="10.561390053850552"><ele>46.666666666666664</ele><time>2026-03-22T08:55:17Z</time></trkpt><trkpt lat="43.08020925162382" lon="10.56164378271569"><ele>47.0</ele><time>2026-03-22T08:55:18Z</time></trkpt><trkpt lat="43.08015034618152" lon="10.561888471926759"><ele>47.666666666666664</ele><time>2026-03-22T08:55:19Z</time></trkpt><trkpt lat="43.08009026383597" lon="10.562138864320158"><ele>48.33333333333333</ele><time>2026-03-22T08:55:20Z</time></trkpt><trkpt lat="43.08003153517431" lon="10.562383615840426"><ele>49.0</ele><time>2026-03-22T08:55:21Z</time></trkpt><trkpt lat="43.079974486881284" lon="10.5626267447804"><ele>49.666666666666664</ele><time>2026-03-22T08:55:22Z</time></trkpt><trkpt lat="43.079920127550146" lon="10.562872187759865"><ele>50.33333333333333</ele><time>2026-03-22T08:55:23Z</time></trkpt><trkpt lat="43.079873449507126" lon="10.56311044229763"><ele>51.0</ele><time>2026-03-22T08:55:24Z</time></trkpt><trkpt lat="43.0798362695964" lon="10.563355128991002"><ele>51.0</ele><time>2026-03-22T08:55:25Z</time></trkpt><trkpt lat="43.079810032713745" lon="10.563605452408542"><ele>51.0</ele><time>2026-03-22T08:55:26Z</time></trkpt><trkpt lat="43.0797933525316" lon="10.563859581316926"><ele>51.0</ele><time>2026-03-22T08:55:27Z</time></trkpt><trkpt lat="43.079787421028946" lon="10.564112494562252"><ele>51.33333333333333</ele><time>2026-03-22T08:55:28Z</time></trkpt><trkpt lat="43.07978949781073" lon="10.56437502973239"><ele>51.666666666666664</ele><time>2026-03-22T08:55:29Z</time></trkpt><trkpt lat="43.07979342868973" lon="10.564635564323629"><ele>52.0</ele><time>2026-03-22T08:55:30Z</time></trkpt><trkpt lat="43.07979731909173" lon="10.5648970048488"><ele>53.0</ele><time>2026-03-22T08:55:31Z</time></trkpt><trkpt lat="43.07980119925859" lon="10.565157758027592"><ele>54.0</ele><time>2026-03-22T08:55:32Z</time></trkpt><trkpt lat="43.07980510830888" lon="10.565420452329931"><ele>55.0</ele><time>2026-03-22T08:55:33Z</time></trkpt><trkpt lat="43.07980903999376" lon="10.565684667232494"><ele>56.0</ele><time>2026-03-22T08:55:34Z</time></trkpt><trkpt lat="43.07981291651257" lon="10.565945175214711"><ele>57.0</ele><time>2026-03-22T08:55:35Z</time></trkpt><trkpt lat="43.07981692152745" lon="10.566214318435005"><ele>58.0</ele><time>2026-03-22T08:55:36Z</time></trkpt><trkpt lat="43.07982094094992" lon="10.566484429467792"><ele>59.0</ele><time>2026-03-22T08:55:37Z</time></trkpt><trkpt lat="43.07982512859133" lon="10.566765845393055"><ele>60.0</ele><time>2026-03-22T08:55:37.999Z</time></trkpt><trkpt lat="43.07982943815232" lon="10.567059528574779"><ele>61.0</ele><time>2026-03-22T08:55:38.999Z</time></trkpt><trkpt lat="43.07985030928905" lon="10.567370640094085"><ele>62.0</ele><time>2026-03-22T08:55:39.999Z</time></trkpt><trkpt lat="43.07983825354876" lon="10.567697555488836"><ele>63.0</ele><time>2026-03-22T08:55:40.999Z</time></trkpt><trkpt lat="43.07984286197239" lon="10.568031096796679"><ele>64.0</ele><time>2026-03-22T08:55:41.999Z</time></trkpt><trkpt lat="43.07984749613801" lon="10.568366500961627"><ele>65.0</ele><time>2026-03-22T08:55:42.999Z</time></trkpt><trkpt lat="43.07985198030352" lon="10.568691048659545"><ele>65.5</ele><time>2026-03-22T08:55:43.999Z</time></trkpt><trkpt lat="43.07985704422999" lon="10.569018254455587"><ele>66.0</ele><time>2026-03-22T08:55:44.999Z</time></trkpt><trkpt lat="43.07987753838226" lon="10.569338032549751"><ele>67.0</ele><time>2026-03-22T08:55:46Z</time></trkpt><trkpt lat="43.079865905026736" lon="10.569667991860586"><ele>68.0</ele><time>2026-03-22T08:55:47Z</time></trkpt><trkpt lat="43.07988578498056" lon="10.569983570124919"><ele>68.0</ele><time>2026-03-22T08:55:48Z</time></trkpt><trkpt lat="43.07989076846038" lon="10.570299588901209"><ele>68.0</ele><time>2026-03-22T08:55:49Z</time></trkpt><trkpt lat="43.07987913303162" lon="10.570612545656317"><ele>68.66666666666667</ele><time>2026-03-22T08:55:50Z</time></trkpt><trkpt lat="43.07988372220024" lon="10.57092143624872"><ele>69.33333333333333</ele><time>2026-03-22T08:55:51Z</time></trkpt><trkpt lat="43.07988811787609" lon="10.571215095645321"><ele>70.0</ele><time>2026-03-22T08:55:52Z</time></trkpt><trkpt lat="43.079892551277624" lon="10.571511274833812"><ele>70.66666666666666</ele><time>2026-03-22T08:55:53Z</time></trkpt><trkpt lat="43.07989702884905" lon="10.571810405349758"><ele>71.33333333333333</ele><time>2026-03-22T08:55:54Z</time></trkpt><trkpt lat="43.07990142344024" lon="10.572103991901628"><ele>72.0</ele><time>2026-03-22T08:55:55Z</time></trkpt><trkpt lat="43.07990583910467" lon="10.572398986373083"><ele>72.33333333333333</ele><time>2026-03-22T08:55:56Z</time></trkpt><trkpt lat="43.07991017851295" lon="10.572688886594884"><ele>72.66666666666666</ele><time>2026-03-22T08:55:57Z</time></trkpt><trkpt lat="43.079914583017285" lon="10.572983135192795"><ele>73.0</ele><time>2026-03-22T08:55:58Z</time></trkpt><trkpt lat="43.07991887684043" lon="10.573269990005116"><ele>73.33333333333333</ele><time>2026-03-22T08:55:59Z</time></trkpt><trkpt lat="43.079923187856295" lon="10.57355799320244"><ele>73.66666666666667</ele><time>2026-03-22T08:56:00Z</time></trkpt><trkpt lat="43.07992734941173" lon="10.573836008345467"><ele>74.0</ele><time>2026-03-22T08:56:01Z</time></trkpt><trkpt lat="43.07993087523769" lon="10.574119118430852"><ele>75.66666666666667</ele><time>2026-03-22T08:56:02Z</time></trkpt><trkpt lat="43.07993444769242" lon="10.57440254572247"><ele>77.33333333333333</ele><time>2026-03-22T08:56:03Z</time></trkpt><trkpt lat="43.07993444769413" lon="10.574671372792821"><ele>79.0</ele><time>2026-03-22T08:56:04Z</time></trkpt><trkpt lat="43.07992164345539" lon="10.574937719049213"><ele>79.0</ele><time>2026-03-22T08:56:05Z</time></trkpt><trkpt lat="43.07988852197569" lon="10.575206755101176"><ele>79.0</ele><time>2026-03-22T08:56:06Z</time></trkpt><trkpt lat="43.079831355126366" lon="10.575458066309364"><ele>79.0</ele><time>2026-03-22T08:56:07Z</time></trkpt><trkpt lat="43.07975018928168" lon="10.575701212115337"><ele>80.33333333333333</ele><time>2026-03-22T08:56:08Z</time></trkpt><trkpt lat="43.07964052933566" lon="10.575931315189818"><ele>81.66666666666667</ele><time>2026-03-22T08:56:09Z</time></trkpt><trkpt lat="43.0795225532055" lon="10.576157617844881"><ele>83.0</ele><time>2026-03-22T08:56:10Z</time></trkpt><trkpt lat="43.079399015503" lon="10.57639138596711"><ele>83.0</ele><time>2026-03-22T08:56:11Z</time></trkpt><trkpt lat="43.079270309579115" lon="10.576635852053393"><ele>83.0</ele><time>2026-03-22T08:56:12Z</time></trkpt><trkpt lat="43.07915433529177" lon="10.57689189180448"><ele>83.0</ele><time>2026-03-22T08:56:13Z</time></trkpt><trkpt lat="43.07902494764973" lon="10.577129393906889"><ele>83.0</ele><time>2026-03-22T08:56:14Z</time></trkpt><trkpt lat="43.0789002633612" lon="10.57736498321734"><ele>83.0</ele><time>2026-03-22T08:56:15Z</time></trkpt><trkpt lat="43.078784773517484" lon="10.57759464244509"><ele>83.0</ele><time>2026-03-22T08:56:16Z</time></trkpt><trkpt lat="43.07867038867784" lon="10.577830295184343"><ele>84.0</ele><time>2026-03-22T08:56:17Z</time></trkpt><trkpt lat="43.0785953431121" lon="10.578094420545519"><ele>85.0</ele><time>2026-03-22T08:56:18Z</time></trkpt><trkpt lat="43.07854277219253" lon="10.578367674604104"><ele>86.0</ele><time>2026-03-22T08:56:19Z</time></trkpt><trkpt lat="43.07849700229577" lon="10.57864345528056"><ele>86.0</ele><time>2026-03-22T08:56:20Z</time></trkpt><trkpt lat="43.07845016261698" lon="10.578925681646611"><ele>86.0</ele><time>2026-03-22T08:56:21Z</time></trkpt><trkpt lat="43.0784059083025" lon="10.579192330316346"><ele>86.0</ele><time>2026-03-22T08:56:22Z</time></trkpt><trkpt lat="43.07836079444026" lon="10.579464161834922"><ele>86.33333333333334</ele><time>2026-03-22T08:56:23Z</time></trkpt><trkpt lat="43.07831598278436" lon="10.579734172944448"><ele>86.66666666666667</ele><time>2026-03-22T08:56:24Z</time></trkpt><trkpt lat="43.0782711112704" lon="10.580004544725764"><ele>87.0</ele><time>2026-03-22T08:56:25Z</time></trkpt><trkpt lat="43.07824711986383" lon="10.580281519477431"><ele>87.33333333333333</ele><time>2026-03-22T08:56:26Z</time></trkpt><trkpt lat="43.07820534225128" lon="10.580548356880964"><ele>87.66666666666666</ele><time>2026-03-22T08:56:27Z</time></trkpt><trkpt lat="43.07816126538734" lon="10.580816865085065"><ele>88.0</ele><time>2026-03-22T08:56:28Z</time></trkpt><trkpt lat="43.07811950812819" lon="10.581089299015701"><ele>89.33333333333333</ele><time>2026-03-22T08:56:29Z</time></trkpt><trkpt lat="43.07807949970779" lon="10.581358276250246"><ele>90.66666666666667</ele><time>2026-03-22T08:56:30Z</time></trkpt><trkpt lat="43.07804018192483" lon="10.581625939481693"><ele>92.0</ele><time>2026-03-22T08:56:31Z</time></trkpt><trkpt lat="43.0780070635523" lon="10.581896683696618"><ele>91.33333333333334</ele><time>2026-03-22T08:56:32Z</time></trkpt><trkpt lat="43.07797541081048" lon="10.582162196198826"><ele>90.66666666666667</ele><time>2026-03-22T08:56:33Z</time></trkpt><trkpt lat="43.07794530164404" lon="10.582422931685997"><ele>90.0</ele><time>2026-03-22T08:56:34Z</time></trkpt><trkpt lat="43.07791580012286" lon="10.582681430072485"><ele>90.66666666666667</ele><time>2026-03-22T08:56:35Z</time></trkpt><trkpt lat="43.07788587634371" lon="10.582934939648169"><ele>91.33333333333334</ele><time>2026-03-22T08:56:36Z</time></trkpt><trkpt lat="43.07785714513764" lon="10.583190227332388"><ele>92.0</ele><time>2026-03-22T08:56:37Z</time></trkpt><trkpt lat="43.0778302146397" lon="10.583442642383439"><ele>92.0</ele><time>2026-03-22T08:56:38Z</time></trkpt><trkpt lat="43.07780610341088" lon="10.58369350373901"><ele>92.0</ele><time>2026-03-22T08:56:39Z</time></trkpt><trkpt lat="43.07778262122496" lon="10.58394669097671"><ele>92.0</ele><time>2026-03-22T08:56:40Z</time></trkpt><trkpt lat="43.077754166606965" lon="10.584196137053452"><ele>92.0</ele><time>2026-03-22T08:56:41Z</time></trkpt><trkpt lat="43.07772303074979" lon="10.584442058978675"><ele>92.0</ele><time>2026-03-22T08:56:42Z</time></trkpt><trkpt lat="43.07768874428463" lon="10.584694778484321"><ele>92.0</ele><time>2026-03-22T08:56:43Z</time></trkpt><trkpt lat="43.07764744776827" lon="10.584942231044598"><ele>93.0</ele><time>2026-03-22T08:56:44Z</time></trkpt><trkpt lat="43.07760083609496" lon="10.58519005507892"><ele>94.0</ele><time>2026-03-22T08:56:45Z</time></trkpt><trkpt lat="43.07754817513514" lon="10.58543984404359"><ele>95.0</ele><time>2026-03-22T08:56:46Z</time></trkpt><trkpt lat="43.07748560586728" lon="10.585688003124055"><ele>93.66666666666667</ele><time>2026-03-22T08:56:47Z</time></trkpt><trkpt lat="43.077419546227425" lon="10.58593926149461"><ele>92.33333333333333</ele><time>2026-03-22T08:56:48Z</time></trkpt><trkpt lat="43.077350869809514" lon="10.586188389268516"><ele>91.0</ele><time>2026-03-22T08:56:49Z</time></trkpt><trkpt lat="43.077282677584876" lon="10.586433741747914"><ele>91.0</ele><time>2026-03-22T08:56:50Z</time></trkpt><trkpt lat="43.07721603729023" lon="10.586677292630398"><ele>91.0</ele><time>2026-03-22T08:56:51Z</time></trkpt><trkpt lat="43.07715063834658" lon="10.586916298511413"><ele>91.0</ele><time>2026-03-22T08:56:52Z</time></trkpt><trkpt lat="43.077087301836016" lon="10.58715484144508"><ele>92.33333333333333</ele><time>2026-03-22T08:56:53Z</time></trkpt><trkpt lat="43.07702391055708" lon="10.587394595871565"><ele>93.66666666666667</ele><time>2026-03-22T08:56:54Z</time></trkpt><trkpt lat="43.07696168113346" lon="10.587632747901859"><ele>95.0</ele><time>2026-03-22T08:56:55Z</time></trkpt><trkpt lat="43.07689759839803" lon="10.587870463771846"><ele>96.33333333333334</ele><time>2026-03-22T08:56:56Z</time></trkpt><trkpt lat="43.07683000515837" lon="10.58809936987303"><ele>97.66666666666667</ele><time>2026-03-22T08:56:57Z</time></trkpt><trkpt lat="43.076763508969535" lon="10.588322347952607"><ele>99.0</ele><time>2026-03-22T08:56:58Z</time></trkpt><trkpt lat="43.076697327969335" lon="10.58854032384013"><ele>99.66666666666666</ele><time>2026-03-22T08:56:59Z</time></trkpt><trkpt lat="43.07662437058909" lon="10.588750002308263"><ele>100.33333333333333</ele><time>2026-03-22T08:57:00Z</time></trkpt><trkpt lat="43.07654639579502" lon="10.588953580217664"><ele>101.0</ele><time>2026-03-22T08:57:01Z</time></trkpt><trkpt lat="43.07645748569644" lon="10.589140573440785"><ele>101.0</ele><time>2026-03-22T08:57:02Z</time></trkpt><trkpt lat="43.07635777919424" lon="10.589320180801925"><ele>101.0</ele><time>2026-03-22T08:57:03Z</time></trkpt><trkpt lat="43.07624429231639" lon="10.589490105685258"><ele>101.0</ele><time>2026-03-22T08:57:04Z</time></trkpt><trkpt lat="43.07612752562853" lon="10.589659742929957"><ele>101.0</ele><time>2026-03-22T08:57:05Z</time></trkpt><trkpt lat="43.076010920008535" lon="10.589827672809275"><ele>101.0</ele><time>2026-03-22T08:57:06Z</time></trkpt><trkpt lat="43.07589592329539" lon="10.589985742727155"><ele>101.0</ele><time>2026-03-22T08:57:07Z</time></trkpt><trkpt lat="43.0757914846019" lon="10.59015812547103"><ele>104.33333333333333</ele><time>2026-03-22T08:57:08Z</time></trkpt><trkpt lat="43.07571136875482" lon="10.590347021173631"><ele>107.66666666666666</ele><time>2026-03-22T08:57:09Z</time></trkpt><trkpt lat="43.0756573181739" lon="10.59055500256986"><ele>111.0</ele><time>2026-03-22T08:57:10Z</time></trkpt><trkpt lat="43.07562512875489" lon="10.590768136570432"><ele>111.0</ele><time>2026-03-22T08:57:11Z</time></trkpt><trkpt lat="43.07561855421291" lon="10.591002604871386"><ele>111.0</ele><time>2026-03-22T08:57:12Z</time></trkpt><trkpt lat="43.075617572110936" lon="10.591240300860226"><ele>111.0</ele><time>2026-03-22T08:57:13Z</time></trkpt><trkpt lat="43.07561838267352" lon="10.591481178636888"><ele>112.66666666666666</ele><time>2026-03-22T08:57:14Z</time></trkpt><trkpt lat="43.075619291241544" lon="10.59172501276823"><ele>114.33333333333333</ele><time>2026-03-22T08:57:15Z</time></trkpt><trkpt lat="43.07562137194287" lon="10.59196864774078"><ele>116.0</ele><time>2026-03-22T08:57:16Z</time></trkpt><trkpt lat="43.075634236642" lon="10.592211428456876"><ele>118.33333333333333</ele><time>2026-03-22T08:57:17Z</time></trkpt><trkpt lat="43.07565627389125" lon="10.592460579256294"><ele>120.66666666666666</ele><time>2026-03-22T08:57:18Z</time></trkpt><trkpt lat="43.07568472472022" lon="10.592709054933913"><ele>123.0</ele><time>2026-03-22T08:57:19Z</time></trkpt><trkpt lat="43.075714106064076" lon="10.592956324738594"><ele>124.0</ele><time>2026-03-22T08:57:20Z</time></trkpt><trkpt lat="43.07574637251474" lon="10.593202784357914"><ele>125.0</ele><time>2026-03-22T08:57:21Z</time></trkpt><trkpt lat="43.07577609332663" lon="10.593443756759193"><ele>126.0</ele><time>2026-03-22T08:57:22Z</time></trkpt><trkpt lat="43.0758040790432" lon="10.593679761378857"><ele>121.66666666666666</ele><time>2026-03-22T08:57:23Z</time></trkpt><trkpt lat="43.075809751444865" lon="10.593916694297713"><ele>117.33333333333333</ele><time>2026-03-22T08:57:24Z</time></trkpt><trkpt lat="43.07579614833898" lon="10.594149306414328"><ele>113.0</ele><time>2026-03-22T08:57:25Z</time></trkpt><trkpt lat="43.07578311092249" lon="10.594380886769484"><ele>119.33333333333333</ele><time>2026-03-22T08:57:26Z</time></trkpt><trkpt lat="43.07576127337226" lon="10.594615869411163"><ele>125.66666666666666</ele><time>2026-03-22T08:57:27Z</time></trkpt><trkpt lat="43.07573794891533" lon="10.594850529991245"><ele>132.0</ele><time>2026-03-22T08:57:28Z</time></trkpt><trkpt lat="43.07571428719888" lon="10.595092616265688"><ele>132.0</ele><time>2026-03-22T08:57:29Z</time></trkpt><trkpt lat="43.075696365918276" lon="10.59532906959696"><ele>132.0</ele><time>2026-03-22T08:57:30Z</time></trkpt><trkpt lat="43.07567732377801" lon="10.595571689141424"><ele>132.0</ele><time>2026-03-22T08:57:31Z</time></trkpt><trkpt lat="43.07565157380091" lon="10.5958210947156"><ele>132.33333333333334</ele><time>2026-03-22T08:57:32Z</time></trkpt><trkpt lat="43.07561303626114" lon="10.59605669244353"><ele>132.66666666666669</ele><time>2026-03-22T08:57:33Z</time></trkpt><trkpt lat="43.075578479956036" lon="10.596292142175916"><ele>133.0</ele><time>2026-03-22T08:57:34Z</time></trkpt><trkpt lat="43.07555481489895" lon="10.596526540402902"><ele>131.0</ele><time>2026-03-22T08:57:35Z</time></trkpt><trkpt lat="43.07555317273885" lon="10.596759649762264"><ele>129.0</ele><time>2026-03-22T08:57:36Z</time></trkpt><trkpt lat="43.07556316785082" lon="10.596997542092282"><ele>127.0</ele><time>2026-03-22T08:57:37Z</time></trkpt><trkpt lat="43.07557383822449" lon="10.597235767780603"><ele>127.0</ele><time>2026-03-22T08:57:38Z</time></trkpt><trkpt lat="43.07558171830214" lon="10.597479317807316"><ele>127.0</ele><time>2026-03-22T08:57:39Z</time></trkpt><trkpt lat="43.07557094122655" lon="10.59771085570867"><ele>127.0</ele><time>2026-03-22T08:57:40Z</time></trkpt><trkpt lat="43.075534580680184" lon="10.597933052383302"><ele>126.0</ele><time>2026-03-22T08:57:41Z</time></trkpt><trkpt lat="43.07548247406633" lon="10.598155820112495"><ele>125.0</ele><time>2026-03-22T08:57:42Z</time></trkpt><trkpt lat="43.07542281057594" lon="10.598379747911576"><ele>124.0</ele><time>2026-03-22T08:57:43Z</time></trkpt><trkpt lat="43.07536445186525" lon="10.59860822137987"><ele>124.33333333333334</ele><time>2026-03-22T08:57:44Z</time></trkpt><trkpt lat="43.07530737297784" lon="10.59882956608312"><ele>124.66666666666666</ele><time>2026-03-22T08:57:45Z</time></trkpt><trkpt lat="43.07525071616753" lon="10.599048902022776"><ele>125.0</ele><time>2026-03-22T08:57:46Z</time></trkpt><trkpt lat="43.075194102943414" lon="10.599271102602474"><ele>125.0</ele><time>2026-03-22T08:57:47Z</time></trkpt><trkpt lat="43.07514312575759" lon="10.599491870683549"><ele>125.0</ele><time>2026-03-22T08:57:48Z</time></trkpt><trkpt lat="43.07509034025514" lon="10.599705514022732"><ele>125.0</ele><time>2026-03-22T08:57:49Z</time></trkpt><trkpt lat="43.07503592442546" lon="10.59991918548157"><ele>125.66666666666666</ele><time>2026-03-22T08:57:50Z</time></trkpt><trkpt lat="43.07498490496757" lon="10.600126037434551"><ele>126.33333333333334</ele><time>2026-03-22T08:57:51Z</time></trkpt><trkpt lat="43.07493406553395" lon="10.600329340327425"><ele>127.0</ele><time>2026-03-22T08:57:52Z</time></trkpt><trkpt lat="43.07488564975594" lon="10.600532097345303"><ele>128.5</ele><time>2026-03-22T08:57:53Z</time></trkpt><trkpt lat="43.07481687157623" lon="10.600696836976201"><ele>130.0</ele><time>2026-03-22T08:57:54Z</time></trkpt><trkpt lat="43.07474633299103" lon="10.600870320373543"><ele>131.5</ele><time>2026-03-22T08:57:55Z</time></trkpt><trkpt lat="43.07466196808665" lon="10.601038004597884"><ele>133.0</ele><time>2026-03-22T08:57:56Z</time></trkpt><trkpt lat="43.07452910721092" lon="10.601167262506447"><ele>133.0</ele><time>2026-03-22T08:57:57Z</time></trkpt><trkpt lat="43.07440911368064" lon="10.601305828029103"><ele>133.0</ele><time>2026-03-22T08:57:58Z</time></trkpt><trkpt lat="43.074286105467394" lon="10.601441424090586"><ele>133.0</ele><time>2026-03-22T08:57:59Z</time></trkpt><trkpt lat="43.07417669325357" lon="10.601583810034729"><ele>136.66666666666669</ele><time>2026-03-22T08:58:00Z</time></trkpt><trkpt lat="43.07405996695638" lon="10.601728021445824"><ele>140.33333333333334</ele><time>2026-03-22T08:58:01Z</time></trkpt><trkpt lat="43.07394964179182" lon="10.601873022433386"><ele>144.0</ele><time>2026-03-22T08:58:02Z</time></trkpt><trkpt lat="43.07383258612179" lon="10.60199996396424"><ele>144.0</ele><time>2026-03-22T08:58:03Z</time></trkpt><trkpt lat="43.07371921762405" lon="10.602151438832363"><ele>144.0</ele><time>2026-03-22T08:58:04Z</time></trkpt><trkpt lat="43.07360942378699" lon="10.60231225186056"><ele>144.0</ele><time>2026-03-22T08:58:05Z</time></trkpt><trkpt lat="43.07350638689435" lon="10.602482603353607"><ele>144.0</ele><time>2026-03-22T08:58:06Z</time></trkpt><trkpt lat="43.073401671659724" lon="10.602663773265512"><ele>144.0</ele><time>2026-03-22T08:58:07Z</time></trkpt><trkpt lat="43.07329209190549" lon="10.60284862268725"><ele>144.0</ele><time>2026-03-22T08:58:08Z</time></trkpt><trkpt lat="43.073184488680546" lon="10.603027723223764"><ele>145.33333333333334</ele><time>2026-03-22T08:58:09Z</time></trkpt><trkpt lat="43.07307899821756" lon="10.60320327269408"><ele>146.66666666666669</ele><time>2026-03-22T08:58:10Z</time></trkpt><trkpt lat="43.072976855861036" lon="10.603377464236086"><ele>148.0</ele><time>2026-03-22T08:58:11Z</time></trkpt><trkpt lat="43.07287197600834" lon="10.603560633963854"><ele>145.66666666666669</ele><time>2026-03-22T08:58:12Z</time></trkpt><trkpt lat="43.072774400170765" lon="10.603759565778716"><ele>143.33333333333334</ele><time>2026-03-22T08:58:13Z</time></trkpt><trkpt lat="43.07269504329705" lon="10.603956504438754"><ele>141.0</ele><time>2026-03-22T08:58:14Z</time></trkpt><trkpt lat="43.07261901866281" lon="10.60415143277785"><ele>141.0</ele><time>2026-03-22T08:58:15Z</time></trkpt><trkpt lat="43.07254174852258" lon="10.604355273327148"><ele>141.0</ele><time>2026-03-22T08:58:16Z</time></trkpt><trkpt lat="43.07246378032407" lon="10.604558187679293"><ele>141.0</ele><time>2026-03-22T08:58:17Z</time></trkpt><trkpt lat="43.0723859583156" lon="10.60475649414816"><ele>143.66666666666666</ele><time>2026-03-22T08:58:18Z</time></trkpt><trkpt lat="43.072307449201155" lon="10.604956551412865"><ele>146.33333333333331</ele><time>2026-03-22T08:58:19Z</time></trkpt><trkpt lat="43.072230967066815" lon="10.605151443468102"><ele>149.0</ele><time>2026-03-22T08:58:20Z</time></trkpt><trkpt lat="43.07215516147189" lon="10.605344611727903"><ele>149.0</ele><time>2026-03-22T08:58:21Z</time></trkpt><trkpt lat="43.072084827070995" lon="10.605525959087334"><ele>149.0</ele><time>2026-03-22T08:58:22Z</time></trkpt><trkpt lat="43.07201523487838" lon="10.605705683843409"><ele>149.0</ele><time>2026-03-22T08:58:23Z</time></trkpt><trkpt lat="43.07194582945607" lon="10.605884926218797"><ele>149.0</ele><time>2026-03-22T08:58:24Z</time></trkpt><trkpt lat="43.071879440668134" lon="10.60605637801012"><ele>147.5</ele><time>2026-03-22T08:58:25Z</time></trkpt><trkpt lat="43.07181105917212" lon="10.606230473886455"><ele>146.0</ele><time>2026-03-22T08:58:26Z</time></trkpt><trkpt lat="43.07174001584583" lon="10.606410490755401"><ele>144.5</ele><time>2026-03-22T08:58:27Z</time></trkpt><trkpt lat="43.07166974050285" lon="10.606595110830456"><ele>143.0</ele><time>2026-03-22T08:58:28Z</time></trkpt><trkpt lat="43.071605379954" lon="10.606796237941806"><ele>149.66666666666666</ele><time>2026-03-22T08:58:29Z</time></trkpt><trkpt lat="43.071555126180755" lon="10.607003098258717"><ele>156.33333333333334</ele><time>2026-03-22T08:58:30Z</time></trkpt><trkpt lat="43.07152504075302" lon="10.607220798267413"><ele>163.0</ele><time>2026-03-22T08:58:31Z</time></trkpt><trkpt lat="43.071495938797796" lon="10.607439082253771"><ele>163.0</ele><time>2026-03-22T08:58:32Z</time></trkpt><trkpt lat="43.07146713710477" lon="10.607662125870545"><ele>163.0</ele><time>2026-03-22T08:58:33Z</time></trkpt><trkpt lat="43.071439084128734" lon="10.607884677576893"><ele>163.0</ele><time>2026-03-22T08:58:34Z</time></trkpt><trkpt lat="43.07141143352304" lon="10.608104037188264"><ele>161.0</ele><time>2026-03-22T08:58:35Z</time></trkpt><trkpt lat="43.07139962044702" lon="10.608325871926198"><ele>159.0</ele><time>2026-03-22T08:58:36Z</time></trkpt><trkpt lat="43.07136926154867" lon="10.608537456548373"><ele>157.0</ele><time>2026-03-22T08:58:37Z</time></trkpt><trkpt lat="43.07134268152577" lon="10.608760978744625"><ele>156.66666666666669</ele><time>2026-03-22T08:58:38Z</time></trkpt><trkpt lat="43.07130225422877" lon="10.608970501530546"><ele>156.33333333333334</ele><time>2026-03-22T08:58:39Z</time></trkpt><trkpt lat="43.071280204963614" lon="10.609174015729353"><ele>156.0</ele><time>2026-03-22T08:58:40Z</time></trkpt><trkpt lat="43.07124589777926" lon="10.609378988608452"><ele>154.0</ele><time>2026-03-22T08:58:41Z</time></trkpt><trkpt lat="43.071204341026615" lon="10.609578446170149"><ele>152.0</ele><time>2026-03-22T08:58:42Z</time></trkpt><trkpt lat="43.07114333868949" lon="10.609763393417882"><ele>150.0</ele><time>2026-03-22T08:58:43Z</time></trkpt><trkpt lat="43.07106399274335" lon="10.609948737518557"><ele>150.0</ele><time>2026-03-22T08:58:44Z</time></trkpt><trkpt lat="43.07098384356138" lon="10.610104042184256"><ele>150.0</ele><time>2026-03-22T08:58:45Z</time></trkpt><trkpt lat="43.07090648068457" lon="10.610243201647112"><ele>150.0</ele><time>2026-03-22T08:58:46Z</time></trkpt><trkpt lat="43.070827575471526" lon="10.610384912049232"><ele>150.0</ele><time>2026-03-22T08:58:47Z</time></trkpt><trkpt lat="43.07074065897485" lon="10.610529583557858"><ele>152.0</ele><time>2026-03-22T08:58:48Z</time></trkpt><trkpt lat="43.07064457220065" lon="10.610658523318389"><ele>154.0</ele><time>2026-03-22T08:58:49Z</time></trkpt><trkpt lat="43.07056374120577" lon="10.610795671536074"><ele>156.0</ele><time>2026-03-22T08:58:50Z</time></trkpt><trkpt lat="43.07048122865556" lon="10.610937195369925"><ele>158.0</ele><time>2026-03-22T08:58:51Z</time></trkpt><trkpt lat="43.07039738334604" lon="10.611084561163084"><ele>156.5</ele><time>2026-03-22T08:58:52Z</time></trkpt><trkpt lat="43.070328784491316" lon="10.611240167906336"><ele>155.0</ele><time>2026-03-22T08:58:53Z</time></trkpt><trkpt lat="43.07023873368877" lon="10.611380986817288"><ele>153.5</ele><time>2026-03-22T08:58:54Z</time></trkpt><trkpt lat="43.070157673848456" lon="10.611529756597921"><ele>152.0</ele><time>2026-03-22T08:58:55Z</time></trkpt><trkpt lat="43.07007333412564" lon="10.61167589971411"><ele>152.0</ele><time>2026-03-22T08:58:56Z</time></trkpt><trkpt lat="43.06996639770748" lon="10.61179840308943"><ele>152.0</ele><time>2026-03-22T08:58:57Z</time></trkpt><trkpt lat="43.06986033102008" lon="10.611929263884651"><ele>152.0</ele><time>2026-03-22T08:58:58Z</time></trkpt><trkpt lat="43.06975796156769" lon="10.612060947761224"><ele>152.0</ele><time>2026-03-22T08:58:59Z</time></trkpt><trkpt lat="43.06964428177665" lon="10.612181435893628"><ele>152.75</ele><time>2026-03-22T08:59:00Z</time></trkpt><trkpt lat="43.069530775223924" lon="10.612304607437881"><ele>153.5</ele><time>2026-03-22T08:59:01Z</time></trkpt><trkpt lat="43.06941472602974" lon="10.612426514314517"><ele>154.25</ele><time>2026-03-22T08:59:02Z</time></trkpt><trkpt lat="43.06929667536809" lon="10.612560140161724"><ele>155.0</ele><time>2026-03-22T08:59:03Z</time></trkpt><trkpt lat="43.06918370417544" lon="10.612692457554196"><ele>155.5</ele><time>2026-03-22T08:59:04Z</time></trkpt><trkpt lat="43.06908523779053" lon="10.612812191581302"><ele>156.0</ele><time>2026-03-22T08:59:05Z</time></trkpt><trkpt lat="43.06898070030125" lon="10.612923312730837"><ele>156.5</ele><time>2026-03-22T08:59:06Z</time></trkpt><trkpt lat="43.06888334250341" lon="10.613028616620833"><ele>157.0</ele><time>2026-03-22T08:59:07Z</time></trkpt><trkpt lat="43.06879500150383" lon="10.613132261701473"><ele>157.0</ele><time>2026-03-22T08:59:08Z</time></trkpt><trkpt lat="43.068709162972155" lon="10.613215423209345"><ele>157.0</ele><time>2026-03-22T08:59:09Z</time></trkpt><trkpt lat="43.06862604421212" lon="10.61329175629988"><ele>157.0</ele><time>2026-03-22T08:59:10Z</time></trkpt><trkpt lat="43.06854891736952" lon="10.613356529062603"><ele>157.0</ele><time>2026-03-22T08:59:11Z</time></trkpt><trkpt lat="43.06848505248469" lon="10.613407992289597"><ele>157.0</ele><time>2026-03-22T08:59:12Z</time></trkpt><trkpt lat="43.06842404097417" lon="10.613464623419558"><ele>157.0</ele><time>2026-03-22T08:59:14Z</time></trkpt><trkpt lat="43.0684800839915" lon="10.613416506305002"><ele>157.0</ele><time>2026-03-22T08:59:18Z</time></trkpt><trkpt lat="43.06853738739803" lon="10.61336802660758"><ele>157.0</ele><time>2026-03-22T08:59:19Z</time></trkpt><trkpt lat="43.0686552522246" lon="10.613260178713904"><ele>157.0</ele><time>2026-03-22T08:59:21Z</time></trkpt><trkpt lat="43.068799605093496" lon="10.613143035710726"><ele>157.0</ele><time>2026-03-22T08:59:22Z</time></trkpt><trkpt lat="43.06887766855748" lon="10.613058702512465"><ele>157.0</ele><time>2026-03-22T08:59:23Z</time></trkpt><trkpt lat="43.0689684322959" lon="10.61298093039919"><ele>157.0</ele><time>2026-03-22T08:59:24Z</time></trkpt><trkpt lat="43.06904313775356" lon="10.61291514142415"><ele>157.0</ele><time>2026-03-22T08:59:25Z</time></trkpt><trkpt lat="43.06910267052213" lon="10.612835066635613"><ele>157.0</ele><time>2026-03-22T08:59:26Z</time></trkpt><trkpt lat="43.06915347563273" lon="10.612770287628894"><ele>157.0</ele><time>2026-03-22T08:59:27Z</time></trkpt><trkpt lat="43.06922410412424" lon="10.612743685379241"><ele>157.0</ele><time>2026-03-22T08:59:29Z</time></trkpt><trkpt lat="43.06927822019703" lon="10.612794770228875"><ele>157.2</ele><time>2026-03-22T08:59:31Z</time></trkpt><trkpt lat="43.06927287619779" lon="10.612943060319157"><ele>157.39999999999998</ele><time>2026-03-22T08:59:33Z</time></trkpt><trkpt lat="43.06922136310919" lon="10.613091286411814"><ele>157.60000000000002</ele><time>2026-03-22T08:59:35Z</time></trkpt><trkpt lat="43.069175851544806" lon="10.613221027455005"><ele>157.8</ele><time>2026-03-22T08:59:37Z</time></trkpt><trkpt lat="43.069172322639936" lon="10.613310287606732"><ele>158.0</ele><time>2026-03-22T08:59:38Z</time></trkpt><trkpt lat="43.069175966173816" lon="10.613476418965634"><ele>158.0</ele><time>2026-03-22T08:59:40Z</time></trkpt><trkpt lat="43.069169112306746" lon="10.613564185685274"><ele>158.0</ele><time>2026-03-22T08:59:41Z</time></trkpt><trkpt lat="43.069157194441914" lon="10.613649488501093"><ele>158.0</ele><time>2026-03-22T08:59:42Z</time></trkpt><trkpt lat="43.06916681790871" lon="10.613746759023275"><ele>158.0</ele><time>2026-03-22T08:59:43Z</time></trkpt><trkpt lat="43.06917774158551" lon="10.613835390687392"><ele>158.0</ele><time>2026-03-22T08:59:44Z</time></trkpt><trkpt lat="43.06921853615182" lon="10.613990862261527"><ele>158.0</ele><time>2026-03-22T08:59:46Z</time></trkpt><trkpt lat="43.06920615264687" lon="10.61413724365991"><ele>158.5</ele><time>2026-03-22T08:59:48Z</time></trkpt><trkpt lat="43.06921727971469" lon="10.614236536413767"><ele>159.0</ele><time>2026-03-22T08:59:49Z</time></trkpt><trkpt lat="43.06923655524942" lon="10.614329703028389"><ele>159.5</ele><time>2026-03-22T08:59:49.999Z</time></trkpt><trkpt lat="43.069245996058505" lon="10.614428759243884"><ele>160.0</ele><time>2026-03-22T08:59:51.999Z</time></trkpt><trkpt lat="43.06928303161216" lon="10.614577948050723"><ele>160.5</ele><time>2026-03-22T08:59:53.999Z</time></trkpt><trkpt lat="43.06929095260099" lon="10.614672729975402"><ele>161.0</ele><time>2026-03-22T08:59:54.999Z</time></trkpt><trkpt lat="43.06930565463667" lon="10.614772885626648"><ele>161.16666666666666</ele><time>2026-03-22T08:59:55.999Z</time></trkpt><trkpt lat="43.069312653060834" lon="10.614890734780246"><ele>161.33333333333331</ele><time>2026-03-22T08:59:56.999Z</time></trkpt><trkpt lat="43.06935786869823" lon="10.61500436126853"><ele>161.5</ele><time>2026-03-22T08:59:58Z</time></trkpt><trkpt lat="43.06939272617124" lon="10.615119036841943"><ele>161.66666666666666</ele><time>2026-03-22T08:59:59Z</time></trkpt><trkpt lat="43.06941906839208" lon="10.615228281701858"><ele>161.83333333333334</ele><time>2026-03-22T09:00:00Z</time></trkpt><trkpt lat="43.06943997093808" lon="10.615326334982656"><ele>162.0</ele><time>2026-03-22T09:00:01Z</time></trkpt><trkpt lat="43.069458467514735" lon="10.615432874677136"><ele>162.5</ele><time>2026-03-22T09:00:02Z</time></trkpt><trkpt lat="43.0694631945208" lon="10.615537959106964"><ele>163.0</ele><time>2026-03-22T09:00:03Z</time></trkpt><trkpt lat="43.0694664512494" lon="10.615642507359393"><ele>163.5</ele><time>2026-03-22T09:00:04Z</time></trkpt><trkpt lat="43.06946717736864" lon="10.615730252522685"><ele>164.0</ele><time>2026-03-22T09:00:05Z</time></trkpt><trkpt lat="43.06948798949751" lon="10.615893335628776"><ele>164.5</ele><time>2026-03-22T09:00:07Z</time></trkpt><trkpt lat="43.06950532129678" lon="10.616035549155459"><ele>165.0</ele><time>2026-03-22T09:00:09Z</time></trkpt><trkpt lat="43.06954135500602" lon="10.616173133154497"><ele>165.66666666666666</ele><time>2026-03-22T09:00:11Z</time></trkpt><trkpt lat="43.06947941151919" lon="10.616278623098571"><ele>166.33333333333334</ele><time>2026-03-22T09:00:12Z</time></trkpt><trkpt lat="43.06949909737922" lon="10.61644435859078"><ele>167.0</ele><time>2026-03-22T09:00:14Z</time></trkpt><trkpt lat="43.069517099898505" lon="10.61653799672215"><ele>167.66666666666669</ele><time>2026-03-22T09:00:15Z</time></trkpt><trkpt lat="43.06954448929303" lon="10.61662369626237"><ele>168.33333333333334</ele><time>2026-03-22T09:00:16Z</time></trkpt><trkpt lat="43.06957082637297" lon="10.616711523714805"><ele>169.0</ele><time>2026-03-22T09:00:17Z</time></trkpt><trkpt lat="43.06958737255091" lon="10.616840055053888"><ele>169.0</ele><time>2026-03-22T09:00:19Z</time></trkpt><trkpt lat="43.069586447900896" lon="10.616929028031203"><ele>169.0</ele><time>2026-03-22T09:00:21Z</time></trkpt><trkpt lat="43.06956512071255" lon="10.617047235966801"><ele>169.0</ele><time>2026-03-22T09:00:24Z</time></trkpt><trkpt lat="43.06949070514951" lon="10.617072144026013"><ele>169.0</ele><time>2026-03-22T09:00:26Z</time></trkpt><trkpt lat="43.069526031751856" lon="10.617307402058126"><ele>169.0</ele><time>2026-03-22T09:00:28Z</time></trkpt><trkpt lat="43.06949101806844" lon="10.617385182561788"><ele>170.0</ele><time>2026-03-22T09:00:29Z</time></trkpt><trkpt lat="43.06945461745473" lon="10.617520884527762"><ele>171.0</ele><time>2026-03-22T09:00:31Z</time></trkpt><trkpt lat="43.06939502554469" lon="10.617662078638524"><ele>172.0</ele><time>2026-03-22T09:00:33Z</time></trkpt><trkpt lat="43.06935075283967" lon="10.617810238235666"><ele>173.0</ele><time>2026-03-22T09:00:35Z</time></trkpt><trkpt lat="43.0692910787877" lon="10.617917961050523"><ele>174.0</ele><time>2026-03-22T09:00:37Z</time></trkpt><trkpt lat="43.06923602617546" lon="10.618025269213026"><ele>175.79999999999998</ele><time>2026-03-22T09:00:39Z</time></trkpt><trkpt lat="43.069204609634134" lon="10.61814885232772"><ele>177.6</ele><time>2026-03-22T09:00:41Z</time></trkpt><trkpt lat="43.06918948654399" lon="10.618285852307471"><ele>179.4</ele><time>2026-03-22T09:00:43Z</time></trkpt><trkpt lat="43.06919417648976" lon="10.618430477426246"><ele>181.2</ele><time>2026-03-22T09:00:45Z</time></trkpt><trkpt lat="43.0692038660093" lon="10.61856625360251"><ele>183.0</ele><time>2026-03-22T09:00:47Z</time></trkpt><trkpt lat="43.06920522560226" lon="10.618713483228735"><ele>184.4</ele><time>2026-03-22T09:00:49Z</time></trkpt><trkpt lat="43.069238047517196" lon="10.618859240650886"><ele>185.8</ele><time>2026-03-22T09:00:51Z</time></trkpt><trkpt lat="43.069253248909135" lon="10.619008485912238"><ele>187.2</ele><time>2026-03-22T09:00:53Z</time></trkpt><trkpt lat="43.069230429101026" lon="10.619093332519359"><ele>188.6</ele><time>2026-03-22T09:00:54Z</time></trkpt><trkpt lat="43.069220067082014" lon="10.619263580949589"><ele>190.0</ele><time>2026-03-22T09:00:56Z</time></trkpt><trkpt lat="43.0691815339586" lon="10.619419913472544"><ele>191.6</ele><time>2026-03-22T09:00:58Z</time></trkpt><trkpt lat="43.0691430144503" lon="10.61958063818493"><ele>193.2</ele><time>2026-03-22T09:01:00Z</time></trkpt><trkpt lat="43.06912815120904" lon="10.619733732986811"><ele>194.8</ele><time>2026-03-22T09:01:02Z</time></trkpt><trkpt lat="43.06913911182225" lon="10.61987063068536"><ele>196.4</ele><time>2026-03-22T09:01:04Z</time></trkpt><trkpt lat="43.0691145665998" lon="10.61998722010943"><ele>198.0</ele><time>2026-03-22T09:01:06Z</time></trkpt><trkpt lat="43.0690938802733" lon="10.620104041600822"><ele>199.60000000000002</ele><time>2026-03-22T09:01:08Z</time></trkpt><trkpt lat="43.069100853568976" lon="10.620228372649668"><ele>201.20000000000002</ele><time>2026-03-22T09:01:10Z</time></trkpt><trkpt lat="43.06910121647717" lon="10.620360027317865"><ele>202.8</ele><time>2026-03-22T09:01:12Z</time></trkpt><trkpt lat="43.06904378034645" lon="10.620483152186937"><ele>204.4</ele><time>2026-03-22T09:01:14Z</time></trkpt><trkpt lat="43.06900903566003" lon="10.620592647588479"><ele>206.0</ele><time>2026-03-22T09:01:16Z</time></trkpt><trkpt lat="43.068954613832744" lon="10.620726278938294"><ele>208.00000000000003</ele><time>2026-03-22T09:01:18Z</time></trkpt><trkpt lat="43.0689406268812" lon="10.620832503702278"><ele>210.0</ele><time>2026-03-22T09:01:19Z</time></trkpt><trkpt lat="43.06894431952566" lon="10.620927552175214"><ele>212.0</ele><time>2026-03-22T09:01:20Z</time></trkpt><trkpt lat="43.068934103755296" lon="10.621089594187055"><ele>214.0</ele><time>2026-03-22T09:01:22Z</time></trkpt><trkpt lat="43.068933843022926" lon="10.621222160575925"><ele>216.00000000000003</ele><time>2026-03-22T09:01:24Z</time></trkpt><trkpt lat="43.06895442762199" lon="10.621309523535057"><ele>218.0</ele><time>2026-03-22T09:01:25Z</time></trkpt><trkpt lat="43.068946602667324" lon="10.621429526328718"><ele>220.0</ele><time>2026-03-22T09:01:27Z</time></trkpt><trkpt lat="43.068921203558844" lon="10.621563017106626"><ele>222.0</ele><time>2026-03-22T09:01:29Z</time></trkpt><trkpt lat="43.06884996018245" lon="10.621640351812596"><ele>224.0</ele><time>2026-03-22T09:01:33Z</time></trkpt><trkpt lat="43.068850510110344" lon="10.621830498526949"><ele>226.0</ele><time>2026-03-22T09:02:18Z</time></trkpt><trkpt lat="43.068872068350274" lon="10.62172757341013"><ele>228.0</ele><time>2026-03-22T09:03:08Z</time></trkpt><trkpt lat="43.068902794727386" lon="10.621645590361052"><ele>228.0</ele><time>2026-03-22T09:03:10Z</time></trkpt><trkpt lat="43.06890823099483" lon="10.621523074136084"><ele>228.0</ele><time>2026-03-22T09:03:12Z</time></trkpt><trkpt lat="43.068907683079644" lon="10.621394006252464"><ele>228.0</ele><time>2026-03-22T09:03:14Z</time></trkpt><trkpt lat="43.06889740965992" lon="10.621278421015012"><ele>228.0</ele><time>2026-03-22T09:03:16Z</time></trkpt><trkpt lat="43.0689097485096" lon="10.621157709895096"><ele>228.0</ele><time>2026-03-22T09:03:18Z</time></trkpt><trkpt lat="43.068912848001425" lon="10.621065416500096"><ele>228.0</ele><time>2026-03-22T09:03:20Z</time></trkpt><trkpt lat="43.06894636161737" lon="10.620945069506481"><ele>226.0</ele><time>2026-03-22T09:03:23Z</time></trkpt><trkpt lat="43.068967660780096" lon="10.620837274594164"><ele>224.0</ele><time>2026-03-22T09:03:25Z</time></trkpt><trkpt lat="43.068987088392326" lon="10.62070359566122"><ele>222.0</ele><time>2026-03-22T09:03:27Z</time></trkpt><trkpt lat="43.06906400957309" lon="10.620576976287301"><ele>220.0</ele><time>2026-03-22T09:03:29Z</time></trkpt><trkpt lat="43.069094728187665" lon="10.620476256582549"><ele>218.0</ele><time>2026-03-22T09:03:31Z</time></trkpt><trkpt lat="43.06909681054602" lon="10.620360039332668"><ele>215.60000000000002</ele><time>2026-03-22T09:03:33Z</time></trkpt><trkpt lat="43.06911373674863" lon="10.620222989419341"><ele>213.20000000000002</ele><time>2026-03-22T09:03:35Z</time></trkpt><trkpt lat="43.06912303057042" lon="10.620100177633262"><ele>210.8</ele><time>2026-03-22T09:03:37Z</time></trkpt><trkpt lat="43.06908336495837" lon="10.619976290954295"><ele>208.4</ele><time>2026-03-22T09:03:39Z</time></trkpt><trkpt lat="43.06910538801278" lon="10.619825453665802"><ele>206.0</ele><time>2026-03-22T09:03:41Z</time></trkpt><trkpt lat="43.069147633770555" lon="10.619669645869344"><ele>204.4</ele><time>2026-03-22T09:03:43Z</time></trkpt><trkpt lat="43.06918586144468" lon="10.619507113640672"><ele>202.8</ele><time>2026-03-22T09:03:45Z</time></trkpt><trkpt lat="43.06920385754465" lon="10.619420809207893"><ele>201.20000000000002</ele><time>2026-03-22T09:03:46Z</time></trkpt><trkpt lat="43.06920908592573" lon="10.619286374320202"><ele>199.60000000000002</ele><time>2026-03-22T09:03:48Z</time></trkpt><trkpt lat="43.06921169226573" lon="10.619150947267059"><ele>198.0</ele><time>2026-03-22T09:03:50Z</time></trkpt><trkpt lat="43.069185871544036" lon="10.619054137598981"><ele>196.4</ele><time>2026-03-22T09:03:52Z</time></trkpt><trkpt lat="43.069165065769035" lon="10.61887544139905"><ele>194.8</ele><time>2026-03-22T09:03:54Z</time></trkpt><trkpt lat="43.06914123704634" lon="10.618772770559957"><ele>193.2</ele><time>2026-03-22T09:03:55Z</time></trkpt><trkpt lat="43.06913658693514" lon="10.618684127421336"><ele>191.6</ele><time>2026-03-22T09:03:56Z</time></trkpt><trkpt lat="43.06913205746455" lon="10.618524183779817"><ele>190.0</ele><time>2026-03-22T09:03:58Z</time></trkpt><trkpt lat="43.06912417512208" lon="10.618381842319264"><ele>188.6</ele><time>2026-03-22T09:04:00Z</time></trkpt><trkpt lat="43.0691469829557" lon="10.61827904293086"><ele>187.2</ele><time>2026-03-22T09:04:01Z</time></trkpt><trkpt lat="43.06921352884038" lon="10.618139230871959"><ele>185.8</ele><time>2026-03-22T09:04:03Z</time></trkpt><trkpt lat="43.06926562041033" lon="10.6180578536768"><ele>184.4</ele><time>2026-03-22T09:04:04Z</time></trkpt><trkpt lat="43.06931747588472" lon="10.617931811337302"><ele>183.0</ele><time>2026-03-22T09:04:05Z</time></trkpt><trkpt lat="43.069368930012565" lon="10.617743109058802"><ele>181.5</ele><time>2026-03-22T09:04:07Z</time></trkpt><trkpt lat="43.069426303084704" lon="10.617601109710291"><ele>180.0</ele><time>2026-03-22T09:04:09Z</time></trkpt><trkpt lat="43.06947782505039" lon="10.617529728045753"><ele>178.5</ele><time>2026-03-22T09:04:10Z</time></trkpt><trkpt lat="43.069513614315916" lon="10.617456000306534"><ele>177.0</ele><time>2026-03-22T09:04:11Z</time></trkpt><trkpt lat="43.06955012061977" lon="10.617372674821873"><ele>175.5</ele><time>2026-03-22T09:04:12Z</time></trkpt><trkpt lat="43.06959352873027" lon="10.617296087805839"><ele>174.0</ele><time>2026-03-22T09:04:13Z</time></trkpt><trkpt lat="43.06964737806008" lon="10.617237254969913"><ele>174.0</ele><time>2026-03-22T09:04:14Z</time></trkpt><trkpt lat="43.069679648670736" lon="10.617131828308946"><ele>174.0</ele><time>2026-03-22T09:04:16Z</time></trkpt><trkpt lat="43.069644500232435" lon="10.616968924900533"><ele>174.0</ele><time>2026-03-22T09:04:18Z</time></trkpt><trkpt lat="43.06960984552679" lon="10.616881296459002"><ele>174.0</ele><time>2026-03-22T09:04:19Z</time></trkpt><trkpt lat="43.06956022851708" lon="10.616723763548823"><ele>174.0</ele><time>2026-03-22T09:04:21Z</time></trkpt><trkpt lat="43.06953939978552" lon="10.616641190615884"><ele>173.0</ele><time>2026-03-22T09:04:22Z</time></trkpt><trkpt lat="43.06950856142231" lon="10.616485100249207"><ele>172.0</ele><time>2026-03-22T09:04:24Z</time></trkpt><trkpt lat="43.06951463818911" lon="10.616311158315595"><ele>171.0</ele><time>2026-03-22T09:04:26Z</time></trkpt><trkpt lat="43.06951880788916" lon="10.616216283493296"><ele>170.0</ele><time>2026-03-22T09:04:27Z</time></trkpt><trkpt lat="43.06951776233506" lon="10.616126949722812"><ele>169.0</ele><time>2026-03-22T09:04:28Z</time></trkpt><trkpt lat="43.069523412758194" lon="10.615992221474253"><ele>168.33333333333334</ele><time>2026-03-22T09:04:29Z</time></trkpt><trkpt lat="43.06950455788175" lon="10.615893294793166"><ele>167.66666666666669</ele><time>2026-03-22T09:04:30Z</time></trkpt><trkpt lat="43.069497286427854" lon="10.615758773631882"><ele>167.0</ele><time>2026-03-22T09:04:31Z</time></trkpt><trkpt lat="43.06949762140837" lon="10.615629367850232"><ele>166.33333333333334</ele><time>2026-03-22T09:04:32Z</time></trkpt><trkpt lat="43.0694947030827" lon="10.615521359642969"><ele>165.66666666666666</ele><time>2026-03-22T09:04:33Z</time></trkpt><trkpt lat="43.06947968126961" lon="10.615424743361286"><ele>165.0</ele><time>2026-03-22T09:04:34Z</time></trkpt><trkpt lat="43.06945188806236" lon="10.615326189917639"><ele>164.5</ele><time>2026-03-22T09:04:35Z</time></trkpt><trkpt lat="43.06941083189998" lon="10.615131048817732"><ele>164.0</ele><time>2026-03-22T09:04:37Z</time></trkpt><trkpt lat="43.06938716097263" lon="10.615030006152471"><ele>163.5</ele><time>2026-03-22T09:04:38Z</time></trkpt><trkpt lat="43.06936370565867" lon="10.61493776889876"><ele>163.0</ele><time>2026-03-22T09:04:39Z</time></trkpt><trkpt lat="43.06935086543573" lon="10.614838641388934"><ele>162.5</ele><time>2026-03-22T09:04:40Z</time></trkpt><trkpt lat="43.06932341019074" lon="10.614759297048566"><ele>162.0</ele><time>2026-03-22T09:04:41Z</time></trkpt><trkpt lat="43.06930627141937" lon="10.614589504676792"><ele>162.0</ele><time>2026-03-22T09:04:43Z</time></trkpt><trkpt lat="43.069298922128034" lon="10.614494321834721"><ele>162.0</ele><time>2026-03-22T09:04:44Z</time></trkpt><trkpt lat="43.069299792376505" lon="10.614396528483708"><ele>162.0</ele><time>2026-03-22T09:04:45Z</time></trkpt><trkpt lat="43.0692891837741" lon="10.61430221645507"><ele>162.0</ele><time>2026-03-22T09:04:46Z</time></trkpt><trkpt lat="43.06927788621969" lon="10.614201779036897"><ele>162.0</ele><time>2026-03-22T09:04:47Z</time></trkpt><trkpt lat="43.0692673617181" lon="10.61411085488121"><ele>162.0</ele><time>2026-03-22T09:04:48Z</time></trkpt><trkpt lat="43.069255811703286" lon="10.614010674037983"><ele>162.0</ele><time>2026-03-22T09:04:49Z</time></trkpt><trkpt lat="43.069236248317836" lon="10.613832577833202"><ele>161.8</ele><time>2026-03-22T09:04:51Z</time></trkpt><trkpt lat="43.06922065957443" lon="10.613657978825744"><ele>161.6</ele><time>2026-03-22T09:04:53Z</time></trkpt><trkpt lat="43.069213419722225" lon="10.613541878180387"><ele>161.4</ele><time>2026-03-22T09:04:54Z</time></trkpt><trkpt lat="43.06920898857778" lon="10.613341767227483"><ele>161.20000000000002</ele><time>2026-03-22T09:04:56Z</time></trkpt><trkpt lat="43.06921550511632" lon="10.613251221628532"><ele>161.0</ele><time>2026-03-22T09:04:57Z</time></trkpt><trkpt lat="43.06923209969348" lon="10.613151519437"><ele>160.4</ele><time>2026-03-22T09:04:58Z</time></trkpt><trkpt lat="43.06926593732887" lon="10.61298347926144"><ele>159.8</ele><time>2026-03-22T09:05:00Z</time></trkpt><trkpt lat="43.06929471869249" lon="10.612848080584573"><ele>159.20000000000002</ele><time>2026-03-22T09:05:02Z</time></trkpt><trkpt lat="43.06928058813358" lon="10.612758435241808"><ele>158.60000000000002</ele><time>2026-03-22T09:05:04Z</time></trkpt><trkpt lat="43.06920260262681" lon="10.612772807172277"><ele>158.0</ele><time>2026-03-22T09:05:06Z</time></trkpt><trkpt lat="43.06907769603578" lon="10.612847716042905"><ele>157.75</ele><time>2026-03-22T09:05:08Z</time></trkpt><trkpt lat="43.06899670375587" lon="10.612928023375336"><ele>157.5</ele><time>2026-03-22T09:05:09Z</time></trkpt><trkpt lat="43.068896280966015" lon="10.61303865213863"><ele>157.25</ele><time>2026-03-22T09:05:10Z</time></trkpt><trkpt lat="43.06878457270428" lon="10.613162322059827"><ele>157.0</ele><time>2026-03-22T09:05:11Z</time></trkpt><trkpt lat="43.06864900514308" lon="10.613263969094406"><ele>157.0</ele><time>2026-03-22T09:05:12Z</time></trkpt><trkpt lat="43.06852618290635" lon="10.613401509247755"><ele>157.0</ele><time>2026-03-22T09:05:13Z</time></trkpt><trkpt lat="43.06838754118531" lon="10.613514757714269"><ele>157.0</ele><time>2026-03-22T09:05:14Z</time></trkpt><trkpt lat="43.06823359640533" lon="10.613597128945095"><ele>159.0</ele><time>2026-03-22T09:05:15Z</time></trkpt><trkpt lat="43.0680818919189" lon="10.61369522910065"><ele>161.0</ele><time>2026-03-22T09:05:16Z</time></trkpt><trkpt lat="43.067929513551334" lon="10.613792072445142"><ele>163.0</ele><time>2026-03-22T09:05:17Z</time></trkpt><trkpt lat="43.06778883136586" lon="10.613911265213455"><ele>163.0</ele><time>2026-03-22T09:05:18Z</time></trkpt><trkpt lat="43.06764155179905" lon="10.61401058501254"><ele>163.0</ele><time>2026-03-22T09:05:19Z</time></trkpt><trkpt lat="43.06749802802162" lon="10.61411137575483"><ele>163.0</ele><time>2026-03-22T09:05:20Z</time></trkpt><trkpt lat="43.06735734956834" lon="10.614216255776343"><ele>163.33333333333334</ele><time>2026-03-22T09:05:21Z</time></trkpt><trkpt lat="43.06721019712983" lon="10.614305889913721"><ele>163.66666666666666</ele><time>2026-03-22T09:05:22Z</time></trkpt><trkpt lat="43.067074821270495" lon="10.614419591173192"><ele>164.0</ele><time>2026-03-22T09:05:23Z</time></trkpt><trkpt lat="43.06692533199317" lon="10.614498931091774"><ele>166.0</ele><time>2026-03-22T09:05:24Z</time></trkpt><trkpt lat="43.06676821770061" lon="10.61455525024579"><ele>168.0</ele><time>2026-03-22T09:05:25Z</time></trkpt><trkpt lat="43.066607876423504" lon="10.61460118198499"><ele>170.0</ele><time>2026-03-22T09:05:26Z</time></trkpt><trkpt lat="43.06643401455683" lon="10.61462875543688"><ele>170.33333333333331</ele><time>2026-03-22T09:05:27Z</time></trkpt><trkpt lat="43.06625529905737" lon="10.614649048669586"><ele>170.66666666666666</ele><time>2026-03-22T09:05:28Z</time></trkpt><trkpt lat="43.066076813882134" lon="10.61466839091476"><ele>171.0</ele><time>2026-03-22T09:05:29Z</time></trkpt><trkpt lat="43.06589038309101" lon="10.614683572022626"><ele>172.33333333333334</ele><time>2026-03-22T09:05:30Z</time></trkpt><trkpt lat="43.065701999570194" lon="10.614703358868898"><ele>173.66666666666669</ele><time>2026-03-22T09:05:31Z</time></trkpt><trkpt lat="43.0655243353717" lon="10.61472258157324"><ele>175.0</ele><time>2026-03-22T09:05:32Z</time></trkpt><trkpt lat="43.06535629715662" lon="10.614736796767325"><ele>175.0</ele><time>2026-03-22T09:05:33Z</time></trkpt><trkpt lat="43.06519059405708" lon="10.614742989372862"><ele>175.0</ele><time>2026-03-22T09:05:34Z</time></trkpt><trkpt lat="43.065026714044436" lon="10.614745924006774"><ele>175.0</ele><time>2026-03-22T09:05:35Z</time></trkpt><trkpt lat="43.06486474986255" lon="10.61475128374612"><ele>175.66666666666669</ele><time>2026-03-22T09:05:36Z</time></trkpt><trkpt lat="43.064710111586805" lon="10.614765052462381"><ele>176.33333333333334</ele><time>2026-03-22T09:05:37Z</time></trkpt><trkpt lat="43.06455947093511" lon="10.614761939014327"><ele>177.0</ele><time>2026-03-22T09:05:38Z</time></trkpt><trkpt lat="43.06441315329585" lon="10.614804072887246"><ele>177.0</ele><time>2026-03-22T09:05:39Z</time></trkpt><trkpt lat="43.06426829202186" lon="10.614829840018977"><ele>177.0</ele><time>2026-03-22T09:05:40Z</time></trkpt><trkpt lat="43.06412790749261" lon="10.614875396694385"><ele>177.0</ele><time>2026-03-22T09:05:41Z</time></trkpt><trkpt lat="43.063996155563004" lon="10.61491171469597"><ele>177.0</ele><time>2026-03-22T09:05:42Z</time></trkpt><trkpt lat="43.06387828421912" lon="10.614944919568671"><ele>178.5</ele><time>2026-03-22T09:05:43Z</time></trkpt><trkpt lat="43.06376598849467" lon="10.614985313822396"><ele>180.0</ele><time>2026-03-22T09:05:44Z</time></trkpt><trkpt lat="43.063650383902264" lon="10.615036197839947"><ele>181.5</ele><time>2026-03-22T09:05:45Z</time></trkpt><trkpt lat="43.06353528561113" lon="10.615086275546998"><ele>183.0</ele><time>2026-03-22T09:05:46Z</time></trkpt><trkpt lat="43.063416016175864" lon="10.615131863031287"><ele>183.0</ele><time>2026-03-22T09:05:47Z</time></trkpt><trkpt lat="43.06330342293061" lon="10.615170625736997"><ele>183.0</ele><time>2026-03-22T09:05:48Z</time></trkpt><trkpt lat="43.06320478942826" lon="10.615204437936338"><ele>183.0</ele><time>2026-03-22T09:05:49Z</time></trkpt><trkpt lat="43.063098530595454" lon="10.615228345091756"><ele>183.0</ele><time>2026-03-22T09:05:50Z</time></trkpt><trkpt lat="43.06300085525469" lon="10.615240463866519"><ele>183.0</ele><time>2026-03-22T09:05:51Z</time></trkpt><trkpt lat="43.06291322636812" lon="10.615240346320977"><ele>185.8</ele><time>2026-03-22T09:05:52Z</time></trkpt><trkpt lat="43.062833665875836" lon="10.615234145127483"><ele>188.60000000000002</ele><time>2026-03-22T09:05:53Z</time></trkpt><trkpt lat="43.06271735747755" lon="10.615245055718935"><ele>191.39999999999998</ele><time>2026-03-22T09:05:55Z</time></trkpt><trkpt lat="43.06261636895122" lon="10.615234736574296"><ele>194.2</ele><time>2026-03-22T09:05:57Z</time></trkpt><trkpt lat="43.06252419634648" lon="10.615208931149285"><ele>197.0</ele><time>2026-03-22T09:05:59Z</time></trkpt><trkpt lat="43.062458920268476" lon="10.615186610790804"><ele>197.39999999999998</ele><time>2026-03-22T09:06:00Z</time></trkpt><trkpt lat="43.06239442314726" lon="10.615161346455087"><ele>197.79999999999998</ele><time>2026-03-22T09:06:01Z</time></trkpt><trkpt lat="43.0622735316182" lon="10.615104249406977"><ele>198.2</ele><time>2026-03-22T09:06:03Z</time></trkpt><trkpt lat="43.062196065677" lon="10.61507167769379"><ele>198.6</ele><time>2026-03-22T09:06:07Z</time></trkpt><trkpt lat="43.06226119330163" lon="10.61512750427599"><ele>199.0</ele><time>2026-03-22T09:06:10.999Z</time></trkpt><trkpt lat="43.06236445277116" lon="10.615152442921564"><ele>198.99999999999997</ele><time>2026-03-22T09:06:12.999Z</time></trkpt><trkpt lat="43.0624650144969" lon="10.615189655220144"><ele>199.0</ele><time>2026-03-22T09:06:14.999Z</time></trkpt><trkpt lat="43.06252764246979" lon="10.615211073002829"><ele>199.0</ele><time>2026-03-22T09:06:16Z</time></trkpt><trkpt lat="43.0625680399144" lon="10.615288879876578"><ele>199.0</ele><time>2026-03-22T09:06:18Z</time></trkpt><trkpt lat="43.062542387618734" lon="10.61537890602228"><ele>198.99999999999997</ele><time>2026-03-22T09:06:21Z</time></trkpt><trkpt lat="43.06247642244933" lon="10.615375834620865"><ele>199.0</ele><time>2026-03-22T09:06:23Z</time></trkpt><trkpt lat="43.062384836898666" lon="10.615374641174046"><ele>199.0</ele><time>2026-03-22T09:06:25Z</time></trkpt><trkpt lat="43.06229000258649" lon="10.615347975119635"><ele>199.0</ele><time>2026-03-22T09:06:27Z</time></trkpt><trkpt lat="43.062194543715904" lon="10.615373515172035"><ele>199.0</ele><time>2026-03-22T09:06:29Z</time></trkpt><trkpt lat="43.062135157218826" lon="10.615444382153928"><ele>199.0</ele><time>2026-03-22T09:06:31Z</time></trkpt><trkpt lat="43.06206722780344" lon="10.61556558151831"><ele>199.0</ele><time>2026-03-22T09:06:33Z</time></trkpt><trkpt lat="43.06204547202342" lon="10.615688941859856"><ele>198.99999999999997</ele><time>2026-03-22T09:06:35Z</time></trkpt><trkpt lat="43.062059571168945" lon="10.615778830150807"><ele>199.0</ele><time>2026-03-22T09:06:36Z</time></trkpt><trkpt lat="43.0621103218989" lon="10.615917569634945"><ele>199.0</ele><time>2026-03-22T09:06:38Z</time></trkpt><trkpt lat="43.06214357580067" lon="10.615991537193883"><ele>199.0</ele><time>2026-03-22T09:06:39Z</time></trkpt><trkpt lat="43.06218824178766" lon="10.616059166533482"><ele>198.99999999999997</ele><time>2026-03-22T09:06:40Z</time></trkpt><trkpt lat="43.06221778152243" lon="10.616154324986775"><ele>199.0</ele><time>2026-03-22T09:06:46Z</time></trkpt><trkpt lat="43.06217700135855" lon="10.616064863539883"><ele>198.99999999999997</ele><time>2026-03-22T09:06:52Z</time></trkpt><trkpt lat="43.062136329618596" lon="10.615975640431975"><ele>199.0</ele><time>2026-03-22T09:06:54Z</time></trkpt><trkpt lat="43.06209099328325" lon="10.615872941120246"><ele>199.0</ele><time>2026-03-22T09:06:56Z</time></trkpt><trkpt lat="43.06204257769247" lon="10.61577737460735"><ele>199.0</ele><time>2026-03-22T09:06:58Z</time></trkpt><trkpt lat="43.06203739825199" lon="10.615624542860646"><ele>198.99999999999997</ele><time>2026-03-22T09:07:00Z</time></trkpt><trkpt lat="43.06199958176456" lon="10.61553671412996"><ele>199.0</ele><time>2026-03-22T09:07:02Z</time></trkpt><trkpt lat="43.06217375699941" lon="10.61541406375095"><ele>198.99999999999997</ele><time>2026-03-22T09:07:03Z</time></trkpt><trkpt lat="43.06225486301237" lon="10.61538283183231"><ele>199.0</ele><time>2026-03-22T09:07:05Z</time></trkpt><trkpt lat="43.0623286036472" lon="10.615377124785184"><ele>199.0</ele><time>2026-03-22T09:07:06Z</time></trkpt><trkpt lat="43.06243779393889" lon="10.615348816567954"><ele>199.0</ele><time>2026-03-22T09:07:08Z</time></trkpt><trkpt lat="43.062524538326265" lon="10.615292550167016"><ele>198.99999999999997</ele><time>2026-03-22T09:07:10Z</time></trkpt><trkpt lat="43.06259091430227" lon="10.615310722229335"><ele>199.0</ele><time>2026-03-22T09:07:12Z</time></trkpt><trkpt lat="43.06247754730784" lon="10.615243135763357"><ele>199.0</ele><time>2026-03-22T09:07:16Z</time></trkpt><trkpt lat="43.06233536378779" lon="10.615179295189915"><ele>199.0</ele><time>2026-03-22T09:07:18Z</time></trkpt><trkpt lat="43.06224349097902" lon="10.615137450947707"><ele>199.0</ele><time>2026-03-22T09:07:19Z</time></trkpt><trkpt lat="43.06215238532135" lon="10.615087559478791"><ele>199.0</ele><time>2026-03-22T09:07:20Z</time></trkpt><trkpt lat="43.062051959165345" lon="10.615047587609874"><ele>199.0</ele><time>2026-03-22T09:07:21Z</time></trkpt><trkpt lat="43.061926492986615" lon="10.61499928811042"><ele>199.0</ele><time>2026-03-22T09:07:22Z</time></trkpt><trkpt lat="43.06181495829645" lon="10.614948863732337"><ele>199.0</ele><time>2026-03-22T09:07:23Z</time></trkpt><trkpt lat="43.061700866107564" lon="10.61490029011057"><ele>199.0</ele><time>2026-03-22T09:07:24Z</time></trkpt><trkpt lat="43.06159931337439" lon="10.614858139734013"><ele>199.0</ele><time>2026-03-22T09:07:25Z</time></trkpt><trkpt lat="43.06151245208223" lon="10.614823198899357"><ele>199.0</ele><time>2026-03-22T09:07:26Z</time></trkpt><trkpt lat="43.06144183540739" lon="10.614794399794533"><ele>201.39999999999998</ele><time>2026-03-22T09:07:27Z</time></trkpt><trkpt lat="43.06137711592815" lon="10.614752426687426"><ele>203.8</ele><time>2026-03-22T09:07:28Z</time></trkpt><trkpt lat="43.061314295440205" lon="10.614746673461125"><ele>206.2</ele><time>2026-03-22T09:07:29Z</time></trkpt><trkpt lat="43.06120085126371" lon="10.614678684584561"><ele>208.60000000000002</ele><time>2026-03-22T09:07:31Z</time></trkpt><trkpt lat="43.06113882003517" lon="10.614661794693998"><ele>211.0</ele><time>2026-03-22T09:07:32Z</time></trkpt><trkpt lat="43.06101086512849" lon="10.61461116116431"><ele>211.0</ele><time>2026-03-22T09:07:34Z</time></trkpt><trkpt lat="43.060925396663976" lon="10.614574641925415"><ele>211.0</ele><time>2026-03-22T09:07:35Z</time></trkpt><trkpt lat="43.06083300221551" lon="10.614532477755537"><ele>211.0</ele><time>2026-03-22T09:07:36Z</time></trkpt><trkpt lat="43.06073745855588" lon="10.614502203377166"><ele>211.0</ele><time>2026-03-22T09:07:37Z</time></trkpt><trkpt lat="43.06063768892108" lon="10.614484594545162"><ele>211.0</ele><time>2026-03-22T09:07:38Z</time></trkpt><trkpt lat="43.06054136166832" lon="10.614475229079376"><ele>211.4</ele><time>2026-03-22T09:07:39Z</time></trkpt><trkpt lat="43.060443069759835" lon="10.614463106851685"><ele>211.8</ele><time>2026-03-22T09:07:40Z</time></trkpt><trkpt lat="43.060342453113726" lon="10.614461614027041"><ele>212.20000000000002</ele><time>2026-03-22T09:07:41Z</time></trkpt><trkpt lat="43.060235159995266" lon="10.614454879949449"><ele>212.60000000000002</ele><time>2026-03-22T09:07:42Z</time></trkpt><trkpt lat="43.060128083802894" lon="10.614436638179104"><ele>213.0</ele><time>2026-03-22T09:07:43Z</time></trkpt><trkpt lat="43.06002060865541" lon="10.614413949512663"><ele>210.5</ele><time>2026-03-22T09:07:44Z</time></trkpt><trkpt lat="43.05991741800934" lon="10.61438703126495"><ele>208.0</ele><time>2026-03-22T09:07:45Z</time></trkpt><trkpt lat="43.05980355018311" lon="10.614361922347845"><ele>205.5</ele><time>2026-03-22T09:07:46Z</time></trkpt><trkpt lat="43.059683483826674" lon="10.61434246165771"><ele>203.0</ele><time>2026-03-22T09:07:47Z</time></trkpt><trkpt lat="43.059561914825686" lon="10.614317408578014"><ele>203.0</ele><time>2026-03-22T09:07:48Z</time></trkpt><trkpt lat="43.059440453838405" lon="10.614303831674647"><ele>203.0</ele><time>2026-03-22T09:07:49Z</time></trkpt><trkpt lat="43.05930715491796" lon="10.614304257323194"><ele>203.0</ele><time>2026-03-22T09:07:50Z</time></trkpt><trkpt lat="43.05919659248527" lon="10.614311534538572"><ele>203.0</ele><time>2026-03-22T09:07:51Z</time></trkpt><trkpt lat="43.05908025649232" lon="10.614315792573132"><ele>202.60000000000002</ele><time>2026-03-22T09:07:52Z</time></trkpt><trkpt lat="43.058981226900904" lon="10.614331064510488"><ele>202.20000000000002</ele><time>2026-03-22T09:07:53Z</time></trkpt><trkpt lat="43.058865065936644" lon="10.614350966880941"><ele>201.8</ele><time>2026-03-22T09:07:54Z</time></trkpt><trkpt lat="43.05875683268556" lon="10.614391055897617"><ele>201.4</ele><time>2026-03-22T09:07:55Z</time></trkpt><trkpt lat="43.05864374896201" lon="10.614434940987712"><ele>201.0</ele><time>2026-03-22T09:07:56Z</time></trkpt><trkpt lat="43.05854471580523" lon="10.61451990345943"><ele>201.0</ele><time>2026-03-22T09:07:57Z</time></trkpt><trkpt lat="43.05844937783724" lon="10.614612321534311"><ele>201.0</ele><time>2026-03-22T09:07:58Z</time></trkpt><trkpt lat="43.05835215671787" lon="10.614690290255385"><ele>201.0</ele><time>2026-03-22T09:07:59Z</time></trkpt><trkpt lat="43.05825555594531" lon="10.614777605685232"><ele>201.0</ele><time>2026-03-22T09:08:00Z</time></trkpt><trkpt lat="43.058150018095716" lon="10.61484409838819"><ele>198.60000000000002</ele><time>2026-03-22T09:08:01Z</time></trkpt><trkpt lat="43.05803961136774" lon="10.614880691925286"><ele>196.2</ele><time>2026-03-22T09:08:02Z</time></trkpt><trkpt lat="43.05793573716079" lon="10.614936222146184"><ele>193.8</ele><time>2026-03-22T09:08:03Z</time></trkpt><trkpt lat="43.05783948871898" lon="10.615006034733405"><ele>191.39999999999998</ele><time>2026-03-22T09:08:04Z</time></trkpt><trkpt lat="43.0577251308459" lon="10.615013928743721"><ele>189.0</ele><time>2026-03-22T09:08:05Z</time></trkpt><trkpt lat="43.057603487228555" lon="10.61499403102847"><ele>189.0</ele><time>2026-03-22T09:08:06Z</time></trkpt><trkpt lat="43.057487711448175" lon="10.614948670409401"><ele>189.0</ele><time>2026-03-22T09:08:06.999Z</time></trkpt><trkpt lat="43.057371673385035" lon="10.614896686735973"><ele>189.0</ele><time>2026-03-22T09:08:07.999Z</time></trkpt><trkpt lat="43.05726246356661" lon="10.61485126245448"><ele>189.0</ele><time>2026-03-22T09:08:08.999Z</time></trkpt><trkpt lat="43.05715451458813" lon="10.61482057243608"><ele>187.75</ele><time>2026-03-22T09:08:09.999Z</time></trkpt><trkpt lat="43.05704592482697" lon="10.614826326068808"><ele>186.5</ele><time>2026-03-22T09:08:10.999Z</time></trkpt><trkpt lat="43.05692617343535" lon="10.614825731639428"><ele>185.25</ele><time>2026-03-22T09:08:11.999Z</time></trkpt><trkpt lat="43.05679939343566" lon="10.614867655521289"><ele>184.0</ele><time>2026-03-22T09:08:12.999Z</time></trkpt><trkpt lat="43.056668536335856" lon="10.614921911814763"><ele>181.0</ele><time>2026-03-22T09:08:13.999Z</time></trkpt><trkpt lat="43.05653024384628" lon="10.614990929515242"><ele>178.0</ele><time>2026-03-22T09:08:14.999Z</time></trkpt><trkpt lat="43.056403825168566" lon="10.615096625132315"><ele>175.0</ele><time>2026-03-22T09:08:15.999Z</time></trkpt><trkpt lat="43.05627089088413" lon="10.615174264111612"><ele>172.0</ele><time>2026-03-22T09:08:16.999Z</time></trkpt><trkpt lat="43.05613081246812" lon="10.615229004646956"><ele>172.0</ele><time>2026-03-22T09:08:17.999Z</time></trkpt><trkpt lat="43.0560012461545" lon="10.615308362976576"><ele>172.0</ele><time>2026-03-22T09:08:18.999Z</time></trkpt><trkpt lat="43.05586595514376" lon="10.61535937604765"><ele>172.0</ele><time>2026-03-22T09:08:19.999Z</time></trkpt><trkpt lat="43.05573692659084" lon="10.615406273334406"><ele>172.0</ele><time>2026-03-22T09:08:20.999Z</time></trkpt><trkpt lat="43.055612030815176" lon="10.6154507982218"><ele>169.75</ele><time>2026-03-22T09:08:22Z</time></trkpt><trkpt lat="43.05547134561345" lon="10.61547838415366"><ele>167.5</ele><time>2026-03-22T09:08:23Z</time></trkpt><trkpt lat="43.05533704000596" lon="10.61552022703263"><ele>165.25</ele><time>2026-03-22T09:08:24Z</time></trkpt><trkpt lat="43.055210369931665" lon="10.615555599975618"><ele>163.0</ele><time>2026-03-22T09:08:25Z</time></trkpt><trkpt lat="43.05507468321151" lon="10.615601150146455"><ele>157.5</ele><time>2026-03-22T09:08:26Z</time></trkpt><trkpt lat="43.05494100461713" lon="10.615647258473272"><ele>152.0</ele><time>2026-03-22T09:08:27Z</time></trkpt><trkpt lat="43.05481274286967" lon="10.615691880231994"><ele>146.5</ele><time>2026-03-22T09:08:28Z</time></trkpt><trkpt lat="43.05470009485207" lon="10.615698973868968"><ele>141.0</ele><time>2026-03-22T09:08:29Z</time></trkpt><trkpt lat="43.0545988635408" lon="10.615662389490485"><ele>141.0</ele><time>2026-03-22T09:08:30Z</time></trkpt><trkpt lat="43.05451559774714" lon="10.615545668806957"><ele>141.0</ele><time>2026-03-22T09:08:31Z</time></trkpt><trkpt lat="43.05446559550676" lon="10.615414429782357"><ele>141.0</ele><time>2026-03-22T09:08:32Z</time></trkpt><trkpt lat="43.054442159797205" lon="10.615253520122574"><ele>141.0</ele><time>2026-03-22T09:08:33Z</time></trkpt><trkpt lat="43.05444073732031" lon="10.61507550854121"><ele>143.25</ele><time>2026-03-22T09:08:34Z</time></trkpt><trkpt lat="43.05441557019209" lon="10.614902902165378"><ele>145.5</ele><time>2026-03-22T09:08:35Z</time></trkpt><trkpt lat="43.05434559967199" lon="10.614750846102986"><ele>147.75</ele><time>2026-03-22T09:08:36Z</time></trkpt><trkpt lat="43.054250984681666" lon="10.61458771038326"><ele>150.0</ele><time>2026-03-22T09:08:37Z</time></trkpt><trkpt lat="43.054149993344716" lon="10.614415727765605"><ele>148.5</ele><time>2026-03-22T09:08:38Z</time></trkpt><trkpt lat="43.05405678417699" lon="10.614252187382656"><ele>147.0</ele><time>2026-03-22T09:08:39Z</time></trkpt><trkpt lat="43.053966823340296" lon="10.614094535658545"><ele>145.5</ele><time>2026-03-22T09:08:40Z</time></trkpt><trkpt lat="43.05388475954929" lon="10.613942433634739"><ele>144.0</ele><time>2026-03-22T09:08:41Z</time></trkpt><trkpt lat="43.053833904322616" lon="10.6137820093185"><ele>146.0</ele><time>2026-03-22T09:08:42Z</time></trkpt><trkpt lat="43.05380335365276" lon="10.613615598526643"><ele>148.0</ele><time>2026-03-22T09:08:43Z</time></trkpt><trkpt lat="43.053801242106125" lon="10.613446987706025"><ele>150.0</ele><time>2026-03-22T09:08:44Z</time></trkpt><trkpt lat="43.05379696190011" lon="10.613279155587232"><ele>152.0</ele><time>2026-03-22T09:08:45Z</time></trkpt><trkpt lat="43.05381136228663" lon="10.613122349689803"><ele>152.0</ele><time>2026-03-22T09:08:46Z</time></trkpt><trkpt lat="43.0538064937585" lon="10.612962275579097"><ele>152.0</ele><time>2026-03-22T09:08:47Z</time></trkpt><trkpt lat="43.053796883044186" lon="10.61282508601568"><ele>152.0</ele><time>2026-03-22T09:08:48Z</time></trkpt><trkpt lat="43.05378274563417" lon="10.612708029641125"><ele>152.0</ele><time>2026-03-22T09:08:49Z</time></trkpt><trkpt lat="43.05376042823696" lon="10.612620978706737"><ele>152.0</ele><time>2026-03-22T09:08:50Z</time></trkpt><trkpt lat="43.053630374743676" lon="10.612565794147493"><ele>152.0</ele><time>2026-03-22T09:08:52Z</time></trkpt><trkpt lat="43.05355446626627" lon="10.612609936715359"><ele>152.0</ele><time>2026-03-22T09:08:53Z</time></trkpt><trkpt lat="43.05349149344137" lon="10.61269570926185"><ele>152.0</ele><time>2026-03-22T09:08:54Z</time></trkpt><trkpt lat="43.0534338416799" lon="10.61282163775839"><ele>152.0</ele><time>2026-03-22T09:08:55Z</time></trkpt><trkpt lat="43.05337695264385" lon="10.612964339773175"><ele>152.0</ele><time>2026-03-22T09:08:56Z</time></trkpt><trkpt lat="43.053303885088646" lon="10.613073709354246"><ele>152.0</ele><time>2026-03-22T09:08:57Z</time></trkpt><trkpt lat="43.05328021294695" lon="10.613223261164002"><ele>152.0</ele><time>2026-03-22T09:08:58Z</time></trkpt><trkpt lat="43.053315017001665" lon="10.613410751853399"><ele>152.0</ele><time>2026-03-22T09:08:59Z</time></trkpt><trkpt lat="43.05341335507104" lon="10.613544041205216"><ele>152.0</ele><time>2026-03-22T09:09:00Z</time></trkpt><trkpt lat="43.053487602315776" lon="10.613643552704133"><ele>150.4</ele><time>2026-03-22T09:09:01Z</time></trkpt><trkpt lat="43.05354762615674" lon="10.613740775805898"><ele>148.79999999999998</ele><time>2026-03-22T09:09:02Z</time></trkpt><trkpt lat="43.05357252343547" lon="10.61384315392826"><ele>147.2</ele><time>2026-03-22T09:09:03Z</time></trkpt><trkpt lat="43.05358167443276" lon="10.6139655484807"><ele>145.6</ele><time>2026-03-22T09:09:04Z</time></trkpt><trkpt lat="43.053547045055694" lon="10.614093489610728"><ele>144.0</ele><time>2026-03-22T09:09:05Z</time></trkpt><trkpt lat="43.05348492764366" lon="10.614227706920486"><ele>144.0</ele><time>2026-03-22T09:09:06Z</time></trkpt><trkpt lat="43.053402130028125" lon="10.614382860803332"><ele>144.0</ele><time>2026-03-22T09:09:07Z</time></trkpt><trkpt lat="43.05330686024095" lon="10.614554879009264"><ele>144.0</ele><time>2026-03-22T09:09:08Z</time></trkpt><trkpt lat="43.05320370017667" lon="10.614745222984489"><ele>144.66666666666666</ele><time>2026-03-22T09:09:09Z</time></trkpt><trkpt lat="43.05310848180104" lon="10.614925982099917"><ele>145.33333333333331</ele><time>2026-03-22T09:09:10Z</time></trkpt><trkpt lat="43.05302504008729" lon="10.6150998186018"><ele>146.0</ele><time>2026-03-22T09:09:11Z</time></trkpt><trkpt lat="43.052953498786565" lon="10.615269943170228"><ele>143.5</ele><time>2026-03-22T09:09:12Z</time></trkpt><trkpt lat="43.052888008406825" lon="10.615439985875158"><ele>141.0</ele><time>2026-03-22T09:09:13Z</time></trkpt><trkpt lat="43.052847824412375" lon="10.615615580960215"><ele>138.5</ele><time>2026-03-22T09:09:14Z</time></trkpt><trkpt lat="43.0527815230131" lon="10.61576582869069"><ele>136.0</ele><time>2026-03-22T09:09:15Z</time></trkpt><trkpt lat="43.05271038011595" lon="10.615904995557575"><ele>136.0</ele><time>2026-03-22T09:09:16Z</time></trkpt><trkpt lat="43.05263570721324" lon="10.616031219896733"><ele>136.0</ele><time>2026-03-22T09:09:17Z</time></trkpt><trkpt lat="43.05256864758684" lon="10.616147260133799"><ele>136.0</ele><time>2026-03-22T09:09:18Z</time></trkpt><trkpt lat="43.05252063816785" lon="10.616255618337416"><ele>136.0</ele><time>2026-03-22T09:09:19Z</time></trkpt><trkpt lat="43.052508142082004" lon="10.616368497601604"><ele>136.0</ele><time>2026-03-22T09:09:20Z</time></trkpt><trkpt lat="43.05254013946445" lon="10.616484479522558"><ele>134.66666666666669</ele><time>2026-03-22T09:09:21Z</time></trkpt><trkpt lat="43.05262936106827" lon="10.61653072033342"><ele>133.33333333333334</ele><time>2026-03-22T09:09:22Z</time></trkpt><trkpt lat="43.05270697030596" lon="10.616538520725246"><ele>132.0</ele><time>2026-03-22T09:09:23Z</time></trkpt><trkpt lat="43.052784160124304" lon="10.616519164212084"><ele>130.66666666666666</ele><time>2026-03-22T09:09:24Z</time></trkpt><trkpt lat="43.05285922794387" lon="10.61648054653878"><ele>129.33333333333331</ele><time>2026-03-22T09:09:25Z</time></trkpt><trkpt lat="43.05292861451918" lon="10.616428629747825"><ele>128.0</ele><time>2026-03-22T09:09:26Z</time></trkpt><trkpt lat="43.052996008161436" lon="10.616371936340832"><ele>127.99999999999999</ele><time>2026-03-22T09:09:27Z</time></trkpt><trkpt lat="43.05305308635699" lon="10.616294786971183"><ele>128.0</ele><time>2026-03-22T09:09:28Z</time></trkpt><trkpt lat="43.05309219924681" lon="10.616202780434724"><ele>128.0</ele><time>2026-03-22T09:09:29Z</time></trkpt><trkpt lat="43.05312276169312" lon="10.61611255367947"><ele>128.0</ele><time>2026-03-22T09:09:30Z</time></trkpt><trkpt lat="43.05316289768369" lon="10.616033495414566"><ele>127.99999999999999</ele><time>2026-03-22T09:09:31Z</time></trkpt><trkpt lat="43.05321964333857" lon="10.615962310795704"><ele>128.0</ele><time>2026-03-22T09:09:32Z</time></trkpt><trkpt lat="43.053292784076774" lon="10.615944421395765"><ele>128.16666666666666</ele><time>2026-03-22T09:09:33Z</time></trkpt><trkpt lat="43.053359868880285" lon="10.615989441156904"><ele>128.33333333333331</ele><time>2026-03-22T09:09:34Z</time></trkpt><trkpt lat="43.05340686222667" lon="10.616071553006082"><ele>128.5</ele><time>2026-03-22T09:09:35Z</time></trkpt><trkpt lat="43.05342969335413" lon="10.616177435939651"><ele>128.66666666666666</ele><time>2026-03-22T09:09:36Z</time></trkpt><trkpt lat="43.05345545530011" lon="10.616279589486465"><ele>128.83333333333334</ele><time>2026-03-22T09:09:37Z</time></trkpt><trkpt lat="43.0534553161146" lon="10.616394275851412"><ele>129.0</ele><time>2026-03-22T09:09:38Z</time></trkpt><trkpt lat="43.053418638185136" lon="10.61651245810095"><ele>128.8</ele><time>2026-03-22T09:09:39Z</time></trkpt><trkpt lat="43.053351996983906" lon="10.616585595914504"><ele>128.60000000000002</ele><time>2026-03-22T09:09:40Z</time></trkpt><trkpt lat="43.05325829760729" lon="10.616609622144871"><ele>128.4</ele><time>2026-03-22T09:09:41Z</time></trkpt><trkpt lat="43.053193851832596" lon="10.61672947306896"><ele>128.20000000000002</ele><time>2026-03-22T09:09:42Z</time></trkpt><trkpt lat="43.05313295862874" lon="10.616819836603364"><ele>128.0</ele><time>2026-03-22T09:09:43Z</time></trkpt><trkpt lat="43.05307440916451" lon="10.616917459499412"><ele>126.2</ele><time>2026-03-22T09:09:44Z</time></trkpt><trkpt lat="43.053053605189696" lon="10.617038026047256"><ele>124.4</ele><time>2026-03-22T09:09:45Z</time></trkpt><trkpt lat="43.05305002143844" lon="10.617149007242167"><ele>122.60000000000001</ele><time>2026-03-22T09:09:46Z</time></trkpt><trkpt lat="43.0530157478821" lon="10.61725623105719"><ele>120.80000000000001</ele><time>2026-03-22T09:09:47Z</time></trkpt><trkpt lat="43.052940874491654" lon="10.617334086466515"><ele>119.0</ele><time>2026-03-22T09:09:48Z</time></trkpt><trkpt lat="43.05284542692543" lon="10.617380968811629"><ele>119.0</ele><time>2026-03-22T09:09:49Z</time></trkpt><trkpt lat="43.05274237545771" lon="10.61742168229603"><ele>119.0</ele><time>2026-03-22T09:09:50Z</time></trkpt><trkpt lat="43.052649566017784" lon="10.61747528949258"><ele>119.0</ele><time>2026-03-22T09:09:51Z</time></trkpt><trkpt lat="43.052543755662036" lon="10.617544555151063"><ele>119.0</ele><time>2026-03-22T09:09:52Z</time></trkpt><trkpt lat="43.05244584057908" lon="10.617628370848008"><ele>119.0</ele><time>2026-03-22T09:09:53Z</time></trkpt><trkpt lat="43.05235081934328" lon="10.617725461165788"><ele>116.5</ele><time>2026-03-22T09:09:54Z</time></trkpt><trkpt lat="43.052278562803664" lon="10.617846104222071"><ele>114.0</ele><time>2026-03-22T09:09:55Z</time></trkpt><trkpt lat="43.0521981701439" lon="10.617967793716762"><ele>111.5</ele><time>2026-03-22T09:09:56Z</time></trkpt><trkpt lat="43.0521397800606" lon="10.618102591693644"><ele>109.0</ele><time>2026-03-22T09:09:57Z</time></trkpt><trkpt lat="43.05209646715658" lon="10.618238707912798"><ele>109.0</ele><time>2026-03-22T09:09:58Z</time></trkpt><trkpt lat="43.05205983767976" lon="10.618389303937017"><ele>109.0</ele><time>2026-03-22T09:09:59Z</time></trkpt><trkpt lat="43.05203601788407" lon="10.618561094575853"><ele>109.0</ele><time>2026-03-22T09:10:00Z</time></trkpt><trkpt lat="43.05204087974398" lon="10.618715763599821"><ele>109.0</ele><time>2026-03-22T09:10:01Z</time></trkpt><trkpt lat="43.05205229535266" lon="10.618840461187087"><ele>109.0</ele><time>2026-03-22T09:10:02Z</time></trkpt><trkpt lat="43.05206078553486" lon="10.618936958304031"><ele>108.2</ele><time>2026-03-22T09:10:02.999Z</time></trkpt><trkpt lat="43.05205987992437" lon="10.619091856386586"><ele>107.4</ele><time>2026-03-22T09:10:04.999Z</time></trkpt><trkpt lat="43.05203223906531" lon="10.619187078533578"><ele>106.6</ele><time>2026-03-22T09:10:06.999Z</time></trkpt><trkpt lat="43.05191768696548" lon="10.619147479375336"><ele>105.8</ele><time>2026-03-22T09:10:08.999Z</time></trkpt><trkpt lat="43.05188251464229" lon="10.619044374749521"><ele>105.0</ele><time>2026-03-22T09:10:09.999Z</time></trkpt><trkpt lat="43.05185934642732" lon="10.618937468158148"><ele>105.0</ele><time>2026-03-22T09:10:10.999Z</time></trkpt><trkpt lat="43.051821304047806" lon="10.618840356846341"><ele>105.0</ele><time>2026-03-22T09:10:11.999Z</time></trkpt><trkpt lat="43.05176907572296" lon="10.618755931448478"><ele>105.0</ele><time>2026-03-22T09:10:12.999Z</time></trkpt><trkpt lat="43.05170531347737" lon="10.618695250701615"><ele>105.0</ele><time>2026-03-22T09:10:13.999Z</time></trkpt><trkpt lat="43.05162506602452" lon="10.61866962097191"><ele>105.0</ele><time>2026-03-22T09:10:14.999Z</time></trkpt><trkpt lat="43.051538215691416" lon="10.618683819272542"><ele>105.0</ele><time>2026-03-22T09:10:15.999Z</time></trkpt><trkpt lat="43.051459212534674" lon="10.618746131143398"><ele>104.5</ele><time>2026-03-22T09:10:16.999Z</time></trkpt><trkpt lat="43.05138865360341" lon="10.618838866503053"><ele>104.0</ele><time>2026-03-22T09:10:17.999Z</time></trkpt><trkpt lat="43.05129995032996" lon="10.618952165270336"><ele>103.5</ele><time>2026-03-22T09:10:18.999Z</time></trkpt><trkpt lat="43.05122604724412" lon="10.619106529175058"><ele>103.0</ele><time>2026-03-22T09:10:19.999Z</time></trkpt><trkpt lat="43.05114439875969" lon="10.619279815751458"><ele>103.0</ele><time>2026-03-22T09:10:20.999Z</time></trkpt><trkpt lat="43.05105173770845" lon="10.619475222381013"><ele>103.0</ele><time>2026-03-22T09:10:21.999Z</time></trkpt><trkpt lat="43.05093666059361" lon="10.619671910776798"><ele>103.0</ele><time>2026-03-22T09:10:22.999Z</time></trkpt><trkpt lat="43.05080431153081" lon="10.619824334404342"><ele>102.33333333333334</ele><time>2026-03-22T09:10:23.999Z</time></trkpt><trkpt lat="43.05068534600766" lon="10.619967800419635"><ele>101.66666666666666</ele><time>2026-03-22T09:10:24.999Z</time></trkpt><trkpt lat="43.05058864710917" lon="10.620128018574098"><ele>101.0</ele><time>2026-03-22T09:10:25.999Z</time></trkpt><trkpt lat="43.05052262070796" lon="10.620326125879995"><ele>101.0</ele><time>2026-03-22T09:10:26.999Z</time></trkpt><trkpt lat="43.050483111842034" lon="10.620556238044154"><ele>101.0</ele><time>2026-03-22T09:10:28Z</time></trkpt><trkpt lat="43.05045857864968" lon="10.620785590787808"><ele>101.0</ele><time>2026-03-22T09:10:29Z</time></trkpt><trkpt lat="43.05043529245016" lon="10.621015750004311"><ele>98.66666666666666</ele><time>2026-03-22T09:10:30Z</time></trkpt><trkpt lat="43.05040602963715" lon="10.621230625403001"><ele>96.33333333333333</ele><time>2026-03-22T09:10:31Z</time></trkpt><trkpt lat="43.05037970899158" lon="10.62144320522447"><ele>94.0</ele><time>2026-03-22T09:10:32Z</time></trkpt><trkpt lat="43.050375236764566" lon="10.62164682666109"><ele>94.0</ele><time>2026-03-22T09:10:33Z</time></trkpt><trkpt lat="43.05037762170546" lon="10.621858587702988"><ele>94.0</ele><time>2026-03-22T09:10:34Z</time></trkpt><trkpt lat="43.05040907578348" lon="10.622066012431201"><ele>94.0</ele><time>2026-03-22T09:10:35Z</time></trkpt><trkpt lat="43.0504522303643" lon="10.622266855525362"><ele>92.5</ele><time>2026-03-22T09:10:36Z</time></trkpt><trkpt lat="43.050495001638595" lon="10.622457103224752"><ele>91.0</ele><time>2026-03-22T09:10:37Z</time></trkpt><trkpt lat="43.050538374371754" lon="10.62263734511882"><ele>89.5</ele><time>2026-03-22T09:10:38Z</time></trkpt><trkpt lat="43.0505415498316" lon="10.62283458226266"><ele>88.0</ele><time>2026-03-22T09:10:39Z</time></trkpt><trkpt lat="43.05052924396367" lon="10.62303448784638"><ele>88.0</ele><time>2026-03-22T09:10:40Z</time></trkpt><trkpt lat="43.0504702661665" lon="10.62321870570231"><ele>88.0</ele><time>2026-03-22T09:10:41Z</time></trkpt><trkpt lat="43.05041428668216" lon="10.623416146276917"><ele>88.0</ele><time>2026-03-22T09:10:42Z</time></trkpt><trkpt lat="43.050326832825114" lon="10.623598483584228"><ele>89.33333333333333</ele><time>2026-03-22T09:10:43Z</time></trkpt><trkpt lat="43.05023423948923" lon="10.623782938796817"><ele>90.66666666666667</ele><time>2026-03-22T09:10:44Z</time></trkpt><trkpt lat="43.05013862481245" lon="10.623975615224245"><ele>92.0</ele><time>2026-03-22T09:10:45Z</time></trkpt><trkpt lat="43.05003853935067" lon="10.624168003376225"><ele>88.66666666666667</ele><time>2026-03-22T09:10:46Z</time></trkpt><trkpt lat="43.049929376754754" lon="10.624347493596167"><ele>85.33333333333333</ele><time>2026-03-22T09:10:47Z</time></trkpt><trkpt lat="43.04981536570267" lon="10.624515799167542"><ele>82.0</ele><time>2026-03-22T09:10:48Z</time></trkpt><trkpt lat="43.049704688533524" lon="10.62467439020402"><ele>82.0</ele><time>2026-03-22T09:10:49Z</time></trkpt><trkpt lat="43.0495970072901" lon="10.624824283264878"><ele>82.0</ele><time>2026-03-22T09:10:50Z</time></trkpt><trkpt lat="43.04950269611382" lon="10.624954635272074"><ele>82.0</ele><time>2026-03-22T09:10:51Z</time></trkpt><trkpt lat="43.049412032532246" lon="10.625038857872827"><ele>82.0</ele><time>2026-03-22T09:10:52Z</time></trkpt><trkpt lat="43.04934986966691" lon="10.625116704903457"><ele>82.0</ele><time>2026-03-22T09:10:53Z</time></trkpt><trkpt lat="43.04926817708784" lon="10.625124145277688"><ele>82.0</ele><time>2026-03-22T09:10:54Z</time></trkpt><trkpt lat="43.049194284908175" lon="10.62507405337867"><ele>82.0</ele><time>2026-03-22T09:10:55Z</time></trkpt><trkpt lat="43.049155280031414" lon="10.624968526762375"><ele>82.0</ele><time>2026-03-22T09:10:56Z</time></trkpt><trkpt lat="43.04916880763102" lon="10.624821761060279"><ele>82.0</ele><time>2026-03-22T09:10:57Z</time></trkpt><trkpt lat="43.04922936663381" lon="10.62465210430302"><ele>81.75</ele><time>2026-03-22T09:10:58Z</time></trkpt><trkpt lat="43.049309838112784" lon="10.624470649477795"><ele>81.5</ele><time>2026-03-22T09:10:59Z</time></trkpt><trkpt lat="43.04935754696213" lon="10.624295914879214"><ele>81.25</ele><time>2026-03-22T09:11:00Z</time></trkpt><trkpt lat="43.049368525911646" lon="10.624138508737317"><ele>81.0</ele><time>2026-03-22T09:11:01Z</time></trkpt><trkpt lat="43.049345517889506" lon="10.62400396120161"><ele>81.0</ele><time>2026-03-22T09:11:02Z</time></trkpt><trkpt lat="43.04928584885903" lon="10.623894343914332"><ele>81.0</ele><time>2026-03-22T09:11:03Z</time></trkpt><trkpt lat="43.049199420182426" lon="10.623839714242648"><ele>81.0</ele><time>2026-03-22T09:11:04Z</time></trkpt><trkpt lat="43.04910522797947" lon="10.623843291697016"><ele>81.0</ele><time>2026-03-22T09:11:05Z</time></trkpt><trkpt lat="43.04901852224704" lon="10.623934083060895"><ele>81.0</ele><time>2026-03-22T09:11:06Z</time></trkpt><trkpt lat="43.04896742443543" lon="10.624116177120332"><ele>78.0</ele><time>2026-03-22T09:11:07Z</time></trkpt><trkpt lat="43.048918473941136" lon="10.624324911418707"><ele>75.0</ele><time>2026-03-22T09:11:08Z</time></trkpt><trkpt lat="43.048857971047" lon="10.624559272940644"><ele>72.0</ele><time>2026-03-22T09:11:09Z</time></trkpt><trkpt lat="43.04878958385782" lon="10.624826793632538"><ele>71.33333333333333</ele><time>2026-03-22T09:11:10Z</time></trkpt><trkpt lat="43.04865384804263" lon="10.625048276852246"><ele>70.66666666666666</ele><time>2026-03-22T09:11:11Z</time></trkpt><trkpt lat="43.04852167441466" lon="10.625279846748027"><ele>70.0</ele><time>2026-03-22T09:11:12Z</time></trkpt><trkpt lat="43.048401887629204" lon="10.62552228453478"><ele>70.66666666666666</ele><time>2026-03-22T09:11:13Z</time></trkpt><trkpt lat="43.04826007088509" lon="10.625731967356321"><ele>71.33333333333333</ele><time>2026-03-22T09:11:14Z</time></trkpt><trkpt lat="43.04815104734146" lon="10.625978017356434"><ele>72.0</ele><time>2026-03-22T09:11:15Z</time></trkpt><trkpt lat="43.04804005957611" lon="10.6262146078473"><ele>70.33333333333333</ele><time>2026-03-22T09:11:16Z</time></trkpt><trkpt lat="43.04793712861106" lon="10.626459831495136"><ele>68.66666666666666</ele><time>2026-03-22T09:11:17Z</time></trkpt><trkpt lat="43.04784305941501" lon="10.626703779417198"><ele>67.0</ele><time>2026-03-22T09:11:18Z</time></trkpt><trkpt lat="43.047754655190325" lon="10.626947571834345"><ele>64.66666666666666</ele><time>2026-03-22T09:11:19Z</time></trkpt><trkpt lat="43.04767812814439" lon="10.62719164998437"><ele>62.33333333333333</ele><time>2026-03-22T09:11:20Z</time></trkpt><trkpt lat="43.04760014490404" lon="10.627425200862133"><ele>60.0</ele><time>2026-03-22T09:11:21Z</time></trkpt><trkpt lat="43.04755369549909" lon="10.62766034778863"><ele>60.0</ele><time>2026-03-22T09:11:22Z</time></trkpt><trkpt lat="43.047505041190895" lon="10.627898117767263"><ele>60.0</ele><time>2026-03-22T09:11:23Z</time></trkpt><trkpt lat="43.04744294031548" lon="10.62810619035545"><ele>60.0</ele><time>2026-03-22T09:11:24Z</time></trkpt><trkpt lat="43.04735322569028" lon="10.628303994645005"><ele>60.0</ele><time>2026-03-22T09:11:25Z</time></trkpt><trkpt lat="43.04723711917244" lon="10.62847567466242"><ele>60.0</ele><time>2026-03-22T09:11:26Z</time></trkpt><trkpt lat="43.047100690689156" lon="10.628618117973884"><ele>60.0</ele><time>2026-03-22T09:11:27Z</time></trkpt><trkpt lat="43.04696054420495" lon="10.628750636907165"><ele>59.0</ele><time>2026-03-22T09:11:28Z</time></trkpt><trkpt lat="43.046829471515686" lon="10.628905609510175"><ele>58.0</ele><time>2026-03-22T09:11:29Z</time></trkpt><trkpt lat="43.046734433967025" lon="10.629100151943652"><ele>57.0</ele><time>2026-03-22T09:11:30Z</time></trkpt><trkpt lat="43.04661886297155" lon="10.629271474159736"><ele>57.0</ele><time>2026-03-22T09:11:31Z</time></trkpt><trkpt lat="43.04650553897575" lon="10.629443898249805"><ele>57.0</ele><time>2026-03-22T09:11:32Z</time></trkpt><trkpt lat="43.04636464909836" lon="10.629604788521894"><ele>57.0</ele><time>2026-03-22T09:11:33Z</time></trkpt><trkpt lat="43.04619840104081" lon="10.629749506879168"><ele>54.66666666666667</ele><time>2026-03-22T09:11:34Z</time></trkpt><trkpt lat="43.046028293918816" lon="10.629879457827483"><ele>52.333333333333336</ele><time>2026-03-22T09:11:35Z</time></trkpt><trkpt lat="43.04587293952998" lon="10.630014503563698"><ele>50.0</ele><time>2026-03-22T09:11:36Z</time></trkpt><trkpt lat="43.04573920033256" lon="10.630178858451677"><ele>47.0</ele><time>2026-03-22T09:11:37Z</time></trkpt><trkpt lat="43.045598370922605" lon="10.630340392342113"><ele>44.0</ele><time>2026-03-22T09:11:38Z</time></trkpt><trkpt lat="43.04544532631097" lon="10.630446326214564"><ele>41.0</ele><time>2026-03-22T09:11:39Z</time></trkpt><trkpt lat="43.04529659271022" lon="10.630553319660587"><ele>41.0</ele><time>2026-03-22T09:11:40Z</time></trkpt><trkpt lat="43.0451401795974" lon="10.63061490731516"><ele>41.0</ele><time>2026-03-22T09:11:41Z</time></trkpt><trkpt lat="43.04499730551609" lon="10.630711170254022"><ele>41.0</ele><time>2026-03-22T09:11:42Z</time></trkpt><trkpt lat="43.04486612360594" lon="10.630864008210791"><ele>40.25</ele><time>2026-03-22T09:11:43Z</time></trkpt><trkpt lat="43.044755016470056" lon="10.631026172952033"><ele>39.5</ele><time>2026-03-22T09:11:44Z</time></trkpt><trkpt lat="43.04464411739163" lon="10.631163246974483"><ele>38.75</ele><time>2026-03-22T09:11:45Z</time></trkpt><trkpt lat="43.044576202044944" lon="10.631311319183553"><ele>38.0</ele><time>2026-03-22T09:11:46Z</time></trkpt><trkpt lat="43.04455417690968" lon="10.631476434123666"><ele>37.0</ele><time>2026-03-22T09:11:47Z</time></trkpt><trkpt lat="43.04458725443819" lon="10.63165377952872"><ele>36.0</ele><time>2026-03-22T09:11:48Z</time></trkpt><trkpt lat="43.044662290018934" lon="10.631820513539548"><ele>35.0</ele><time>2026-03-22T09:11:49Z</time></trkpt><trkpt lat="43.04474231125312" lon="10.631996172982706"><ele>34.0</ele><time>2026-03-22T09:11:50Z</time></trkpt><trkpt lat="43.04484331425736" lon="10.632175617768295"><ele>33.333333333333336</ele><time>2026-03-22T09:11:51Z</time></trkpt><trkpt lat="43.04493167728958" lon="10.632375875697774"><ele>32.666666666666664</ele><time>2026-03-22T09:11:52Z</time></trkpt><trkpt lat="43.04502504232151" lon="10.63257780878163"><ele>32.0</ele><time>2026-03-22T09:11:53Z</time></trkpt><trkpt lat="43.04509952994178" lon="10.632782998072065"><ele>33.0</ele><time>2026-03-22T09:11:54Z</time></trkpt><trkpt lat="43.04518202519767" lon="10.632980277954859"><ele>34.0</ele><time>2026-03-22T09:11:55Z</time></trkpt><trkpt lat="43.045253419386064" lon="10.63318157292755"><ele>35.0</ele><time>2026-03-22T09:11:56Z</time></trkpt><trkpt lat="43.045314003801444" lon="10.633387327422506"><ele>35.0</ele><time>2026-03-22T09:11:57Z</time></trkpt><trkpt lat="43.04537186110662" lon="10.63358552572088"><ele>35.0</ele><time>2026-03-22T09:11:58Z</time></trkpt><trkpt lat="43.04542900027197" lon="10.633778418194739"><ele>35.0</ele><time>2026-03-22T09:11:59Z</time></trkpt><trkpt lat="43.045486400854735" lon="10.633972134091707"><ele>35.0</ele><time>2026-03-22T09:12:00Z</time></trkpt><trkpt lat="43.045541772006864" lon="10.63415064680759"><ele>35.0</ele><time>2026-03-22T09:12:01Z</time></trkpt><trkpt lat="43.045592286884784" lon="10.634318368852707"><ele>35.0</ele><time>2026-03-22T09:12:02Z</time></trkpt><trkpt lat="43.04564917044428" lon="10.634464060832643"><ele>35.0</ele><time>2026-03-22T09:12:03Z</time></trkpt><trkpt lat="43.04565857836751" lon="10.63460522502265"><ele>34.75</ele><time>2026-03-22T09:12:04Z</time></trkpt><trkpt lat="43.04573729298479" lon="10.634698987805615"><ele>34.5</ele><time>2026-03-22T09:12:05Z</time></trkpt><trkpt lat="43.04581643943731" lon="10.634804037788514"><ele>34.25</ele><time>2026-03-22T09:12:06Z</time></trkpt><trkpt lat="43.045918154676166" lon="10.634886299523735"><ele>34.0</ele><time>2026-03-22T09:12:07Z</time></trkpt><trkpt lat="43.04601264773329" lon="10.634990409678934"><ele>34.0</ele><time>2026-03-22T09:12:08Z</time></trkpt><trkpt lat="43.046077147321704" lon="10.63511126614224"><ele>34.0</ele><time>2026-03-22T09:12:09Z</time></trkpt><trkpt lat="43.04613903257889" lon="10.635208800387643"><ele>34.0</ele><time>2026-03-22T09:12:10Z</time></trkpt><trkpt lat="43.04621751191052" lon="10.635256729863672"><ele>34.0</ele><time>2026-03-22T09:12:11Z</time></trkpt><trkpt lat="43.04631806929099" lon="10.635252502831484"><ele>34.0</ele><time>2026-03-22T09:12:12Z</time></trkpt><trkpt lat="43.04641734774584" lon="10.635192953750474"><ele>34.0</ele><time>2026-03-22T09:12:13Z</time></trkpt><trkpt lat="43.04652011046757" lon="10.63509534629864"><ele>34.0</ele><time>2026-03-22T09:12:14Z</time></trkpt><trkpt lat="43.04662760877773" lon="10.634968882574368"><ele>34.0</ele><time>2026-03-22T09:12:15Z</time></trkpt><trkpt lat="43.04674800917462" lon="10.634842794377121"><ele>34.0</ele><time>2026-03-22T09:12:16Z</time></trkpt><trkpt lat="43.04688352363923" lon="10.634715791203599"><ele>34.75</ele><time>2026-03-22T09:12:17Z</time></trkpt><trkpt lat="43.047007505516206" lon="10.634598858012964"><ele>35.5</ele><time>2026-03-22T09:12:18Z</time></trkpt><trkpt lat="43.04712571217735" lon="10.634484513322947"><ele>36.25</ele><time>2026-03-22T09:12:19Z</time></trkpt><trkpt lat="43.04724483339007" lon="10.634384453730128"><ele>37.0</ele><time>2026-03-22T09:12:20Z</time></trkpt><trkpt lat="43.04736400626417" lon="10.634300698597054"><ele>38.25</ele><time>2026-03-22T09:12:21Z</time></trkpt><trkpt lat="43.047487455315895" lon="10.634235935280719"><ele>39.5</ele><time>2026-03-22T09:12:22Z</time></trkpt><trkpt lat="43.047621598668414" lon="10.634176062517598"><ele>40.75</ele><time>2026-03-22T09:12:23Z</time></trkpt><trkpt lat="43.04776407943592" lon="10.634125749717814"><ele>42.0</ele><time>2026-03-22T09:12:23.999Z</time></trkpt><trkpt lat="43.047894651428564" lon="10.634055236258513"><ele>42.0</ele><time>2026-03-22T09:12:24.999Z</time></trkpt><trkpt lat="43.04802712201541" lon="10.633964746199696"><ele>42.0</ele><time>2026-03-22T09:12:25.999Z</time></trkpt><trkpt lat="43.04815699109198" lon="10.633867278779572"><ele>42.0</ele><time>2026-03-22T09:12:26.999Z</time></trkpt><trkpt lat="43.04827099618816" lon="10.633785741361674"><ele>42.0</ele><time>2026-03-22T09:12:27.999Z</time></trkpt><trkpt lat="43.04839976025796" lon="10.633711009955475"><ele>42.0</ele><time>2026-03-22T09:12:28.999Z</time></trkpt><trkpt lat="43.048537649226034" lon="10.633646141984658"><ele>42.0</ele><time>2026-03-22T09:12:29.999Z</time></trkpt><trkpt lat="43.048680031015365" lon="10.633593072197673"><ele>42.0</ele><time>2026-03-22T09:12:30.999Z</time></trkpt><trkpt lat="43.04882681276458" lon="10.633535054144014"><ele>42.0</ele><time>2026-03-22T09:12:31.999Z</time></trkpt><trkpt lat="43.048964964350716" lon="10.633440091295524"><ele>42.0</ele><time>2026-03-22T09:12:32.999Z</time></trkpt><trkpt lat="43.0491161130448" lon="10.633349781623702"><ele>42.0</ele><time>2026-03-22T09:12:34Z</time></trkpt><trkpt lat="43.049245717964695" lon="10.633258011571243"><ele>42.0</ele><time>2026-03-22T09:12:35Z</time></trkpt><trkpt lat="43.04937011387664" lon="10.63316343325803"><ele>42.2</ele><time>2026-03-22T09:12:36Z</time></trkpt><trkpt lat="43.049477592097254" lon="10.633091478126131"><ele>42.400000000000006</ele><time>2026-03-22T09:12:37Z</time></trkpt><trkpt lat="43.04957696258347" lon="10.633010939167342"><ele>42.599999999999994</ele><time>2026-03-22T09:12:38Z</time></trkpt><trkpt lat="43.04966950656285" lon="10.632936056196739"><ele>42.8</ele><time>2026-03-22T09:12:39Z</time></trkpt><trkpt lat="43.04974786976463" lon="10.632908749149381"><ele>43.0</ele><time>2026-03-22T09:12:40Z</time></trkpt><trkpt lat="43.04981408010943" lon="10.632922076112267"><ele>43.0</ele><time>2026-03-22T09:12:41Z</time></trkpt><trkpt lat="43.04994921699915" lon="10.633007897012888"><ele>43.0</ele><time>2026-03-22T09:12:43Z</time></trkpt><trkpt lat="43.05003720817524" lon="10.633104121220597"><ele>43.0</ele><time>2026-03-22T09:12:44Z</time></trkpt><trkpt lat="43.05013438217158" lon="10.633216780877028"><ele>43.0</ele><time>2026-03-22T09:12:45Z</time></trkpt><trkpt lat="43.05023933247644" lon="10.633326398729068"><ele>43.75</ele><time>2026-03-22T09:12:46Z</time></trkpt><trkpt lat="43.050360684615995" lon="10.63343546232177"><ele>44.5</ele><time>2026-03-22T09:12:47Z</time></trkpt><trkpt lat="43.050489599811456" lon="10.633546428612714"><ele>45.25</ele><time>2026-03-22T09:12:48Z</time></trkpt><trkpt lat="43.05061809456839" lon="10.633647467430126"><ele>46.0</ele><time>2026-03-22T09:12:49Z</time></trkpt><trkpt lat="43.050752853682724" lon="10.633757187299276"><ele>50.66666666666667</ele><time>2026-03-22T09:12:50Z</time></trkpt><trkpt lat="43.05089377216797" lon="10.633874370479804"><ele>55.333333333333336</ele><time>2026-03-22T09:12:51Z</time></trkpt><trkpt lat="43.05101575928104" lon="10.633988676901112"><ele>60.0</ele><time>2026-03-22T09:12:52Z</time></trkpt><trkpt lat="43.05112664924305" lon="10.634103486082704"><ele>60.0</ele><time>2026-03-22T09:12:53Z</time></trkpt><trkpt lat="43.051224022961634" lon="10.634224629231419"><ele>60.0</ele><time>2026-03-22T09:12:54Z</time></trkpt><trkpt lat="43.051298049798824" lon="10.63435372436104"><ele>60.0</ele><time>2026-03-22T09:12:55Z</time></trkpt><trkpt lat="43.051383806372925" lon="10.634428706870576"><ele>60.0</ele><time>2026-03-22T09:12:56Z</time></trkpt><trkpt lat="43.05144561698253" lon="10.634497284541993"><ele>60.0</ele><time>2026-03-22T09:12:57Z</time></trkpt><trkpt lat="43.05152465218758" lon="10.634548722275891"><ele>61.0</ele><time>2026-03-22T09:12:58Z</time></trkpt><trkpt lat="43.05162704407645" lon="10.634577247116578"><ele>62.0</ele><time>2026-03-22T09:12:59Z</time></trkpt><trkpt lat="43.05175080468406" lon="10.634599181906863"><ele>63.0</ele><time>2026-03-22T09:13:00Z</time></trkpt><trkpt lat="43.051873474459185" lon="10.634620003541993"><ele>64.0</ele><time>2026-03-22T09:13:01Z</time></trkpt><trkpt lat="43.0519903031084" lon="10.634648207255976"><ele>64.0</ele><time>2026-03-22T09:13:02Z</time></trkpt><trkpt lat="43.0521036928493" lon="10.634676217582854"><ele>64.0</ele><time>2026-03-22T09:13:03Z</time></trkpt><trkpt lat="43.0522168525561" lon="10.634710646178327"><ele>64.0</ele><time>2026-03-22T09:13:04Z</time></trkpt><trkpt lat="43.05232861118615" lon="10.634748973510472"><ele>64.0</ele><time>2026-03-22T09:13:05Z</time></trkpt><trkpt lat="43.05243722735064" lon="10.63479759077009"><ele>64.4</ele><time>2026-03-22T09:13:06Z</time></trkpt><trkpt lat="43.05254384379046" lon="10.634845796035119"><ele>64.80000000000001</ele><time>2026-03-22T09:13:07Z</time></trkpt><trkpt lat="43.05264864353512" lon="10.634899088288394"><ele>65.19999999999999</ele><time>2026-03-22T09:13:08Z</time></trkpt><trkpt lat="43.05274805149346" lon="10.634959087819574"><ele>65.6</ele><time>2026-03-22T09:13:09Z</time></trkpt><trkpt lat="43.052849287598505" lon="10.635015374624794"><ele>66.0</ele><time>2026-03-22T09:13:10Z</time></trkpt><trkpt lat="43.052952060412686" lon="10.63506045298985"><ele>66.0</ele><time>2026-03-22T09:13:11Z</time></trkpt><trkpt lat="43.05305805768383" lon="10.635095313075045"><ele>66.0</ele><time>2026-03-22T09:13:12Z</time></trkpt><trkpt lat="43.05315885480122" lon="10.635127287861955"><ele>66.0</ele><time>2026-03-22T09:13:13Z</time></trkpt><trkpt lat="43.05325730814752" lon="10.635161582047797"><ele>66.0</ele><time>2026-03-22T09:13:14Z</time></trkpt><trkpt lat="43.05335030277481" lon="10.635198668741506"><ele>66.0</ele><time>2026-03-22T09:13:15Z</time></trkpt><trkpt lat="43.053436552850094" lon="10.635235254606961"><ele>66.66666666666667</ele><time>2026-03-22T09:13:16Z</time></trkpt><trkpt lat="43.05352166729077" lon="10.635266926496014"><ele>67.33333333333333</ele><time>2026-03-22T09:13:17Z</time></trkpt><trkpt lat="43.05360527813754" lon="10.63529593999997"><ele>68.0</ele><time>2026-03-22T09:13:18Z</time></trkpt><trkpt lat="43.0536787479147" lon="10.635313030386135"><ele>68.66666666666666</ele><time>2026-03-22T09:13:19Z</time></trkpt><trkpt lat="43.05374475499524" lon="10.6353284616522"><ele>69.33333333333333</ele><time>2026-03-22T09:13:20Z</time></trkpt><trkpt lat="43.05380823175026" lon="10.635343144492195"><ele>70.0</ele><time>2026-03-22T09:13:21Z</time></trkpt><trkpt lat="43.053880979239324" lon="10.63534954303149"><ele>70.0</ele><time>2026-03-22T09:13:22Z</time></trkpt><trkpt lat="43.05396067669028" lon="10.635340900838488"><ele>70.0</ele><time>2026-03-22T09:13:23Z</time></trkpt><trkpt lat="43.054046430478095" lon="10.635329692118393"><ele>70.0</ele><time>2026-03-22T09:13:24Z</time></trkpt><trkpt lat="43.0541497271557" lon="10.63530074421274"><ele>70.0</ele><time>2026-03-22T09:13:25Z</time></trkpt><trkpt lat="43.0542580022715" lon="10.63527433875306"><ele>70.0</ele><time>2026-03-22T09:13:26Z</time></trkpt><trkpt lat="43.054370029019935" lon="10.635233720708918"><ele>71.5</ele><time>2026-03-22T09:13:27Z</time></trkpt><trkpt lat="43.05449499238787" lon="10.635244163240733"><ele>73.0</ele><time>2026-03-22T09:13:28Z</time></trkpt><trkpt lat="43.05462036595284" lon="10.635239995495368"><ele>74.5</ele><time>2026-03-22T09:13:29Z</time></trkpt><trkpt lat="43.05474411212936" lon="10.63525559618051"><ele>76.0</ele><time>2026-03-22T09:13:30Z</time></trkpt><trkpt lat="43.05486445640963" lon="10.635286756675406"><ele>77.0</ele><time>2026-03-22T09:13:31Z</time></trkpt><trkpt lat="43.05497640636064" lon="10.635336054116152"><ele>78.0</ele><time>2026-03-22T09:13:32Z</time></trkpt><trkpt lat="43.05509006588275" lon="10.63540221213095"><ele>79.0</ele><time>2026-03-22T09:13:33Z</time></trkpt><trkpt lat="43.05519419064717" lon="10.635479918191793"><ele>80.0</ele><time>2026-03-22T09:13:34Z</time></trkpt><trkpt lat="43.05529780238355" lon="10.635564843965419"><ele>80.0</ele><time>2026-03-22T09:13:35Z</time></trkpt><trkpt lat="43.05540022346819" lon="10.635658039563962"><ele>80.0</ele><time>2026-03-22T09:13:36Z</time></trkpt><trkpt lat="43.055499224589084" lon="10.635751653449606"><ele>80.0</ele><time>2026-03-22T09:13:37Z</time></trkpt><trkpt lat="43.055596739622395" lon="10.635862670378806"><ele>80.0</ele><time>2026-03-22T09:13:38Z</time></trkpt><trkpt lat="43.055696622832386" lon="10.635983227818862"><ele>82.25</ele><time>2026-03-22T09:13:39Z</time></trkpt><trkpt lat="43.05579768564716" lon="10.636103109141644"><ele>84.5</ele><time>2026-03-22T09:13:40Z</time></trkpt><trkpt lat="43.05589981948456" lon="10.636223458913845"><ele>86.75</ele><time>2026-03-22T09:13:41Z</time></trkpt><trkpt lat="43.056003897772854" lon="10.636331865294148"><ele>89.0</ele><time>2026-03-22T09:13:42Z</time></trkpt><trkpt lat="43.056098423442045" lon="10.636466825792038"><ele>89.5</ele><time>2026-03-22T09:13:43Z</time></trkpt><trkpt lat="43.056208933065854" lon="10.636555762457046"><ele>90.0</ele><time>2026-03-22T09:13:44Z</time></trkpt><trkpt lat="43.05630561769663" lon="10.636678086222648"><ele>90.5</ele><time>2026-03-22T09:13:45Z</time></trkpt><trkpt lat="43.05641596962538" lon="10.636771151085894"><ele>91.0</ele><time>2026-03-22T09:13:46Z</time></trkpt><trkpt lat="43.05651044279438" lon="10.63687652698762"><ele>92.5</ele><time>2026-03-22T09:13:47Z</time></trkpt><trkpt lat="43.0566079527248" lon="10.636985667490512"><ele>94.0</ele><time>2026-03-22T09:13:48Z</time></trkpt><trkpt lat="43.056703492060855" lon="10.63709672677694"><ele>95.5</ele><time>2026-03-22T09:13:49Z</time></trkpt><trkpt lat="43.05679306926965" lon="10.637212664608048"><ele>97.0</ele><time>2026-03-22T09:13:50Z</time></trkpt><trkpt lat="43.05688262650497" lon="10.63733983683862"><ele>97.0</ele><time>2026-03-22T09:13:51Z</time></trkpt><trkpt lat="43.056974529814" lon="10.63746322367137"><ele>97.0</ele><time>2026-03-22T09:13:52Z</time></trkpt><trkpt lat="43.05706944970565" lon="10.637575357250583"><ele>97.0</ele><time>2026-03-22T09:13:53Z</time></trkpt><trkpt lat="43.05716793434795" lon="10.637685917162942"><ele>97.0</ele><time>2026-03-22T09:13:54Z</time></trkpt><trkpt lat="43.05728385034886" lon="10.637803626985253"><ele>96.75</ele><time>2026-03-22T09:13:55Z</time></trkpt><trkpt lat="43.05740268410142" lon="10.637898398289952"><ele>96.5</ele><time>2026-03-22T09:13:56Z</time></trkpt><trkpt lat="43.057532182807726" lon="10.637995566054766"><ele>96.25</ele><time>2026-03-22T09:13:57Z</time></trkpt><trkpt lat="43.05766082724826" lon="10.638086144583196"><ele>96.0</ele><time>2026-03-22T09:13:58Z</time></trkpt><trkpt lat="43.05780010789947" lon="10.638178286354142"><ele>96.0</ele><time>2026-03-22T09:13:59Z</time></trkpt><trkpt lat="43.05795154346543" lon="10.638269432336921"><ele>96.0</ele><time>2026-03-22T09:14:00Z</time></trkpt><trkpt lat="43.05810623007396" lon="10.638359776545038"><ele>96.0</ele><time>2026-03-22T09:14:01Z</time></trkpt><trkpt lat="43.05825545038604" lon="10.638454750272938"><ele>95.0</ele><time>2026-03-22T09:14:02Z</time></trkpt><trkpt lat="43.058403756567635" lon="10.638556607998574"><ele>94.0</ele><time>2026-03-22T09:14:03Z</time></trkpt><trkpt lat="43.058552679850486" lon="10.638648463370625"><ele>93.0</ele><time>2026-03-22T09:14:04Z</time></trkpt><trkpt lat="43.05869877557892" lon="10.638738968972323"><ele>93.0</ele><time>2026-03-22T09:14:05Z</time></trkpt><trkpt lat="43.05882983257842" lon="10.638828268660362"><ele>93.0</ele><time>2026-03-22T09:14:06Z</time></trkpt><trkpt lat="43.05895682010258" lon="10.63891155268449"><ele>93.0</ele><time>2026-03-22T09:14:07Z</time></trkpt><trkpt lat="43.05908269832058" lon="10.639000129200273"><ele>93.0</ele><time>2026-03-22T09:14:08Z</time></trkpt><trkpt lat="43.05920669612827" lon="10.639093670378422"><ele>93.0</ele><time>2026-03-22T09:14:09Z</time></trkpt><trkpt lat="43.05931869830036" lon="10.639175522753934"><ele>93.0</ele><time>2026-03-22T09:14:10Z</time></trkpt><trkpt lat="43.05942414046303" lon="10.639248551524018"><ele>93.0</ele><time>2026-03-22T09:14:11Z</time></trkpt><trkpt lat="43.059528456325374" lon="10.639306222613717"><ele>93.0</ele><time>2026-03-22T09:14:12Z</time></trkpt><trkpt lat="43.059643642444605" lon="10.639345804409857"><ele>93.0</ele><time>2026-03-22T09:14:13Z</time></trkpt><trkpt lat="43.05975665049464" lon="10.639374749083512"><ele>93.0</ele><time>2026-03-22T09:14:14Z</time></trkpt><trkpt lat="43.05987110173075" lon="10.639392558583948"><ele>93.0</ele><time>2026-03-22T09:14:15Z</time></trkpt><trkpt lat="43.05996869063987" lon="10.63943194491515"><ele>93.0</ele><time>2026-03-22T09:14:16Z</time></trkpt><trkpt lat="43.06005459303849" lon="10.639480730105863"><ele>93.0</ele><time>2026-03-22T09:14:17Z</time></trkpt><trkpt lat="43.060130934555055" lon="10.639537097210248"><ele>92.4</ele><time>2026-03-22T09:14:18Z</time></trkpt><trkpt lat="43.06018639882211" lon="10.63962455774295"><ele>91.80000000000001</ele><time>2026-03-22T09:14:19Z</time></trkpt><trkpt lat="43.06025204859656" lon="10.639710750320196"><ele>91.2</ele><time>2026-03-22T09:14:20Z</time></trkpt><trkpt lat="43.06030897683562" lon="10.639777776316814"><ele>90.6</ele><time>2026-03-22T09:14:21Z</time></trkpt><trkpt lat="43.060363646369204" lon="10.639829084353561"><ele>90.0</ele><time>2026-03-22T09:14:22Z</time></trkpt><trkpt lat="43.06049988966266" lon="10.639855725361592"><ele>90.0</ele><time>2026-03-22T09:14:23.999Z</time></trkpt><trkpt lat="43.06058880934577" lon="10.63981713036437"><ele>90.0</ele><time>2026-03-22T09:14:24.999Z</time></trkpt><trkpt lat="43.060679865234356" lon="10.63975549182979"><ele>90.0</ele><time>2026-03-22T09:14:25.999Z</time></trkpt><trkpt lat="43.060765184293636" lon="10.63968052751593"><ele>90.0</ele><time>2026-03-22T09:14:26.999Z</time></trkpt><trkpt lat="43.060832542593225" lon="10.639627351229988"><ele>90.0</ele><time>2026-03-22T09:14:27.999Z</time></trkpt><trkpt lat="43.060920450310554" lon="10.639606278327514"><ele>89.0</ele><time>2026-03-22T09:14:29.999Z</time></trkpt><trkpt lat="43.06105053607887" lon="10.639678787017376"><ele>88.0</ele><time>2026-03-22T09:14:31.999Z</time></trkpt><trkpt lat="43.06109920009522" lon="10.639766445184147"><ele>87.0</ele><time>2026-03-22T09:14:32.999Z</time></trkpt><trkpt lat="43.06112958198694" lon="10.639879251094404"><ele>86.0</ele><time>2026-03-22T09:14:33.999Z</time></trkpt><trkpt lat="43.061182793802395" lon="10.640002980287198"><ele>85.0</ele><time>2026-03-22T09:14:34.999Z</time></trkpt><trkpt lat="43.06121610510214" lon="10.640158306956687"><ele>84.2</ele><time>2026-03-22T09:14:35.999Z</time></trkpt><trkpt lat="43.06125002559552" lon="10.64030107403619"><ele>83.4</ele><time>2026-03-22T09:14:36.999Z</time></trkpt><trkpt lat="43.061295604202435" lon="10.640439812753277"><ele>82.6</ele><time>2026-03-22T09:14:37.999Z</time></trkpt><trkpt lat="43.06133967504218" lon="10.640584479867858"><ele>81.8</ele><time>2026-03-22T09:14:38.999Z</time></trkpt><trkpt lat="43.061362557147866" lon="10.640705766601362"><ele>81.0</ele><time>2026-03-22T09:14:40Z</time></trkpt><trkpt lat="43.0613769460471" lon="10.64079989365398"><ele>81.0</ele><time>2026-03-22T09:14:42Z</time></trkpt><trkpt lat="43.06138894855641" lon="10.640889580353438"><ele>81.0</ele><time>2026-03-22T09:14:43Z</time></trkpt><trkpt lat="43.06137445385994" lon="10.640982234298114"><ele>81.0</ele><time>2026-03-22T09:14:44Z</time></trkpt><trkpt lat="43.06141824765762" lon="10.641080650495093"><ele>81.0</ele><time>2026-03-22T09:14:45Z</time></trkpt><trkpt lat="43.06146626017438" lon="10.641250334028488"><ele>81.0</ele><time>2026-03-22T09:14:46Z</time></trkpt><trkpt lat="43.06151918382505" lon="10.641383299704371"><ele>80.8</ele><time>2026-03-22T09:14:47Z</time></trkpt><trkpt lat="43.061573060942585" lon="10.641485689649217"><ele>80.6</ele><time>2026-03-22T09:14:48Z</time></trkpt><trkpt lat="43.06159407196452" lon="10.641574258842192"><ele>80.4</ele><time>2026-03-22T09:14:49Z</time></trkpt><trkpt lat="43.06161081221109" lon="10.641710460071614"><ele>80.2</ele><time>2026-03-22T09:14:50Z</time></trkpt><trkpt lat="43.06160046228001" lon="10.641838806427593"><ele>80.0</ele><time>2026-03-22T09:14:51Z</time></trkpt><trkpt lat="43.06156912049853" lon="10.641981833927918"><ele>79.25</ele><time>2026-03-22T09:14:52Z</time></trkpt><trkpt lat="43.061504196090304" lon="10.642138089990738"><ele>78.5</ele><time>2026-03-22T09:14:53Z</time></trkpt><trkpt lat="43.06143266864023" lon="10.64229170810331"><ele>77.75</ele><time>2026-03-22T09:14:54Z</time></trkpt><trkpt lat="43.06135481672904" lon="10.642409118379428"><ele>77.0</ele><time>2026-03-22T09:14:55Z</time></trkpt><trkpt lat="43.0612968018183" lon="10.642520385967531"><ele>77.0</ele><time>2026-03-22T09:14:56Z</time></trkpt><trkpt lat="43.061249744077564" lon="10.642590928463248"><ele>77.0</ele><time>2026-03-22T09:14:57Z</time></trkpt><trkpt lat="43.06122296771676" lon="10.642705591916451"><ele>77.0</ele><time>2026-03-22T09:14:58Z</time></trkpt><trkpt lat="43.0612065458748" lon="10.642860189474497"><ele>77.0</ele><time>2026-03-22T09:14:59Z</time></trkpt><trkpt lat="43.06121413032841" lon="10.643046553790569"><ele>77.0</ele><time>2026-03-22T09:15:00Z</time></trkpt><trkpt lat="43.061220796752835" lon="10.643230521938495"><ele>76.0</ele><time>2026-03-22T09:15:01Z</time></trkpt><trkpt lat="43.06122649435125" lon="10.643404193733977"><ele>75.0</ele><time>2026-03-22T09:15:02Z</time></trkpt><trkpt lat="43.0612352220472" lon="10.643571436540775"><ele>74.0</ele><time>2026-03-22T09:15:03Z</time></trkpt><trkpt lat="43.06124202118089" lon="10.643734787333313"><ele>73.0</ele><time>2026-03-22T09:15:04Z</time></trkpt><trkpt lat="43.061258541126236" lon="10.643894456631104"><ele>72.4</ele><time>2026-03-22T09:15:05Z</time></trkpt><trkpt lat="43.061291009509205" lon="10.644046048953198"><ele>71.8</ele><time>2026-03-22T09:15:06Z</time></trkpt><trkpt lat="43.06131975240646" lon="10.644189111306845"><ele>71.2</ele><time>2026-03-22T09:15:07Z</time></trkpt><trkpt lat="43.0613452311674" lon="10.644302204148625"><ele>70.6</ele><time>2026-03-22T09:15:08Z</time></trkpt><trkpt lat="43.061391915554196" lon="10.644399484871403"><ele>70.0</ele><time>2026-03-22T09:15:09Z</time></trkpt><trkpt lat="43.061441682298984" lon="10.644480218233099"><ele>70.4</ele><time>2026-03-22T09:15:10Z</time></trkpt><trkpt lat="43.06149251092054" lon="10.64454242297819"><ele>70.8</ele><time>2026-03-22T09:15:11Z</time></trkpt><trkpt lat="43.061578204718" lon="10.644654435030658"><ele>71.2</ele><time>2026-03-22T09:15:13Z</time></trkpt><trkpt lat="43.06164153516988" lon="10.644800785456972"><ele>71.6</ele><time>2026-03-22T09:15:15Z</time></trkpt><trkpt lat="43.06167378176652" lon="10.644901405323326"><ele>72.0</ele><time>2026-03-22T09:15:16Z</time></trkpt><trkpt lat="43.06170976327679" lon="10.64501594657039"><ele>72.0</ele><time>2026-03-22T09:15:17Z</time></trkpt><trkpt lat="43.06175125984071" lon="10.645136914730147"><ele>72.0</ele><time>2026-03-22T09:15:18Z</time></trkpt><trkpt lat="43.06180795754799" lon="10.645262044600821"><ele>72.0</ele><time>2026-03-22T09:15:19Z</time></trkpt><trkpt lat="43.061861271521835" lon="10.645388718676347"><ele>72.0</ele><time>2026-03-22T09:15:20Z</time></trkpt><trkpt lat="43.061918634741396" lon="10.645521139300127"><ele>72.0</ele><time>2026-03-22T09:15:21Z</time></trkpt><trkpt lat="43.061977770393725" lon="10.645663009316792"><ele>70.0</ele><time>2026-03-22T09:15:22Z</time></trkpt><trkpt lat="43.06202960741983" lon="10.645803510483637"><ele>68.0</ele><time>2026-03-22T09:15:23Z</time></trkpt><trkpt lat="43.062087912505255" lon="10.64594378861209"><ele>66.0</ele><time>2026-03-22T09:15:24Z</time></trkpt><trkpt lat="43.06213986631799" lon="10.646083187469989"><ele>64.0</ele><time>2026-03-22T09:15:25Z</time></trkpt><trkpt lat="43.06219367307987" lon="10.646218714754237"><ele>64.0</ele><time>2026-03-22T09:15:26Z</time></trkpt><trkpt lat="43.06225148675659" lon="10.646344720081547"><ele>64.0</ele><time>2026-03-22T09:15:27Z</time></trkpt><trkpt lat="43.0623114069586" lon="10.646463301878144"><ele>64.0</ele><time>2026-03-22T09:15:28Z</time></trkpt><trkpt lat="43.06237531356609" lon="10.646588175909956"><ele>64.0</ele><time>2026-03-22T09:15:29Z</time></trkpt><trkpt lat="43.062435234952396" lon="10.646693914487981"><ele>64.0</ele><time>2026-03-22T09:15:30Z</time></trkpt><trkpt lat="43.06248782224461" lon="10.646782356136656"><ele>63.99999999999999</ele><time>2026-03-22T09:15:31Z</time></trkpt><trkpt lat="43.062535442931654" lon="10.646857094855566"><ele>64.0</ele><time>2026-03-22T09:15:32Z</time></trkpt><trkpt lat="43.06257678352809" lon="10.646939336888472"><ele>64.0</ele><time>2026-03-22T09:15:33Z</time></trkpt><trkpt lat="43.062603564795324" lon="10.647044965401635"><ele>64.0</ele><time>2026-03-22T09:15:34Z</time></trkpt><trkpt lat="43.062615785250046" lon="10.647177787738736"><ele>63.99999999999999</ele><time>2026-03-22T09:15:35Z</time></trkpt><trkpt lat="43.06261085314615" lon="10.647323282793296"><ele>64.0</ele><time>2026-03-22T09:15:36Z</time></trkpt><trkpt lat="43.062616446959794" lon="10.647456856346535"><ele>63.400000000000006</ele><time>2026-03-22T09:15:37Z</time></trkpt><trkpt lat="43.062619742192815" lon="10.647579520736738"><ele>62.800000000000004</ele><time>2026-03-22T09:15:39Z</time></trkpt><trkpt lat="43.062641221286555" lon="10.647716528565674"><ele>62.199999999999996</ele><time>2026-03-22T09:15:40Z</time></trkpt><trkpt lat="43.06265151625982" lon="10.647860808227472"><ele>61.599999999999994</ele><time>2026-03-22T09:15:41Z</time></trkpt><trkpt lat="43.0626395775406" lon="10.64798109250395"><ele>61.0</ele><time>2026-03-22T09:15:42Z</time></trkpt><trkpt lat="43.06260497577828" lon="10.648089977356635"><ele>60.5</ele><time>2026-03-22T09:15:43Z</time></trkpt><trkpt lat="43.06257675222653" lon="10.648247815957582"><ele>60.0</ele><time>2026-03-22T09:15:44Z</time></trkpt><trkpt lat="43.06254415062684" lon="10.648392506961931"><ele>59.5</ele><time>2026-03-22T09:15:45Z</time></trkpt><trkpt lat="43.062529713122665" lon="10.64853494458013"><ele>59.0</ele><time>2026-03-22T09:15:46Z</time></trkpt><trkpt lat="43.06251457940544" lon="10.648703513337013"><ele>58.5</ele><time>2026-03-22T09:15:47Z</time></trkpt><trkpt lat="43.062501974785334" lon="10.648866433253138"><ele>58.0</ele><time>2026-03-22T09:15:48Z</time></trkpt><trkpt lat="43.0624989376827" lon="10.649024967771334"><ele>57.5</ele><time>2026-03-22T09:15:49Z</time></trkpt><trkpt lat="43.062501001421445" lon="10.649187132979266"><ele>57.0</ele><time>2026-03-22T09:15:50Z</time></trkpt><trkpt lat="43.06251165672662" lon="10.649341945427022"><ele>56.5</ele><time>2026-03-22T09:15:51Z</time></trkpt><trkpt lat="43.06252617018533" lon="10.649499055172223"><ele>56.0</ele><time>2026-03-22T09:15:52Z</time></trkpt><trkpt lat="43.06253400512325" lon="10.64966460599815"><ele>55.5</ele><time>2026-03-22T09:15:53Z</time></trkpt><trkpt lat="43.06254308095419" lon="10.649821558996404"><ele>55.0</ele><time>2026-03-22T09:15:54Z</time></trkpt><trkpt lat="43.06254607558898" lon="10.64998056971342"><ele>55.0</ele><time>2026-03-22T09:15:55Z</time></trkpt><trkpt lat="43.06255696401969" lon="10.650142188959105"><ele>55.0</ele><time>2026-03-22T09:15:56Z</time></trkpt><trkpt lat="43.06257726212863" lon="10.650273200920562"><ele>55.0</ele><time>2026-03-22T09:15:57Z</time></trkpt><trkpt lat="43.06260149036693" lon="10.650422358783832"><ele>55.0</ele><time>2026-03-22T09:15:58Z</time></trkpt><trkpt lat="43.062621814870916" lon="10.650565190049946"><ele>55.0</ele><time>2026-03-22T09:15:59Z</time></trkpt><trkpt lat="43.06264105275488" lon="10.650708470072836"><ele>55.0</ele><time>2026-03-22T09:16:00Z</time></trkpt><trkpt lat="43.06263816643952" lon="10.650853795684053"><ele>55.0</ele><time>2026-03-22T09:16:01Z</time></trkpt><trkpt lat="43.06263880144998" lon="10.650999584855821"><ele>55.0</ele><time>2026-03-22T09:16:02Z</time></trkpt><trkpt lat="43.06263716538112" lon="10.651164654740521"><ele>55.0</ele><time>2026-03-22T09:16:03Z</time></trkpt><trkpt lat="43.06263180588005" lon="10.651322867061486"><ele>55.0</ele><time>2026-03-22T09:16:04Z</time></trkpt><trkpt lat="43.062632850753324" lon="10.651476975088247"><ele>54.8</ele><time>2026-03-22T09:16:05Z</time></trkpt><trkpt lat="43.06263660428531" lon="10.651635369057853"><ele>54.6</ele><time>2026-03-22T09:16:06Z</time></trkpt><trkpt lat="43.06264661687371" lon="10.65179160007504"><ele>54.400000000000006</ele><time>2026-03-22T09:16:07Z</time></trkpt><trkpt lat="43.06266480038234" lon="10.651938577394617"><ele>54.2</ele><time>2026-03-22T09:16:08Z</time></trkpt><trkpt lat="43.06268306019791" lon="10.652063111400428"><ele>54.0</ele><time>2026-03-22T09:16:09Z</time></trkpt><trkpt lat="43.06268104957501" lon="10.652155520786282"><ele>53.400000000000006</ele><time>2026-03-22T09:16:10Z</time></trkpt><trkpt lat="43.0627052990836" lon="10.652268868557494"><ele>52.800000000000004</ele><time>2026-03-22T09:16:22Z</time></trkpt><trkpt lat="43.06274406917639" lon="10.652385381607958"><ele>52.2</ele><time>2026-03-22T09:16:24Z</time></trkpt><trkpt lat="43.06277481543399" lon="10.652463702698642"><ele>51.599999999999994</ele><time>2026-03-22T09:16:25Z</time></trkpt><trkpt lat="43.06285892200278" lon="10.652579652541778"><ele>51.0</ele><time>2026-03-22T09:16:26Z</time></trkpt><trkpt lat="43.06295775750273" lon="10.6526815149548"><ele>50.5</ele><time>2026-03-22T09:16:27Z</time></trkpt><trkpt lat="43.06305788171581" lon="10.652802829484436"><ele>50.0</ele><time>2026-03-22T09:16:28Z</time></trkpt><trkpt lat="43.063160751655936" lon="10.652936329804733"><ele>49.5</ele><time>2026-03-22T09:16:29Z</time></trkpt><trkpt lat="43.063261292989836" lon="10.653066936927546"><ele>49.0</ele><time>2026-03-22T09:16:30Z</time></trkpt><trkpt lat="43.063371656852986" lon="10.653210299007831"><ele>49.0</ele><time>2026-03-22T09:16:31Z</time></trkpt><trkpt lat="43.06348298574204" lon="10.653357308562448"><ele>49.0</ele><time>2026-03-22T09:16:32Z</time></trkpt><trkpt lat="43.06359013651255" lon="10.653498016574568"><ele>49.0</ele><time>2026-03-22T09:16:33Z</time></trkpt><trkpt lat="43.06368861783283" lon="10.653625461778066"><ele>49.0</ele><time>2026-03-22T09:16:34Z</time></trkpt><trkpt lat="43.06378893868761" lon="10.65375010635369"><ele>49.0</ele><time>2026-03-22T09:16:35Z</time></trkpt><trkpt lat="43.063890671993384" lon="10.653866961938752"><ele>49.0</ele><time>2026-03-22T09:16:36Z</time></trkpt><trkpt lat="43.064001972424386" lon="10.653987646654747"><ele>49.0</ele><time>2026-03-22T09:16:36.999Z</time></trkpt><trkpt lat="43.06412716011902" lon="10.65410397664327"><ele>49.0</ele><time>2026-03-22T09:16:37.999Z</time></trkpt><trkpt lat="43.064246896048736" lon="10.654180078266092"><ele>49.0</ele><time>2026-03-22T09:16:38.999Z</time></trkpt><trkpt lat="43.06435371702799" lon="10.654270053692422"><ele>49.0</ele><time>2026-03-22T09:16:39.999Z</time></trkpt><trkpt lat="43.06444934530262" lon="10.65436783103991"><ele>49.0</ele><time>2026-03-22T09:16:40.999Z</time></trkpt><trkpt lat="43.06456233874484" lon="10.654412323945683"><ele>49.0</ele><time>2026-03-22T09:16:41.999Z</time></trkpt><trkpt lat="43.06467960467349" lon="10.654470705560415"><ele>48.800000000000004</ele><time>2026-03-22T09:16:42.999Z</time></trkpt><trkpt lat="43.06479261761405" lon="10.654504631469639"><ele>48.6</ele><time>2026-03-22T09:16:43.999Z</time></trkpt><trkpt lat="43.0648954617708" lon="10.654528483783023"><ele>48.4</ele><time>2026-03-22T09:16:45Z</time></trkpt><trkpt lat="43.06498449153599" lon="10.654574545970371"><ele>48.2</ele><time>2026-03-22T09:16:46Z</time></trkpt><trkpt lat="43.06505120657672" lon="10.654667977763253"><ele>48.0</ele><time>2026-03-22T09:16:47Z</time></trkpt><trkpt lat="43.065150034043896" lon="10.654772256825208"><ele>48.0</ele><time>2026-03-22T09:16:48Z</time></trkpt><trkpt lat="43.065242693812756" lon="10.654904352459319"><ele>48.0</ele><time>2026-03-22T09:16:49Z</time></trkpt><trkpt lat="43.06532663099209" lon="10.65503624590535"><ele>48.0</ele><time>2026-03-22T09:16:50Z</time></trkpt><trkpt lat="43.065410116145436" lon="10.655185330441189"><ele>48.0</ele><time>2026-03-22T09:16:51Z</time></trkpt><trkpt lat="43.06548261105557" lon="10.655351110046157"><ele>47.25</ele><time>2026-03-22T09:16:52Z</time></trkpt><trkpt lat="43.065530154578965" lon="10.655527788546516"><ele>46.5</ele><time>2026-03-22T09:16:53Z</time></trkpt><trkpt lat="43.06557833390823" lon="10.655698768691412"><ele>45.75</ele><time>2026-03-22T09:16:54Z</time></trkpt><trkpt lat="43.06561466610681" lon="10.655877732067209"><ele>45.0</ele><time>2026-03-22T09:16:55Z</time></trkpt><trkpt lat="43.06564365005092" lon="10.656062379911058"><ele>44.5</ele><time>2026-03-22T09:16:56Z</time></trkpt><trkpt lat="43.06569092838796" lon="10.656241082421195"><ele>44.0</ele><time>2026-03-22T09:16:57Z</time></trkpt><trkpt lat="43.06572995230615" lon="10.65640356293608"><ele>43.5</ele><time>2026-03-22T09:16:58Z</time></trkpt><trkpt lat="43.06577727718883" lon="10.656561054065607"><ele>43.0</ele><time>2026-03-22T09:16:59Z</time></trkpt><trkpt lat="43.06582591340616" lon="10.65671700395821"><ele>43.25</ele><time>2026-03-22T09:17:00Z</time></trkpt><trkpt lat="43.065880916109414" lon="10.656869545643747"><ele>43.5</ele><time>2026-03-22T09:17:01Z</time></trkpt><trkpt lat="43.065965155351" lon="10.657014010221502"><ele>43.75</ele><time>2026-03-22T09:17:02Z</time></trkpt><trkpt lat="43.06606816359911" lon="10.657142716160214"><ele>44.0</ele><time>2026-03-22T09:17:03Z</time></trkpt><trkpt lat="43.066152690715604" lon="10.657289250221762"><ele>44.0</ele><time>2026-03-22T09:17:04Z</time></trkpt><trkpt lat="43.06617555328196" lon="10.657485171153457"><ele>44.0</ele><time>2026-03-22T09:17:05Z</time></trkpt><trkpt lat="43.066215211435754" lon="10.65768949915095"><ele>44.0</ele><time>2026-03-22T09:17:06Z</time></trkpt><trkpt lat="43.06627548582315" lon="10.657883029868978"><ele>43.5</ele><time>2026-03-22T09:17:07Z</time></trkpt><trkpt lat="43.06631930518303" lon="10.658067302564394"><ele>43.0</ele><time>2026-03-22T09:17:08Z</time></trkpt><trkpt lat="43.06634298986332" lon="10.658249671300139"><ele>42.5</ele><time>2026-03-22T09:17:09Z</time></trkpt><trkpt lat="43.066379377528186" lon="10.658410171418314"><ele>42.0</ele><time>2026-03-22T09:17:10Z</time></trkpt><trkpt lat="43.06644082446124" lon="10.658530013889955"><ele>42.0</ele><time>2026-03-22T09:17:11Z</time></trkpt><trkpt lat="43.06650975243202" lon="10.658636129874635"><ele>42.0</ele><time>2026-03-22T09:17:12Z</time></trkpt><trkpt lat="43.06660745049311" lon="10.658724183558617"><ele>42.0</ele><time>2026-03-22T09:17:13Z</time></trkpt><trkpt lat="43.06672992083164" lon="10.65879119492459"><ele>42.0</ele><time>2026-03-22T09:17:14Z</time></trkpt><trkpt lat="43.0668481709435" lon="10.658855713229244"><ele>42.0</ele><time>2026-03-22T09:17:15Z</time></trkpt><trkpt lat="43.066960315563634" lon="10.658959771441376"><ele>42.0</ele><time>2026-03-22T09:17:16Z</time></trkpt><trkpt lat="43.06706355577545" lon="10.659093743798751"><ele>42.0</ele><time>2026-03-22T09:17:17Z</time></trkpt><trkpt lat="43.06717797958235" lon="10.659236557353138"><ele>42.0</ele><time>2026-03-22T09:17:18Z</time></trkpt><trkpt lat="43.06727960255124" lon="10.659394034708873"><ele>42.0</ele><time>2026-03-22T09:17:19Z</time></trkpt><trkpt lat="43.06733336009588" lon="10.65959598578393"><ele>42.0</ele><time>2026-03-22T09:17:20Z</time></trkpt><trkpt lat="43.06739500550811" lon="10.659794004124082"><ele>42.0</ele><time>2026-03-22T09:17:21Z</time></trkpt><trkpt lat="43.06745312922738" lon="10.659989145128462"><ele>42.0</ele><time>2026-03-22T09:17:22Z</time></trkpt><trkpt lat="43.06749678068302" lon="10.660186068782956"><ele>42.0</ele><time>2026-03-22T09:17:23Z</time></trkpt><trkpt lat="43.0675310416536" lon="10.660388953548264"><ele>42.0</ele><time>2026-03-22T09:17:24Z</time></trkpt><trkpt lat="43.06757651657098" lon="10.660591664336566"><ele>42.0</ele><time>2026-03-22T09:17:25Z</time></trkpt><trkpt lat="43.067633156515264" lon="10.660799277112396"><ele>42.0</ele><time>2026-03-22T09:17:26Z</time></trkpt><trkpt lat="43.06770604068797" lon="10.661007324575806"><ele>42.0</ele><time>2026-03-22T09:17:27Z</time></trkpt><trkpt lat="43.06777861019649" lon="10.661200966654173"><ele>42.0</ele><time>2026-03-22T09:17:28Z</time></trkpt><trkpt lat="43.067865181114165" lon="10.66137185026871"><ele>42.0</ele><time>2026-03-22T09:17:29Z</time></trkpt><trkpt lat="43.067937076014665" lon="10.661543052558532"><ele>42.0</ele><time>2026-03-22T09:17:30Z</time></trkpt><trkpt lat="43.06800875600515" lon="10.661697729777721"><ele>42.0</ele><time>2026-03-22T09:17:31Z</time></trkpt><trkpt lat="43.068111683007785" lon="10.661803551172907"><ele>42.0</ele><time>2026-03-22T09:17:32Z</time></trkpt><trkpt lat="43.06820404150203" lon="10.661892431205223"><ele>42.0</ele><time>2026-03-22T09:17:33Z</time></trkpt><trkpt lat="43.06827695821965" lon="10.6619691123285"><ele>42.0</ele><time>2026-03-22T09:17:34Z</time></trkpt><trkpt lat="43.06832752964908" lon="10.662036672842328"><ele>42.0</ele><time>2026-03-22T09:17:35Z</time></trkpt><trkpt lat="43.068364062962196" lon="10.66212618560668"><ele>42.0</ele><time>2026-03-22T09:17:36Z</time></trkpt><trkpt lat="43.068404132809455" lon="10.662268826281657"><ele>42.5</ele><time>2026-03-22T09:17:37Z</time></trkpt><trkpt lat="43.06845609143751" lon="10.6624378575765"><ele>43.0</ele><time>2026-03-22T09:17:38Z</time></trkpt><trkpt lat="43.068519557180615" lon="10.66261213625577"><ele>43.5</ele><time>2026-03-22T09:17:39Z</time></trkpt><trkpt lat="43.06860331729668" lon="10.662783549768259"><ele>44.0</ele><time>2026-03-22T09:17:40Z</time></trkpt><trkpt lat="43.06867708372537" lon="10.662946988179405"><ele>44.0</ele><time>2026-03-22T09:17:41Z</time></trkpt><trkpt lat="43.068724285692404" lon="10.663130602710638"><ele>44.0</ele><time>2026-03-22T09:17:42Z</time></trkpt><trkpt lat="43.06875560018061" lon="10.663326026323226"><ele>44.0</ele><time>2026-03-22T09:17:43Z</time></trkpt><trkpt lat="43.06878169679129" lon="10.66352959250619"><ele>44.0</ele><time>2026-03-22T09:17:44Z</time></trkpt><trkpt lat="43.06880647709036" lon="10.663726623155872"><ele>44.0</ele><time>2026-03-22T09:17:45Z</time></trkpt><trkpt lat="43.06883495521254" lon="10.663924409846523"><ele>44.0</ele><time>2026-03-22T09:17:46Z</time></trkpt><trkpt lat="43.06889169256743" lon="10.664103754974867"><ele>44.0</ele><time>2026-03-22T09:17:47Z</time></trkpt><trkpt lat="43.068937848933096" lon="10.664283819972816"><ele>44.0</ele><time>2026-03-22T09:17:48Z</time></trkpt><trkpt lat="43.06895959056651" lon="10.664474626481827"><ele>44.5</ele><time>2026-03-22T09:17:49Z</time></trkpt><trkpt lat="43.06897893390362" lon="10.66466563257939"><ele>45.0</ele><time>2026-03-22T09:17:50Z</time></trkpt><trkpt lat="43.06900578171486" lon="10.664855967455603"><ele>45.5</ele><time>2026-03-22T09:17:51Z</time></trkpt><trkpt lat="43.06903635551199" lon="10.665037335467018"><ele>46.0</ele><time>2026-03-22T09:17:52Z</time></trkpt><trkpt lat="43.069078772872544" lon="10.665218679068088"><ele>46.25</ele><time>2026-03-22T09:17:53Z</time></trkpt><trkpt lat="43.06912501800632" lon="10.665392520704879"><ele>46.5</ele><time>2026-03-22T09:17:54Z</time></trkpt><trkpt lat="43.06917224894395" lon="10.665560611481506"><ele>46.75</ele><time>2026-03-22T09:17:55Z</time></trkpt><trkpt lat="43.06921766100975" lon="10.665718545267495"><ele>47.0</ele><time>2026-03-22T09:17:56Z</time></trkpt><trkpt lat="43.069276514537016" lon="10.665867597950678"><ele>47.0</ele><time>2026-03-22T09:17:57Z</time></trkpt><trkpt lat="43.06932241328395" lon="10.66601868936524"><ele>47.0</ele><time>2026-03-22T09:17:58Z</time></trkpt><trkpt lat="43.06936584146819" lon="10.666160054603505"><ele>47.0</ele><time>2026-03-22T09:17:59Z</time></trkpt><trkpt lat="43.069413521974866" lon="10.66629440991801"><ele>47.0</ele><time>2026-03-22T09:18:00Z</time></trkpt><trkpt lat="43.06944826446009" lon="10.666433149739284"><ele>47.0</ele><time>2026-03-22T09:18:01Z</time></trkpt><trkpt lat="43.069507425761046" lon="10.66654963154534"><ele>46.8</ele><time>2026-03-22T09:18:02Z</time></trkpt><trkpt lat="43.069553541255516" lon="10.666679987513168"><ele>46.6</ele><time>2026-03-22T09:18:03Z</time></trkpt><trkpt lat="43.06959751525675" lon="10.666812857285713"><ele>46.4</ele><time>2026-03-22T09:18:04Z</time></trkpt><trkpt lat="43.06964481040376" lon="10.666949608060326"><ele>46.199999999999996</ele><time>2026-03-22T09:18:05Z</time></trkpt><trkpt lat="43.069696213345814" lon="10.667089768150943"><ele>46.0</ele><time>2026-03-22T09:18:06Z</time></trkpt><trkpt lat="43.06974631566329" lon="10.667231469432728"><ele>45.75</ele><time>2026-03-22T09:18:07Z</time></trkpt><trkpt lat="43.069800749616974" lon="10.667372035346437"><ele>45.5</ele><time>2026-03-22T09:18:08Z</time></trkpt><trkpt lat="43.069854103972574" lon="10.667517143760874"><ele>45.25</ele><time>2026-03-22T09:18:09Z</time></trkpt><trkpt lat="43.06990514986156" lon="10.66766220453876"><ele>45.0</ele><time>2026-03-22T09:18:10Z</time></trkpt><trkpt lat="43.06995471141284" lon="10.667805709764012"><ele>45.4</ele><time>2026-03-22T09:18:11Z</time></trkpt><trkpt lat="43.07000432965403" lon="10.66794613360391"><ele>45.8</ele><time>2026-03-22T09:18:12Z</time></trkpt><trkpt lat="43.0700499372054" lon="10.668081296297506"><ele>46.2</ele><time>2026-03-22T09:18:13Z</time></trkpt><trkpt lat="43.07008518069595" lon="10.66820499782183"><ele>46.6</ele><time>2026-03-22T09:18:14Z</time></trkpt><trkpt lat="43.070146956665525" lon="10.668314672127778"><ele>47.0</ele><time>2026-03-22T09:18:15Z</time></trkpt><trkpt lat="43.0702242072693" lon="10.668438212261568"><ele>47.0</ele><time>2026-03-22T09:18:16Z</time></trkpt><trkpt lat="43.070315363847314" lon="10.668542937599964"><ele>47.0</ele><time>2026-03-22T09:18:17Z</time></trkpt><trkpt lat="43.07042151739556" lon="10.66862308794538"><ele>47.0</ele><time>2026-03-22T09:18:18Z</time></trkpt><trkpt lat="43.07053473454485" lon="10.6686955616209"><ele>47.0</ele><time>2026-03-22T09:18:19Z</time></trkpt><trkpt lat="43.070645829685965" lon="10.66877135215165"><ele>47.0</ele><time>2026-03-22T09:18:20Z</time></trkpt><trkpt lat="43.07075015610957" lon="10.66885634372456"><ele>47.0</ele><time>2026-03-22T09:18:21Z</time></trkpt><trkpt lat="43.07085463812968" lon="10.66893706369342"><ele>47.0</ele><time>2026-03-22T09:18:22Z</time></trkpt><trkpt lat="43.07095433693946" lon="10.669031164228295"><ele>47.0</ele><time>2026-03-22T09:18:23Z</time></trkpt><trkpt lat="43.07105217298113" lon="10.669125405917649"><ele>47.0</ele><time>2026-03-22T09:18:24Z</time></trkpt><trkpt lat="43.07115228353309" lon="10.669219765162529"><ele>47.0</ele><time>2026-03-22T09:18:25Z</time></trkpt><trkpt lat="43.0712526015574" lon="10.669310603645277"><ele>47.0</ele><time>2026-03-22T09:18:26Z</time></trkpt><trkpt lat="43.07135350258961" lon="10.669403929200893"><ele>47.0</ele><time>2026-03-22T09:18:27Z</time></trkpt><trkpt lat="43.07144876774279" lon="10.669502406298617"><ele>47.0</ele><time>2026-03-22T09:18:28Z</time></trkpt><trkpt lat="43.07153265775526" lon="10.669608267270092"><ele>47.0</ele><time>2026-03-22T09:18:29Z</time></trkpt><trkpt lat="43.071620518774374" lon="10.66972356742903"><ele>47.0</ele><time>2026-03-22T09:18:30Z</time></trkpt><trkpt lat="43.07169825980394" lon="10.669856742092438"><ele>47.0</ele><time>2026-03-22T09:18:31Z</time></trkpt><trkpt lat="43.07176728645205" lon="10.669979162743155"><ele>47.25</ele><time>2026-03-22T09:18:32Z</time></trkpt><trkpt lat="43.07183361637584" lon="10.670102606841652"><ele>47.5</ele><time>2026-03-22T09:18:33Z</time></trkpt><trkpt lat="43.07191103696255" lon="10.670226750242248"><ele>47.75</ele><time>2026-03-22T09:18:34Z</time></trkpt><trkpt lat="43.07200286364555" lon="10.67033529848743"><ele>48.0</ele><time>2026-03-22T09:18:35Z</time></trkpt><trkpt lat="43.07211460174646" lon="10.670429255688902"><ele>48.0</ele><time>2026-03-22T09:18:36Z</time></trkpt><trkpt lat="43.07222954369668" lon="10.670501729795289"><ele>48.0</ele><time>2026-03-22T09:18:37Z</time></trkpt><trkpt lat="43.07234079428869" lon="10.670580183545516"><ele>48.0</ele><time>2026-03-22T09:18:38Z</time></trkpt><trkpt lat="43.07244352617517" lon="10.670675087681007"><ele>48.0</ele><time>2026-03-22T09:18:39Z</time></trkpt><trkpt lat="43.072561426137995" lon="10.670730822460103"><ele>48.0</ele><time>2026-03-22T09:18:40Z</time></trkpt><trkpt lat="43.07266660204619" lon="10.670823775903754"><ele>48.0</ele><time>2026-03-22T09:18:40.999Z</time></trkpt><trkpt lat="43.07277115440301" lon="10.670933033860027"><ele>48.0</ele><time>2026-03-22T09:18:41.999Z</time></trkpt><trkpt lat="43.072873528870446" lon="10.67105079445358"><ele>48.0</ele><time>2026-03-22T09:18:42.999Z</time></trkpt><trkpt lat="43.07297628424173" lon="10.671174547945196"><ele>48.0</ele><time>2026-03-22T09:18:43.999Z</time></trkpt><trkpt lat="43.07307913100762" lon="10.671297292335245"><ele>48.0</ele><time>2026-03-22T09:18:44.999Z</time></trkpt><trkpt lat="43.07318514829647" lon="10.671422232497184"><ele>48.0</ele><time>2026-03-22T09:18:45.999Z</time></trkpt><trkpt lat="43.07329224348265" lon="10.671547333162685"><ele>48.0</ele><time>2026-03-22T09:18:46.999Z</time></trkpt><trkpt lat="43.07338659247437" lon="10.671687871508297"><ele>48.5</ele><time>2026-03-22T09:18:47.999Z</time></trkpt><trkpt lat="43.07348504829147" lon="10.671821752036209"><ele>49.0</ele><time>2026-03-22T09:18:48.999Z</time></trkpt><trkpt lat="43.073577805308105" lon="10.671961574367087"><ele>49.5</ele><time>2026-03-22T09:18:49.999Z</time></trkpt><trkpt lat="43.07366462777147" lon="10.672104870044107"><ele>50.0</ele><time>2026-03-22T09:18:51Z</time></trkpt><trkpt lat="43.073750294404235" lon="10.672248422845175"><ele>50.25</ele><time>2026-03-22T09:18:52Z</time></trkpt><trkpt lat="43.073838320924935" lon="10.672392430054229"><ele>50.5</ele><time>2026-03-22T09:18:53Z</time></trkpt><trkpt lat="43.07392446483873" lon="10.672534626715919"><ele>50.75</ele><time>2026-03-22T09:18:54Z</time></trkpt><trkpt lat="43.0740071998932" lon="10.672677309895269"><ele>51.0</ele><time>2026-03-22T09:18:55Z</time></trkpt><trkpt lat="43.07409035891051" lon="10.672815738353702"><ele>52.0</ele><time>2026-03-22T09:18:56Z</time></trkpt><trkpt lat="43.07417110929564" lon="10.672950643060895"><ele>53.0</ele><time>2026-03-22T09:18:57Z</time></trkpt><trkpt lat="43.07424809603718" lon="10.673080265239717"><ele>54.0</ele><time>2026-03-22T09:18:58Z</time></trkpt><trkpt lat="43.074325672529454" lon="10.673199193937599"><ele>55.0</ele><time>2026-03-22T09:18:59Z</time></trkpt><trkpt lat="43.07441039018066" lon="10.67330366370196"><ele>55.0</ele><time>2026-03-22T09:19:00Z</time></trkpt><trkpt lat="43.074490273247854" lon="10.673411583851856"><ele>55.0</ele><time>2026-03-22T09:19:01Z</time></trkpt><trkpt lat="43.07453326719515" lon="10.673531522581793"><ele>55.0</ele><time>2026-03-22T09:19:02Z</time></trkpt><trkpt lat="43.0745414072719" lon="10.673678111554516"><ele>55.0</ele><time>2026-03-22T09:19:03Z</time></trkpt><trkpt lat="43.07456197556519" lon="10.67383146578169"><ele>55.0</ele><time>2026-03-22T09:19:04Z</time></trkpt><trkpt lat="43.074591212189404" lon="10.673983610489852"><ele>55.25</ele><time>2026-03-22T09:19:05Z</time></trkpt><trkpt lat="43.07462812893507" lon="10.674142934663285"><ele>55.5</ele><time>2026-03-22T09:19:06Z</time></trkpt><trkpt lat="43.07467818312687" lon="10.674288142262053"><ele>55.75</ele><time>2026-03-22T09:19:07Z</time></trkpt><trkpt lat="43.074726373095906" lon="10.674435248473845"><ele>56.0</ele><time>2026-03-22T09:19:08Z</time></trkpt><trkpt lat="43.07478137737955" lon="10.674563154150094"><ele>56.199999999999996</ele><time>2026-03-22T09:19:09Z</time></trkpt><trkpt lat="43.074812344399874" lon="10.674692466686901"><ele>56.39999999999999</ele><time>2026-03-22T09:19:10Z</time></trkpt><trkpt lat="43.07484482797288" lon="10.674815587860643"><ele>56.6</ele><time>2026-03-22T09:19:11Z</time></trkpt><trkpt lat="43.07487589406835" lon="10.67493383971595"><ele>56.8</ele><time>2026-03-22T09:19:12Z</time></trkpt><trkpt lat="43.074910215524845" lon="10.675031198265945"><ele>57.0</ele><time>2026-03-22T09:19:13Z</time></trkpt><trkpt lat="43.07496095683403" lon="10.675142262400042"><ele>58.25</ele><time>2026-03-22T09:19:14Z</time></trkpt><trkpt lat="43.075006276725524" lon="10.675289655964797"><ele>59.5</ele><time>2026-03-22T09:19:15Z</time></trkpt><trkpt lat="43.07507997549077" lon="10.675415867035468"><ele>60.75</ele><time>2026-03-22T09:19:16Z</time></trkpt><trkpt lat="43.07515141588278" lon="10.6755397312677"><ele>62.0</ele><time>2026-03-22T09:19:17Z</time></trkpt><trkpt lat="43.07523002021301" lon="10.675647453807347"><ele>62.0</ele><time>2026-03-22T09:19:18Z</time></trkpt><trkpt lat="43.07528986088525" lon="10.675774380455648"><ele>62.0</ele><time>2026-03-22T09:19:19Z</time></trkpt><trkpt lat="43.075345021586294" lon="10.675903822459295"><ele>62.0</ele><time>2026-03-22T09:19:20Z</time></trkpt><trkpt lat="43.075396031581505" lon="10.676032599816361"><ele>62.0</ele><time>2026-03-22T09:19:21Z</time></trkpt><trkpt lat="43.07545005907903" lon="10.676162787138871"><ele>62.0</ele><time>2026-03-22T09:19:22Z</time></trkpt><trkpt lat="43.07549723395567" lon="10.67629729557357"><ele>61.400000000000006</ele><time>2026-03-22T09:19:23Z</time></trkpt><trkpt lat="43.07554392706478" lon="10.676425017123341"><ele>60.800000000000004</ele><time>2026-03-22T09:19:24Z</time></trkpt><trkpt lat="43.075578295869484" lon="10.676565029189868"><ele>60.2</ele><time>2026-03-22T09:19:25Z</time></trkpt><trkpt lat="43.07564266602995" lon="10.67668091110592"><ele>59.6</ele><time>2026-03-22T09:19:26Z</time></trkpt><trkpt lat="43.07568074958184" lon="10.676807265436503"><ele>59.0</ele><time>2026-03-22T09:19:27Z</time></trkpt><trkpt lat="43.075752295106355" lon="10.676892453469796"><ele>59.833333333333336</ele><time>2026-03-22T09:19:28Z</time></trkpt><trkpt lat="43.07580576723711" lon="10.676980457861372"><ele>60.66666666666667</ele><time>2026-03-22T09:19:29Z</time></trkpt><trkpt lat="43.075854456573104" lon="10.677066066141839"><ele>61.5</ele><time>2026-03-22T09:19:30Z</time></trkpt><trkpt lat="43.07591023016201" lon="10.677156044662564"><ele>62.33333333333333</ele><time>2026-03-22T09:19:32Z</time></trkpt><trkpt lat="43.07594875620337" lon="10.677236445176037"><ele>63.166666666666664</ele><time>2026-03-22T09:19:43Z</time></trkpt><trkpt lat="43.075958461120614" lon="10.677340262189297"><ele>64.0</ele><time>2026-03-22T09:19:49Z</time></trkpt><trkpt lat="43.075924894032184" lon="10.677449967595946"><ele>63.99999999999999</ele><time>2026-03-22T09:19:51Z</time></trkpt><trkpt lat="43.07600559278906" lon="10.677540926722937"><ele>64.0</ele><time>2026-03-22T09:19:52Z</time></trkpt><trkpt lat="43.07598151826093" lon="10.677621582578253"><ele>64.0</ele><time>2026-03-22T09:19:53Z</time></trkpt><trkpt lat="43.07593296129662" lon="10.677697669421171"><ele>64.0</ele><time>2026-03-22T09:19:54Z</time></trkpt><trkpt lat="43.075850596518976" lon="10.677759800420244"><ele>63.99999999999999</ele><time>2026-03-22T09:19:55Z</time></trkpt><trkpt lat="43.07576367931797" lon="10.677806129915075"><ele>64.0</ele><time>2026-03-22T09:19:56Z</time></trkpt><trkpt lat="43.07566337659451" lon="10.677875463490869"><ele>62.5</ele><time>2026-03-22T09:19:57Z</time></trkpt><trkpt lat="43.0755751400223" lon="10.67795693299219"><ele>61.0</ele><time>2026-03-22T09:19:58Z</time></trkpt><trkpt lat="43.075477718487235" lon="10.678024532134893"><ele>59.5</ele><time>2026-03-22T09:19:59Z</time></trkpt><trkpt lat="43.075374304369106" lon="10.678097145561388"><ele>58.0</ele><time>2026-03-22T09:20:00Z</time></trkpt><trkpt lat="43.07526292386881" lon="10.678186696415578"><ele>58.0</ele><time>2026-03-22T09:20:01Z</time></trkpt><trkpt lat="43.075170631467124" lon="10.67826381227235"><ele>58.0</ele><time>2026-03-22T09:20:02Z</time></trkpt><trkpt lat="43.07505677092061" lon="10.678320271890977"><ele>58.0</ele><time>2026-03-22T09:20:03Z</time></trkpt><trkpt lat="43.07494168998745" lon="10.678401043593135"><ele>58.0</ele><time>2026-03-22T09:20:04Z</time></trkpt><trkpt lat="43.0748393009912" lon="10.678491262049755"><ele>58.25</ele><time>2026-03-22T09:20:05Z</time></trkpt><trkpt lat="43.07473169616981" lon="10.678561985742888"><ele>58.5</ele><time>2026-03-22T09:20:06Z</time></trkpt><trkpt lat="43.07462843135588" lon="10.678640819052243"><ele>58.75</ele><time>2026-03-22T09:20:07Z</time></trkpt><trkpt lat="43.07452978783038" lon="10.678719496088226"><ele>59.0</ele><time>2026-03-22T09:20:08Z</time></trkpt><trkpt lat="43.07442296051904" lon="10.678775883451092"><ele>59.400000000000006</ele><time>2026-03-22T09:20:09Z</time></trkpt><trkpt lat="43.074338169143324" lon="10.67884339171369"><ele>59.800000000000004</ele><time>2026-03-22T09:20:10Z</time></trkpt><trkpt lat="43.07424058037057" lon="10.678901762588227"><ele>60.199999999999996</ele><time>2026-03-22T09:20:11Z</time></trkpt><trkpt lat="43.074133675830225" lon="10.678959065525476"><ele>60.599999999999994</ele><time>2026-03-22T09:20:12Z</time></trkpt><trkpt lat="43.074025816258136" lon="10.678981866985103"><ele>61.0</ele><time>2026-03-22T09:20:13Z</time></trkpt><trkpt lat="43.07390371269789" lon="10.678980554735885"><ele>60.0</ele><time>2026-03-22T09:20:14Z</time></trkpt><trkpt lat="43.07378689375164" lon="10.678978525143899"><ele>59.0</ele><time>2026-03-22T09:20:15Z</time></trkpt><trkpt lat="43.073656805306605" lon="10.678965652586145"><ele>58.0</ele><time>2026-03-22T09:20:16Z</time></trkpt><trkpt lat="43.07352625853032" lon="10.678943803573016"><ele>57.0</ele><time>2026-03-22T09:20:17Z</time></trkpt><trkpt lat="43.07339961196449" lon="10.678907410713494"><ele>57.0</ele><time>2026-03-22T09:20:18Z</time></trkpt><trkpt lat="43.073273853257284" lon="10.678869435653183"><ele>57.0</ele><time>2026-03-22T09:20:19Z</time></trkpt><trkpt lat="43.07314524156201" lon="10.678833208946259"><ele>57.0</ele><time>2026-03-22T09:20:20Z</time></trkpt><trkpt lat="43.07301491856027" lon="10.6788044912028"><ele>57.0</ele><time>2026-03-22T09:20:21Z</time></trkpt><trkpt lat="43.07287766606702" lon="10.678770437289018"><ele>55.75</ele><time>2026-03-22T09:20:22Z</time></trkpt><trkpt lat="43.07273472245086" lon="10.678728923656406"><ele>54.5</ele><time>2026-03-22T09:20:23Z</time></trkpt><trkpt lat="43.07259183546355" lon="10.678691791603102"><ele>53.25</ele><time>2026-03-22T09:20:24Z</time></trkpt><trkpt lat="43.072450105728045" lon="10.678657149901575"><ele>52.0</ele><time>2026-03-22T09:20:25Z</time></trkpt><trkpt lat="43.072311441440235" lon="10.678622441676954"><ele>51.25</ele><time>2026-03-22T09:20:26Z</time></trkpt><trkpt lat="43.072176053353594" lon="10.67858517954337"><ele>50.5</ele><time>2026-03-22T09:20:27Z</time></trkpt><trkpt lat="43.072039567595766" lon="10.678561584564974"><ele>49.75</ele><time>2026-03-22T09:20:28Z</time></trkpt><trkpt lat="43.071908642873915" lon="10.67853690373261"><ele>49.0</ele><time>2026-03-22T09:20:29Z</time></trkpt><trkpt lat="43.071783570199386" lon="10.67851445547926"><ele>49.0</ele><time>2026-03-22T09:20:30Z</time></trkpt><trkpt lat="43.0716593541494" lon="10.678491761250305"><ele>49.0</ele><time>2026-03-22T09:20:31Z</time></trkpt><trkpt lat="43.07153425673347" lon="10.678467611276323"><ele>49.0</ele><time>2026-03-22T09:20:32Z</time></trkpt><trkpt lat="43.07140682770769" lon="10.678440932899585"><ele>49.0</ele><time>2026-03-22T09:20:33Z</time></trkpt><trkpt lat="43.07127508456957" lon="10.678416681233605"><ele>48.25</ele><time>2026-03-22T09:20:34Z</time></trkpt><trkpt lat="43.07114187425414" lon="10.678410264796723"><ele>47.5</ele><time>2026-03-22T09:20:35Z</time></trkpt><trkpt lat="43.071007150843535" lon="10.678419899824943"><ele>46.75</ele><time>2026-03-22T09:20:36Z</time></trkpt><trkpt lat="43.07087544506846" lon="10.678445021266969"><ele>46.0</ele><time>2026-03-22T09:20:37Z</time></trkpt><trkpt lat="43.070732239021844" lon="10.67846801534036"><ele>46.0</ele><time>2026-03-22T09:20:38Z</time></trkpt><trkpt lat="43.07058775081093" lon="10.678519497452585"><ele>46.0</ele><time>2026-03-22T09:20:39Z</time></trkpt><trkpt lat="43.0704510601588" lon="10.67859513797429"><ele>46.0</ele><time>2026-03-22T09:20:40Z</time></trkpt><trkpt lat="43.070307349973184" lon="10.678639323681523"><ele>46.0</ele><time>2026-03-22T09:20:41Z</time></trkpt><trkpt lat="43.07016344656122" lon="10.678685855544781"><ele>46.0</ele><time>2026-03-22T09:20:42Z</time></trkpt><trkpt lat="43.07003092655234" lon="10.678743433496363"><ele>46.0</ele><time>2026-03-22T09:20:43Z</time></trkpt><trkpt lat="43.069889504061145" lon="10.678765779829961"><ele>46.0</ele><time>2026-03-22T09:20:44Z</time></trkpt><trkpt lat="43.06975445306946" lon="10.678788696305753"><ele>46.0</ele><time>2026-03-22T09:20:45Z</time></trkpt><trkpt lat="43.069628863375975" lon="10.678822591512017"><ele>45.5</ele><time>2026-03-22T09:20:46Z</time></trkpt><trkpt lat="43.06949601492495" lon="10.678844889533327"><ele>45.0</ele><time>2026-03-22T09:20:46.999Z</time></trkpt><trkpt lat="43.069365390278584" lon="10.678892347151391"><ele>44.5</ele><time>2026-03-22T09:20:47.999Z</time></trkpt><trkpt lat="43.06924449494506" lon="10.678937195415969"><ele>44.0</ele><time>2026-03-22T09:20:48.999Z</time></trkpt><trkpt lat="43.06911929864531" lon="10.678981215423427"><ele>43.25</ele><time>2026-03-22T09:20:49.999Z</time></trkpt><trkpt lat="43.068992921871605" lon="10.67902019801341"><ele>42.5</ele><time>2026-03-22T09:20:50.999Z</time></trkpt><trkpt lat="43.06887246411837" lon="10.679078430171208"><ele>41.75</ele><time>2026-03-22T09:20:51.999Z</time></trkpt><trkpt lat="43.06874789396581" lon="10.679104979983034"><ele>41.0</ele><time>2026-03-22T09:20:52.999Z</time></trkpt><trkpt lat="43.06862219629054" lon="10.679105740619097"><ele>41.0</ele><time>2026-03-22T09:20:53.999Z</time></trkpt><trkpt lat="43.068496119018164" lon="10.679100423052768"><ele>41.0</ele><time>2026-03-22T09:20:54.999Z</time></trkpt><trkpt lat="43.068374420754004" lon="10.67909218690454"><ele>41.0</ele><time>2026-03-22T09:20:55.999Z</time></trkpt><trkpt lat="43.068260328054166" lon="10.679088087901702"><ele>41.0</ele><time>2026-03-22T09:20:57Z</time></trkpt><trkpt lat="43.06814961438483" lon="10.679092785572145"><ele>40.8</ele><time>2026-03-22T09:20:58Z</time></trkpt><trkpt lat="43.06804152556013" lon="10.679101797509228"><ele>40.599999999999994</ele><time>2026-03-22T09:20:59Z</time></trkpt><trkpt lat="43.06794039309484" lon="10.679118718606789"><ele>40.4</ele><time>2026-03-22T09:21:00Z</time></trkpt><trkpt lat="43.067843354305865" lon="10.679137847761309"><ele>40.2</ele><time>2026-03-22T09:21:01Z</time></trkpt><trkpt lat="43.06773862624323" lon="10.679126886626822"><ele>40.0</ele><time>2026-03-22T09:21:02Z</time></trkpt><trkpt lat="43.067627473147795" lon="10.67913542707806"><ele>40.0</ele><time>2026-03-22T09:21:03Z</time></trkpt><trkpt lat="43.06751136148158" lon="10.679166223425277"><ele>40.0</ele><time>2026-03-22T09:21:04Z</time></trkpt><trkpt lat="43.06738473913309" lon="10.679173146460618"><ele>40.0</ele><time>2026-03-22T09:21:05Z</time></trkpt><trkpt lat="43.06725549151231" lon="10.679191492886083"><ele>40.0</ele><time>2026-03-22T09:21:06Z</time></trkpt><trkpt lat="43.067120071510324" lon="10.679220253815958"><ele>39.75</ele><time>2026-03-22T09:21:07Z</time></trkpt><trkpt lat="43.06698351573838" lon="10.679265056333545"><ele>39.5</ele><time>2026-03-22T09:21:08Z</time></trkpt><trkpt lat="43.06684199881125" lon="10.679323456068342"><ele>39.25</ele><time>2026-03-22T09:21:09Z</time></trkpt><trkpt lat="43.066704297496536" lon="10.679390675886818"><ele>39.0</ele><time>2026-03-22T09:21:10Z</time></trkpt><trkpt lat="43.06656083173161" lon="10.679482272586094"><ele>38.0</ele><time>2026-03-22T09:21:11Z</time></trkpt><trkpt lat="43.06641722824288" lon="10.679571833716318"><ele>37.0</ele><time>2026-03-22T09:21:12Z</time></trkpt><trkpt lat="43.066271395306806" lon="10.679633563463469"><ele>36.0</ele><time>2026-03-22T09:21:13Z</time></trkpt><trkpt lat="43.06613190134104" lon="10.679721065068453"><ele>36.0</ele><time>2026-03-22T09:21:14Z</time></trkpt><trkpt lat="43.06600335091442" lon="10.679826885919628"><ele>36.0</ele><time>2026-03-22T09:21:15Z</time></trkpt><trkpt lat="43.065872290713045" lon="10.679907457934737"><ele>36.0</ele><time>2026-03-22T09:21:16Z</time></trkpt><trkpt lat="43.0657418074738" lon="10.679994989243243"><ele>36.0</ele><time>2026-03-22T09:21:17Z</time></trkpt><trkpt lat="43.06560270431448" lon="10.680068120257992"><ele>35.0</ele><time>2026-03-22T09:21:18Z</time></trkpt><trkpt lat="43.065468770434826" lon="10.68017017804483"><ele>34.0</ele><time>2026-03-22T09:21:19Z</time></trkpt><trkpt lat="43.06533919797192" lon="10.680284845237049"><ele>33.0</ele><time>2026-03-22T09:21:20Z</time></trkpt><trkpt lat="43.0652133610673" lon="10.680403139599862"><ele>33.0</ele><time>2026-03-22T09:21:21Z</time></trkpt><trkpt lat="43.065087203155464" lon="10.680527601918287"><ele>33.0</ele><time>2026-03-22T09:21:22Z</time></trkpt><trkpt lat="43.064961099275315" lon="10.680661173632522"><ele>33.0</ele><time>2026-03-22T09:21:23Z</time></trkpt><trkpt lat="43.064836099378645" lon="10.680796546335312"><ele>33.0</ele><time>2026-03-22T09:21:24Z</time></trkpt><trkpt lat="43.06471221332365" lon="10.680930712766674"><ele>33.0</ele><time>2026-03-22T09:21:25Z</time></trkpt><trkpt lat="43.064589334290396" lon="10.6810633317285"><ele>33.0</ele><time>2026-03-22T09:21:26Z</time></trkpt><trkpt lat="43.064462602305596" lon="10.681185595185376"><ele>33.0</ele><time>2026-03-22T09:21:27Z</time></trkpt><trkpt lat="43.06433114237672" lon="10.681293059279202"><ele>33.0</ele><time>2026-03-22T09:21:28Z</time></trkpt><trkpt lat="43.06420078726346" lon="10.68139080299115"><ele>33.0</ele><time>2026-03-22T09:21:29Z</time></trkpt><trkpt lat="43.064071857772305" lon="10.681484646001353"><ele>33.0</ele><time>2026-03-22T09:21:30Z</time></trkpt><trkpt lat="43.063947018355556" lon="10.681575511985269"><ele>33.0</ele><time>2026-03-22T09:21:31Z</time></trkpt><trkpt lat="43.06382078335159" lon="10.681661428247295"><ele>33.0</ele><time>2026-03-22T09:21:32Z</time></trkpt><trkpt lat="43.063691244344625" lon="10.681740658042575"><ele>33.0</ele><time>2026-03-22T09:21:33Z</time></trkpt><trkpt lat="43.06355673643204" lon="10.681810121053898"><ele>33.0</ele><time>2026-03-22T09:21:34Z</time></trkpt><trkpt lat="43.063421522904875" lon="10.681864926725554"><ele>33.0</ele><time>2026-03-22T09:21:35Z</time></trkpt><trkpt lat="43.0632949232397" lon="10.681911333981859"><ele>33.0</ele><time>2026-03-22T09:21:36Z</time></trkpt><trkpt lat="43.06317618421698" lon="10.681954859806854"><ele>33.0</ele><time>2026-03-22T09:21:37Z</time></trkpt><trkpt lat="43.063053126484505" lon="10.681999968708649"><ele>33.0</ele><time>2026-03-22T09:21:38Z</time></trkpt><trkpt lat="43.062938719066516" lon="10.682043168715953"><ele>32.5</ele><time>2026-03-22T09:21:39Z</time></trkpt><trkpt lat="43.06283064186993" lon="10.682085712528778"><ele>32.0</ele><time>2026-03-22T09:21:40Z</time></trkpt><trkpt lat="43.06272756505781" lon="10.682126585418386"><ele>31.5</ele><time>2026-03-22T09:21:41Z</time></trkpt><trkpt lat="43.06261897534773" lon="10.682169674561026"><ele>31.0</ele><time>2026-03-22T09:21:42Z</time></trkpt><trkpt lat="43.06250282562093" lon="10.682214280949093"><ele>30.25</ele><time>2026-03-22T09:21:43Z</time></trkpt><trkpt lat="43.062381779448444" lon="10.68224305660832"><ele>29.5</ele><time>2026-03-22T09:21:44Z</time></trkpt><trkpt lat="43.062256863811164" lon="10.68228287103629"><ele>28.75</ele><time>2026-03-22T09:21:45Z</time></trkpt><trkpt lat="43.062126417532475" lon="10.682277747763674"><ele>28.0</ele><time>2026-03-22T09:21:46Z</time></trkpt><trkpt lat="43.06199521933289" lon="10.682264494070125"><ele>28.0</ele><time>2026-03-22T09:21:47Z</time></trkpt><trkpt lat="43.06185880697943" lon="10.68224105624711"><ele>28.0</ele><time>2026-03-22T09:21:48Z</time></trkpt><trkpt lat="43.0617234799751" lon="10.682216654423543"><ele>28.0</ele><time>2026-03-22T09:21:49Z</time></trkpt><trkpt lat="43.061586288077244" lon="10.68219639401152"><ele>28.0</ele><time>2026-03-22T09:21:50Z</time></trkpt><trkpt lat="43.06144684712133" lon="10.68218579724459"><ele>28.0</ele><time>2026-03-22T09:21:51Z</time></trkpt><trkpt lat="43.061308419106986" lon="10.682176216220675"><ele>28.0</ele><time>2026-03-22T09:21:52Z</time></trkpt><trkpt lat="43.06116933088648" lon="10.682162252064913"><ele>28.0</ele><time>2026-03-22T09:21:53Z</time></trkpt><trkpt lat="43.061030740251645" lon="10.682140957588155"><ele>28.0</ele><time>2026-03-22T09:21:54Z</time></trkpt><trkpt lat="43.06088931367821" lon="10.682127198255921"><ele>27.75</ele><time>2026-03-22T09:21:55Z</time></trkpt><trkpt lat="43.06075162936376" lon="10.682116658280625"><ele>27.5</ele><time>2026-03-22T09:21:56Z</time></trkpt><trkpt lat="43.060616816595996" lon="10.682109423621322"><ele>27.25</ele><time>2026-03-22T09:21:57Z</time></trkpt><trkpt lat="43.060490410879424" lon="10.6821009830465"><ele>27.0</ele><time>2026-03-22T09:21:58Z</time></trkpt><trkpt lat="43.06037017261871" lon="10.682094772168702"><ele>27.0</ele><time>2026-03-22T09:21:59Z</time></trkpt><trkpt lat="43.06026418425831" lon="10.682118448209334"><ele>27.0</ele><time>2026-03-22T09:22:00Z</time></trkpt><trkpt lat="43.0601585295108" lon="10.682149875993295"><ele>27.0</ele><time>2026-03-22T09:22:01Z</time></trkpt><trkpt lat="43.060067645893135" lon="10.682290681422069"><ele>27.0</ele><time>2026-03-22T09:22:02Z</time></trkpt><trkpt lat="43.06003677595393" lon="10.682491184525022"><ele>27.0</ele><time>2026-03-22T09:22:03Z</time></trkpt><trkpt lat="43.06000220202054" lon="10.682673884905006"><ele>27.0</ele><time>2026-03-22T09:22:04Z</time></trkpt><trkpt lat="43.05997049140102" lon="10.682857677175207"><ele>27.0</ele><time>2026-03-22T09:22:05Z</time></trkpt><trkpt lat="43.05994031376653" lon="10.683032584180191"><ele>27.0</ele><time>2026-03-22T09:22:06Z</time></trkpt><trkpt lat="43.05990696159723" lon="10.683202974549765"><ele>27.0</ele><time>2026-03-22T09:22:07Z</time></trkpt><trkpt lat="43.05986450772605" lon="10.683373815928704"><ele>27.0</ele><time>2026-03-22T09:22:08Z</time></trkpt><trkpt lat="43.0598204429169" lon="10.683545687781223"><ele>27.0</ele><time>2026-03-22T09:22:09Z</time></trkpt><trkpt lat="43.05977509021098" lon="10.683722582665737"><ele>27.0</ele><time>2026-03-22T09:22:10Z</time></trkpt><trkpt lat="43.05973049561215" lon="10.683896520568489"><ele>27.0</ele><time>2026-03-22T09:22:11Z</time></trkpt><trkpt lat="43.059688910833096" lon="10.684070842667065"><ele>27.0</ele><time>2026-03-22T09:22:12Z</time></trkpt><trkpt lat="43.059634742982325" lon="10.684242478619078"><ele>27.0</ele><time>2026-03-22T09:22:13Z</time></trkpt><trkpt lat="43.059556743294046" lon="10.684405503643513"><ele>27.0</ele><time>2026-03-22T09:22:14Z</time></trkpt><trkpt lat="43.059463086031194" lon="10.684558530848934"><ele>27.0</ele><time>2026-03-22T09:22:15Z</time></trkpt><trkpt lat="43.05935444946766" lon="10.684697017643188"><ele>27.0</ele><time>2026-03-22T09:22:16Z</time></trkpt><trkpt lat="43.05922402036596" lon="10.684802752524575"><ele>27.0</ele><time>2026-03-22T09:22:17Z</time></trkpt><trkpt lat="43.05910138960715" lon="10.684913873433521"><ele>27.0</ele><time>2026-03-22T09:22:18Z</time></trkpt><trkpt lat="43.058985548854906" lon="10.685025241109985"><ele>27.0</ele><time>2026-03-22T09:22:19Z</time></trkpt><trkpt lat="43.05887515045057" lon="10.685128225004293"><ele>27.0</ele><time>2026-03-22T09:22:20Z</time></trkpt><trkpt lat="43.05877254305179" lon="10.685227359326372"><ele>27.0</ele><time>2026-03-22T09:22:21Z</time></trkpt><trkpt lat="43.05867231937778" lon="10.685324190539838"><ele>27.0</ele><time>2026-03-22T09:22:22Z</time></trkpt><trkpt lat="43.058579526909824" lon="10.685436214901165"><ele>27.0</ele><time>2026-03-22T09:22:23Z</time></trkpt><trkpt lat="43.05849527321073" lon="10.68555149975369"><ele>27.0</ele><time>2026-03-22T09:22:24Z</time></trkpt><trkpt lat="43.058414488713346" lon="10.685666927409391"><ele>27.0</ele><time>2026-03-22T09:22:25Z</time></trkpt><trkpt lat="43.05833412007654" lon="10.685781147486667"><ele>27.0</ele><time>2026-03-22T09:22:26Z</time></trkpt><trkpt lat="43.058250498450775" lon="10.685900642804826"><ele>26.5</ele><time>2026-03-22T09:22:27Z</time></trkpt><trkpt lat="43.05816581953211" lon="10.68602145146592"><ele>26.0</ele><time>2026-03-22T09:22:28Z</time></trkpt><trkpt lat="43.058078735825504" lon="10.686145690869026"><ele>25.5</ele><time>2026-03-22T09:22:29Z</time></trkpt><trkpt lat="43.05799055231659" lon="10.686272793226447"><ele>25.0</ele><time>2026-03-22T09:22:30Z</time></trkpt><trkpt lat="43.05790101096462" lon="10.686403913007279"><ele>25.0</ele><time>2026-03-22T09:22:31Z</time></trkpt><trkpt lat="43.05781180245" lon="10.686534545465179"><ele>25.0</ele><time>2026-03-22T09:22:32Z</time></trkpt><trkpt lat="43.057723660004434" lon="10.686672912935759"><ele>25.0</ele><time>2026-03-22T09:22:33Z</time></trkpt><trkpt lat="43.05763204917547" lon="10.68679766174992"><ele>25.0</ele><time>2026-03-22T09:22:34Z</time></trkpt><trkpt lat="43.057550368640186" lon="10.68694482201207"><ele>25.0</ele><time>2026-03-22T09:22:35Z</time></trkpt><trkpt lat="43.05748683060024" lon="10.687113407139693"><ele>25.0</ele><time>2026-03-22T09:22:36Z</time></trkpt><trkpt lat="43.05742408109008" lon="10.687286853641808"><ele>25.0</ele><time>2026-03-22T09:22:37Z</time></trkpt><trkpt lat="43.05736489962948" lon="10.687455843115005"><ele>25.0</ele><time>2026-03-22T09:22:38Z</time></trkpt><trkpt lat="43.05730369615682" lon="10.687631230737042"><ele>25.25</ele><time>2026-03-22T09:22:39Z</time></trkpt><trkpt lat="43.057242270204775" lon="10.68780756308039"><ele>25.5</ele><time>2026-03-22T09:22:40Z</time></trkpt><trkpt lat="43.057182054517945" lon="10.687980421215451"><ele>25.75</ele><time>2026-03-22T09:22:41Z</time></trkpt><trkpt lat="43.05712380436259" lon="10.688149125591444"><ele>26.0</ele><time>2026-03-22T09:22:42Z</time></trkpt><trkpt lat="43.05706483120283" lon="10.68832022530229"><ele>26.0</ele><time>2026-03-22T09:22:43Z</time></trkpt><trkpt lat="43.05701092018744" lon="10.688494458089298"><ele>26.0</ele><time>2026-03-22T09:22:44Z</time></trkpt><trkpt lat="43.05696680254875" lon="10.688672855111607"><ele>26.0</ele><time>2026-03-22T09:22:45Z</time></trkpt><trkpt lat="43.056937692216934" lon="10.688856488904458"><ele>26.0</ele><time>2026-03-22T09:22:46Z</time></trkpt><trkpt lat="43.05691494469433" lon="10.689041871895618"><ele>26.0</ele><time>2026-03-22T09:22:47Z</time></trkpt><trkpt lat="43.05689790213491" lon="10.68922945594521"><ele>26.0</ele><time>2026-03-22T09:22:48Z</time></trkpt><trkpt lat="43.05688028028015" lon="10.68941161687352"><ele>26.0</ele><time>2026-03-22T09:22:49Z</time></trkpt><trkpt lat="43.056863197466036" lon="10.689593152420521"><ele>26.0</ele><time>2026-03-22T09:22:50Z</time></trkpt><trkpt lat="43.056845670844304" lon="10.689771207065977"><ele>26.25</ele><time>2026-03-22T09:22:51Z</time></trkpt><trkpt lat="43.0568267575792" lon="10.689949628976546"><ele>26.5</ele><time>2026-03-22T09:22:52Z</time></trkpt><trkpt lat="43.056812527686816" lon="10.690121985031448"><ele>26.75</ele><time>2026-03-22T09:22:53Z</time></trkpt><trkpt lat="43.0567954963399" lon="10.690292236410285"><ele>27.0</ele><time>2026-03-22T09:22:54Z</time></trkpt><trkpt lat="43.05677929224752" lon="10.690462474975991"><ele>26.75</ele><time>2026-03-22T09:22:55Z</time></trkpt><trkpt lat="43.05676286591759" lon="10.690648005927095"><ele>26.5</ele><time>2026-03-22T09:22:56Z</time></trkpt><trkpt lat="43.05674580008021" lon="10.69082012261151"><ele>26.25</ele><time>2026-03-22T09:22:57Z</time></trkpt><trkpt lat="43.0567294604204" lon="10.690979484161698"><ele>26.0</ele><time>2026-03-22T09:22:58Z</time></trkpt><trkpt lat="43.05671440308941" lon="10.69112633900193"><ele>26.0</ele><time>2026-03-22T09:22:59Z</time></trkpt><trkpt lat="43.05670021506892" lon="10.69126471549849"><ele>26.0</ele><time>2026-03-22T09:22:59.999Z</time></trkpt><trkpt lat="43.05668637874138" lon="10.691393095798155"><ele>26.0</ele><time>2026-03-22T09:23:00.999Z</time></trkpt><trkpt lat="43.056689029535484" lon="10.69151530491259"><ele>26.0</ele><time>2026-03-22T09:23:01.999Z</time></trkpt><trkpt lat="43.05666670617416" lon="10.691619157281174"><ele>26.0</ele><time>2026-03-22T09:23:03Z</time></trkpt><trkpt lat="43.056642486052574" lon="10.691740193980934"><ele>26.0</ele><time>2026-03-22T09:23:05Z</time></trkpt><trkpt lat="43.0566282241128" lon="10.691832118009158"><ele>26.0</ele><time>2026-03-22T09:25:31Z</time></trkpt><trkpt lat="43.05669205377681" lon="10.691776588012912"><ele>26.0</ele><time>2026-03-22T09:28:22Z</time></trkpt><trkpt lat="43.05668761606724" lon="10.691675567226232"><ele>26.0</ele><time>2026-03-22T09:28:23Z</time></trkpt><trkpt lat="43.056685046238925" lon="10.691585857186809"><ele>26.0</ele><time>2026-03-22T09:28:24Z</time></trkpt><trkpt lat="43.05692151396226" lon="10.691624465324404"><ele>26.0</ele><time>2026-03-22T09:28:28Z</time></trkpt><trkpt lat="43.05704818655638" lon="10.691655061628202"><ele>26.0</ele><time>2026-03-22T09:28:29Z</time></trkpt><trkpt lat="43.05717224237788" lon="10.691669379591097"><ele>26.0</ele><time>2026-03-22T09:28:30Z</time></trkpt><trkpt lat="43.057310054265464" lon="10.691708226741554"><ele>26.0</ele><time>2026-03-22T09:28:31Z</time></trkpt><trkpt lat="43.05745366551276" lon="10.691744490453589"><ele>26.0</ele><time>2026-03-22T09:28:32Z</time></trkpt><trkpt lat="43.057601344515504" lon="10.691779953632988"><ele>26.0</ele><time>2026-03-22T09:28:33Z</time></trkpt><trkpt lat="43.057741952936226" lon="10.691826147981693"><ele>26.0</ele><time>2026-03-22T09:28:34Z</time></trkpt><trkpt lat="43.05788584553914" lon="10.691869721778811"><ele>26.0</ele><time>2026-03-22T09:28:35Z</time></trkpt><trkpt lat="43.05802122824517" lon="10.69190579647334"><ele>26.25</ele><time>2026-03-22T09:28:36Z</time></trkpt><trkpt lat="43.0581613809598" lon="10.691942631369958"><ele>26.5</ele><time>2026-03-22T09:28:37Z</time></trkpt><trkpt lat="43.058298586351064" lon="10.69197461342327"><ele>26.75</ele><time>2026-03-22T09:28:38Z</time></trkpt><trkpt lat="43.05843499958915" lon="10.692026457867463"><ele>27.0</ele><time>2026-03-22T09:28:39Z</time></trkpt><trkpt lat="43.05857368634406" lon="10.692070850075183"><ele>27.25</ele><time>2026-03-22T09:28:40Z</time></trkpt><trkpt lat="43.05871988408692" lon="10.692107454562061"><ele>27.5</ele><time>2026-03-22T09:28:41Z</time></trkpt><trkpt lat="43.05885733611025" lon="10.692141240512848"><ele>27.75</ele><time>2026-03-22T09:28:42Z</time></trkpt><trkpt lat="43.05900150800953" lon="10.692176240958128"><ele>28.0</ele><time>2026-03-22T09:28:43Z</time></trkpt><trkpt lat="43.05914005482134" lon="10.692209873377685"><ele>28.666666666666668</ele><time>2026-03-22T09:28:44Z</time></trkpt><trkpt lat="43.05928339440606" lon="10.692255514742557"><ele>29.333333333333336</ele><time>2026-03-22T09:28:45Z</time></trkpt><trkpt lat="43.05942632312871" lon="10.69230486985621"><ele>30.0</ele><time>2026-03-22T09:28:46Z</time></trkpt><trkpt lat="43.059579189876814" lon="10.69234629763197"><ele>30.0</ele><time>2026-03-22T09:28:47Z</time></trkpt><trkpt lat="43.05972987265488" lon="10.69238407336987"><ele>30.0</ele><time>2026-03-22T09:28:48Z</time></trkpt><trkpt lat="43.05988379651133" lon="10.692412545570875"><ele>30.0</ele><time>2026-03-22T09:28:49Z</time></trkpt><trkpt lat="43.06002865747446" lon="10.692447403721417"><ele>30.25</ele><time>2026-03-22T09:28:50Z</time></trkpt><trkpt lat="43.06017005931882" lon="10.6924846729746"><ele>30.5</ele><time>2026-03-22T09:28:51Z</time></trkpt><trkpt lat="43.06031792697811" lon="10.692517397548688"><ele>30.75</ele><time>2026-03-22T09:28:52Z</time></trkpt><trkpt lat="43.06044820690716" lon="10.692563884085885"><ele>31.0</ele><time>2026-03-22T09:28:53Z</time></trkpt><trkpt lat="43.06055589397625" lon="10.692595314585391"><ele>31.000000000000004</ele><time>2026-03-22T09:28:54Z</time></trkpt><trkpt lat="43.06064805629516" lon="10.692619041507383"><ele>31.0</ele><time>2026-03-22T09:28:55Z</time></trkpt><trkpt lat="43.06071697437947" lon="10.692642411774198"><ele>31.0</ele><time>2026-03-22T09:28:56Z</time></trkpt><trkpt lat="43.06080948687999" lon="10.692704100732698"><ele>31.0</ele><time>2026-03-22T09:28:58Z</time></trkpt><trkpt lat="43.06080994799168" lon="10.6927917691424"><ele>31.000000000000004</ele><time>2026-03-22T09:28:59Z</time></trkpt><trkpt lat="43.0608032677476" lon="10.692900823028946"><ele>31.0</ele><time>2026-03-22T09:29:00Z</time></trkpt><trkpt lat="43.060773870178025" lon="10.693040470535536"><ele>31.0</ele><time>2026-03-22T09:29:01Z</time></trkpt><trkpt lat="43.06074734371273" lon="10.693225367189868"><ele>31.0</ele><time>2026-03-22T09:29:02Z</time></trkpt><trkpt lat="43.06072667942451" lon="10.693416783825791"><ele>31.0</ele><time>2026-03-22T09:29:03Z</time></trkpt><trkpt lat="43.060700501910574" lon="10.69363593832261"><ele>31.0</ele><time>2026-03-22T09:29:04Z</time></trkpt><trkpt lat="43.060696940314436" lon="10.693867548457579"><ele>31.0</ele><time>2026-03-22T09:29:05Z</time></trkpt><trkpt lat="43.06066089520393" lon="10.694100541144008"><ele>31.0</ele><time>2026-03-22T09:29:06Z</time></trkpt><trkpt lat="43.06063502248066" lon="10.694345469485466"><ele>31.0</ele><time>2026-03-22T09:29:07Z</time></trkpt><trkpt lat="43.06061364151073" lon="10.694581008536726"><ele>32.66666666666667</ele><time>2026-03-22T09:29:08Z</time></trkpt><trkpt lat="43.06060667526353" lon="10.694810441327643"><ele>34.333333333333336</ele><time>2026-03-22T09:29:09Z</time></trkpt><trkpt lat="43.06060178241475" lon="10.695017225781076"><ele>36.0</ele><time>2026-03-22T09:29:10Z</time></trkpt><trkpt lat="43.06057234676106" lon="10.69521428830887"><ele>37.5</ele><time>2026-03-22T09:29:10.999Z</time></trkpt><trkpt lat="43.06055437803446" lon="10.695406777579874"><ele>39.0</ele><time>2026-03-22T09:29:11.999Z</time></trkpt><trkpt lat="43.0605522351267" lon="10.695581108546824"><ele>40.5</ele><time>2026-03-22T09:29:12.999Z</time></trkpt><trkpt lat="43.060523737321844" lon="10.695725877541433"><ele>42.0</ele><time>2026-03-22T09:29:13.999Z</time></trkpt><trkpt lat="43.06052811597419" lon="10.695840741698106"><ele>42.0</ele><time>2026-03-22T09:29:14.999Z</time></trkpt><trkpt lat="43.06055237540273" lon="10.695941451527945"><ele>42.0</ele><time>2026-03-22T09:29:15.999Z</time></trkpt><trkpt lat="43.06059329192315" lon="10.696022399480217"><ele>42.0</ele><time>2026-03-22T09:29:16.999Z</time></trkpt><trkpt lat="43.06065834444507" lon="10.696094944659091"><ele>42.0</ele><time>2026-03-22T09:29:17.999Z</time></trkpt><trkpt lat="43.06074481004664" lon="10.696141587354614"><ele>42.0</ele><time>2026-03-22T09:29:18.999Z</time></trkpt><trkpt lat="43.0608350588621" lon="10.696172456728437"><ele>42.0</ele><time>2026-03-22T09:29:19.999Z</time></trkpt><trkpt lat="43.06092931766041" lon="10.696203764897366"><ele>42.400000000000006</ele><time>2026-03-22T09:29:21Z</time></trkpt><trkpt lat="43.06101918714194" lon="10.696233085589249"><ele>42.800000000000004</ele><time>2026-03-22T09:29:22Z</time></trkpt><trkpt lat="43.06114120814642" lon="10.696274943671263"><ele>43.2</ele><time>2026-03-22T09:29:23Z</time></trkpt><trkpt lat="43.061245177459625" lon="10.69630290990456"><ele>43.6</ele><time>2026-03-22T09:29:24Z</time></trkpt><trkpt lat="43.06133322455985" lon="10.696319906546961"><ele>44.0</ele><time>2026-03-22T09:29:25Z</time></trkpt><trkpt lat="43.06142214922514" lon="10.696311231736187"><ele>44.0</ele><time>2026-03-22T09:29:26Z</time></trkpt><trkpt lat="43.061493492392614" lon="10.696215905174691"><ele>44.0</ele><time>2026-03-22T09:29:27Z</time></trkpt><trkpt lat="43.06156419413073" lon="10.696109427267046"><ele>44.0</ele><time>2026-03-22T09:29:28Z</time></trkpt><trkpt lat="43.06164118257784" lon="10.69595785072933"><ele>44.0</ele><time>2026-03-22T09:29:29Z</time></trkpt><trkpt lat="43.06172375431314" lon="10.695800526503946"><ele>45.75</ele><time>2026-03-22T09:29:30Z</time></trkpt><trkpt lat="43.06179605455365" lon="10.695637716748784"><ele>47.5</ele><time>2026-03-22T09:29:31Z</time></trkpt><trkpt lat="43.06186660635742" lon="10.6955184656257"><ele>49.25</ele><time>2026-03-22T09:29:32Z</time></trkpt><trkpt lat="43.06193780592349" lon="10.69540863701404"><ele>51.0</ele><time>2026-03-22T09:29:33Z</time></trkpt><trkpt lat="43.06203869356696" lon="10.695330404904311"><ele>50.0</ele><time>2026-03-22T09:29:34Z</time></trkpt><trkpt lat="43.0621283459647" lon="10.695201645040438"><ele>49.0</ele><time>2026-03-22T09:29:35Z</time></trkpt><trkpt lat="43.06222490964685" lon="10.695070823948944"><ele>48.0</ele><time>2026-03-22T09:29:36Z</time></trkpt><trkpt lat="43.06230559756579" lon="10.694906450465334"><ele>47.0</ele><time>2026-03-22T09:29:37Z</time></trkpt><trkpt lat="43.06238187004034" lon="10.694762643863836"><ele>47.6</ele><time>2026-03-22T09:29:38Z</time></trkpt><trkpt lat="43.062453605044404" lon="10.694640788956933"><ele>48.2</ele><time>2026-03-22T09:29:39Z</time></trkpt><trkpt lat="43.06252474235526" lon="10.694530337819943"><ele>48.8</ele><time>2026-03-22T09:29:40Z</time></trkpt><trkpt lat="43.062593946967155" lon="10.694441759266338"><ele>49.4</ele><time>2026-03-22T09:29:41Z</time></trkpt><trkpt lat="43.06266030778709" lon="10.69438090735915"><ele>50.0</ele><time>2026-03-22T09:29:42Z</time></trkpt><trkpt lat="43.06273777010231" lon="10.694338002920295"><ele>50.0</ele><time>2026-03-22T09:29:43Z</time></trkpt><trkpt lat="43.062815149800414" lon="10.694323455909203"><ele>50.0</ele><time>2026-03-22T09:29:44Z</time></trkpt><trkpt lat="43.06291359427311" lon="10.694307791447685"><ele>50.0</ele><time>2026-03-22T09:29:45Z</time></trkpt><trkpt lat="43.063018710486986" lon="10.694309661286782"><ele>50.0</ele><time>2026-03-22T09:29:46Z</time></trkpt><trkpt lat="43.063125964241834" lon="10.694259430267365"><ele>50.0</ele><time>2026-03-22T09:29:47Z</time></trkpt><trkpt lat="43.063234767604506" lon="10.694199127388593"><ele>50.6</ele><time>2026-03-22T09:29:48Z</time></trkpt><trkpt lat="43.06333888133923" lon="10.694166497717182"><ele>51.2</ele><time>2026-03-22T09:29:49Z</time></trkpt><trkpt lat="43.06343790959127" lon="10.694137109151574"><ele>51.8</ele><time>2026-03-22T09:29:50Z</time></trkpt><trkpt lat="43.06352673928232" lon="10.694102859541452"><ele>52.4</ele><time>2026-03-22T09:29:51Z</time></trkpt><trkpt lat="43.0636115176421" lon="10.69407458878228"><ele>53.0</ele><time>2026-03-22T09:29:52Z</time></trkpt><trkpt lat="43.063692781126186" lon="10.694036961076183"><ele>53.0</ele><time>2026-03-22T09:29:53Z</time></trkpt><trkpt lat="43.063762365476826" lon="10.69400181859151"><ele>53.0</ele><time>2026-03-22T09:29:54Z</time></trkpt><trkpt lat="43.06383293601536" lon="10.693978880833242"><ele>53.0</ele><time>2026-03-22T09:29:55Z</time></trkpt><trkpt lat="43.06392759634661" lon="10.693931592865688"><ele>53.0</ele><time>2026-03-22T09:29:56Z</time></trkpt><trkpt lat="43.06403811005984" lon="10.693877600786262"><ele>53.0</ele><time>2026-03-22T09:29:57Z</time></trkpt><trkpt lat="43.064134409902294" lon="10.693826255278234"><ele>53.599999999999994</ele><time>2026-03-22T09:29:58Z</time></trkpt><trkpt lat="43.06422069476183" lon="10.693781190075313"><ele>54.199999999999996</ele><time>2026-03-22T09:29:59Z</time></trkpt><trkpt lat="43.06431739138028" lon="10.693744985354826"><ele>54.8</ele><time>2026-03-22T09:30:00Z</time></trkpt><trkpt lat="43.06440641853954" lon="10.693675382273433"><ele>55.4</ele><time>2026-03-22T09:30:01Z</time></trkpt><trkpt lat="43.06449532529686" lon="10.693632394614779"><ele>56.0</ele><time>2026-03-22T09:30:02Z</time></trkpt><trkpt lat="43.06457851422218" lon="10.693581838368369"><ele>55.4</ele><time>2026-03-22T09:30:03Z</time></trkpt><trkpt lat="43.06465672637901" lon="10.693507989200658"><ele>54.8</ele><time>2026-03-22T09:30:04Z</time></trkpt><trkpt lat="43.064728765388224" lon="10.693422073020884"><ele>54.199999999999996</ele><time>2026-03-22T09:30:05Z</time></trkpt><trkpt lat="43.0648127782065" lon="10.693392867658275"><ele>53.599999999999994</ele><time>2026-03-22T09:30:06Z</time></trkpt><trkpt lat="43.0648951512248" lon="10.693331316826448"><ele>53.0</ele><time>2026-03-22T09:30:07Z</time></trkpt><trkpt lat="43.06495799219666" lon="10.693230769644648"><ele>53.0</ele><time>2026-03-22T09:30:08Z</time></trkpt><trkpt lat="43.06502626503327" lon="10.693131055218132"><ele>53.0</ele><time>2026-03-22T09:30:09Z</time></trkpt><trkpt lat="43.06510739562258" lon="10.693060029522222"><ele>53.0</ele><time>2026-03-22T09:30:10Z</time></trkpt><trkpt lat="43.06517495248025" lon="10.692989483289745"><ele>53.0</ele><time>2026-03-22T09:30:11Z</time></trkpt><trkpt lat="43.06524101528143" lon="10.692889996673115"><ele>53.0</ele><time>2026-03-22T09:30:12Z</time></trkpt><trkpt lat="43.06533954775391" lon="10.692832887992664"><ele>53.0</ele><time>2026-03-22T09:30:13Z</time></trkpt><trkpt lat="43.0654610306395" lon="10.692773444916227"><ele>53.0</ele><time>2026-03-22T09:30:14Z</time></trkpt><trkpt lat="43.06556665328992" lon="10.692703894534972"><ele>53.0</ele><time>2026-03-22T09:30:15Z</time></trkpt><trkpt lat="43.06566507193648" lon="10.692649915555414"><ele>53.0</ele><time>2026-03-22T09:30:16Z</time></trkpt><trkpt lat="43.065720774562" lon="10.692557147857475"><ele>53.0</ele><time>2026-03-22T09:30:17Z</time></trkpt><trkpt lat="43.065771000298824" lon="10.692466245806655"><ele>52.599999999999994</ele><time>2026-03-22T09:30:18Z</time></trkpt><trkpt lat="43.06580908040188" lon="10.692379251124601"><ele>52.199999999999996</ele><time>2026-03-22T09:30:19Z</time></trkpt><trkpt lat="43.065872695546986" lon="10.692311450246562"><ele>51.8</ele><time>2026-03-22T09:30:20Z</time></trkpt><trkpt lat="43.065945193335764" lon="10.692211892235767"><ele>51.4</ele><time>2026-03-22T09:30:21Z</time></trkpt><trkpt lat="43.06603029251766" lon="10.692131852495798"><ele>51.0</ele><time>2026-03-22T09:30:22Z</time></trkpt><trkpt lat="43.06613860599142" lon="10.69205390273437"><ele>51.0</ele><time>2026-03-22T09:30:23Z</time></trkpt><trkpt lat="43.06624546303849" lon="10.691993506585835"><ele>51.0</ele><time>2026-03-22T09:30:24Z</time></trkpt><trkpt lat="43.06635002860867" lon="10.691938282800779"><ele>51.0</ele><time>2026-03-22T09:30:25Z</time></trkpt><trkpt lat="43.06644433213858" lon="10.691890799389983"><ele>51.0</ele><time>2026-03-22T09:30:26Z</time></trkpt><trkpt lat="43.06653684326546" lon="10.691847531216888"><ele>51.0</ele><time>2026-03-22T09:30:27Z</time></trkpt><trkpt lat="43.06661695980432" lon="10.69179093117696"><ele>50.833333333333336</ele><time>2026-03-22T09:30:28Z</time></trkpt><trkpt lat="43.06670926964629" lon="10.691729455640127"><ele>50.66666666666667</ele><time>2026-03-22T09:30:29Z</time></trkpt><trkpt lat="43.06677948982299" lon="10.691662511445447"><ele>50.5</ele><time>2026-03-22T09:30:30Z</time></trkpt><trkpt lat="43.06685479013143" lon="10.691610940928438"><ele>50.333333333333336</ele><time>2026-03-22T09:30:31Z</time></trkpt><trkpt lat="43.06692544302071" lon="10.69155954985528"><ele>50.16666666666667</ele><time>2026-03-22T09:30:32Z</time></trkpt><trkpt lat="43.06699307095081" lon="10.691524255534894"><ele>50.0</ele><time>2026-03-22T09:30:33Z</time></trkpt><trkpt lat="43.067074762254784" lon="10.691539525807372"><ele>50.0</ele><time>2026-03-22T09:30:34Z</time></trkpt><trkpt lat="43.06714213566509" lon="10.691527730484328"><ele>50.0</ele><time>2026-03-22T09:30:35Z</time></trkpt><trkpt lat="43.06723937493901" lon="10.69152685534181"><ele>50.0</ele><time>2026-03-22T09:30:37Z</time></trkpt><trkpt lat="43.067352101206716" lon="10.691589614445299"><ele>50.0</ele><time>2026-03-22T09:30:39Z</time></trkpt><trkpt lat="43.06741325481152" lon="10.691653436485353"><ele>50.0</ele><time>2026-03-22T09:30:40Z</time></trkpt><trkpt lat="43.06747533336768" lon="10.691740794800877"><ele>49.8</ele><time>2026-03-22T09:30:41Z</time></trkpt><trkpt lat="43.06754941442011" lon="10.69184596716488"><ele>49.6</ele><time>2026-03-22T09:30:42Z</time></trkpt><trkpt lat="43.067612009717415" lon="10.691926298175611"><ele>49.400000000000006</ele><time>2026-03-22T09:30:43Z</time></trkpt><trkpt lat="43.067671405283846" lon="10.691967216021755"><ele>49.2</ele><time>2026-03-22T09:30:44Z</time></trkpt><trkpt lat="43.067816635785704" lon="10.691934381187298"><ele>49.0</ele><time>2026-03-22T09:30:46Z</time></trkpt><trkpt lat="43.06791933799865" lon="10.691871984335073"><ele>48.99999999999999</ele><time>2026-03-22T09:30:47Z</time></trkpt><trkpt lat="43.0679983620124" lon="10.691818098585054"><ele>49.0</ele><time>2026-03-22T09:30:48Z</time></trkpt><trkpt lat="43.06806393984981" lon="10.691793675193006"><ele>49.0</ele><time>2026-03-22T09:30:49Z</time></trkpt><trkpt lat="43.06813377040796" lon="10.691798695458827"><ele>49.0</ele><time>2026-03-22T09:30:50Z</time></trkpt><trkpt lat="43.068217917953774" lon="10.691821663906286"><ele>48.99999999999999</ele><time>2026-03-22T09:30:51Z</time></trkpt><trkpt lat="43.06832941987205" lon="10.69185159432871"><ele>49.0</ele><time>2026-03-22T09:30:52Z</time></trkpt><trkpt lat="43.0684285708962" lon="10.691901436587534"><ele>50.6</ele><time>2026-03-22T09:30:53Z</time></trkpt><trkpt lat="43.0685105468353" lon="10.691943504200069"><ele>52.2</ele><time>2026-03-22T09:30:54Z</time></trkpt><trkpt lat="43.06861274072161" lon="10.692054434075756"><ele>53.800000000000004</ele><time>2026-03-22T09:30:56Z</time></trkpt><trkpt lat="43.06865607176324" lon="10.692131541483631"><ele>55.400000000000006</ele><time>2026-03-22T09:30:57Z</time></trkpt><trkpt lat="43.068717432150585" lon="10.692251331321412"><ele>57.0</ele><time>2026-03-22T09:30:58Z</time></trkpt><trkpt lat="43.06877925378098" lon="10.692381249883132"><ele>57.0</ele><time>2026-03-22T09:30:59Z</time></trkpt><trkpt lat="43.068850118230614" lon="10.692511166024579"><ele>57.0</ele><time>2026-03-22T09:31:00Z</time></trkpt><trkpt lat="43.06891341913318" lon="10.692656095348427"><ele>57.0</ele><time>2026-03-22T09:31:01Z</time></trkpt><trkpt lat="43.06897101273934" lon="10.692793701323929"><ele>57.0</ele><time>2026-03-22T09:31:02Z</time></trkpt><trkpt lat="43.069033664602145" lon="10.692936037404321"><ele>56.8</ele><time>2026-03-22T09:31:03Z</time></trkpt><trkpt lat="43.06908152333682" lon="10.693077286124462"><ele>56.6</ele><time>2026-03-22T09:31:04Z</time></trkpt><trkpt lat="43.069121113856205" lon="10.69319596484913"><ele>56.39999999999999</ele><time>2026-03-22T09:31:05Z</time></trkpt><trkpt lat="43.069148856601565" lon="10.693297879308176"><ele>56.199999999999996</ele><time>2026-03-22T09:31:06Z</time></trkpt><trkpt lat="43.06916979397191" lon="10.693413594986048"><ele>56.0</ele><time>2026-03-22T09:31:07Z</time></trkpt><trkpt lat="43.06917810661495" lon="10.693538645319748"><ele>57.42857142857143</ele><time>2026-03-22T09:31:08Z</time></trkpt><trkpt lat="43.06917732346706" lon="10.693651615528653"><ele>58.85714285714286</ele><time>2026-03-22T09:31:09Z</time></trkpt><trkpt lat="43.0691779689339" lon="10.693760621905522"><ele>60.285714285714285</ele><time>2026-03-22T09:31:10Z</time></trkpt><trkpt lat="43.06918628225626" lon="10.693847691767939"><ele>61.714285714285715</ele><time>2026-03-22T09:31:11Z</time></trkpt><trkpt lat="43.06921703463358" lon="10.693927664365253"><ele>63.142857142857146</ele><time>2026-03-22T09:31:12Z</time></trkpt><trkpt lat="43.06925903842204" lon="10.693998657595863"><ele>64.57142857142857</ele><time>2026-03-22T09:31:13Z</time></trkpt><trkpt lat="43.06931853011059" lon="10.69408424275919"><ele>66.0</ele><time>2026-03-22T09:31:14Z</time></trkpt><trkpt lat="43.06935604930174" lon="10.694180454431082"><ele>66.0</ele><time>2026-03-22T09:31:15Z</time></trkpt><trkpt lat="43.06937134056267" lon="10.694296072755273"><ele>66.0</ele><time>2026-03-22T09:31:16Z</time></trkpt><trkpt lat="43.06938770682016" lon="10.694418601609659"><ele>66.0</ele><time>2026-03-22T09:31:17Z</time></trkpt><trkpt lat="43.069408797328286" lon="10.694524787883408"><ele>66.0</ele><time>2026-03-22T09:31:18Z</time></trkpt><trkpt lat="43.069422621166694" lon="10.694634478043826"><ele>66.0</ele><time>2026-03-22T09:31:19Z</time></trkpt><trkpt lat="43.069426337167215" lon="10.694743648749675"><ele>66.0</ele><time>2026-03-22T09:31:20Z</time></trkpt><trkpt lat="43.06944217525767" lon="10.694853460843698"><ele>67.83333333333333</ele><time>2026-03-22T09:31:21Z</time></trkpt><trkpt lat="43.0694786777945" lon="10.69495369062891"><ele>69.66666666666667</ele><time>2026-03-22T09:31:21.999Z</time></trkpt><trkpt lat="43.06951137096651" lon="10.695068007672907"><ele>71.5</ele><time>2026-03-22T09:31:22.999Z</time></trkpt><trkpt lat="43.06953280866795" lon="10.695164407932115"><ele>73.33333333333334</ele><time>2026-03-22T09:31:23.999Z</time></trkpt><trkpt lat="43.069544773687596" lon="10.69526644101336"><ele>75.16666666666667</ele><time>2026-03-22T09:31:24.999Z</time></trkpt><trkpt lat="43.06955573434992" lon="10.695376655929914"><ele>77.0</ele><time>2026-03-22T09:31:25.999Z</time></trkpt><trkpt lat="43.06959539241104" lon="10.695476372798897"><ele>78.6</ele><time>2026-03-22T09:31:27Z</time></trkpt><trkpt lat="43.06962835402338" lon="10.69557850360629"><ele>80.2</ele><time>2026-03-22T09:31:28Z</time></trkpt><trkpt lat="43.069663235477535" lon="10.695690147119143"><ele>81.8</ele><time>2026-03-22T09:31:29Z</time></trkpt><trkpt lat="43.06970753265551" lon="10.695815537009665"><ele>83.4</ele><time>2026-03-22T09:31:30Z</time></trkpt><trkpt lat="43.06974267367175" lon="10.695924356776954"><ele>85.0</ele><time>2026-03-22T09:31:31Z</time></trkpt><trkpt lat="43.06978265537109" lon="10.696074967430354"><ele>87.5</ele><time>2026-03-22T09:31:32Z</time></trkpt><trkpt lat="43.069825683449444" lon="10.696231803920941"><ele>90.0</ele><time>2026-03-22T09:31:33Z</time></trkpt><trkpt lat="43.069867864180566" lon="10.696386703197279"><ele>92.5</ele><time>2026-03-22T09:31:34Z</time></trkpt><trkpt lat="43.06991501676176" lon="10.696552205872848"><ele>95.0</ele><time>2026-03-22T09:31:35Z</time></trkpt><trkpt lat="43.069952965159175" lon="10.696691591210813"><ele>90.8</ele><time>2026-03-22T09:31:36Z</time></trkpt><trkpt lat="43.070000469038746" lon="10.696805613847184"><ele>86.6</ele><time>2026-03-22T09:31:37Z</time></trkpt><trkpt lat="43.07007570387401" lon="10.696939121323224"><ele>82.4</ele><time>2026-03-22T09:31:39Z</time></trkpt><trkpt lat="43.07011578572547" lon="10.697064015648362"><ele>78.2</ele><time>2026-03-22T09:31:41Z</time></trkpt><trkpt lat="43.070124060862305" lon="10.697160420374999"><ele>74.0</ele><time>2026-03-22T09:31:43Z</time></trkpt><trkpt lat="43.070065799405285" lon="10.697273052843977"><ele>74.0</ele><time>2026-03-22T09:31:45Z</time></trkpt><trkpt lat="43.06995220456507" lon="10.697391068710035"><ele>74.0</ele><time>2026-03-22T09:31:47Z</time></trkpt><trkpt lat="43.06989436170277" lon="10.697491514331606"><ele>74.0</ele><time>2026-03-22T09:31:48Z</time></trkpt><trkpt lat="43.069827940412715" lon="10.69759870308607"><ele>74.0</ele><time>2026-03-22T09:31:49Z</time></trkpt><trkpt lat="43.06978098281667" lon="10.697719476701506"><ele>74.0</ele><time>2026-03-22T09:31:50Z</time></trkpt><trkpt lat="43.06974910181688" lon="10.697875278119284"><ele>76.4</ele><time>2026-03-22T09:31:51Z</time></trkpt><trkpt lat="43.06973499530434" lon="10.698041668314412"><ele>78.80000000000001</ele><time>2026-03-22T09:31:52Z</time></trkpt><trkpt lat="43.069711642255726" lon="10.698191476079954"><ele>81.19999999999999</ele><time>2026-03-22T09:31:53Z</time></trkpt><trkpt lat="43.069678484132204" lon="10.69831972454259"><ele>83.6</ele><time>2026-03-22T09:31:54Z</time></trkpt><trkpt lat="43.06965460956734" lon="10.698443727564467"><ele>86.0</ele><time>2026-03-22T09:31:55Z</time></trkpt><trkpt lat="43.06962508440792" lon="10.69857149434252"><ele>85.83333333333334</ele><time>2026-03-22T09:31:56Z</time></trkpt><trkpt lat="43.06960863211676" lon="10.69868806375257"><ele>85.66666666666667</ele><time>2026-03-22T09:31:57Z</time></trkpt><trkpt lat="43.06961196500767" lon="10.698783269601089"><ele>85.5</ele><time>2026-03-22T09:31:58Z</time></trkpt><trkpt lat="43.06963152990815" lon="10.698878890872642"><ele>85.33333333333333</ele><time>2026-03-22T09:31:59Z</time></trkpt><trkpt lat="43.0696742846534" lon="10.69897364178514"><ele>85.16666666666666</ele><time>2026-03-22T09:32:00Z</time></trkpt><trkpt lat="43.06970792567851" lon="10.69904741897344"><ele>85.0</ele><time>2026-03-22T09:32:01Z</time></trkpt><trkpt lat="43.06971172782297" lon="10.699157631307717"><ele>85.0</ele><time>2026-03-22T09:32:02Z</time></trkpt><trkpt lat="43.06970244198655" lon="10.699257657758835"><ele>85.0</ele><time>2026-03-22T09:32:03Z</time></trkpt><trkpt lat="43.06967084233772" lon="10.699346285422626"><ele>85.0</ele><time>2026-03-22T09:32:04Z</time></trkpt><trkpt lat="43.0696575521734" lon="10.6994438174066"><ele>85.0</ele><time>2026-03-22T09:32:05Z</time></trkpt><trkpt lat="43.06964310483471" lon="10.699528557963745"><ele>85.0</ele><time>2026-03-22T09:32:06Z</time></trkpt><trkpt lat="43.06962420400888" lon="10.699613685635688"><ele>85.0</ele><time>2026-03-22T09:32:07Z</time></trkpt><trkpt lat="43.06961693195501" lon="10.699723058938892"><ele>85.0</ele><time>2026-03-22T09:32:08Z</time></trkpt><trkpt lat="43.06960939601558" lon="10.699837895778646"><ele>85.66666666666666</ele><time>2026-03-22T09:32:09Z</time></trkpt><trkpt lat="43.069594594123004" lon="10.699943535749666"><ele>86.33333333333333</ele><time>2026-03-22T09:32:10Z</time></trkpt><trkpt lat="43.06956281674712" lon="10.700036500274972"><ele>87.0</ele><time>2026-03-22T09:32:11Z</time></trkpt><trkpt lat="43.06953261696534" lon="10.700131278966627"><ele>87.66666666666667</ele><time>2026-03-22T09:32:12Z</time></trkpt><trkpt lat="43.0695059830052" lon="10.700225159755968"><ele>88.33333333333334</ele><time>2026-03-22T09:32:13Z</time></trkpt><trkpt lat="43.06945395037417" lon="10.700312163769281"><ele>89.0</ele><time>2026-03-22T09:32:14Z</time></trkpt><trkpt lat="43.069412923986285" lon="10.700388525869009"><ele>89.0</ele><time>2026-03-22T09:32:15Z</time></trkpt><trkpt lat="43.06939806939886" lon="10.700488583769111"><ele>89.0</ele><time>2026-03-22T09:32:16Z</time></trkpt><trkpt lat="43.06939487897647" lon="10.700593364224217"><ele>89.0</ele><time>2026-03-22T09:32:17Z</time></trkpt><trkpt lat="43.0694189881181" lon="10.700688734465823"><ele>89.0</ele><time>2026-03-22T09:32:18Z</time></trkpt><trkpt lat="43.06943781759439" lon="10.70077784718786"><ele>89.0</ele><time>2026-03-22T09:32:19Z</time></trkpt><trkpt lat="43.06945287013734" lon="10.700890223233332"><ele>89.0</ele><time>2026-03-22T09:32:20Z</time></trkpt><trkpt lat="43.06946157573854" lon="10.701020164675997"><ele>88.16666666666667</ele><time>2026-03-22T09:32:21Z</time></trkpt><trkpt lat="43.06946747941778" lon="10.70114559691361"><ele>87.33333333333334</ele><time>2026-03-22T09:32:22Z</time></trkpt><trkpt lat="43.06948629644105" lon="10.701252083530889"><ele>86.5</ele><time>2026-03-22T09:32:23Z</time></trkpt><trkpt lat="43.06948276328785" lon="10.70135321059597"><ele>85.66666666666667</ele><time>2026-03-22T09:32:24Z</time></trkpt><trkpt lat="43.06951969534176" lon="10.701488964362975"><ele>84.83333333333333</ele><time>2026-03-22T09:32:26Z</time></trkpt><trkpt lat="43.06960002149842" lon="10.70154080391069"><ele>84.0</ele><time>2026-03-22T09:32:27Z</time></trkpt><trkpt lat="43.06970913788833" lon="10.701609544924423"><ele>84.0</ele><time>2026-03-22T09:32:28Z</time></trkpt><trkpt lat="43.069816295473245" lon="10.701677478490035"><ele>84.0</ele><time>2026-03-22T09:32:29Z</time></trkpt><trkpt lat="43.06988411861244" lon="10.701740128478457"><ele>84.0</ele><time>2026-03-22T09:32:30Z</time></trkpt><trkpt lat="43.06995204797868" lon="10.701765878817403"><ele>84.0</ele><time>2026-03-22T09:32:31Z</time></trkpt><trkpt lat="43.07005440606454" lon="10.701762177914722"><ele>84.0</ele><time>2026-03-22T09:32:32Z</time></trkpt><trkpt lat="43.07018198732577" lon="10.70173161002428"><ele>83.0</ele><time>2026-03-22T09:32:33Z</time></trkpt><trkpt lat="43.070329204659025" lon="10.70171036042436"><ele>82.0</ele><time>2026-03-22T09:32:34Z</time></trkpt><trkpt lat="43.07046984545373" lon="10.701717282679907"><ele>81.0</ele><time>2026-03-22T09:32:35Z</time></trkpt><trkpt lat="43.07061463310235" lon="10.701739089723105"><ele>80.0</ele><time>2026-03-22T09:32:36Z</time></trkpt><trkpt lat="43.07073303529187" lon="10.701801700980074"><ele>79.75</ele><time>2026-03-22T09:32:37Z</time></trkpt><trkpt lat="43.07084582328348" lon="10.701865504006069"><ele>79.5</ele><time>2026-03-22T09:32:38Z</time></trkpt><trkpt lat="43.07095739300362" lon="10.70193519127204"><ele>79.25</ele><time>2026-03-22T09:32:39Z</time></trkpt><trkpt lat="43.071061182611686" lon="10.701978471949152"><ele>79.0</ele><time>2026-03-22T09:32:40Z</time></trkpt><trkpt lat="43.071154983960106" lon="10.702019832975603"><ele>79.0</ele><time>2026-03-22T09:32:41Z</time></trkpt><trkpt lat="43.071242791603076" lon="10.702059170079256"><ele>79.0</ele><time>2026-03-22T09:32:42Z</time></trkpt><trkpt lat="43.071334735073684" lon="10.70210422903502"><ele>79.0</ele><time>2026-03-22T09:32:43Z</time></trkpt><trkpt lat="43.07143372687445" lon="10.702140461761244"><ele>79.0</ele><time>2026-03-22T09:32:44Z</time></trkpt><trkpt lat="43.071543360283144" lon="10.702170862035976"><ele>79.0</ele><time>2026-03-22T09:32:45Z</time></trkpt><trkpt lat="43.07165777001463" lon="10.70220420864787"><ele>78.75</ele><time>2026-03-22T09:32:46Z</time></trkpt><trkpt lat="43.07177108377334" lon="10.702244188984336"><ele>78.5</ele><time>2026-03-22T09:32:47Z</time></trkpt><trkpt lat="43.07188368939668" lon="10.702269494607563"><ele>78.25</ele><time>2026-03-22T09:32:48Z</time></trkpt><trkpt lat="43.07200069326398" lon="10.702284618231"><ele>78.0</ele><time>2026-03-22T09:32:49Z</time></trkpt><trkpt lat="43.072106231463025" lon="10.70232952209766"><ele>78.0</ele><time>2026-03-22T09:32:50Z</time></trkpt><trkpt lat="43.07221541302005" lon="10.70235518890017"><ele>78.0</ele><time>2026-03-22T09:32:51Z</time></trkpt><trkpt lat="43.07232835768679" lon="10.70236917539557"><ele>78.0</ele><time>2026-03-22T09:32:52Z</time></trkpt><trkpt lat="43.07244527105706" lon="10.702393019416474"><ele>78.0</ele><time>2026-03-22T09:32:53Z</time></trkpt><trkpt lat="43.07255877410217" lon="10.702433946968862"><ele>78.0</ele><time>2026-03-22T09:32:54Z</time></trkpt><trkpt lat="43.07267213813031" lon="10.702492698929845"><ele>78.0</ele><time>2026-03-22T09:32:55Z</time></trkpt><trkpt lat="43.07276550984063" lon="10.702582518568859"><ele>78.0</ele><time>2026-03-22T09:32:56Z</time></trkpt><trkpt lat="43.07287119141837" lon="10.702618261607954"><ele>78.0</ele><time>2026-03-22T09:32:57Z</time></trkpt><trkpt lat="43.07297100390378" lon="10.702662349903484"><ele>78.0</ele><time>2026-03-22T09:32:58Z</time></trkpt><trkpt lat="43.07307510877296" lon="10.702681524175246"><ele>78.0</ele><time>2026-03-22T09:32:59Z</time></trkpt><trkpt lat="43.07318462416853" lon="10.702671617434039"><ele>78.0</ele><time>2026-03-22T09:33:00Z</time></trkpt><trkpt lat="43.07329705710753" lon="10.70265779582047"><ele>78.0</ele><time>2026-03-22T09:33:01Z</time></trkpt><trkpt lat="43.073398783452" lon="10.702651902975827"><ele>78.0</ele><time>2026-03-22T09:33:02Z</time></trkpt><trkpt lat="43.0735052744737" lon="10.70262330558955"><ele>78.0</ele><time>2026-03-22T09:33:03Z</time></trkpt><trkpt lat="43.07360127038611" lon="10.702575671889246"><ele>79.0</ele><time>2026-03-22T09:33:04Z</time></trkpt><trkpt lat="43.07369722228076" lon="10.702505167529909"><ele>80.0</ele><time>2026-03-22T09:33:05Z</time></trkpt><trkpt lat="43.07378606968187" lon="10.702412803327633"><ele>81.0</ele><time>2026-03-22T09:33:06Z</time></trkpt><trkpt lat="43.07386075035491" lon="10.7023417612676"><ele>82.0</ele><time>2026-03-22T09:33:07Z</time></trkpt><trkpt lat="43.073924460507335" lon="10.702287803281378"><ele>83.0</ele><time>2026-03-22T09:33:08Z</time></trkpt><trkpt lat="43.07397783999046" lon="10.702233630412769"><ele>83.0</ele><time>2026-03-22T09:33:09Z</time></trkpt><trkpt lat="43.07404113738471" lon="10.702173120728501"><ele>83.0</ele><time>2026-03-22T09:33:10Z</time></trkpt><trkpt lat="43.074102891334924" lon="10.702088828470698"><ele>83.0</ele><time>2026-03-22T09:33:11Z</time></trkpt><trkpt lat="43.07415804210455" lon="10.702013467468044"><ele>83.0</ele><time>2026-03-22T09:33:12Z</time></trkpt><trkpt lat="43.07424215983207" lon="10.701943349524448"><ele>83.0</ele><time>2026-03-22T09:33:14Z</time></trkpt><trkpt lat="43.07436464093694" lon="10.701975498459108"><ele>83.2</ele><time>2026-03-22T09:33:16Z</time></trkpt><trkpt lat="43.07446384035529" lon="10.701997599007854"><ele>83.4</ele><time>2026-03-22T09:33:17Z</time></trkpt><trkpt lat="43.074584332339725" lon="10.702024300217625"><ele>83.60000000000001</ele><time>2026-03-22T09:33:18Z</time></trkpt><trkpt lat="43.074703598644604" lon="10.702055670353902"><ele>83.80000000000001</ele><time>2026-03-22T09:33:19Z</time></trkpt><trkpt lat="43.07479636432682" lon="10.702092438108084"><ele>84.0</ele><time>2026-03-22T09:33:20Z</time></trkpt><trkpt lat="43.07488514977364" lon="10.702101266581218"><ele>82.4</ele><time>2026-03-22T09:33:21Z</time></trkpt><trkpt lat="43.07495823571648" lon="10.702144705127779"><ele>80.80000000000001</ele><time>2026-03-22T09:33:22Z</time></trkpt><trkpt lat="43.07502205128076" lon="10.70222467369123"><ele>79.19999999999999</ele><time>2026-03-22T09:33:23Z</time></trkpt><trkpt lat="43.07508232203425" lon="10.702262660195386"><ele>77.6</ele><time>2026-03-22T09:33:25Z</time></trkpt><trkpt lat="43.07517780538278" lon="10.702379481971029"><ele>76.0</ele><time>2026-03-22T09:33:34Z</time></trkpt><trkpt lat="43.07528188251057" lon="10.702466785020432"><ele>76.0</ele><time>2026-03-22T09:33:36Z</time></trkpt><trkpt lat="43.07533691168163" lon="10.70252191000247"><ele>76.0</ele><time>2026-03-22T09:33:37Z</time></trkpt><trkpt lat="43.075389718075954" lon="10.702580640875425"><ele>76.0</ele><time>2026-03-22T09:33:38Z</time></trkpt><trkpt lat="43.075430493161555" lon="10.702656560538147"><ele>76.0</ele><time>2026-03-22T09:33:39Z</time></trkpt><trkpt lat="43.07546905908428" lon="10.702752533995659"><ele>76.0</ele><time>2026-03-22T09:33:40Z</time></trkpt><trkpt lat="43.07544882309054" lon="10.702866328348183"><ele>76.0</ele><time>2026-03-22T09:33:41Z</time></trkpt><trkpt lat="43.0754806331459" lon="10.702950163811195"><ele>76.0</ele><time>2026-03-22T09:33:42Z</time></trkpt><trkpt lat="43.07551700589022" lon="10.703033217267668"><ele>76.0</ele><time>2026-03-22T09:33:43Z</time></trkpt><trkpt lat="43.07558353882756" lon="10.703093571729452"><ele>76.0</ele><time>2026-03-22T09:33:44Z</time></trkpt><trkpt lat="43.075640225417786" lon="10.703162047075669"><ele>76.0</ele><time>2026-03-22T09:33:45Z</time></trkpt><trkpt lat="43.075693038224394" lon="10.703233212063088"><ele>76.0</ele><time>2026-03-22T09:33:46Z</time></trkpt><trkpt lat="43.07576271534032" lon="10.703299985228487"><ele>76.0</ele><time>2026-03-22T09:33:47Z</time></trkpt><trkpt lat="43.075848916696984" lon="10.703372225858622"><ele>76.0</ele><time>2026-03-22T09:33:48Z</time></trkpt><trkpt lat="43.075934513034035" lon="10.70346627987156"><ele>74.39999999999999</ele><time>2026-03-22T09:33:49Z</time></trkpt><trkpt lat="43.075996071986765" lon="10.70358021063563"><ele>72.8</ele><time>2026-03-22T09:33:50Z</time></trkpt><trkpt lat="43.07607035121037" lon="10.703657976456903"><ele>71.19999999999999</ele><time>2026-03-22T09:33:51Z</time></trkpt><trkpt lat="43.076143156834675" lon="10.703754734016895"><ele>69.6</ele><time>2026-03-22T09:33:52Z</time></trkpt><trkpt lat="43.07619548932918" lon="10.703855771358983"><ele>68.0</ele><time>2026-03-22T09:33:53Z</time></trkpt><trkpt lat="43.07626117846987" lon="10.70394443503297"><ele>67.66666666666667</ele><time>2026-03-22T09:33:54Z</time></trkpt><trkpt lat="43.07631267285267" lon="10.70400627265087"><ele>67.33333333333334</ele><time>2026-03-22T09:33:55Z</time></trkpt><trkpt lat="43.07635514627887" lon="10.704074987670106"><ele>67.0</ele><time>2026-03-22T09:33:56Z</time></trkpt><trkpt lat="43.07648389010696" lon="10.7041382801789"><ele>66.66666666666667</ele><time>2026-03-22T09:33:58Z</time></trkpt><trkpt lat="43.07656583770563" lon="10.704135819539284"><ele>66.33333333333333</ele><time>2026-03-22T09:33:59Z</time></trkpt><trkpt lat="43.076639857317495" lon="10.704099857976736"><ele>66.0</ele><time>2026-03-22T09:34:00Z</time></trkpt><trkpt lat="43.07674799358548" lon="10.704100318304626"><ele>64.39999999999999</ele><time>2026-03-22T09:34:02Z</time></trkpt><trkpt lat="43.07681885258247" lon="10.704114589736802"><ele>62.8</ele><time>2026-03-22T09:34:05Z</time></trkpt><trkpt lat="43.07677739946411" lon="10.704274973622999"><ele>61.199999999999996</ele><time>2026-03-22T09:34:13Z</time></trkpt><trkpt lat="43.07673964021422" lon="10.70442909514584"><ele>59.599999999999994</ele><time>2026-03-22T09:34:14Z</time></trkpt><trkpt lat="43.07667032929176" lon="10.704574307780094"><ele>58.0</ele><time>2026-03-22T09:34:15Z</time></trkpt><trkpt lat="43.07660520028941" lon="10.704756387714573"><ele>57.666666666666664</ele><time>2026-03-22T09:34:16Z</time></trkpt><trkpt lat="43.07651925866678" lon="10.70499665320741"><ele>57.33333333333333</ele><time>2026-03-22T09:34:17Z</time></trkpt><trkpt lat="43.07641400597326" lon="10.705290906259338"><ele>57.0</ele><time>2026-03-22T09:34:18Z</time></trkpt><trkpt lat="43.07630760403588" lon="10.705588394173931"><ele>57.0</ele><time>2026-03-22T09:34:19Z</time></trkpt><trkpt lat="43.076205408629036" lon="10.705874236378056"><ele>57.0</ele><time>2026-03-22T09:34:20Z</time></trkpt><trkpt lat="43.07607705311206" lon="10.706233248944425"><ele>55.0</ele><time>2026-03-22T09:34:21Z</time></trkpt><trkpt lat="43.075946884474135" lon="10.706597317521947"><ele>53.0</ele><time>2026-03-22T09:34:22Z</time></trkpt><trkpt lat="43.075824810889074" lon="10.706938706547307"><ele>57.0</ele><time>2026-03-22T09:34:23Z</time></trkpt><trkpt lat="43.07570818314364" lon="10.707264865826128"><ele>61.0</ele><time>2026-03-22T09:34:24Z</time></trkpt><trkpt lat="43.07559675744111" lon="10.707576477158673"><ele>59.0</ele><time>2026-03-22T09:34:25Z</time></trkpt><trkpt lat="43.07548834224013" lon="10.707879669307825"><ele>57.0</ele><time>2026-03-22T09:34:26Z</time></trkpt><trkpt lat="43.075383235510834" lon="10.708173609108517"><ele>57.0</ele><time>2026-03-22T09:34:27Z</time></trkpt><trkpt lat="43.07529997061976" lon="10.708455945414697"><ele>57.0</ele><time>2026-03-22T09:34:28Z</time></trkpt><trkpt lat="43.07519501646024" lon="10.708692627604602"><ele>57.0</ele><time>2026-03-22T09:34:29Z</time></trkpt><trkpt lat="43.075101475682104" lon="10.708919802393128"><ele>57.0</ele><time>2026-03-22T09:34:30Z</time></trkpt><trkpt lat="43.074995129817644" lon="10.709132860993403"><ele>57.0</ele><time>2026-03-22T09:34:31Z</time></trkpt><trkpt lat="43.07487977066223" lon="10.70933384144547"><ele>57.0</ele><time>2026-03-22T09:34:32Z</time></trkpt><trkpt lat="43.07475643177253" lon="10.709520814757825"><ele>54.33333333333333</ele><time>2026-03-22T09:34:33Z</time></trkpt><trkpt lat="43.07462699956667" lon="10.709691002121959"><ele>51.666666666666664</ele><time>2026-03-22T09:34:34Z</time></trkpt><trkpt lat="43.07449906649093" lon="10.70984597069288"><ele>49.0</ele><time>2026-03-22T09:34:35Z</time></trkpt><trkpt lat="43.07438217788625" lon="10.70998727261568"><ele>49.0</ele><time>2026-03-22T09:34:36Z</time></trkpt><trkpt lat="43.07427553701216" lon="10.710124358949077"><ele>49.0</ele><time>2026-03-22T09:34:37Z</time></trkpt><trkpt lat="43.0741763736591" lon="10.71026396141962"><ele>49.0</ele><time>2026-03-22T09:34:38Z</time></trkpt><trkpt lat="43.07408198061659" lon="10.710401598944117"><ele>49.0</ele><time>2026-03-22T09:34:39Z</time></trkpt><trkpt lat="43.07398842340225" lon="10.710537638067578"><ele>48.5</ele><time>2026-03-22T09:34:40Z</time></trkpt><trkpt lat="43.073896869624086" lon="10.710670764082638"><ele>48.0</ele><time>2026-03-22T09:34:41Z</time></trkpt><trkpt lat="43.0738056588919" lon="10.710803391233343"><ele>47.5</ele><time>2026-03-22T09:34:42Z</time></trkpt><trkpt lat="43.0737089617108" lon="10.710943996126423"><ele>47.0</ele><time>2026-03-22T09:34:43Z</time></trkpt><trkpt lat="43.07361266971049" lon="10.711084011843155"><ele>46.33333333333333</ele><time>2026-03-22T09:34:44Z</time></trkpt><trkpt lat="43.07351073729541" lon="10.711232229155831"><ele>45.666666666666664</ele><time>2026-03-22T09:34:45Z</time></trkpt><trkpt lat="43.07340727527399" lon="10.711382958533513"><ele>45.0</ele><time>2026-03-22T09:34:46Z</time></trkpt><trkpt lat="43.073302922971756" lon="10.711535043205524"><ele>45.0</ele><time>2026-03-22T09:34:47Z</time></trkpt><trkpt lat="43.073198224482866" lon="10.711687294459827"><ele>45.0</ele><time>2026-03-22T09:34:48Z</time></trkpt><trkpt lat="43.07309173180259" lon="10.711841590432021"><ele>45.0</ele><time>2026-03-22T09:34:49Z</time></trkpt><trkpt lat="43.07298546905666" lon="10.711994713587817"><ele>45.0</ele><time>2026-03-22T09:34:50Z</time></trkpt><trkpt lat="43.072877276079126" lon="10.712149949716892"><ele>45.0</ele><time>2026-03-22T09:34:51Z</time></trkpt><trkpt lat="43.072779256302" lon="10.71231836685124"><ele>45.0</ele><time>2026-03-22T09:34:52Z</time></trkpt><trkpt lat="43.0726588041881" lon="10.712463735013344"><ele>45.0</ele><time>2026-03-22T09:34:53Z</time></trkpt><trkpt lat="43.07255108641834" lon="10.712620904680197"><ele>45.0</ele><time>2026-03-22T09:34:54Z</time></trkpt><trkpt lat="43.072442858667685" lon="10.712777830898016"><ele>45.0</ele><time>2026-03-22T09:34:55Z</time></trkpt><trkpt lat="43.07233809463091" lon="10.712960061902082"><ele>45.0</ele><time>2026-03-22T09:34:56Z</time></trkpt><trkpt lat="43.07222840041753" lon="10.713116038768451"><ele>45.0</ele><time>2026-03-22T09:34:57Z</time></trkpt><trkpt lat="43.07212396251343" lon="10.713263922805448"><ele>45.0</ele><time>2026-03-22T09:34:58Z</time></trkpt><trkpt lat="43.07201915377013" lon="10.713413829742429"><ele>45.0</ele><time>2026-03-22T09:34:59Z</time></trkpt><trkpt lat="43.07192007145995" lon="10.713573038708125"><ele>45.0</ele><time>2026-03-22T09:35:00Z</time></trkpt><trkpt lat="43.07182353553576" lon="10.713743245792386"><ele>45.0</ele><time>2026-03-22T09:35:01Z</time></trkpt><trkpt lat="43.07173147950255" lon="10.71391802369579"><ele>45.0</ele><time>2026-03-22T09:35:02Z</time></trkpt><trkpt lat="43.071646309115295" lon="10.71410147281547"><ele>45.0</ele><time>2026-03-22T09:35:03Z</time></trkpt><trkpt lat="43.071562586773666" lon="10.714281679086083"><ele>45.0</ele><time>2026-03-22T09:35:04Z</time></trkpt><trkpt lat="43.07147706121852" lon="10.714462709789139"><ele>44.666666666666664</ele><time>2026-03-22T09:35:05Z</time></trkpt><trkpt lat="43.0713906367328" lon="10.7146501655239"><ele>44.33333333333333</ele><time>2026-03-22T09:35:06Z</time></trkpt><trkpt lat="43.07130527909002" lon="10.71484553919739"><ele>44.0</ele><time>2026-03-22T09:35:07Z</time></trkpt><trkpt lat="43.071204060258154" lon="10.71502242268914"><ele>44.0</ele><time>2026-03-22T09:35:08Z</time></trkpt><trkpt lat="43.07111250484839" lon="10.715216256662098"><ele>44.0</ele><time>2026-03-22T09:35:09Z</time></trkpt><trkpt lat="43.071018605109124" lon="10.71541809156191"><ele>44.0</ele><time>2026-03-22T09:35:10Z</time></trkpt><trkpt lat="43.07092429927712" lon="10.715620925755493"><ele>44.0</ele><time>2026-03-22T09:35:11Z</time></trkpt><trkpt lat="43.07083192235769" lon="10.715819611185344"><ele>44.0</ele><time>2026-03-22T09:35:12Z</time></trkpt><trkpt lat="43.07073809286749" lon="10.716021420826202"><ele>44.0</ele><time>2026-03-22T09:35:13Z</time></trkpt><trkpt lat="43.07064221489246" lon="10.716226330287437"><ele>44.0</ele><time>2026-03-22T09:35:14Z</time></trkpt><trkpt lat="43.07054972954174" lon="10.716422740122955"><ele>44.0</ele><time>2026-03-22T09:35:15Z</time></trkpt><trkpt lat="43.07046749531592" lon="10.716637462626743"><ele>44.0</ele><time>2026-03-22T09:35:16Z</time></trkpt><trkpt lat="43.070361544655604" lon="10.716826997649747"><ele>44.0</ele><time>2026-03-22T09:35:17Z</time></trkpt><trkpt lat="43.07026857400997" lon="10.71702593348222"><ele>44.0</ele><time>2026-03-22T09:35:18Z</time></trkpt><trkpt lat="43.070187500396884" lon="10.717240697579076"><ele>44.0</ele><time>2026-03-22T09:35:19Z</time></trkpt><trkpt lat="43.070090274738995" lon="10.717443265958483"><ele>44.0</ele><time>2026-03-22T09:35:20Z</time></trkpt><trkpt lat="43.069997787219144" lon="10.71763305272723"><ele>44.0</ele><time>2026-03-22T09:35:21Z</time></trkpt><trkpt lat="43.069902698410395" lon="10.717834335784985"><ele>44.0</ele><time>2026-03-22T09:35:22Z</time></trkpt><trkpt lat="43.06980683140358" lon="10.718038817583096"><ele>44.0</ele><time>2026-03-22T09:35:23Z</time></trkpt><trkpt lat="43.06971325820188" lon="10.71824272110691"><ele>44.0</ele><time>2026-03-22T09:35:24Z</time></trkpt><trkpt lat="43.06961671707305" lon="10.718449195810532"><ele>44.0</ele><time>2026-03-22T09:35:25Z</time></trkpt><trkpt lat="43.069522419742" lon="10.71865049423728"><ele>44.0</ele><time>2026-03-22T09:35:26Z</time></trkpt><trkpt lat="43.06942683604876" lon="10.718849995570816"><ele>44.0</ele><time>2026-03-22T09:35:27Z</time></trkpt><trkpt lat="43.0693338966727" lon="10.719049429727985"><ele>44.0</ele><time>2026-03-22T09:35:28Z</time></trkpt><trkpt lat="43.06924180072483" lon="10.71925081362909"><ele>44.0</ele><time>2026-03-22T09:35:29Z</time></trkpt><trkpt lat="43.0691478868057" lon="10.719451333687148"><ele>44.0</ele><time>2026-03-22T09:35:30Z</time></trkpt><trkpt lat="43.06905789873431" lon="10.719648139327894"><ele>44.0</ele><time>2026-03-22T09:35:31Z</time></trkpt><trkpt lat="43.068969743534204" lon="10.71985136957591"><ele>44.0</ele><time>2026-03-22T09:35:32Z</time></trkpt><trkpt lat="43.068864208506255" lon="10.720038351221595"><ele>44.0</ele><time>2026-03-22T09:35:33Z</time></trkpt><trkpt lat="43.068784157283645" lon="10.720248079797177"><ele>44.0</ele><time>2026-03-22T09:35:34Z</time></trkpt><trkpt lat="43.0686922753855" lon="10.720445564791218"><ele>44.0</ele><time>2026-03-22T09:35:35Z</time></trkpt><trkpt lat="43.06858966790532" lon="10.720629403934764"><ele>44.0</ele><time>2026-03-22T09:35:36Z</time></trkpt><trkpt lat="43.068497576134696" lon="10.720827369915044"><ele>44.0</ele><time>2026-03-22T09:35:37Z</time></trkpt><trkpt lat="43.06841979208099" lon="10.721033578487663"><ele>44.33333333333333</ele><time>2026-03-22T09:35:38Z</time></trkpt><trkpt lat="43.06832671272249" lon="10.721226727723552"><ele>44.666666666666664</ele><time>2026-03-22T09:35:39Z</time></trkpt><trkpt lat="43.06823711663829" lon="10.721416290815405"><ele>45.0</ele><time>2026-03-22T09:35:40Z</time></trkpt><trkpt lat="43.06815065447712" lon="10.72160052591726"><ele>45.0</ele><time>2026-03-22T09:35:41Z</time></trkpt><trkpt lat="43.06805168061597" lon="10.721773926055599"><ele>45.0</ele><time>2026-03-22T09:35:42Z</time></trkpt><trkpt lat="43.067955458709214" lon="10.721958693393196"><ele>45.0</ele><time>2026-03-22T09:35:43Z</time></trkpt><trkpt lat="43.0678475223671" lon="10.722121997048133"><ele>45.333333333333336</ele><time>2026-03-22T09:35:44Z</time></trkpt><trkpt lat="43.067727994526315" lon="10.722265171399945"><ele>45.66666666666667</ele><time>2026-03-22T09:35:45Z</time></trkpt><trkpt lat="43.06759763823878" lon="10.722384059090116"><ele>46.0</ele><time>2026-03-22T09:35:46Z</time></trkpt><trkpt lat="43.06746312272957" lon="10.72249380207926"><ele>46.0</ele><time>2026-03-22T09:35:47Z</time></trkpt><trkpt lat="43.067315210998586" lon="10.72260276774918"><ele>46.0</ele><time>2026-03-22T09:35:48Z</time></trkpt><trkpt lat="43.06717856552854" lon="10.722704599922787"><ele>46.0</ele><time>2026-03-22T09:35:49Z</time></trkpt><trkpt lat="43.067034452692226" lon="10.72281254304724"><ele>45.66666666666667</ele><time>2026-03-22T09:35:50Z</time></trkpt><trkpt lat="43.066887357150094" lon="10.722923037891915"><ele>45.333333333333336</ele><time>2026-03-22T09:35:51Z</time></trkpt><trkpt lat="43.0667522497683" lon="10.72305025537913"><ele>45.0</ele><time>2026-03-22T09:35:52Z</time></trkpt><trkpt lat="43.066605651151136" lon="10.723148020776826"><ele>45.0</ele><time>2026-03-22T09:35:53Z</time></trkpt><trkpt lat="43.066458052569494" lon="10.723241994635414"><ele>45.0</ele><time>2026-03-22T09:35:54Z</time></trkpt><trkpt lat="43.066292097033525" lon="10.723293803335311"><ele>45.0</ele><time>2026-03-22T09:35:55Z</time></trkpt><trkpt lat="43.066136305210584" lon="10.723361811907713"><ele>45.0</ele><time>2026-03-22T09:35:56Z</time></trkpt><trkpt lat="43.06596653971213" lon="10.723397058606377"><ele>45.0</ele><time>2026-03-22T09:35:57Z</time></trkpt><trkpt lat="43.06579211009821" lon="10.723420909729144"><ele>45.0</ele><time>2026-03-22T09:35:58Z</time></trkpt><trkpt lat="43.065617572371316" lon="10.723443184242504"><ele>45.0</ele><time>2026-03-22T09:35:59Z</time></trkpt><trkpt lat="43.06544519199779" lon="10.7234669966404"><ele>45.0</ele><time>2026-03-22T09:36:00Z</time></trkpt><trkpt lat="43.065269921283225" lon="10.723490272968714"><ele>45.0</ele><time>2026-03-22T09:36:01Z</time></trkpt><trkpt lat="43.06510201275766" lon="10.723517613340869"><ele>44.666666666666664</ele><time>2026-03-22T09:36:02Z</time></trkpt><trkpt lat="43.06493490825744" lon="10.723544547937879"><ele>44.33333333333333</ele><time>2026-03-22T09:36:03Z</time></trkpt><trkpt lat="43.064759074968705" lon="10.72357071539087"><ele>44.0</ele><time>2026-03-22T09:36:04Z</time></trkpt><trkpt lat="43.06458803270625" lon="10.723595550455842"><ele>44.0</ele><time>2026-03-22T09:36:05Z</time></trkpt><trkpt lat="43.064417130505575" lon="10.723622869618877"><ele>44.0</ele><time>2026-03-22T09:36:06Z</time></trkpt><trkpt lat="43.06424181123491" lon="10.723648890209367"><ele>44.0</ele><time>2026-03-22T09:36:07Z</time></trkpt><trkpt lat="43.06407114094863" lon="10.723676459604155"><ele>44.666666666666664</ele><time>2026-03-22T09:36:08Z</time></trkpt><trkpt lat="43.06390605432646" lon="10.723703000419182"><ele>45.333333333333336</ele><time>2026-03-22T09:36:09Z</time></trkpt><trkpt lat="43.06373828858355" lon="10.723734373979454"><ele>46.0</ele><time>2026-03-22T09:36:10Z</time></trkpt><trkpt lat="43.063569028503046" lon="10.723768009430204"><ele>46.0</ele><time>2026-03-22T09:36:11Z</time></trkpt><trkpt lat="43.063403443350076" lon="10.72379887370355"><ele>46.0</ele><time>2026-03-22T09:36:12Z</time></trkpt><trkpt lat="43.06323395939429" lon="10.72381857362852"><ele>46.0</ele><time>2026-03-22T09:36:13Z</time></trkpt><trkpt lat="43.06306643021388" lon="10.723845594066791"><ele>45.66666666666667</ele><time>2026-03-22T09:36:14Z</time></trkpt><trkpt lat="43.06290067242028" lon="10.723868829176398"><ele>45.333333333333336</ele><time>2026-03-22T09:36:15Z</time></trkpt><trkpt lat="43.06273886395786" lon="10.72389465405631"><ele>45.0</ele><time>2026-03-22T09:36:16Z</time></trkpt><trkpt lat="43.062568656898186" lon="10.723922956438154"><ele>44.666666666666664</ele><time>2026-03-22T09:36:17Z</time></trkpt><trkpt lat="43.062401775691995" lon="10.723950505367341"><ele>44.33333333333333</ele><time>2026-03-22T09:36:18Z</time></trkpt><trkpt lat="43.06223978076535" lon="10.723970243619034"><ele>44.0</ele><time>2026-03-22T09:36:19Z</time></trkpt><trkpt lat="43.06207073591879" lon="10.723981230617325"><ele>44.0</ele><time>2026-03-22T09:36:20Z</time></trkpt><trkpt lat="43.06190990372172" lon="10.723985030011008"><ele>44.0</ele><time>2026-03-22T09:36:21Z</time></trkpt><trkpt lat="43.061748707029786" lon="10.723967283476014"><ele>44.0</ele><time>2026-03-22T09:36:22Z</time></trkpt><trkpt lat="43.06158416127123" lon="10.72394383137922"><ele>44.33333333333333</ele><time>2026-03-22T09:36:23Z</time></trkpt><trkpt lat="43.06141977341057" lon="10.723906695107313"><ele>44.666666666666664</ele><time>2026-03-22T09:36:24Z</time></trkpt><trkpt lat="43.06126159364699" lon="10.723862435438544"><ele>45.0</ele><time>2026-03-22T09:36:25Z</time></trkpt><trkpt lat="43.06110413950123" lon="10.723810603544292"><ele>45.0</ele><time>2026-03-22T09:36:26Z</time></trkpt><trkpt lat="43.06094792449347" lon="10.723761826959864"><ele>45.0</ele><time>2026-03-22T09:36:27Z</time></trkpt><trkpt lat="43.06079077948723" lon="10.723712099744455"><ele>45.0</ele><time>2026-03-22T09:36:28Z</time></trkpt><trkpt lat="43.06063561213587" lon="10.723663093839994"><ele>45.0</ele><time>2026-03-22T09:36:29Z</time></trkpt><trkpt lat="43.06047678541654" lon="10.723621100485031"><ele>45.0</ele><time>2026-03-22T09:36:30Z</time></trkpt><trkpt lat="43.060315369816344" lon="10.723570384965662"><ele>45.0</ele><time>2026-03-22T09:36:31Z</time></trkpt><trkpt lat="43.060161690782095" lon="10.723515430074645"><ele>45.0</ele><time>2026-03-22T09:36:32Z</time></trkpt><trkpt lat="43.06000656653413" lon="10.723466170298375"><ele>45.0</ele><time>2026-03-22T09:36:33Z</time></trkpt><trkpt lat="43.05985331456043" lon="10.72341720296535"><ele>45.0</ele><time>2026-03-22T09:36:34Z</time></trkpt><trkpt lat="43.05971827738154" lon="10.723371438445858"><ele>44.75</ele><time>2026-03-22T09:36:35Z</time></trkpt><trkpt lat="43.05959000649666" lon="10.72332606973663"><ele>44.5</ele><time>2026-03-22T09:36:36Z</time></trkpt><trkpt lat="43.05946354786422" lon="10.723283605934535"><ele>44.25</ele><time>2026-03-22T09:36:37Z</time></trkpt><trkpt lat="43.059345182727746" lon="10.723249925001108"><ele>44.0</ele><time>2026-03-22T09:36:38Z</time></trkpt><trkpt lat="43.05922949633861" lon="10.723216377924652"><ele>44.0</ele><time>2026-03-22T09:36:39Z</time></trkpt><trkpt lat="43.05912453687113" lon="10.723181392430137"><ele>44.0</ele><time>2026-03-22T09:36:40Z</time></trkpt><trkpt lat="43.05903067481465" lon="10.723148055115011"><ele>44.0</ele><time>2026-03-22T09:36:41Z</time></trkpt><trkpt lat="43.0589439674703" lon="10.723118398669577"><ele>44.0</ele><time>2026-03-22T09:36:42Z</time></trkpt><trkpt lat="43.05886305364048" lon="10.72309476625069"><ele>44.0</ele><time>2026-03-22T09:36:43Z</time></trkpt><trkpt lat="43.05878539400661" lon="10.723068138854845"><ele>44.400000000000006</ele><time>2026-03-22T09:36:44Z</time></trkpt><trkpt lat="43.05871652881243" lon="10.723042565713943"><ele>44.8</ele><time>2026-03-22T09:36:45Z</time></trkpt><trkpt lat="43.05865096485939" lon="10.723014027724759"><ele>45.2</ele><time>2026-03-22T09:36:46Z</time></trkpt><trkpt lat="43.05858936982836" lon="10.722988758910306"><ele>45.599999999999994</ele><time>2026-03-22T09:36:47Z</time></trkpt><trkpt lat="43.058480481465146" lon="10.722967182519769"><ele>46.0</ele><time>2026-03-22T09:36:49Z</time></trkpt><trkpt lat="43.05840021136745" lon="10.723141720629132"><ele>46.0</ele><time>2026-03-22T09:36:52Z</time></trkpt><trkpt lat="43.05841737885296" lon="10.723246314048579"><ele>46.0</ele><time>2026-03-22T09:36:53Z</time></trkpt><trkpt lat="43.05843901714219" lon="10.723376058985142"><ele>46.0</ele><time>2026-03-22T09:36:54Z</time></trkpt><trkpt lat="43.05846324411347" lon="10.723524810738786"><ele>46.0</ele><time>2026-03-22T09:36:55Z</time></trkpt><trkpt lat="43.05850300884275" lon="10.723676664108996"><ele>46.0</ele><time>2026-03-22T09:36:56Z</time></trkpt><trkpt lat="43.058510958625966" lon="10.723838043612924"><ele>46.5</ele><time>2026-03-22T09:36:57Z</time></trkpt><trkpt lat="43.05852325485044" lon="10.723969953649187"><ele>47.0</ele><time>2026-03-22T09:36:58Z</time></trkpt><trkpt lat="43.05852951634599" lon="10.72408756472265"><ele>47.5</ele><time>2026-03-22T09:36:59Z</time></trkpt><trkpt lat="43.05851725896169" lon="10.724188631331765"><ele>48.0</ele><time>2026-03-22T09:37:00Z</time></trkpt><trkpt lat="43.0584993874729" lon="10.724305524768605"><ele>48.49999999999999</ele><time>2026-03-22T09:37:01Z</time></trkpt><trkpt lat="43.058470475385036" lon="10.724433462445344"><ele>49.0</ele><time>2026-03-22T09:37:02Z</time></trkpt><trkpt lat="43.05843663649957" lon="10.724560495432485"><ele>49.2</ele><time>2026-03-22T09:37:03Z</time></trkpt><trkpt lat="43.05840178297274" lon="10.724686019558616"><ele>49.400000000000006</ele><time>2026-03-22T09:37:04Z</time></trkpt><trkpt lat="43.05836796311355" lon="10.724805487780618"><ele>49.6</ele><time>2026-03-22T09:37:05Z</time></trkpt><trkpt lat="43.058349076331034" lon="10.724930427503141"><ele>49.8</ele><time>2026-03-22T09:37:06Z</time></trkpt><trkpt lat="43.0583165248866" lon="10.725045406169281"><ele>50.0</ele><time>2026-03-22T09:37:07Z</time></trkpt><trkpt lat="43.05827561336908" lon="10.725136161611026"><ele>50.0</ele><time>2026-03-22T09:37:08Z</time></trkpt><trkpt lat="43.058250359466975" lon="10.725221239902158"><ele>50.0</ele><time>2026-03-22T09:37:09Z</time></trkpt><trkpt lat="43.05824230741582" lon="10.725309804144544"><ele>50.0</ele><time>2026-03-22T09:37:10Z</time></trkpt><trkpt lat="43.05820386766833" lon="10.725402503350551"><ele>50.0</ele><time>2026-03-22T09:37:13Z</time></trkpt><trkpt lat="43.05832159707535" lon="10.7255499789479"><ele>50.0</ele><time>2026-03-22T09:37:15Z</time></trkpt><trkpt lat="43.05837944305529" lon="10.7256471735304"><ele>50.0</ele><time>2026-03-22T09:37:16Z</time></trkpt><trkpt lat="43.05845190753132" lon="10.725744803275102"><ele>50.0</ele><time>2026-03-22T09:37:17Z</time></trkpt><trkpt lat="43.058538644190556" lon="10.725857912399546"><ele>50.0</ele><time>2026-03-22T09:37:18Z</time></trkpt><trkpt lat="43.05863604802813" lon="10.725947843021167"><ele>50.0</ele><time>2026-03-22T09:37:19Z</time></trkpt><trkpt lat="43.05873116406578" lon="10.726068164674347"><ele>49.5</ele><time>2026-03-22T09:37:20Z</time></trkpt><trkpt lat="43.058835220841914" lon="10.726195273537153"><ele>49.0</ele><time>2026-03-22T09:37:21Z</time></trkpt><trkpt lat="43.058947825268596" lon="10.726334348226567"><ele>48.5</ele><time>2026-03-22T09:37:22Z</time></trkpt><trkpt lat="43.059052540757236" lon="10.726474387266586"><ele>48.0</ele><time>2026-03-22T09:37:23Z</time></trkpt><trkpt lat="43.05915785764732" lon="10.726610315745786"><ele>48.0</ele><time>2026-03-22T09:37:24Z</time></trkpt><trkpt lat="43.05925943219598" lon="10.72674314085731"><ele>48.0</ele><time>2026-03-22T09:37:25Z</time></trkpt><trkpt lat="43.05936682032076" lon="10.72688285069981"><ele>48.0</ele><time>2026-03-22T09:37:26Z</time></trkpt><trkpt lat="43.05946810141287" lon="10.7270122502882"><ele>48.0</ele><time>2026-03-22T09:37:27Z</time></trkpt><trkpt lat="43.05957017867963" lon="10.727138420036287"><ele>48.0</ele><time>2026-03-22T09:37:28Z</time></trkpt><trkpt lat="43.05966814276923" lon="10.727264540468253"><ele>48.0</ele><time>2026-03-22T09:37:29Z</time></trkpt><trkpt lat="43.05976004432217" lon="10.727412702623434"><ele>48.0</ele><time>2026-03-22T09:37:30Z</time></trkpt><trkpt lat="43.059872654319044" lon="10.727532538615508"><ele>48.0</ele><time>2026-03-22T09:37:31Z</time></trkpt><trkpt lat="43.05997467441287" lon="10.727666409424916"><ele>48.0</ele><time>2026-03-22T09:37:32Z</time></trkpt><trkpt lat="43.06007891404547" lon="10.727796516224396"><ele>48.0</ele><time>2026-03-22T09:37:33Z</time></trkpt><trkpt lat="43.06016852355814" lon="10.727941979178585"><ele>48.0</ele><time>2026-03-22T09:37:34Z</time></trkpt><trkpt lat="43.06026697889131" lon="10.728070687016137"><ele>48.0</ele><time>2026-03-22T09:37:35Z</time></trkpt><trkpt lat="43.060367074163636" lon="10.728201538649872"><ele>48.0</ele><time>2026-03-22T09:37:36Z</time></trkpt><trkpt lat="43.060480712402594" lon="10.728316157344493"><ele>48.0</ele><time>2026-03-22T09:37:37Z</time></trkpt><trkpt lat="43.06056452638609" lon="10.728451424884957"><ele>48.0</ele><time>2026-03-22T09:37:38Z</time></trkpt><trkpt lat="43.06066022122686" lon="10.728556511836638"><ele>48.0</ele><time>2026-03-22T09:37:38.999Z</time></trkpt><trkpt lat="43.060757225210274" lon="10.728668499522804"><ele>48.25</ele><time>2026-03-22T09:37:39.999Z</time></trkpt><trkpt lat="43.060838561680285" lon="10.72880470334394"><ele>48.5</ele><time>2026-03-22T09:37:40.999Z</time></trkpt><trkpt lat="43.06093478438648" lon="10.728932445403856"><ele>48.75</ele><time>2026-03-22T09:37:41.999Z</time></trkpt><trkpt lat="43.06103745817851" lon="10.72905062662013"><ele>49.0</ele><time>2026-03-22T09:37:42.999Z</time></trkpt><trkpt lat="43.061135705669486" lon="10.729175013517548"><ele>49.0</ele><time>2026-03-22T09:37:43.999Z</time></trkpt><trkpt lat="43.06123289110701" lon="10.729303053417057"><ele>49.0</ele><time>2026-03-22T09:37:45Z</time></trkpt><trkpt lat="43.06133227619958" lon="10.729426578451362"><ele>49.0</ele><time>2026-03-22T09:37:46Z</time></trkpt><trkpt lat="43.06143068106083" lon="10.729554208079422"><ele>49.0</ele><time>2026-03-22T09:37:47Z</time></trkpt><trkpt lat="43.06151989652593" lon="10.729696409858287"><ele>48.75</ele><time>2026-03-22T09:37:48Z</time></trkpt><trkpt lat="43.06161971285417" lon="10.729824917939798"><ele>48.5</ele><time>2026-03-22T09:37:49Z</time></trkpt><trkpt lat="43.061728649839374" lon="10.729932282161696"><ele>48.25</ele><time>2026-03-22T09:37:50Z</time></trkpt><trkpt lat="43.06182096888722" lon="10.730059104289982"><ele>48.0</ele><time>2026-03-22T09:37:51Z</time></trkpt><trkpt lat="43.06191876220901" lon="10.730182983377986"><ele>48.5</ele><time>2026-03-22T09:37:52Z</time></trkpt><trkpt lat="43.06201910866431" lon="10.730304406760842"><ele>49.0</ele><time>2026-03-22T09:37:53Z</time></trkpt><trkpt lat="43.062106809957385" lon="10.73044642008187"><ele>49.5</ele><time>2026-03-22T09:37:54Z</time></trkpt><trkpt lat="43.06221534025461" lon="10.730556199555863"><ele>50.0</ele><time>2026-03-22T09:37:55Z</time></trkpt><trkpt lat="43.062313550280486" lon="10.73069664320385"><ele>50.0</ele><time>2026-03-22T09:37:56Z</time></trkpt><trkpt lat="43.06240886896042" lon="10.730828579163768"><ele>50.0</ele><time>2026-03-22T09:37:57Z</time></trkpt><trkpt lat="43.06250696354339" lon="10.73094976085687"><ele>50.0</ele><time>2026-03-22T09:37:58Z</time></trkpt><trkpt lat="43.06260370322189" lon="10.731066141484025"><ele>50.0</ele><time>2026-03-22T09:37:59Z</time></trkpt><trkpt lat="43.0627007267351" lon="10.73118965769273"><ele>50.5</ele><time>2026-03-22T09:38:00Z</time></trkpt><trkpt lat="43.062794463968224" lon="10.731314311134142"><ele>51.0</ele><time>2026-03-22T09:38:01Z</time></trkpt><trkpt lat="43.06289212361478" lon="10.731435575918313"><ele>51.5</ele><time>2026-03-22T09:38:02Z</time></trkpt><trkpt lat="43.06297106808967" lon="10.731570444042887"><ele>52.0</ele><time>2026-03-22T09:38:03Z</time></trkpt><trkpt lat="43.063066070449956" lon="10.731695013187753"><ele>52.0</ele><time>2026-03-22T09:38:04Z</time></trkpt><trkpt lat="43.06315543393349" lon="10.731812188343618"><ele>52.0</ele><time>2026-03-22T09:38:05Z</time></trkpt><trkpt lat="43.06324527973452" lon="10.731919977292282"><ele>52.0</ele><time>2026-03-22T09:38:06Z</time></trkpt><trkpt lat="43.063411396965414" lon="10.732135178553024"><ele>52.25</ele><time>2026-03-22T09:38:08Z</time></trkpt><trkpt lat="43.06350089849801" lon="10.732241167100932"><ele>52.5</ele><time>2026-03-22T09:38:09Z</time></trkpt><trkpt lat="43.0635971718677" lon="10.732349824843789"><ele>52.75</ele><time>2026-03-22T09:38:10Z</time></trkpt><trkpt lat="43.06368584326347" lon="10.73246714392293"><ele>53.0</ele><time>2026-03-22T09:38:11Z</time></trkpt><trkpt lat="43.063777450324466" lon="10.73259269293194"><ele>53.0</ele><time>2026-03-22T09:38:12Z</time></trkpt><trkpt lat="43.06387618488665" lon="10.732717401798281"><ele>53.0</ele><time>2026-03-22T09:38:13Z</time></trkpt><trkpt lat="43.063971450346415" lon="10.732849635174025"><ele>53.0</ele><time>2026-03-22T09:38:14Z</time></trkpt><trkpt lat="43.06407057174283" lon="10.73298309196189"><ele>53.0</ele><time>2026-03-22T09:38:15Z</time></trkpt><trkpt lat="43.0641669407781" lon="10.73310956865316"><ele>52.5</ele><time>2026-03-22T09:38:16Z</time></trkpt><trkpt lat="43.064264906718414" lon="10.733246482604013"><ele>52.0</ele><time>2026-03-22T09:38:17Z</time></trkpt><trkpt lat="43.064359093370186" lon="10.733385448841558"><ele>51.5</ele><time>2026-03-22T09:38:18Z</time></trkpt><trkpt lat="43.06445915548856" lon="10.733520060773118"><ele>51.0</ele><time>2026-03-22T09:38:19Z</time></trkpt><trkpt lat="43.06456252704974" lon="10.733663159766685"><ele>51.0</ele><time>2026-03-22T09:38:20Z</time></trkpt><trkpt lat="43.06466320827841" lon="10.733809527141007"><ele>51.0</ele><time>2026-03-22T09:38:21Z</time></trkpt><trkpt lat="43.06476200943214" lon="10.733956310227466"><ele>51.0</ele><time>2026-03-22T09:38:22Z</time></trkpt><trkpt lat="43.06484686622844" lon="10.734116713324301"><ele>51.0</ele><time>2026-03-22T09:38:23Z</time></trkpt><trkpt lat="43.06494146283698" lon="10.734263974186605"><ele>51.25</ele><time>2026-03-22T09:38:24Z</time></trkpt><trkpt lat="43.065035910984825" lon="10.73441714622511"><ele>51.5</ele><time>2026-03-22T09:38:25Z</time></trkpt><trkpt lat="43.06512449874451" lon="10.734560814149438"><ele>51.75</ele><time>2026-03-22T09:38:26Z</time></trkpt><trkpt lat="43.065218915507984" lon="10.734713935296066"><ele>52.0</ele><time>2026-03-22T09:38:27Z</time></trkpt><trkpt lat="43.0653186373754" lon="10.734879865435273"><ele>52.0</ele><time>2026-03-22T09:38:28Z</time></trkpt><trkpt lat="43.06542066796758" lon="10.73505354657762"><ele>52.0</ele><time>2026-03-22T09:38:29Z</time></trkpt><trkpt lat="43.06552255898592" lon="10.735232506423054"><ele>52.0</ele><time>2026-03-22T09:38:30Z</time></trkpt><trkpt lat="43.065622347951745" lon="10.735414404065594"><ele>52.33333333333333</ele><time>2026-03-22T09:38:31Z</time></trkpt><trkpt lat="43.065719017596415" lon="10.735595460449936"><ele>52.66666666666667</ele><time>2026-03-22T09:38:32Z</time></trkpt><trkpt lat="43.06581321219699" lon="10.735775309165055"><ele>53.0</ele><time>2026-03-22T09:38:33Z</time></trkpt><trkpt lat="43.06590752530902" lon="10.735955811548568"><ele>53.0</ele><time>2026-03-22T09:38:34Z</time></trkpt><trkpt lat="43.066000880160864" lon="10.736134479977967"><ele>53.0</ele><time>2026-03-22T09:38:35Z</time></trkpt><trkpt lat="43.06609286503508" lon="10.736314222466696"><ele>53.0</ele><time>2026-03-22T09:38:36Z</time></trkpt><trkpt lat="43.06619608204727" lon="10.736483079908302"><ele>53.0</ele><time>2026-03-22T09:38:37Z</time></trkpt><trkpt lat="43.06628231830771" lon="10.736659213318463"><ele>53.0</ele><time>2026-03-22T09:38:38Z</time></trkpt><trkpt lat="43.066364950188955" lon="10.736837391985603"><ele>53.0</ele><time>2026-03-22T09:38:39Z</time></trkpt><trkpt lat="43.06644267288887" lon="10.73702126179261"><ele>53.0</ele><time>2026-03-22T09:38:40Z</time></trkpt><trkpt lat="43.066515398870884" lon="10.737203539740362"><ele>53.0</ele><time>2026-03-22T09:38:41Z</time></trkpt><trkpt lat="43.0665913651286" lon="10.73738742780921"><ele>53.0</ele><time>2026-03-22T09:38:42Z</time></trkpt><trkpt lat="43.06666879962561" lon="10.737566756918213"><ele>54.0</ele><time>2026-03-22T09:38:43Z</time></trkpt><trkpt lat="43.06674900120113" lon="10.737742643701965"><ele>55.0</ele><time>2026-03-22T09:38:44Z</time></trkpt><trkpt lat="43.06682588845734" lon="10.737919918971775"><ele>56.0</ele><time>2026-03-22T09:38:45Z</time></trkpt><trkpt lat="43.066901517311514" lon="10.738100186453645"><ele>56.0</ele><time>2026-03-22T09:38:46Z</time></trkpt><trkpt lat="43.06697735664613" lon="10.738285330522205"><ele>56.0</ele><time>2026-03-22T09:38:47Z</time></trkpt><trkpt lat="43.06705632068023" lon="10.738460948539407"><ele>56.0</ele><time>2026-03-22T09:38:48Z</time></trkpt><trkpt lat="43.06712651745548" lon="10.738653621340315"><ele>55.333333333333336</ele><time>2026-03-22T09:38:49Z</time></trkpt><trkpt lat="43.067204150224015" lon="10.738837547813995"><ele>54.66666666666667</ele><time>2026-03-22T09:38:50Z</time></trkpt><trkpt lat="43.06728159502733" lon="10.739020979874143"><ele>54.0</ele><time>2026-03-22T09:38:51Z</time></trkpt><trkpt lat="43.067371129583506" lon="10.739198485498592"><ele>54.33333333333333</ele><time>2026-03-22T09:38:52Z</time></trkpt><trkpt lat="43.067448478781955" lon="10.739384691533115"><ele>54.666666666666664</ele><time>2026-03-22T09:38:53Z</time></trkpt><trkpt lat="43.06753046136948" lon="10.739573193230996"><ele>55.0</ele><time>2026-03-22T09:38:54Z</time></trkpt><trkpt lat="43.06760949138564" lon="10.739756617233816"><ele>55.0</ele><time>2026-03-22T09:38:55Z</time></trkpt><trkpt lat="43.06768715536368" lon="10.739940163970841"><ele>55.0</ele><time>2026-03-22T09:38:56Z</time></trkpt><trkpt lat="43.06776966289749" lon="10.740124005047234"><ele>55.0</ele><time>2026-03-22T09:38:57Z</time></trkpt><trkpt lat="43.06784593827869" lon="10.740303615526384"><ele>54.666666666666664</ele><time>2026-03-22T09:38:58Z</time></trkpt><trkpt lat="43.06792106651409" lon="10.740488468449136"><ele>54.33333333333333</ele><time>2026-03-22T09:38:59Z</time></trkpt><trkpt lat="43.06799827701652" lon="10.740671604020633"><ele>54.0</ele><time>2026-03-22T09:39:00Z</time></trkpt><trkpt lat="43.068077137972125" lon="10.7408542822631"><ele>54.0</ele><time>2026-03-22T09:39:01Z</time></trkpt><trkpt lat="43.06815647843199" lon="10.741038982388375"><ele>54.0</ele><time>2026-03-22T09:39:02Z</time></trkpt><trkpt lat="43.06823638507324" lon="10.741229246605082"><ele>54.0</ele><time>2026-03-22T09:39:03Z</time></trkpt><trkpt lat="43.06831512729149" lon="10.741420776378533"><ele>54.33333333333333</ele><time>2026-03-22T09:39:04Z</time></trkpt><trkpt lat="43.06839094864014" lon="10.741604352223844"><ele>54.666666666666664</ele><time>2026-03-22T09:39:05Z</time></trkpt><trkpt lat="43.068468688633544" lon="10.741783919944368"><ele>55.0</ele><time>2026-03-22T09:39:06Z</time></trkpt><trkpt lat="43.068541197585326" lon="10.741956238678526"><ele>55.33333333333333</ele><time>2026-03-22T09:39:07Z</time></trkpt><trkpt lat="43.06861964210066" lon="10.742133231791684"><ele>55.66666666666667</ele><time>2026-03-22T09:39:08Z</time></trkpt><trkpt lat="43.06869427636163" lon="10.742308712693971"><ele>56.0</ele><time>2026-03-22T09:39:09Z</time></trkpt><trkpt lat="43.06876967976049" lon="10.742486412661671"><ele>56.0</ele><time>2026-03-22T09:39:10Z</time></trkpt><trkpt lat="43.06884129394379" lon="10.742659933182608"><ele>56.0</ele><time>2026-03-22T09:39:11Z</time></trkpt><trkpt lat="43.068917724960436" lon="10.742838894148269"><ele>56.0</ele><time>2026-03-22T09:39:12Z</time></trkpt><trkpt lat="43.06899528672107" lon="10.74301802688384"><ele>56.0</ele><time>2026-03-22T09:39:13Z</time></trkpt><trkpt lat="43.06905823958808" lon="10.743197788132226"><ele>56.5</ele><time>2026-03-22T09:39:14Z</time></trkpt><trkpt lat="43.069138130094814" lon="10.743360859325657"><ele>57.0</ele><time>2026-03-22T09:39:15Z</time></trkpt><trkpt lat="43.069212949909016" lon="10.743532985322522"><ele>57.5</ele><time>2026-03-22T09:39:16Z</time></trkpt><trkpt lat="43.06928940116385" lon="10.743710070912638"><ele>58.0</ele><time>2026-03-22T09:39:17Z</time></trkpt><trkpt lat="43.06937073886801" lon="10.743888632053098"><ele>58.33333333333333</ele><time>2026-03-22T09:39:18Z</time></trkpt><trkpt lat="43.069434020826996" lon="10.744079399882448"><ele>58.66666666666667</ele><time>2026-03-22T09:39:19Z</time></trkpt><trkpt lat="43.069511535724956" lon="10.744262372459808"><ele>59.0</ele><time>2026-03-22T09:39:20Z</time></trkpt><trkpt lat="43.069591060019334" lon="10.744445411891807"><ele>59.0</ele><time>2026-03-22T09:39:21Z</time></trkpt><trkpt lat="43.06967125348721" lon="10.744629634672163"><ele>59.0</ele><time>2026-03-22T09:39:22Z</time></trkpt><trkpt lat="43.069750446020294" lon="10.74481732881188"><ele>59.0</ele><time>2026-03-22T09:39:23Z</time></trkpt><trkpt lat="43.069827234611644" lon="10.744999675731883"><ele>59.0</ele><time>2026-03-22T09:39:24Z</time></trkpt><trkpt lat="43.069914466618954" lon="10.745168646911173"><ele>59.0</ele><time>2026-03-22T09:39:25Z</time></trkpt><trkpt lat="43.069979571662714" lon="10.7453614246671"><ele>59.0</ele><time>2026-03-22T09:39:26Z</time></trkpt><trkpt lat="43.07005455476507" lon="10.745539274602569"><ele>59.0</ele><time>2026-03-22T09:39:27Z</time></trkpt><trkpt lat="43.07014276695186" lon="10.745705567324844"><ele>59.0</ele><time>2026-03-22T09:39:28Z</time></trkpt><trkpt lat="43.070218084161" lon="10.745882910298118"><ele>59.0</ele><time>2026-03-22T09:39:29Z</time></trkpt><trkpt lat="43.07029256688234" lon="10.746059911933177"><ele>59.0</ele><time>2026-03-22T09:39:30Z</time></trkpt><trkpt lat="43.07036262421564" lon="10.746242957259097"><ele>59.5</ele><time>2026-03-22T09:39:31Z</time></trkpt><trkpt lat="43.070427450826465" lon="10.746425386253515"><ele>60.0</ele><time>2026-03-22T09:39:32Z</time></trkpt><trkpt lat="43.07050110064216" lon="10.746602779639925"><ele>60.5</ele><time>2026-03-22T09:39:33Z</time></trkpt><trkpt lat="43.0705882232275" lon="10.746771155407043"><ele>61.0</ele><time>2026-03-22T09:39:34Z</time></trkpt><trkpt lat="43.07066061251325" lon="10.746953480634968"><ele>61.0</ele><time>2026-03-22T09:39:35Z</time></trkpt><trkpt lat="43.070736604675034" lon="10.74712542448022"><ele>61.0</ele><time>2026-03-22T09:39:36Z</time></trkpt><trkpt lat="43.0708106449599" lon="10.747298746760157"><ele>61.0</ele><time>2026-03-22T09:39:37Z</time></trkpt><trkpt lat="43.07088562481885" lon="10.747469268348429"><ele>61.0</ele><time>2026-03-22T09:39:38Z</time></trkpt><trkpt lat="43.07096080478291" lon="10.747642870561489"><ele>61.25</ele><time>2026-03-22T09:39:39Z</time></trkpt><trkpt lat="43.071036403053256" lon="10.747822235499617"><ele>61.5</ele><time>2026-03-22T09:39:40Z</time></trkpt><trkpt lat="43.071108982596975" lon="10.747999905712337"><ele>61.75</ele><time>2026-03-22T09:39:41Z</time></trkpt><trkpt lat="43.07118194929028" lon="10.74817731230459"><ele>62.0</ele><time>2026-03-22T09:39:42Z</time></trkpt><trkpt lat="43.07125673284381" lon="10.748351869136824"><ele>62.0</ele><time>2026-03-22T09:39:42.999Z</time></trkpt><trkpt lat="43.07133071164444" lon="10.748520825683103"><ele>62.0</ele><time>2026-03-22T09:39:43.999Z</time></trkpt><trkpt lat="43.07139640431091" lon="10.748683377200017"><ele>62.0</ele><time>2026-03-22T09:39:44.999Z</time></trkpt><trkpt lat="43.071466440288056" lon="10.748846328491164"><ele>62.0</ele><time>2026-03-22T09:39:45.999Z</time></trkpt><trkpt lat="43.071546445717765" lon="10.749011731087515"><ele>62.5</ele><time>2026-03-22T09:39:46.999Z</time></trkpt><trkpt lat="43.071614808129056" lon="10.749180149243292"><ele>63.0</ele><time>2026-03-22T09:39:47.999Z</time></trkpt><trkpt lat="43.07168401362588" lon="10.749338251603287"><ele>63.5</ele><time>2026-03-22T09:39:48.999Z</time></trkpt><trkpt lat="43.071754010653066" lon="10.749503430245579"><ele>64.0</ele><time>2026-03-22T09:39:49.999Z</time></trkpt><trkpt lat="43.07183549502854" lon="10.749663063244281"><ele>64.0</ele><time>2026-03-22T09:39:51Z</time></trkpt><trkpt lat="43.071929589114994" lon="10.749825574501878"><ele>64.0</ele><time>2026-03-22T09:39:52Z</time></trkpt><trkpt lat="43.07202525766926" lon="10.74997872480051"><ele>64.0</ele><time>2026-03-22T09:39:53Z</time></trkpt><trkpt lat="43.072121461628974" lon="10.750129004514699"><ele>64.0</ele><time>2026-03-22T09:39:54Z</time></trkpt><trkpt lat="43.07221787420669" lon="10.75026706551439"><ele>64.0</ele><time>2026-03-22T09:39:55Z</time></trkpt><trkpt lat="43.07231446853944" lon="10.75039829628552"><ele>64.0</ele><time>2026-03-22T09:39:56Z</time></trkpt><trkpt lat="43.07241919785055" lon="10.750521671869938"><ele>64.0</ele><time>2026-03-22T09:39:57Z</time></trkpt><trkpt lat="43.07251684716999" lon="10.750636198117665"><ele>64.0</ele><time>2026-03-22T09:39:58Z</time></trkpt><trkpt lat="43.072603313208184" lon="10.750737815360194"><ele>63.800000000000004</ele><time>2026-03-22T09:39:59Z</time></trkpt><trkpt lat="43.07268612450681" lon="10.750832175978537"><ele>63.60000000000001</ele><time>2026-03-22T09:40:00Z</time></trkpt><trkpt lat="43.07274831902628" lon="10.750939909797719"><ele>63.4</ele><time>2026-03-22T09:40:01Z</time></trkpt><trkpt lat="43.0728121297025" lon="10.751040346259787"><ele>63.2</ele><time>2026-03-22T09:40:02Z</time></trkpt><trkpt lat="43.07295473782558" lon="10.751049386595326"><ele>63.0</ele><time>2026-03-22T09:40:03Z</time></trkpt><trkpt lat="43.07304248746319" lon="10.75112997202456"><ele>63.2</ele><time>2026-03-22T09:40:04Z</time></trkpt><trkpt lat="43.0731495171895" lon="10.751186919301162"><ele>63.4</ele><time>2026-03-22T09:40:05Z</time></trkpt><trkpt lat="43.07324818197271" lon="10.751262027743689"><ele>63.60000000000001</ele><time>2026-03-22T09:40:06Z</time></trkpt><trkpt lat="43.07334828619054" lon="10.751319679843759"><ele>63.800000000000004</ele><time>2026-03-22T09:40:07Z</time></trkpt><trkpt lat="43.073439353523526" lon="10.751370745495487"><ele>64.0</ele><time>2026-03-22T09:40:08Z</time></trkpt><trkpt lat="43.07353294190759" lon="10.751415887862166"><ele>64.0</ele><time>2026-03-22T09:40:09Z</time></trkpt><trkpt lat="43.073628481836735" lon="10.751464328297596"><ele>64.0</ele><time>2026-03-22T09:40:10Z</time></trkpt><trkpt lat="43.073727289958455" lon="10.751509371417708"><ele>64.0</ele><time>2026-03-22T09:40:11Z</time></trkpt><trkpt lat="43.073817331162985" lon="10.751544375265377"><ele>64.0</ele><time>2026-03-22T09:40:12Z</time></trkpt><trkpt lat="43.07390245800947" lon="10.751604298194078"><ele>64.0</ele><time>2026-03-22T09:40:13Z</time></trkpt><trkpt lat="43.07398990833366" lon="10.751640505722541"><ele>63.99999999999999</ele><time>2026-03-22T09:40:14Z</time></trkpt><trkpt lat="43.07406731744983" lon="10.75171703801743"><ele>64.0</ele><time>2026-03-22T09:40:15Z</time></trkpt><trkpt lat="43.074154696415434" lon="10.751751313754312"><ele>64.0</ele><time>2026-03-22T09:40:16Z</time></trkpt><trkpt lat="43.07423703640417" lon="10.751775540911648"><ele>64.0</ele><time>2026-03-22T09:40:17Z</time></trkpt><trkpt lat="43.07431985168679" lon="10.75179160371643"><ele>63.99999999999999</ele><time>2026-03-22T09:40:18Z</time></trkpt><trkpt lat="43.07440116225417" lon="10.751815202842819"><ele>64.0</ele><time>2026-03-22T09:40:19Z</time></trkpt><trkpt lat="43.07447033028311" lon="10.75187233037731"><ele>64.0</ele><time>2026-03-22T09:40:20Z</time></trkpt><trkpt lat="43.07452934623466" lon="10.751924724054703"><ele>64.0</ele><time>2026-03-22T09:40:21Z</time></trkpt><trkpt lat="43.074577176084205" lon="10.751999655940237"><ele>64.0</ele><time>2026-03-22T09:40:22Z</time></trkpt><trkpt lat="43.074700091682075" lon="10.752061333318135"><ele>64.0</ele><time>2026-03-22T09:40:24Z</time></trkpt><trkpt lat="43.07476236839296" lon="10.752027773464913"><ele>64.0</ele><time>2026-03-22T09:40:25Z</time></trkpt><trkpt lat="43.0748693410351" lon="10.751990235550272"><ele>63.800000000000004</ele><time>2026-03-22T09:40:27Z</time></trkpt><trkpt lat="43.07499925559405" lon="10.75195320087063"><ele>63.60000000000001</ele><time>2026-03-22T09:40:29Z</time></trkpt><trkpt lat="43.07508626658369" lon="10.751945418456714"><ele>63.4</ele><time>2026-03-22T09:40:30Z</time></trkpt><trkpt lat="43.07517032783345" lon="10.751923510746892"><ele>63.2</ele><time>2026-03-22T09:40:31Z</time></trkpt><trkpt lat="43.075274036957936" lon="10.75192837329187"><ele>63.0</ele><time>2026-03-22T09:40:32Z</time></trkpt><trkpt lat="43.075352350165375" lon="10.751926989914118"><ele>63.0</ele><time>2026-03-22T09:40:33Z</time></trkpt><trkpt lat="43.075418671600495" lon="10.751951358859696"><ele>63.0</ele><time>2026-03-22T09:40:34Z</time></trkpt><trkpt lat="43.07550469356176" lon="10.751967820581276"><ele>63.0</ele><time>2026-03-22T09:40:35Z</time></trkpt><trkpt lat="43.075571216696616" lon="10.751984769261352"><ele>63.0</ele><time>2026-03-22T09:40:36Z</time></trkpt><trkpt lat="43.07568049375376" lon="10.752028161463793"><ele>63.0</ele><time>2026-03-22T09:40:38Z</time></trkpt><trkpt lat="43.07574251866739" lon="10.752056408968894"><ele>63.0</ele><time>2026-03-22T09:40:39Z</time></trkpt><trkpt lat="43.07581600163491" lon="10.752091471934966"><ele>63.333333333333336</ele><time>2026-03-22T09:40:40Z</time></trkpt><trkpt lat="43.07589568331131" lon="10.752132100281159"><ele>63.66666666666667</ele><time>2026-03-22T09:40:41Z</time></trkpt><trkpt lat="43.07596701428782" lon="10.752155034919413"><ele>64.0</ele><time>2026-03-22T09:40:42Z</time></trkpt><trkpt lat="43.076037172305995" lon="10.752216543507345"><ele>64.33333333333334</ele><time>2026-03-22T09:40:43Z</time></trkpt><trkpt lat="43.07611987338486" lon="10.752274729058403"><ele>64.66666666666667</ele><time>2026-03-22T09:40:44Z</time></trkpt><trkpt lat="43.07620279535863" lon="10.752319627037858"><ele>65.0</ele><time>2026-03-22T09:40:45Z</time></trkpt><trkpt lat="43.076274630037084" lon="10.752402170374685"><ele>65.0</ele><time>2026-03-22T09:40:46Z</time></trkpt><trkpt lat="43.07636136339872" lon="10.752475021638313"><ele>65.0</ele><time>2026-03-22T09:40:47Z</time></trkpt><trkpt lat="43.076449387972936" lon="10.752554008854021"><ele>65.0</ele><time>2026-03-22T09:40:48Z</time></trkpt><trkpt lat="43.076529515345165" lon="10.752631306571587"><ele>65.0</ele><time>2026-03-22T09:40:49Z</time></trkpt><trkpt lat="43.076606332275595" lon="10.752704985231835"><ele>65.0</ele><time>2026-03-22T09:40:50Z</time></trkpt><trkpt lat="43.07668629417792" lon="10.752787019586343"><ele>66.0</ele><time>2026-03-22T09:40:51Z</time></trkpt><trkpt lat="43.07676296446544" lon="10.75287484638874"><ele>67.0</ele><time>2026-03-22T09:40:52Z</time></trkpt><trkpt lat="43.07682929463731" lon="10.752963515382904"><ele>68.0</ele><time>2026-03-22T09:40:53Z</time></trkpt><trkpt lat="43.076906183879125" lon="10.75307084603888"><ele>69.0</ele><time>2026-03-22T09:40:54Z</time></trkpt><trkpt lat="43.07697917614451" lon="10.753175946844506"><ele>70.0</ele><time>2026-03-22T09:40:55Z</time></trkpt><trkpt lat="43.07705071179015" lon="10.7532845418347"><ele>70.0</ele><time>2026-03-22T09:40:56Z</time></trkpt><trkpt lat="43.077133676134316" lon="10.753382557312419"><ele>70.0</ele><time>2026-03-22T09:40:57Z</time></trkpt><trkpt lat="43.07719146696305" lon="10.75351955534638"><ele>70.0</ele><time>2026-03-22T09:40:58Z</time></trkpt><trkpt lat="43.07725572829699" lon="10.753646055332158"><ele>70.0</ele><time>2026-03-22T09:40:59Z</time></trkpt><trkpt lat="43.07731959141066" lon="10.7537716009204"><ele>70.0</ele><time>2026-03-22T09:41:00Z</time></trkpt><trkpt lat="43.077384573322185" lon="10.753902841086814"><ele>69.6</ele><time>2026-03-22T09:41:01Z</time></trkpt><trkpt lat="43.07744522386911" lon="10.754025333257538"><ele>69.2</ele><time>2026-03-22T09:41:02Z</time></trkpt><trkpt lat="43.07751688159846" lon="10.754130954465511"><ele>68.8</ele><time>2026-03-22T09:41:03Z</time></trkpt><trkpt lat="43.077567245617864" lon="10.754233903777585"><ele>68.4</ele><time>2026-03-22T09:41:04Z</time></trkpt><trkpt lat="43.07763262306376" lon="10.75434844639775"><ele>68.0</ele><time>2026-03-22T09:41:05Z</time></trkpt><trkpt lat="43.07768473698154" lon="10.754472828151336"><ele>67.8</ele><time>2026-03-22T09:41:06Z</time></trkpt><trkpt lat="43.07775480300846" lon="10.754570832200974"><ele>67.6</ele><time>2026-03-22T09:41:07Z</time></trkpt><trkpt lat="43.077807836850575" lon="10.754710863955625"><ele>67.4</ele><time>2026-03-22T09:41:08Z</time></trkpt><trkpt lat="43.07786898899599" lon="10.7548305930047"><ele>67.2</ele><time>2026-03-22T09:41:09Z</time></trkpt><trkpt lat="43.07792983485767" lon="10.754949722848908"><ele>67.0</ele><time>2026-03-22T09:41:10Z</time></trkpt><trkpt lat="43.07800915901368" lon="10.755064880946804"><ele>67.0</ele><time>2026-03-22T09:41:11Z</time></trkpt><trkpt lat="43.07807336980009" lon="10.755193192517218"><ele>67.0</ele><time>2026-03-22T09:41:12Z</time></trkpt><trkpt lat="43.07812827168953" lon="10.755326681463364"><ele>67.0</ele><time>2026-03-22T09:41:13Z</time></trkpt><trkpt lat="43.07820355907468" lon="10.755437553673126"><ele>67.0</ele><time>2026-03-22T09:41:14Z</time></trkpt><trkpt lat="43.078274886497745" lon="10.755553314122498"><ele>67.0</ele><time>2026-03-22T09:41:15Z</time></trkpt><trkpt lat="43.078349890143855" lon="10.755668490299671"><ele>67.6</ele><time>2026-03-22T09:41:16Z</time></trkpt><trkpt lat="43.07840936467878" lon="10.75579241572458"><ele>68.2</ele><time>2026-03-22T09:41:17Z</time></trkpt><trkpt lat="43.07847729408657" lon="10.755907954225627"><ele>68.8</ele><time>2026-03-22T09:41:18Z</time></trkpt><trkpt lat="43.07854243247699" lon="10.756017889621582"><ele>69.4</ele><time>2026-03-22T09:41:19Z</time></trkpt><trkpt lat="43.07861935429398" lon="10.756116900841397"><ele>70.0</ele><time>2026-03-22T09:41:20Z</time></trkpt><trkpt lat="43.07867925251125" lon="10.756242875492804"><ele>70.0</ele><time>2026-03-22T09:41:21Z</time></trkpt><trkpt lat="43.07876038362113" lon="10.756338580997408"><ele>70.0</ele><time>2026-03-22T09:41:22Z</time></trkpt><trkpt lat="43.078829459814216" lon="10.756453786623375"><ele>70.0</ele><time>2026-03-22T09:41:23Z</time></trkpt><trkpt lat="43.07889315147989" lon="10.756575027747756"><ele>70.0</ele><time>2026-03-22T09:41:24Z</time></trkpt><trkpt lat="43.078977161538226" lon="10.756675286495648"><ele>70.0</ele><time>2026-03-22T09:41:25Z</time></trkpt><trkpt lat="43.07905742545217" lon="10.756777573724667"><ele>70.0</ele><time>2026-03-22T09:41:26Z</time></trkpt><trkpt lat="43.079134012985556" lon="10.756881518835637"><ele>70.0</ele><time>2026-03-22T09:41:27Z</time></trkpt><trkpt lat="43.079215436454156" lon="10.756984286340513"><ele>70.0</ele><time>2026-03-22T09:41:28Z</time></trkpt><trkpt lat="43.07930104575187" lon="10.75707902298295"><ele>70.0</ele><time>2026-03-22T09:41:29Z</time></trkpt><trkpt lat="43.079389103776194" lon="10.757173535519863"><ele>70.0</ele><time>2026-03-22T09:41:30Z</time></trkpt><trkpt lat="43.079476483030476" lon="10.757270294928718"><ele>70.0</ele><time>2026-03-22T09:41:31Z</time></trkpt><trkpt lat="43.079566527744" lon="10.757362036914131"><ele>70.0</ele><time>2026-03-22T09:41:32Z</time></trkpt><trkpt lat="43.079654588469225" lon="10.757447634596772"><ele>70.0</ele><time>2026-03-22T09:41:33Z</time></trkpt><trkpt lat="43.07974664818719" lon="10.75754121604781"><ele>70.0</ele><time>2026-03-22T09:41:34Z</time></trkpt><trkpt lat="43.07984400501714" lon="10.75762669699223"><ele>70.5</ele><time>2026-03-22T09:41:35Z</time></trkpt><trkpt lat="43.079941757024926" lon="10.757718312197365"><ele>71.0</ele><time>2026-03-22T09:41:36Z</time></trkpt><trkpt lat="43.08003997921738" lon="10.757801911643721"><ele>71.5</ele><time>2026-03-22T09:41:37Z</time></trkpt><trkpt lat="43.08013414457621" lon="10.757885104996621"><ele>72.0</ele><time>2026-03-22T09:41:38Z</time></trkpt><trkpt lat="43.08023092502358" lon="10.757967203402766"><ele>72.0</ele><time>2026-03-22T09:41:39Z</time></trkpt><trkpt lat="43.08032770680683" lon="10.758049247367875"><ele>72.0</ele><time>2026-03-22T09:41:40Z</time></trkpt><trkpt lat="43.08042447889609" lon="10.758129971027351"><ele>72.0</ele><time>2026-03-22T09:41:41Z</time></trkpt><trkpt lat="43.08050659723664" lon="10.758226997616037"><ele>72.0</ele><time>2026-03-22T09:41:42Z</time></trkpt><trkpt lat="43.08060841030025" lon="10.758288649232762"><ele>72.0</ele><time>2026-03-22T09:41:43Z</time></trkpt><trkpt lat="43.08069393521723" lon="10.758389924681305"><ele>72.0</ele><time>2026-03-22T09:41:44Z</time></trkpt><trkpt lat="43.08078686385628" lon="10.758470744334677"><ele>72.0</ele><time>2026-03-22T09:41:45Z</time></trkpt><trkpt lat="43.08088895536046" lon="10.758532597223791"><ele>72.0</ele><time>2026-03-22T09:41:46Z</time></trkpt><trkpt lat="43.080975262539695" lon="10.758615704964614"><ele>72.0</ele><time>2026-03-22T09:41:47Z</time></trkpt><trkpt lat="43.08106004150948" lon="10.758693981070488"><ele>72.0</ele><time>2026-03-22T09:41:48Z</time></trkpt><trkpt lat="43.08115321156872" lon="10.758769631975774"><ele>72.0</ele><time>2026-03-22T09:41:49Z</time></trkpt><trkpt lat="43.08124805978318" lon="10.758845506489495"><ele>72.0</ele><time>2026-03-22T09:41:50Z</time></trkpt><trkpt lat="43.08133332035014" lon="10.758941028456046"><ele>72.0</ele><time>2026-03-22T09:41:51Z</time></trkpt><trkpt lat="43.081427873467135" lon="10.759028720538266"><ele>72.0</ele><time>2026-03-22T09:41:52Z</time></trkpt><trkpt lat="43.08151833639535" lon="10.759112868463804"><ele>72.0</ele><time>2026-03-22T09:41:52.999Z</time></trkpt><trkpt lat="43.081621491328804" lon="10.759182262010908"><ele>72.0</ele><time>2026-03-22T09:41:53.999Z</time></trkpt><trkpt lat="43.08171698090955" lon="10.759270223219898"><ele>72.0</ele><time>2026-03-22T09:41:54.999Z</time></trkpt><trkpt lat="43.08181747390737" lon="10.75935404556477"><ele>72.0</ele><time>2026-03-22T09:41:55.999Z</time></trkpt><trkpt lat="43.08191374426895" lon="10.759435255196811"><ele>72.0</ele><time>2026-03-22T09:41:57Z</time></trkpt><trkpt lat="43.082015669650595" lon="10.759519314271333"><ele>72.0</ele><time>2026-03-22T09:41:58Z</time></trkpt><trkpt lat="43.08210474075462" lon="10.759598512594724"><ele>72.0</ele><time>2026-03-22T09:41:59Z</time></trkpt><trkpt lat="43.08219810117516" lon="10.759679414584301"><ele>72.0</ele><time>2026-03-22T09:42:00Z</time></trkpt><trkpt lat="43.08229743460193" lon="10.759760111935462"><ele>72.0</ele><time>2026-03-22T09:42:01Z</time></trkpt><trkpt lat="43.08237736341738" lon="10.759848151843457"><ele>72.0</ele><time>2026-03-22T09:42:02Z</time></trkpt><trkpt lat="43.08246823674887" lon="10.759904066080734"><ele>72.2</ele><time>2026-03-22T09:42:03Z</time></trkpt><trkpt lat="43.08255749046007" lon="10.759983718108943"><ele>72.4</ele><time>2026-03-22T09:42:04Z</time></trkpt><trkpt lat="43.08264130823689" lon="10.760078694955189"><ele>72.6</ele><time>2026-03-22T09:42:05Z</time></trkpt><trkpt lat="43.08272748019875" lon="10.760156016853506"><ele>72.8</ele><time>2026-03-22T09:42:06Z</time></trkpt><trkpt lat="43.082817016888" lon="10.760237338490649"><ele>73.0</ele><time>2026-03-22T09:42:07Z</time></trkpt><trkpt lat="43.08290667066995" lon="10.760321004765993"><ele>73.0</ele><time>2026-03-22T09:42:08Z</time></trkpt><trkpt lat="43.08300101763093" lon="10.760391270598943"><ele>73.0</ele><time>2026-03-22T09:42:09Z</time></trkpt><trkpt lat="43.08308971999811" lon="10.760472453760949"><ele>73.0</ele><time>2026-03-22T09:42:10Z</time></trkpt><trkpt lat="43.083176156195606" lon="10.760549344974605"><ele>73.0</ele><time>2026-03-22T09:42:11Z</time></trkpt><trkpt lat="43.08326744802315" lon="10.760636977446778"><ele>73.0</ele><time>2026-03-22T09:42:12Z</time></trkpt><trkpt lat="43.08336023275402" lon="10.760720273769726"><ele>73.6</ele><time>2026-03-22T09:42:13Z</time></trkpt><trkpt lat="43.083451783632704" lon="10.760804176185198"><ele>74.19999999999999</ele><time>2026-03-22T09:42:14Z</time></trkpt><trkpt lat="43.08354063966516" lon="10.760881947513008"><ele>74.8</ele><time>2026-03-22T09:42:15Z</time></trkpt><trkpt lat="43.08362517995651" lon="10.760977466924585"><ele>75.39999999999999</ele><time>2026-03-22T09:42:16Z</time></trkpt><trkpt lat="43.08372881091501" lon="10.761044365485958"><ele>76.0</ele><time>2026-03-22T09:42:17Z</time></trkpt><trkpt lat="43.083813283288215" lon="10.761144512229311"><ele>76.0</ele><time>2026-03-22T09:42:18Z</time></trkpt><trkpt lat="43.083902673793105" lon="10.761222728782712"><ele>76.0</ele><time>2026-03-22T09:42:19Z</time></trkpt><trkpt lat="43.08399579496223" lon="10.761305295326254"><ele>76.0</ele><time>2026-03-22T09:42:20Z</time></trkpt><trkpt lat="43.08408530763186" lon="10.761387281484394"><ele>76.0</ele><time>2026-03-22T09:42:21Z</time></trkpt><trkpt lat="43.08417782119995" lon="10.761443881848136"><ele>76.0</ele><time>2026-03-22T09:42:22Z</time></trkpt><trkpt lat="43.08425359712927" lon="10.761531997513599"><ele>76.8</ele><time>2026-03-22T09:42:23Z</time></trkpt><trkpt lat="43.08433775930865" lon="10.761603831940239"><ele>77.6</ele><time>2026-03-22T09:42:24Z</time></trkpt><trkpt lat="43.08442944254117" lon="10.761652002652127"><ele>78.4</ele><time>2026-03-22T09:42:25Z</time></trkpt><trkpt lat="43.08449695079525" lon="10.76171315627169"><ele>79.2</ele><time>2026-03-22T09:42:26Z</time></trkpt><trkpt lat="43.08457293764669" lon="10.76177633325685"><ele>80.0</ele><time>2026-03-22T09:42:27Z</time></trkpt><trkpt lat="43.084651185571076" lon="10.761839557218998"><ele>80.0</ele><time>2026-03-22T09:42:28Z</time></trkpt><trkpt lat="43.084735462915184" lon="10.761890097479625"><ele>80.0</ele><time>2026-03-22T09:42:29Z</time></trkpt><trkpt lat="43.08481240855804" lon="10.761957121165565"><ele>80.0</ele><time>2026-03-22T09:42:30Z</time></trkpt><trkpt lat="43.084883715367845" lon="10.762021969693029"><ele>80.0</ele><time>2026-03-22T09:42:31Z</time></trkpt><trkpt lat="43.08495506403691" lon="10.762070791337385"><ele>80.0</ele><time>2026-03-22T09:42:32Z</time></trkpt><trkpt lat="43.08503596857995" lon="10.76212520340409"><ele>80.0</ele><time>2026-03-22T09:42:33Z</time></trkpt><trkpt lat="43.08509540490754" lon="10.762199271306178"><ele>80.0</ele><time>2026-03-22T09:42:34Z</time></trkpt><trkpt lat="43.085151686202074" lon="10.762262397355522"><ele>80.0</ele><time>2026-03-22T09:42:35Z</time></trkpt><trkpt lat="43.08521325693421" lon="10.762307168690494"><ele>80.0</ele><time>2026-03-22T09:42:36Z</time></trkpt><trkpt lat="43.08527387408594" lon="10.762368404811053"><ele>80.0</ele><time>2026-03-22T09:42:37Z</time></trkpt><trkpt lat="43.08532390006666" lon="10.76242647963621"><ele>80.0</ele><time>2026-03-22T09:42:38Z</time></trkpt><trkpt lat="43.08543712090839" lon="10.762509563340569"><ele>80.0</ele><time>2026-03-22T09:42:40Z</time></trkpt><trkpt lat="43.08549399175703" lon="10.762555547630251"><ele>80.0</ele><time>2026-03-22T09:42:41Z</time></trkpt><trkpt lat="43.085596707585324" lon="10.762625792227775"><ele>80.0</ele><time>2026-03-22T09:42:43Z</time></trkpt><trkpt lat="43.085662948052544" lon="10.76269475056903"><ele>80.0</ele><time>2026-03-22T09:42:45Z</time></trkpt><trkpt lat="43.08572379486532" lon="10.762764024277432"><ele>80.0</ele><time>2026-03-22T09:42:48Z</time></trkpt><trkpt lat="43.0857750082755" lon="10.762829493471491"><ele>80.0</ele><time>2026-03-22T09:42:50Z</time></trkpt><trkpt lat="43.085829353744636" lon="10.7628896767621"><ele>80.0</ele><time>2026-03-22T09:42:57Z</time></trkpt><trkpt lat="43.08587706401127" lon="10.762956433902547"><ele>80.6</ele><time>2026-03-22T09:43:00Z</time></trkpt><trkpt lat="43.08593155317777" lon="10.763042848224615"><ele>81.2</ele><time>2026-03-22T09:43:03Z</time></trkpt><trkpt lat="43.08598057940757" lon="10.763104447569324"><ele>81.80000000000001</ele><time>2026-03-22T09:43:06Z</time></trkpt><trkpt lat="43.08606226786647" lon="10.763172632538401"><ele>82.4</ele><time>2026-03-22T09:43:08Z</time></trkpt><trkpt lat="43.08613129936331" lon="10.763277231488008"><ele>83.0</ele><time>2026-03-22T09:43:10Z</time></trkpt><trkpt lat="43.08622553894441" lon="10.763373714629225"><ele>83.0</ele><time>2026-03-22T09:43:12Z</time></trkpt><trkpt lat="43.086300643203664" lon="10.763485761316051"><ele>83.0</ele><time>2026-03-22T09:43:14Z</time></trkpt><trkpt lat="43.086388621319806" lon="10.763597235941145"><ele>83.0</ele><time>2026-03-22T09:43:16Z</time></trkpt><trkpt lat="43.08647412062627" lon="10.763714048292098"><ele>83.0</ele><time>2026-03-22T09:43:18Z</time></trkpt><trkpt lat="43.08651765215939" lon="10.76377722374419"><ele>83.0</ele><time>2026-03-22T09:43:19Z</time></trkpt><trkpt lat="43.08655881362416" lon="10.763855576215509"><ele>82.80000000000001</ele><time>2026-03-22T09:43:20Z</time></trkpt><trkpt lat="43.0866307358548" lon="10.764001382356675"><ele>82.6</ele><time>2026-03-22T09:43:22Z</time></trkpt><trkpt lat="43.08667555572709" lon="10.764070595385657"><ele>82.4</ele><time>2026-03-22T09:43:23Z</time></trkpt><trkpt lat="43.08671250752481" lon="10.764144403324815"><ele>82.19999999999999</ele><time>2026-03-22T09:43:24Z</time></trkpt><trkpt lat="43.08679124161272" lon="10.764283283765467"><ele>82.0</ele><time>2026-03-22T09:43:26Z</time></trkpt><trkpt lat="43.08683040790023" lon="10.764358124255773"><ele>81.6</ele><time>2026-03-22T09:43:27Z</time></trkpt><trkpt lat="43.08688001198845" lon="10.764424484104676"><ele>81.19999999999999</ele><time>2026-03-22T09:43:28Z</time></trkpt><trkpt lat="43.08693246458742" lon="10.764496776939774"><ele>80.8</ele><time>2026-03-22T09:43:29Z</time></trkpt><trkpt lat="43.08699290563289" lon="10.764643226493693"><ele>80.4</ele><time>2026-03-22T09:43:31Z</time></trkpt><trkpt lat="43.08704252144223" lon="10.764766045003995"><ele>80.0</ele><time>2026-03-22T09:43:33Z</time></trkpt><trkpt lat="43.08707950890478" lon="10.76486537482579"><ele>80.0</ele><time>2026-03-22T09:43:35Z</time></trkpt><trkpt lat="43.087145313332606" lon="10.765001253958896"><ele>80.0</ele><time>2026-03-22T09:43:37Z</time></trkpt><trkpt lat="43.08718868597558" lon="10.765120887249447"><ele>80.0</ele><time>2026-03-22T09:43:39Z</time></trkpt><trkpt lat="43.08722342238114" lon="10.765195795305896"><ele>80.0</ele><time>2026-03-22T09:43:40Z</time></trkpt><trkpt lat="43.087253593307345" lon="10.765280210226706"><ele>80.0</ele><time>2026-03-22T09:43:41Z</time></trkpt><trkpt lat="43.08732885440685" lon="10.765417284918628"><ele>79.66666666666667</ele><time>2026-03-22T09:43:43Z</time></trkpt><trkpt lat="43.08735914424499" lon="10.7654999593535"><ele>79.33333333333334</ele><time>2026-03-22T09:43:44Z</time></trkpt><trkpt lat="43.087377700391734" lon="10.765585319814447"><ele>79.0</ele><time>2026-03-22T09:43:45Z</time></trkpt><trkpt lat="43.08739391430582" lon="10.765677775116728"><ele>78.66666666666667</ele><time>2026-03-22T09:43:46Z</time></trkpt><trkpt lat="43.087423032378865" lon="10.76578135355522"><ele>78.33333333333333</ele><time>2026-03-22T09:43:47Z</time></trkpt><trkpt lat="43.08746589491077" lon="10.765884424504584"><ele>78.0</ele><time>2026-03-22T09:43:48Z</time></trkpt><trkpt lat="43.08748899884527" lon="10.765992320682566"><ele>79.0</ele><time>2026-03-22T09:43:49Z</time></trkpt><trkpt lat="43.087520983182785" lon="10.766101914724178"><ele>80.0</ele><time>2026-03-22T09:43:50Z</time></trkpt><trkpt lat="43.087549625050826" lon="10.766206476497619"><ele>81.0</ele><time>2026-03-22T09:43:51Z</time></trkpt><trkpt lat="43.08756296417663" lon="10.766302870802935"><ele>82.0</ele><time>2026-03-22T09:43:52Z</time></trkpt><trkpt lat="43.08758891996434" lon="10.766399471158376"><ele>83.0</ele><time>2026-03-22T09:43:53Z</time></trkpt><trkpt lat="43.08761687936549" lon="10.766506766097779"><ele>84.0</ele><time>2026-03-22T09:43:54Z</time></trkpt><trkpt lat="43.08763729097825" lon="10.766631802090197"><ele>84.0</ele><time>2026-03-22T09:43:55Z</time></trkpt><trkpt lat="43.087660620261" lon="10.766744327878172"><ele>84.0</ele><time>2026-03-22T09:43:56Z</time></trkpt><trkpt lat="43.08769031618761" lon="10.766872235180939"><ele>84.0</ele><time>2026-03-22T09:43:57Z</time></trkpt><trkpt lat="43.08771918850012" lon="10.767001136569089"><ele>84.0</ele><time>2026-03-22T09:43:58Z</time></trkpt><trkpt lat="43.0877452103081" lon="10.767129505080346"><ele>84.0</ele><time>2026-03-22T09:43:59Z</time></trkpt><trkpt lat="43.08776680563893" lon="10.767255694721012"><ele>84.0</ele><time>2026-03-22T09:44:00Z</time></trkpt><trkpt lat="43.08778043836624" lon="10.767364316276254"><ele>84.0</ele><time>2026-03-22T09:44:01Z</time></trkpt><trkpt lat="43.08780560617715" lon="10.76747966214455"><ele>84.0</ele><time>2026-03-22T09:44:02Z</time></trkpt><trkpt lat="43.08782607388991" lon="10.767613359255213"><ele>84.0</ele><time>2026-03-22T09:44:03Z</time></trkpt><trkpt lat="43.08784671392589" lon="10.767769655037975"><ele>84.0</ele><time>2026-03-22T09:44:04Z</time></trkpt><trkpt lat="43.087854450515046" lon="10.767908177688655"><ele>84.0</ele><time>2026-03-22T09:44:05Z</time></trkpt><trkpt lat="43.08785762201641" lon="10.768024462962165"><ele>84.0</ele><time>2026-03-22T09:44:06Z</time></trkpt><trkpt lat="43.08787054682766" lon="10.768125970727908"><ele>84.0</ele><time>2026-03-22T09:44:07Z</time></trkpt><trkpt lat="43.087874837565394" lon="10.768215518849754"><ele>84.0</ele><time>2026-03-22T09:44:08Z</time></trkpt><trkpt lat="43.08786900258365" lon="10.768377654875762"><ele>84.0</ele><time>2026-03-22T09:44:10Z</time></trkpt><trkpt lat="43.08787956017289" lon="10.768463230503572"><ele>84.0</ele><time>2026-03-22T09:44:11Z</time></trkpt><trkpt lat="43.087899046482455" lon="10.76855581229879"><ele>84.0</ele><time>2026-03-22T09:44:12Z</time></trkpt><trkpt lat="43.08792012361548" lon="10.768659194595772"><ele>84.0</ele><time>2026-03-22T09:44:13Z</time></trkpt><trkpt lat="43.08790042175673" lon="10.768801519271555"><ele>84.0</ele><time>2026-03-22T09:44:15Z</time></trkpt><trkpt lat="43.08787740395853" lon="10.768917711765813"><ele>84.0</ele><time>2026-03-22T09:44:17Z</time></trkpt><trkpt lat="43.08788149602619" lon="10.769089580299527"><ele>84.0</ele><time>2026-03-22T09:44:19Z</time></trkpt><trkpt lat="43.08787961009981" lon="10.769180575862233"><ele>84.0</ele><time>2026-03-22T09:44:20Z</time></trkpt><trkpt lat="43.08786415650347" lon="10.769274933029914"><ele>84.0</ele><time>2026-03-22T09:44:21Z</time></trkpt><trkpt lat="43.08784446673622" lon="10.769370307916406"><ele>84.0</ele><time>2026-03-22T09:44:22Z</time></trkpt><trkpt lat="43.08783601328613" lon="10.769464354192719"><ele>84.0</ele><time>2026-03-22T09:44:23Z</time></trkpt><trkpt lat="43.08782980383881" lon="10.769575110278284"><ele>84.0</ele><time>2026-03-22T09:44:24Z</time></trkpt><trkpt lat="43.08782876191184" lon="10.769692016613797"><ele>84.0</ele><time>2026-03-22T09:44:25Z</time></trkpt><trkpt lat="43.087822951745665" lon="10.769794555484355"><ele>84.0</ele><time>2026-03-22T09:44:26Z</time></trkpt><trkpt lat="43.087812791364534" lon="10.769886269090698"><ele>84.0</ele><time>2026-03-22T09:44:27Z</time></trkpt><trkpt lat="43.0877952998179" lon="10.769969693542613"><ele>84.0</ele><time>2026-03-22T09:44:28Z</time></trkpt><trkpt lat="43.087780552812795" lon="10.770057988799625"><ele>84.0</ele><time>2026-03-22T09:44:29Z</time></trkpt><trkpt lat="43.087758168222514" lon="10.770186880326847"><ele>84.0</ele><time>2026-03-22T09:44:31Z</time></trkpt><trkpt lat="43.087730398429606" lon="10.770319302080214"><ele>84.0</ele><time>2026-03-22T09:44:33Z</time></trkpt><trkpt lat="43.087741492299465" lon="10.770406641947538"><ele>84.16666666666667</ele><time>2026-03-22T09:44:36Z</time></trkpt><trkpt lat="43.08772590850748" lon="10.770545429257211"><ele>84.33333333333333</ele><time>2026-03-22T09:44:40Z</time></trkpt><trkpt lat="43.08770233928184" lon="10.770665154651276"><ele>84.5</ele><time>2026-03-22T09:44:43Z</time></trkpt><trkpt lat="43.0876800435686" lon="10.770776735001009"><ele>84.66666666666666</ele><time>2026-03-22T09:44:46Z</time></trkpt><trkpt lat="43.08765930916296" lon="10.770872076579852"><ele>84.83333333333333</ele><time>2026-03-22T09:44:49Z</time></trkpt><trkpt lat="43.0876392410157" lon="10.770963684090502"><ele>85.0</ele><time>2026-03-22T09:44:52Z</time></trkpt><trkpt lat="43.08762451780889" lon="10.771069953533004"><ele>85.71428571428572</ele><time>2026-03-22T09:44:56Z</time></trkpt><trkpt lat="43.08761258511125" lon="10.771158732665784"><ele>86.42857142857142</ele><time>2026-03-22T09:45:01Z</time></trkpt><trkpt lat="43.08759471575475" lon="10.771266123069003"><ele>87.14285714285714</ele><time>2026-03-22T09:45:03Z</time></trkpt><trkpt lat="43.087570431850985" lon="10.77135494537806"><ele>87.85714285714286</ele><time>2026-03-22T09:45:05Z</time></trkpt><trkpt lat="43.08754715089572" lon="10.771449350807965"><ele>88.57142857142858</ele><time>2026-03-22T09:45:07Z</time></trkpt><trkpt lat="43.08752292552773" lon="10.771533260561052"><ele>89.28571428571428</ele><time>2026-03-22T09:45:09Z</time></trkpt><trkpt lat="43.08750427258195" lon="10.77163300433955"><ele>90.0</ele><time>2026-03-22T09:45:11Z</time></trkpt><trkpt lat="43.08749044975199" lon="10.771744901522666"><ele>89.2</ele><time>2026-03-22T09:45:14Z</time></trkpt><trkpt lat="43.08746334158141" lon="10.771872671766848"><ele>88.4</ele><time>2026-03-22T09:45:16Z</time></trkpt><trkpt lat="43.08743119192363" lon="10.77199954869467"><ele>87.6</ele><time>2026-03-22T09:45:18Z</time></trkpt><trkpt lat="43.087395801368" lon="10.772072625548677"><ele>86.8</ele><time>2026-03-22T09:45:19Z</time></trkpt><trkpt lat="43.08739969205938" lon="10.772167864453545"><ele>86.0</ele><time>2026-03-22T09:45:20Z</time></trkpt><trkpt lat="43.08739417710898" lon="10.772333350876973"><ele>86.0</ele><time>2026-03-22T09:45:22Z</time></trkpt><trkpt lat="43.08736812523277" lon="10.772490198348477"><ele>86.0</ele><time>2026-03-22T09:45:24Z</time></trkpt><trkpt lat="43.08735793894281" lon="10.772577777080135"><ele>86.0</ele><time>2026-03-22T09:45:25Z</time></trkpt><trkpt lat="43.0873474388993" lon="10.772727370755858"><ele>86.0</ele><time>2026-03-22T09:45:27Z</time></trkpt><trkpt lat="43.08732572488651" lon="10.772867715617673"><ele>86.0</ele><time>2026-03-22T09:45:29Z</time></trkpt><trkpt lat="43.08733216796342" lon="10.773048831587992"><ele>86.16666666666667</ele><time>2026-03-22T09:45:31Z</time></trkpt><trkpt lat="43.087340714609695" lon="10.77313844063031"><ele>86.33333333333334</ele><time>2026-03-22T09:45:32Z</time></trkpt><trkpt lat="43.08734296190378" lon="10.773227948180107"><ele>86.5</ele><time>2026-03-22T09:45:33Z</time></trkpt><trkpt lat="43.08733290255485" lon="10.773317477462022"><ele>86.66666666666667</ele><time>2026-03-22T09:45:34Z</time></trkpt><trkpt lat="43.08733803635031" lon="10.773416486929916"><ele>86.83333333333333</ele><time>2026-03-22T09:45:35Z</time></trkpt><trkpt lat="43.08735009341328" lon="10.77358774412728"><ele>87.0</ele><time>2026-03-22T09:45:37Z</time></trkpt><trkpt lat="43.08737026767425" lon="10.773686716346285"><ele>87.39999999999999</ele><time>2026-03-22T09:45:38Z</time></trkpt><trkpt lat="43.087395464757414" lon="10.77386735946247"><ele>87.8</ele><time>2026-03-22T09:45:40Z</time></trkpt><trkpt lat="43.08740822461834" lon="10.773969119403159"><ele>88.2</ele><time>2026-03-22T09:45:41Z</time></trkpt><trkpt lat="43.087445892326585" lon="10.77414815956208"><ele>88.6</ele><time>2026-03-22T09:45:43Z</time></trkpt><trkpt lat="43.08748074665495" lon="10.774230549400118"><ele>89.0</ele><time>2026-03-22T09:45:44Z</time></trkpt><trkpt lat="43.087494947436184" lon="10.774315060363637"><ele>89.99999999999999</ele><time>2026-03-22T09:45:45Z</time></trkpt><trkpt lat="43.087517398437555" lon="10.774397472891764"><ele>91.0</ele><time>2026-03-22T09:45:46Z</time></trkpt><trkpt lat="43.08753765252481" lon="10.77450366522116"><ele>92.0</ele><time>2026-03-22T09:45:47Z</time></trkpt><trkpt lat="43.08755758526561" lon="10.77460416947606"><ele>93.0</ele><time>2026-03-22T09:45:48Z</time></trkpt><trkpt lat="43.08758616526905" lon="10.774690295205348"><ele>94.0</ele><time>2026-03-22T09:45:49Z</time></trkpt><trkpt lat="43.087623539636645" lon="10.77478063491436"><ele>94.99999999999999</ele><time>2026-03-22T09:45:50Z</time></trkpt><trkpt lat="43.08765614961406" lon="10.774861299487828"><ele>96.0</ele><time>2026-03-22T09:45:51Z</time></trkpt><trkpt lat="43.0876784750813" lon="10.774950844248492"><ele>96.0</ele><time>2026-03-22T09:45:52Z</time></trkpt><trkpt lat="43.0877102910729" lon="10.775047575441246"><ele>96.0</ele><time>2026-03-22T09:45:53Z</time></trkpt><trkpt lat="43.087756882206875" lon="10.775137908874607"><ele>96.0</ele><time>2026-03-22T09:45:54Z</time></trkpt><trkpt lat="43.087800305394744" lon="10.775228490690445"><ele>96.0</ele><time>2026-03-22T09:45:55Z</time></trkpt><trkpt lat="43.087862362456754" lon="10.77538088615734"><ele>96.0</ele><time>2026-03-22T09:45:57Z</time></trkpt><trkpt lat="43.08792800639139" lon="10.77549271801828"><ele>95.33333333333333</ele><time>2026-03-22T09:45:59Z</time></trkpt><trkpt lat="43.08798465474463" lon="10.77555781168324"><ele>94.66666666666667</ele><time>2026-03-22T09:46:02Z</time></trkpt><trkpt lat="43.088021300267606" lon="10.775636562405348"><ele>94.0</ele><time>2026-03-22T09:46:04Z</time></trkpt><trkpt lat="43.08810510957918" lon="10.77574841718655"><ele>93.33333333333334</ele><time>2026-03-22T09:46:06Z</time></trkpt><trkpt lat="43.088154300842916" lon="10.775814938544972"><ele>92.66666666666667</ele><time>2026-03-22T09:46:07Z</time></trkpt><trkpt lat="43.08820111067651" lon="10.77587354483354"><ele>92.0</ele><time>2026-03-22T09:46:08Z</time></trkpt><trkpt lat="43.08827096196568" lon="10.7759950884645"><ele>93.0</ele><time>2026-03-22T09:46:10Z</time></trkpt><trkpt lat="43.08830451569817" lon="10.776079913760869"><ele>94.0</ele><time>2026-03-22T09:46:12Z</time></trkpt><trkpt lat="43.08838297128858" lon="10.776173767616648"><ele>95.0</ele><time>2026-03-22T09:46:14Z</time></trkpt><trkpt lat="43.088462694507676" lon="10.77628910418904"><ele>96.0</ele><time>2026-03-22T09:46:16Z</time></trkpt><trkpt lat="43.08851752856665" lon="10.776415092510781"><ele>97.0</ele><time>2026-03-22T09:46:18Z</time></trkpt><trkpt lat="43.08854809908966" lon="10.776495027397456"><ele>97.0</ele><time>2026-03-22T09:46:20Z</time></trkpt><trkpt lat="43.088603530708674" lon="10.776600007512036"><ele>97.0</ele><time>2026-03-22T09:46:23Z</time></trkpt><trkpt lat="43.08865212611369" lon="10.776721344999633"><ele>97.0</ele><time>2026-03-22T09:46:25Z</time></trkpt><trkpt lat="43.088687613626455" lon="10.776872839577472"><ele>97.0</ele><time>2026-03-22T09:46:27Z</time></trkpt><trkpt lat="43.08872923558779" lon="10.776947512140895"><ele>97.0</ele><time>2026-03-22T09:46:28Z</time></trkpt><trkpt lat="43.0887580943759" lon="10.777098730697462"><ele>96.66666666666667</ele><time>2026-03-22T09:46:30Z</time></trkpt><trkpt lat="43.088773075785404" lon="10.777206551692972"><ele>96.33333333333334</ele><time>2026-03-22T09:46:33Z</time></trkpt><trkpt lat="43.08879342296404" lon="10.777308662913496"><ele>96.0</ele><time>2026-03-22T09:46:36Z</time></trkpt><trkpt lat="43.08878969363096" lon="10.777409977990903"><ele>95.66666666666667</ele><time>2026-03-22T09:46:39Z</time></trkpt><trkpt lat="43.08882708176629" lon="10.777524278364636"><ele>95.33333333333334</ele><time>2026-03-22T09:46:42Z</time></trkpt><trkpt lat="43.08885033393342" lon="10.777606915602313"><ele>95.0</ele><time>2026-03-22T09:46:44Z</time></trkpt><trkpt lat="43.08884994676542" lon="10.777702266957823"><ele>95.0</ele><time>2026-03-22T09:46:46Z</time></trkpt><trkpt lat="43.08884576228971" lon="10.777828305471653"><ele>95.0</ele><time>2026-03-22T09:46:48Z</time></trkpt><trkpt lat="43.088836030899294" lon="10.777924229633156"><ele>95.0</ele><time>2026-03-22T09:46:50Z</time></trkpt><trkpt lat="43.0888462831129" lon="10.778026657196701"><ele>95.0</ele><time>2026-03-22T09:46:52Z</time></trkpt><trkpt lat="43.088849175978865" lon="10.778120735874714"><ele>95.0</ele><time>2026-03-22T09:46:55Z</time></trkpt><trkpt lat="43.08885225570779" lon="10.778244776529005"><ele>95.0</ele><time>2026-03-22T09:46:57Z</time></trkpt><trkpt lat="43.08885815725293" lon="10.778373566187662"><ele>95.83333333333334</ele><time>2026-03-22T09:46:59Z</time></trkpt><trkpt lat="43.08885207992063" lon="10.778533534270398"><ele>96.66666666666667</ele><time>2026-03-22T09:47:01Z</time></trkpt><trkpt lat="43.08883057531211" lon="10.77869697712393"><ele>97.5</ele><time>2026-03-22T09:47:03Z</time></trkpt><trkpt lat="43.08879966184051" lon="10.778783306147995"><ele>98.33333333333334</ele><time>2026-03-22T09:47:04Z</time></trkpt><trkpt lat="43.08877299631068" lon="10.778864852861663"><ele>99.16666666666667</ele><time>2026-03-22T09:47:05Z</time></trkpt><trkpt lat="43.08875082833797" lon="10.77895872394518"><ele>100.0</ele><time>2026-03-22T09:47:06Z</time></trkpt><trkpt lat="43.08870230566472" lon="10.779123159465735"><ele>100.00000000000001</ele><time>2026-03-22T09:47:08Z</time></trkpt><trkpt lat="43.088668243962275" lon="10.779204108565942"><ele>100.0</ele><time>2026-03-22T09:47:09Z</time></trkpt><trkpt lat="43.088635439448524" lon="10.779280302851141"><ele>100.0</ele><time>2026-03-22T09:47:10Z</time></trkpt><trkpt lat="43.088568053423536" lon="10.779418308396345"><ele>100.0</ele><time>2026-03-22T09:47:12Z</time></trkpt><trkpt lat="43.08854576407854" lon="10.779515014169723"><ele>100.00000000000001</ele><time>2026-03-22T09:47:13Z</time></trkpt><trkpt lat="43.088507964087334" lon="10.779605394701562"><ele>100.0</ele><time>2026-03-22T09:47:14Z</time></trkpt><trkpt lat="43.08843004179937" lon="10.77974048897598"><ele>99.50000000000001</ele><time>2026-03-22T09:47:16Z</time></trkpt><trkpt lat="43.08835345905517" lon="10.779879918896127"><ele>99.0</ele><time>2026-03-22T09:47:18Z</time></trkpt><trkpt lat="43.08832410958271" lon="10.779988375560514"><ele>98.5</ele><time>2026-03-22T09:47:19Z</time></trkpt><trkpt lat="43.08829203557407" lon="10.780063039125535"><ele>98.0</ele><time>2026-03-22T09:47:20Z</time></trkpt><trkpt lat="43.08825234152812" lon="10.78013609752328"><ele>97.50000000000001</ele><time>2026-03-22T09:47:21Z</time></trkpt><trkpt lat="43.08821421290551" lon="10.780205354702801"><ele>97.0</ele><time>2026-03-22T09:47:22Z</time></trkpt><trkpt lat="43.088155245204774" lon="10.780317170037097"><ele>97.00000000000001</ele><time>2026-03-22T09:47:24Z</time></trkpt><trkpt lat="43.088136274057824" lon="10.780414874620213"><ele>97.0</ele><time>2026-03-22T09:47:26Z</time></trkpt><trkpt lat="43.08809536032114" lon="10.780517818545324"><ele>97.0</ele><time>2026-03-22T09:47:28Z</time></trkpt><trkpt lat="43.08804643716544" lon="10.78061398551847"><ele>97.0</ele><time>2026-03-22T09:47:30Z</time></trkpt><trkpt lat="43.087995074561725" lon="10.78068691949009"><ele>97.00000000000001</ele><time>2026-03-22T09:47:32Z</time></trkpt><trkpt lat="43.08791619690498" lon="10.780790870795547"><ele>97.0</ele><time>2026-03-22T09:47:34Z</time></trkpt><trkpt lat="43.08788063388649" lon="10.780863786704751"><ele>97.0</ele><time>2026-03-22T09:47:35Z</time></trkpt><trkpt lat="43.08782044539307" lon="10.780984097302833"><ele>97.0</ele><time>2026-03-22T09:47:37Z</time></trkpt><trkpt lat="43.08779287207392" lon="10.781092044218893"><ele>97.0</ele><time>2026-03-22T09:47:40Z</time></trkpt><trkpt lat="43.087747814317716" lon="10.781176263388808"><ele>97.0</ele><time>2026-03-22T09:47:42Z</time></trkpt><trkpt lat="43.08767071698587" lon="10.781323221501799"><ele>97.0</ele><time>2026-03-22T09:47:44Z</time></trkpt><trkpt lat="43.08763421477197" lon="10.781434476675662"><ele>98.00000000000001</ele><time>2026-03-22T09:47:45Z</time></trkpt><trkpt lat="43.087601146919916" lon="10.78154994292472"><ele>99.0</ele><time>2026-03-22T09:47:46Z</time></trkpt><trkpt lat="43.087568800567105" lon="10.781655694865641"><ele>100.0</ele><time>2026-03-22T09:47:47Z</time></trkpt><trkpt lat="43.087540462997204" lon="10.781755238696539"><ele>101.0</ele><time>2026-03-22T09:47:48Z</time></trkpt><trkpt lat="43.08751165219163" lon="10.781864114635479"><ele>102.00000000000001</ele><time>2026-03-22T09:47:49Z</time></trkpt><trkpt lat="43.08749656490044" lon="10.78196911657145"><ele>103.0</ele><time>2026-03-22T09:47:50Z</time></trkpt><trkpt lat="43.08748342372175" lon="10.782076536183967"><ele>104.0</ele><time>2026-03-22T09:47:51Z</time></trkpt><trkpt lat="43.08746090266782" lon="10.782177363445111"><ele>105.0</ele><time>2026-03-22T09:47:52Z</time></trkpt><trkpt lat="43.08743028246692" lon="10.782253714456955"><ele>106.00000000000001</ele><time>2026-03-22T09:47:53Z</time></trkpt><trkpt lat="43.08741651183137" lon="10.782438544263567"><ele>107.0</ele><time>2026-03-22T09:47:55Z</time></trkpt><trkpt lat="43.08740125862941" lon="10.782575903573836"><ele>108.0</ele><time>2026-03-22T09:47:57Z</time></trkpt><trkpt lat="43.08738115559158" lon="10.782680089260237"><ele>106.33333333333333</ele><time>2026-03-22T09:47:59Z</time></trkpt><trkpt lat="43.08737336614552" lon="10.782823386785724"><ele>104.66666666666666</ele><time>2026-03-22T09:48:01Z</time></trkpt><trkpt lat="43.08738432609054" lon="10.782916042701597"><ele>103.0</ele><time>2026-03-22T09:48:02Z</time></trkpt><trkpt lat="43.087387224739" lon="10.78301878982007"><ele>101.33333333333333</ele><time>2026-03-22T09:48:03Z</time></trkpt><trkpt lat="43.087385220757966" lon="10.78312293660244"><ele>99.66666666666666</ele><time>2026-03-22T09:48:04Z</time></trkpt><trkpt lat="43.08738977266312" lon="10.783220277682165"><ele>98.0</ele><time>2026-03-22T09:48:05Z</time></trkpt><trkpt lat="43.08738932618758" lon="10.783308413413458"><ele>97.99999999999999</ele><time>2026-03-22T09:48:06Z</time></trkpt><trkpt lat="43.087383625683145" lon="10.783409297310325"><ele>98.0</ele><time>2026-03-22T09:48:07Z</time></trkpt><trkpt lat="43.08740441101529" lon="10.783550912857564"><ele>98.0</ele><time>2026-03-22T09:48:08Z</time></trkpt><trkpt lat="43.08741487257969" lon="10.783636427136427"><ele>98.0</ele><time>2026-03-22T09:48:08.999Z</time></trkpt><trkpt lat="43.08743661679445" lon="10.783775499647282"><ele>97.99999999999999</ele><time>2026-03-22T09:48:10.999Z</time></trkpt><trkpt lat="43.08746344174981" lon="10.783864135695307"><ele>98.0</ele><time>2026-03-22T09:48:12.999Z</time></trkpt><trkpt lat="43.08750634943246" lon="10.78393404022051"><ele>99.0</ele><time>2026-03-22T09:48:16Z</time></trkpt><trkpt lat="43.08752338978089" lon="10.78403955716152"><ele>100.0</ele><time>2026-03-22T09:48:18Z</time></trkpt><trkpt lat="43.087529817941" lon="10.78418475686298"><ele>101.0</ele><time>2026-03-22T09:48:20Z</time></trkpt><trkpt lat="43.08754723980298" lon="10.784283541744646"><ele>102.0</ele><time>2026-03-22T09:48:21Z</time></trkpt><trkpt lat="43.08759428400046" lon="10.78446683444873"><ele>103.0</ele><time>2026-03-22T09:48:23Z</time></trkpt><trkpt lat="43.08762957373987" lon="10.784568113211295"><ele>103.0</ele><time>2026-03-22T09:48:24Z</time></trkpt><trkpt lat="43.08766488131412" lon="10.784656167025226"><ele>103.0</ele><time>2026-03-22T09:48:25Z</time></trkpt><trkpt lat="43.08766534547944" lon="10.78475334722179"><ele>103.0</ele><time>2026-03-22T09:48:26Z</time></trkpt><trkpt lat="43.08769679891842" lon="10.78491330528183"><ele>103.0</ele><time>2026-03-22T09:48:28Z</time></trkpt><trkpt lat="43.08774031749784" lon="10.78508539755484"><ele>103.0</ele><time>2026-03-22T09:48:30Z</time></trkpt><trkpt lat="43.08775267530492" lon="10.78517123055028"><ele>102.83333333333334</ele><time>2026-03-22T09:48:31Z</time></trkpt><trkpt lat="43.08779338349686" lon="10.785308226301998"><ele>102.66666666666667</ele><time>2026-03-22T09:48:33Z</time></trkpt><trkpt lat="43.087817671466766" lon="10.785430653605836"><ele>102.5</ele><time>2026-03-22T09:48:35Z</time></trkpt><trkpt lat="43.08785485104565" lon="10.785545028803048"><ele>102.33333333333334</ele><time>2026-03-22T09:48:37Z</time></trkpt><trkpt lat="43.08783762117441" lon="10.785647251707337"><ele>102.16666666666667</ele><time>2026-03-22T09:48:39Z</time></trkpt><trkpt lat="43.087790110928765" lon="10.785714605670526"><ele>102.0</ele><time>2026-03-22T09:48:41Z</time></trkpt><trkpt lat="43.087769950216654" lon="10.785827817981431"><ele>102.0</ele><time>2026-03-22T09:48:43Z</time></trkpt><trkpt lat="43.08775630026163" lon="10.78591990580246"><ele>102.0</ele><time>2026-03-22T09:48:45Z</time></trkpt><trkpt lat="43.0877342529291" lon="10.786030499824223"><ele>102.0</ele><time>2026-03-22T09:48:49Z</time></trkpt><trkpt lat="43.08776383565069" lon="10.785902635127051"><ele>102.0</ele><time>2026-03-22T09:54:29Z</time></trkpt><trkpt lat="43.087777305104325" lon="10.78579883952667"><ele>102.0</ele><time>2026-03-22T09:54:30Z</time></trkpt><trkpt lat="43.0877955655012" lon="10.7856553699862"><ele>102.0</ele><time>2026-03-22T09:54:32Z</time></trkpt><trkpt lat="43.087833678759" lon="10.785532992529772"><ele>102.0</ele><time>2026-03-22T09:54:34Z</time></trkpt><trkpt lat="43.08782722233197" lon="10.785445499293365"><ele>102.0</ele><time>2026-03-22T09:54:37Z</time></trkpt><trkpt lat="43.087781813645634" lon="10.785317493548323"><ele>102.0</ele><time>2026-03-22T09:54:52Z</time></trkpt><trkpt lat="43.08774636975858" lon="10.785175033845896"><ele>102.0</ele><time>2026-03-22T09:54:54Z</time></trkpt><trkpt lat="43.087717404819735" lon="10.785089226571824"><ele>102.0</ele><time>2026-03-22T09:54:55Z</time></trkpt><trkpt lat="43.08769854316257" lon="10.78499942661343"><ele>102.0</ele><time>2026-03-22T09:54:56Z</time></trkpt><trkpt lat="43.08766667913288" lon="10.784826130160475"><ele>102.16666666666667</ele><time>2026-03-22T09:54:58Z</time></trkpt><trkpt lat="43.087639440868365" lon="10.784684798431533"><ele>102.33333333333334</ele><time>2026-03-22T09:55:00Z</time></trkpt><trkpt lat="43.08761274364271" lon="10.784603773387918"><ele>102.5</ele><time>2026-03-22T09:55:01Z</time></trkpt><trkpt lat="43.08759853411669" lon="10.78450493223467"><ele>102.66666666666667</ele><time>2026-03-22T09:55:02Z</time></trkpt><trkpt lat="43.08757867827715" lon="10.784409354049828"><ele>102.83333333333334</ele><time>2026-03-22T09:55:03Z</time></trkpt><trkpt lat="43.08755545229814" lon="10.7843236450057"><ele>103.0</ele><time>2026-03-22T09:55:04Z</time></trkpt><trkpt lat="43.087521853773794" lon="10.784173290314289"><ele>103.80000000000001</ele><time>2026-03-22T09:55:06Z</time></trkpt><trkpt lat="43.087500781003385" lon="10.78405453474145"><ele>104.6</ele><time>2026-03-22T09:55:08Z</time></trkpt><trkpt lat="43.08749567662927" lon="10.783963808477035"><ele>105.39999999999999</ele><time>2026-03-22T09:55:10Z</time></trkpt><trkpt lat="43.08744577608251" lon="10.783796598113254"><ele>106.19999999999999</ele><time>2026-03-22T09:55:13Z</time></trkpt><trkpt lat="43.08742493140369" lon="10.783704671192169"><ele>107.0</ele><time>2026-03-22T09:55:14Z</time></trkpt><trkpt lat="43.08739389643438" lon="10.783547265500463"><ele>105.19999999999999</ele><time>2026-03-22T09:55:16Z</time></trkpt><trkpt lat="43.0873952216363" lon="10.7833839151029"><ele>103.39999999999999</ele><time>2026-03-22T09:55:18Z</time></trkpt><trkpt lat="43.08737939336309" lon="10.783220396085275"><ele>101.6</ele><time>2026-03-22T09:55:20Z</time></trkpt><trkpt lat="43.08737808414712" lon="10.783100173369947"><ele>99.80000000000001</ele><time>2026-03-22T09:55:22Z</time></trkpt><trkpt lat="43.08737985248942" lon="10.782984994778205"><ele>98.0</ele><time>2026-03-22T09:55:23Z</time></trkpt><trkpt lat="43.087380991727" lon="10.782846237949364"><ele>98.0</ele><time>2026-03-22T09:55:25Z</time></trkpt><trkpt lat="43.08738370307133" lon="10.782695113994187"><ele>98.0</ele><time>2026-03-22T09:55:27Z</time></trkpt><trkpt lat="43.08740586763744" lon="10.78257714797604"><ele>98.0</ele><time>2026-03-22T09:55:29Z</time></trkpt><trkpt lat="43.08741221797164" lon="10.782437775161268"><ele>98.0</ele><time>2026-03-22T09:55:31Z</time></trkpt><trkpt lat="43.08740683777859" lon="10.782338553354563"><ele>98.0</ele><time>2026-03-22T09:55:33Z</time></trkpt><trkpt lat="43.08743121082227" lon="10.782236732701568"><ele>99.0</ele><time>2026-03-22T09:55:35Z</time></trkpt><trkpt lat="43.08744554248634" lon="10.782152643200838"><ele>100.0</ele><time>2026-03-22T09:55:37Z</time></trkpt><trkpt lat="43.087473109567924" lon="10.78200126266511"><ele>101.0</ele><time>2026-03-22T09:55:39Z</time></trkpt><trkpt lat="43.087509302843465" lon="10.781865504813924"><ele>102.0</ele><time>2026-03-22T09:55:41Z</time></trkpt><trkpt lat="43.087535237232885" lon="10.781784822852806"><ele>103.0</ele><time>2026-03-22T09:55:42Z</time></trkpt><trkpt lat="43.08757484817356" lon="10.781638423569754"><ele>103.00000000000001</ele><time>2026-03-22T09:55:44Z</time></trkpt><trkpt lat="43.087615166421266" lon="10.781478051142342"><ele>103.0</ele><time>2026-03-22T09:55:46Z</time></trkpt><trkpt lat="43.08765106284005" lon="10.781401967810007"><ele>103.0</ele><time>2026-03-22T09:55:47Z</time></trkpt><trkpt lat="43.08768004669663" lon="10.781317548303944"><ele>103.0</ele><time>2026-03-22T09:55:48Z</time></trkpt><trkpt lat="43.08771945456553" lon="10.781248118070653"><ele>103.00000000000001</ele><time>2026-03-22T09:55:49Z</time></trkpt><trkpt lat="43.08776931516442" lon="10.781137603673582"><ele>103.0</ele><time>2026-03-22T09:55:51Z</time></trkpt><trkpt lat="43.08780827859151" lon="10.781050234172922"><ele>102.00000000000001</ele><time>2026-03-22T09:55:53Z</time></trkpt><trkpt lat="43.08788077995548" lon="10.780982198678945"><ele>101.0</ele><time>2026-03-22T09:55:55Z</time></trkpt><trkpt lat="43.087913037878224" lon="10.780889775416364"><ele>100.0</ele><time>2026-03-22T09:55:56Z</time></trkpt><trkpt lat="43.08794309339405" lon="10.780802931928012"><ele>99.0</ele><time>2026-03-22T09:55:57Z</time></trkpt><trkpt lat="43.08798573184743" lon="10.780737605534743"><ele>98.00000000000001</ele><time>2026-03-22T09:55:58Z</time></trkpt><trkpt lat="43.08806530131116" lon="10.780613088835377"><ele>97.0</ele><time>2026-03-22T09:56:00Z</time></trkpt><trkpt lat="43.08813500286881" lon="10.780484728428384"><ele>97.00000000000001</ele><time>2026-03-22T09:56:04Z</time></trkpt><trkpt lat="43.08817185079009" lon="10.780341963831242"><ele>97.0</ele><time>2026-03-22T09:56:06Z</time></trkpt><trkpt lat="43.088207311266245" lon="10.780249199491783"><ele>97.0</ele><time>2026-03-22T09:56:07Z</time></trkpt><trkpt lat="43.08824615216919" lon="10.780146721427787"><ele>97.0</ele><time>2026-03-22T09:56:08Z</time></trkpt><trkpt lat="43.08828183921288" lon="10.780043653477701"><ele>97.00000000000001</ele><time>2026-03-22T09:56:09Z</time></trkpt><trkpt lat="43.08833370431702" lon="10.779973734077615"><ele>97.0</ele><time>2026-03-22T09:56:10Z</time></trkpt><trkpt lat="43.088374205042484" lon="10.779883615309851"><ele>99.0</ele><time>2026-03-22T09:56:11Z</time></trkpt><trkpt lat="43.08841812067762" lon="10.779819550240054"><ele>101.0</ele><time>2026-03-22T09:56:12Z</time></trkpt><trkpt lat="43.08845828611331" lon="10.779752918538836"><ele>102.99999999999999</ele><time>2026-03-22T09:56:13Z</time></trkpt><trkpt lat="43.08852417394205" lon="10.77959381678985"><ele>105.0</ele><time>2026-03-22T09:56:15Z</time></trkpt><trkpt lat="43.088571560212294" lon="10.77952388728332"><ele>107.0</ele><time>2026-03-22T09:56:16Z</time></trkpt><trkpt lat="43.088626987670786" lon="10.779375595024192"><ele>105.83333333333333</ele><time>2026-03-22T09:56:18Z</time></trkpt><trkpt lat="43.088656057761106" lon="10.779270752264088"><ele>104.66666666666666</ele><time>2026-03-22T09:56:19Z</time></trkpt><trkpt lat="43.08869503707098" lon="10.779164657674144"><ele>103.5</ele><time>2026-03-22T09:56:20Z</time></trkpt><trkpt lat="43.08872501354434" lon="10.779075124690637"><ele>102.33333333333334</ele><time>2026-03-22T09:56:21Z</time></trkpt><trkpt lat="43.088753749738494" lon="10.778984110830468"><ele>101.16666666666667</ele><time>2026-03-22T09:56:22Z</time></trkpt><trkpt lat="43.08878170406808" lon="10.778889597689513"><ele>100.0</ele><time>2026-03-22T09:56:23Z</time></trkpt><trkpt lat="43.08881098160283" lon="10.778780180083821"><ele>100.0</ele><time>2026-03-22T09:56:24Z</time></trkpt><trkpt lat="43.08883376939078" lon="10.778664697538005"><ele>100.0</ele><time>2026-03-22T09:56:25Z</time></trkpt><trkpt lat="43.08885353911715" lon="10.778555311221336"><ele>100.0</ele><time>2026-03-22T09:56:26Z</time></trkpt><trkpt lat="43.088847261545304" lon="10.778450681924651"><ele>100.0</ele><time>2026-03-22T09:56:27Z</time></trkpt><trkpt lat="43.08884675884406" lon="10.778287402813541"><ele>100.0</ele><time>2026-03-22T09:56:29Z</time></trkpt><trkpt lat="43.088843880011424" lon="10.778163844873392"><ele>99.16666666666667</ele><time>2026-03-22T09:56:31Z</time></trkpt><trkpt lat="43.088836704923764" lon="10.77806445824846"><ele>98.33333333333334</ele><time>2026-03-22T09:56:35Z</time></trkpt><trkpt lat="43.08883558755599" lon="10.777969469778556"><ele>97.5</ele><time>2026-03-22T09:56:37Z</time></trkpt><trkpt lat="43.08884803768249" lon="10.777851558933687"><ele>96.66666666666667</ele><time>2026-03-22T09:56:39Z</time></trkpt><trkpt lat="43.08884197378798" lon="10.777731927111622"><ele>95.83333333333334</ele><time>2026-03-22T09:56:41Z</time></trkpt><trkpt lat="43.0888334791823" lon="10.777634806070655"><ele>95.0</ele><time>2026-03-22T09:56:44Z</time></trkpt><trkpt lat="43.08881511763057" lon="10.777536774916111"><ele>94.8</ele><time>2026-03-22T09:56:47Z</time></trkpt><trkpt lat="43.08880192563266" lon="10.777431699225467"><ele>94.6</ele><time>2026-03-22T09:56:51Z</time></trkpt><trkpt lat="43.08879039038735" lon="10.777336627014439"><ele>94.4</ele><time>2026-03-22T09:56:55Z</time></trkpt><trkpt lat="43.08875796396504" lon="10.77723604840016"><ele>94.2</ele><time>2026-03-22T09:57:00Z</time></trkpt><trkpt lat="43.08874053414102" lon="10.777085498250424"><ele>94.0</ele><time>2026-03-22T09:57:03Z</time></trkpt><trkpt lat="43.08869225453492" lon="10.776941655048248"><ele>94.6</ele><time>2026-03-22T09:57:05Z</time></trkpt><trkpt lat="43.08864280462633" lon="10.776792181381332"><ele>95.2</ele><time>2026-03-22T09:57:07Z</time></trkpt><trkpt lat="43.08860283391467" lon="10.776677690924908"><ele>95.8</ele><time>2026-03-22T09:57:09Z</time></trkpt><trkpt lat="43.08857010253687" lon="10.77656523826191"><ele>96.39999999999999</ele><time>2026-03-22T09:57:12Z</time></trkpt><trkpt lat="43.08849851516293" lon="10.776458133520375"><ele>97.0</ele><time>2026-03-22T09:57:14Z</time></trkpt><trkpt lat="43.08846290491517" lon="10.776370823170618"><ele>97.0</ele><time>2026-03-22T09:57:15Z</time></trkpt><trkpt lat="43.088430934707254" lon="10.776286893926658"><ele>97.0</ele><time>2026-03-22T09:57:16Z</time></trkpt><trkpt lat="43.088377525810095" lon="10.776211328055993"><ele>97.0</ele><time>2026-03-22T09:57:17Z</time></trkpt><trkpt lat="43.088306844911884" lon="10.776133902436381"><ele>97.0</ele><time>2026-03-22T09:57:18Z</time></trkpt><trkpt lat="43.08827541118506" lon="10.77603614106884"><ele>97.0</ele><time>2026-03-22T09:57:19Z</time></trkpt><trkpt lat="43.08823281998853" lon="10.775971257007978"><ele>97.0</ele><time>2026-03-22T09:57:20Z</time></trkpt><trkpt lat="43.088192635223024" lon="10.77589578484117"><ele>97.0</ele><time>2026-03-22T09:57:21Z</time></trkpt><trkpt lat="43.08814124857547" lon="10.775799783596762"><ele>96.0</ele><time>2026-03-22T09:57:22Z</time></trkpt><trkpt lat="43.088085534121156" lon="10.775711450458694"><ele>95.0</ele><time>2026-03-22T09:57:23Z</time></trkpt><trkpt lat="43.08802808260916" lon="10.77561188381887"><ele>94.0</ele><time>2026-03-22T09:57:25Z</time></trkpt><trkpt lat="43.08798121029936" lon="10.77554984591761"><ele>93.0</ele><time>2026-03-22T09:57:28Z</time></trkpt><trkpt lat="43.087932499833784" lon="10.77543490054281"><ele>92.0</ele><time>2026-03-22T09:57:31Z</time></trkpt><trkpt lat="43.08786521557638" lon="10.77530963827597"><ele>92.0</ele><time>2026-03-22T09:57:33Z</time></trkpt><trkpt lat="43.087817255664056" lon="10.775195477287706"><ele>92.0</ele><time>2026-03-22T09:57:34Z</time></trkpt><trkpt lat="43.08777342432585" lon="10.775086576413786"><ele>92.0</ele><time>2026-03-22T09:57:35Z</time></trkpt><trkpt lat="43.08773883300629" lon="10.77498429552651"><ele>92.0</ele><time>2026-03-22T09:57:36Z</time></trkpt><trkpt lat="43.08768278723135" lon="10.774891102311704"><ele>92.0</ele><time>2026-03-22T09:57:37Z</time></trkpt><trkpt lat="43.08764461768492" lon="10.774785386655882"><ele>92.0</ele><time>2026-03-22T09:57:38Z</time></trkpt><trkpt lat="43.08760698977135" lon="10.774675814688571"><ele>92.66666666666667</ele><time>2026-03-22T09:57:39Z</time></trkpt><trkpt lat="43.08757788202203" lon="10.774567606519332"><ele>93.33333333333334</ele><time>2026-03-22T09:57:40Z</time></trkpt><trkpt lat="43.08755487407619" lon="10.77447043511293"><ele>94.0</ele><time>2026-03-22T09:57:41Z</time></trkpt><trkpt lat="43.087526830557884" lon="10.7743762399745"><ele>94.66666666666667</ele><time>2026-03-22T09:57:42Z</time></trkpt><trkpt lat="43.08749522394692" lon="10.774268566641046"><ele>95.33333333333333</ele><time>2026-03-22T09:57:43Z</time></trkpt><trkpt lat="43.087459100495096" lon="10.774152375699156"><ele>96.0</ele><time>2026-03-22T09:57:44Z</time></trkpt><trkpt lat="43.087432077118876" lon="10.77402117763206"><ele>94.83333333333333</ele><time>2026-03-22T09:57:45Z</time></trkpt><trkpt lat="43.087410989746125" lon="10.773919288126029"><ele>93.66666666666667</ele><time>2026-03-22T09:57:46Z</time></trkpt><trkpt lat="43.08738988611166" lon="10.773818740583753"><ele>92.5</ele><time>2026-03-22T09:57:47Z</time></trkpt><trkpt lat="43.08738782901129" lon="10.773711800964628"><ele>91.33333333333334</ele><time>2026-03-22T09:57:48Z</time></trkpt><trkpt lat="43.08737646670493" lon="10.773574858490658"><ele>90.16666666666667</ele><time>2026-03-22T09:57:49Z</time></trkpt><trkpt lat="43.087359124829064" lon="10.77348452184593"><ele>89.0</ele><time>2026-03-22T09:57:50Z</time></trkpt><trkpt lat="43.08734128810268" lon="10.773386083913557"><ele>88.66666666666667</ele><time>2026-03-22T09:57:51Z</time></trkpt><trkpt lat="43.087341890618355" lon="10.773253585281289"><ele>88.33333333333334</ele><time>2026-03-22T09:57:52Z</time></trkpt><trkpt lat="43.08733510105919" lon="10.773133157533541"><ele>88.0</ele><time>2026-03-22T09:57:53Z</time></trkpt><trkpt lat="43.0873289219402" lon="10.773028501431734"><ele>87.66666666666667</ele><time>2026-03-22T09:57:54Z</time></trkpt><trkpt lat="43.08733080893575" lon="10.7729126047172"><ele>87.33333333333333</ele><time>2026-03-22T09:57:55Z</time></trkpt><trkpt lat="43.08733071061885" lon="10.77281937582296"><ele>87.0</ele><time>2026-03-22T09:57:56Z</time></trkpt><trkpt lat="43.087366589432186" lon="10.7726400919287"><ele>86.83333333333333</ele><time>2026-03-22T09:57:58Z</time></trkpt><trkpt lat="43.0873782696236" lon="10.772528671409203"><ele>86.66666666666667</ele><time>2026-03-22T09:57:59Z</time></trkpt><trkpt lat="43.08738778041031" lon="10.772418330824419"><ele>86.5</ele><time>2026-03-22T09:58:00Z</time></trkpt><trkpt lat="43.08740335289592" lon="10.772304696220715"><ele>86.33333333333334</ele><time>2026-03-22T09:58:01Z</time></trkpt><trkpt lat="43.087412608468796" lon="10.772206614775836"><ele>86.16666666666667</ele><time>2026-03-22T09:58:02Z</time></trkpt><trkpt lat="43.087418287961526" lon="10.772108686354919"><ele>86.0</ele><time>2026-03-22T09:58:03Z</time></trkpt><trkpt lat="43.08743016779681" lon="10.772003912201667"><ele>86.66666666666667</ele><time>2026-03-22T09:58:04Z</time></trkpt><trkpt lat="43.08745036891299" lon="10.771914317676279"><ele>87.33333333333334</ele><time>2026-03-22T09:58:05Z</time></trkpt><trkpt lat="43.08747878499252" lon="10.771774943339985"><ele>88.0</ele><time>2026-03-22T09:58:07Z</time></trkpt><trkpt lat="43.08749649710288" lon="10.771682535215168"><ele>88.66666666666667</ele><time>2026-03-22T09:58:09Z</time></trkpt><trkpt lat="43.08751430443798" lon="10.771586064894578"><ele>89.33333333333333</ele><time>2026-03-22T09:58:11Z</time></trkpt><trkpt lat="43.08753526624578" lon="10.771469962378672"><ele>90.0</ele><time>2026-03-22T09:58:13Z</time></trkpt><trkpt lat="43.08754119409517" lon="10.771341441355425"><ele>90.0</ele><time>2026-03-22T09:58:15Z</time></trkpt><trkpt lat="43.087568533723925" lon="10.771225771122603"><ele>90.0</ele><time>2026-03-22T09:58:18Z</time></trkpt><trkpt lat="43.08759004482128" lon="10.771124685514843"><ele>90.0</ele><time>2026-03-22T09:58:21Z</time></trkpt><trkpt lat="43.08760641665044" lon="10.771017834376897"><ele>90.0</ele><time>2026-03-22T09:58:23Z</time></trkpt><trkpt lat="43.08762400722494" lon="10.770921998470726"><ele>90.0</ele><time>2026-03-22T09:58:26Z</time></trkpt><trkpt lat="43.08763540198946" lon="10.77083573977734"><ele>90.0</ele><time>2026-03-22T09:58:29Z</time></trkpt><trkpt lat="43.08765699060807" lon="10.77075142530096"><ele>90.0</ele><time>2026-03-22T09:58:31Z</time></trkpt><trkpt lat="43.087672661159395" lon="10.770663358676794"><ele>89.16666666666667</ele><time>2026-03-22T09:58:33Z</time></trkpt><trkpt lat="43.08771031342362" lon="10.77057135997786"><ele>88.33333333333333</ele><time>2026-03-22T09:58:37Z</time></trkpt><trkpt lat="43.08771707904953" lon="10.770472251958205"><ele>87.5</ele><time>2026-03-22T09:58:40Z</time></trkpt><trkpt lat="43.08774841553142" lon="10.770346655750119"><ele>86.66666666666666</ele><time>2026-03-22T09:58:43Z</time></trkpt><trkpt lat="43.08775618287947" lon="10.770222425530982"><ele>85.83333333333333</ele><time>2026-03-22T09:58:45Z</time></trkpt><trkpt lat="43.087802589628765" lon="10.77008844662252"><ele>85.0</ele><time>2026-03-22T09:58:47Z</time></trkpt><trkpt lat="43.08782098932848" lon="10.769894031412656"><ele>84.83333333333333</ele><time>2026-03-22T09:58:49Z</time></trkpt><trkpt lat="43.087833878637845" lon="10.769788320612907"><ele>84.66666666666666</ele><time>2026-03-22T09:58:50Z</time></trkpt><trkpt lat="43.08783369617655" lon="10.769674995807417"><ele>84.5</ele><time>2026-03-22T09:58:51Z</time></trkpt><trkpt lat="43.08783738179525" lon="10.769561922640962"><ele>84.33333333333333</ele><time>2026-03-22T09:58:52Z</time></trkpt><trkpt lat="43.08783601127682" lon="10.769444187264718"><ele>84.16666666666667</ele><time>2026-03-22T09:58:53Z</time></trkpt><trkpt lat="43.08783956120579" lon="10.769340623223618"><ele>84.0</ele><time>2026-03-22T09:58:54Z</time></trkpt><trkpt lat="43.08785005446985" lon="10.76924908064124"><ele>84.0</ele><time>2026-03-22T09:58:55Z</time></trkpt><trkpt lat="43.08788793150284" lon="10.769091386325936"><ele>84.0</ele><time>2026-03-22T09:58:57Z</time></trkpt><trkpt lat="43.08786796784743" lon="10.768923521138392"><ele>84.0</ele><time>2026-03-22T09:58:59Z</time></trkpt><trkpt lat="43.0878942938524" lon="10.768771689450704"><ele>84.0</ele><time>2026-03-22T09:59:01Z</time></trkpt><trkpt lat="43.08789967457108" lon="10.768677895776262"><ele>84.0</ele><time>2026-03-22T09:59:03Z</time></trkpt><trkpt lat="43.08788902906391" lon="10.768568246205465"><ele>83.83333333333333</ele><time>2026-03-22T09:59:07Z</time></trkpt><trkpt lat="43.08787600578056" lon="10.76842809699206"><ele>83.66666666666667</ele><time>2026-03-22T09:59:09Z</time></trkpt><trkpt lat="43.087874028780696" lon="10.76831560667676"><ele>83.5</ele><time>2026-03-22T09:59:10Z</time></trkpt><trkpt lat="43.08785965184408" lon="10.768198804513997"><ele>83.33333333333334</ele><time>2026-03-22T09:59:11Z</time></trkpt><trkpt lat="43.08785651833806" lon="10.768083308413074"><ele>83.16666666666667</ele><time>2026-03-22T09:59:12Z</time></trkpt><trkpt lat="43.08784997231339" lon="10.767965140710771"><ele>83.0</ele><time>2026-03-22T09:59:13Z</time></trkpt><trkpt lat="43.087836158075376" lon="10.767857767225212"><ele>83.0</ele><time>2026-03-22T09:59:14Z</time></trkpt><trkpt lat="43.08782956773036" lon="10.767725310562627"><ele>83.0</ele><time>2026-03-22T09:59:15Z</time></trkpt><trkpt lat="43.08782534895551" lon="10.767630982673136"><ele>83.0</ele><time>2026-03-22T09:59:16Z</time></trkpt><trkpt lat="43.08780407881623" lon="10.767523088448927"><ele>83.0</ele><time>2026-03-22T09:59:17Z</time></trkpt><trkpt lat="43.087787549892795" lon="10.767406770048137"><ele>83.0</ele><time>2026-03-22T09:59:18Z</time></trkpt><trkpt lat="43.08776639626946" lon="10.767266574906417"><ele>83.0</ele><time>2026-03-22T09:59:19Z</time></trkpt><trkpt lat="43.08774521486099" lon="10.767132693914142"><ele>83.2</ele><time>2026-03-22T09:59:20Z</time></trkpt><trkpt lat="43.08771931494253" lon="10.767001878586315"><ele>83.4</ele><time>2026-03-22T09:59:21Z</time></trkpt><trkpt lat="43.087690288980355" lon="10.766859392857329"><ele>83.60000000000001</ele><time>2026-03-22T09:59:22Z</time></trkpt><trkpt lat="43.087661613673795" lon="10.766699537552354"><ele>83.80000000000001</ele><time>2026-03-22T09:59:23Z</time></trkpt><trkpt lat="43.087636686137714" lon="10.766569965540715"><ele>84.0</ele><time>2026-03-22T09:59:24Z</time></trkpt><trkpt lat="43.08760689531976" lon="10.766424210800677"><ele>84.0</ele><time>2026-03-22T09:59:25Z</time></trkpt><trkpt lat="43.08756720359667" lon="10.766290420387197"><ele>84.0</ele><time>2026-03-22T09:59:26Z</time></trkpt><trkpt lat="43.087530147235476" lon="10.766170676345478"><ele>84.0</ele><time>2026-03-22T09:59:27Z</time></trkpt><trkpt lat="43.08749777988613" lon="10.766058849121597"><ele>84.0</ele><time>2026-03-22T09:59:28Z</time></trkpt><trkpt lat="43.08746558370063" lon="10.76594973493614"><ele>84.0</ele><time>2026-03-22T09:59:29Z</time></trkpt><trkpt lat="43.08742947656687" lon="10.765836878778813"><ele>83.33333333333333</ele><time>2026-03-22T09:59:30Z</time></trkpt><trkpt lat="43.08739555062137" lon="10.765711819679263"><ele>82.66666666666667</ele><time>2026-03-22T09:59:31Z</time></trkpt><trkpt lat="43.08737073730946" lon="10.765610050072997"><ele>82.0</ele><time>2026-03-22T09:59:32Z</time></trkpt><trkpt lat="43.087345162829685" lon="10.765505444880914"><ele>81.33333333333334</ele><time>2026-03-22T09:59:34Z</time></trkpt><trkpt lat="43.08731005805935" lon="10.765411441818882"><ele>80.66666666666667</ele><time>2026-03-22T09:59:38Z</time></trkpt><trkpt lat="43.087256831364236" lon="10.765271120046798"><ele>80.0</ele><time>2026-03-22T09:59:40Z</time></trkpt><trkpt lat="43.08721128892648" lon="10.76516635780343"><ele>80.0</ele><time>2026-03-22T09:59:41Z</time></trkpt><trkpt lat="43.08716853557108" lon="10.765064782790144"><ele>80.0</ele><time>2026-03-22T09:59:42Z</time></trkpt><trkpt lat="43.08711781440251" lon="10.764948401621345"><ele>80.0</ele><time>2026-03-22T09:59:43Z</time></trkpt><trkpt lat="43.087079847136515" lon="10.764860236437192"><ele>80.0</ele><time>2026-03-22T09:59:44Z</time></trkpt><trkpt lat="43.087046525457126" lon="10.764763492573778"><ele>80.0</ele><time>2026-03-22T09:59:45Z</time></trkpt><trkpt lat="43.086998992064366" lon="10.764656376378255"><ele>80.0</ele><time>2026-03-22T09:59:46Z</time></trkpt><trkpt lat="43.08695118821102" lon="10.764542460146934"><ele>80.0</ele><time>2026-03-22T09:59:47Z</time></trkpt><trkpt lat="43.086891975477315" lon="10.764427372534406"><ele>80.0</ele><time>2026-03-22T09:59:48Z</time></trkpt><trkpt lat="43.08682304740557" lon="10.764311502642471"><ele>80.0</ele><time>2026-03-22T09:59:49Z</time></trkpt><trkpt lat="43.08676042079046" lon="10.764211510412702"><ele>80.0</ele><time>2026-03-22T09:59:50Z</time></trkpt><trkpt lat="43.08670168326204" lon="10.764108409425859"><ele>80.0</ele><time>2026-03-22T09:59:51Z</time></trkpt><trkpt lat="43.08663645831438" lon="10.764010040747028"><ele>79.6</ele><time>2026-03-22T09:59:52Z</time></trkpt><trkpt lat="43.086582429197705" lon="10.763897995539246"><ele>79.2</ele><time>2026-03-22T09:59:53Z</time></trkpt><trkpt lat="43.086523497190996" lon="10.763781418965698"><ele>78.8</ele><time>2026-03-22T09:59:54Z</time></trkpt><trkpt lat="43.08645290465949" lon="10.76366405453309"><ele>78.4</ele><time>2026-03-22T09:59:55Z</time></trkpt><trkpt lat="43.08636656623502" lon="10.763555756830767"><ele>78.0</ele><time>2026-03-22T09:59:56Z</time></trkpt><trkpt lat="43.08629356433093" lon="10.763456842723512"><ele>78.83333333333333</ele><time>2026-03-22T09:59:57Z</time></trkpt><trkpt lat="43.086229577414066" lon="10.763368652000535"><ele>79.66666666666667</ele><time>2026-03-22T09:59:58Z</time></trkpt><trkpt lat="43.08617221507548" lon="10.763281430142706"><ele>80.5</ele><time>2026-03-22T09:59:59Z</time></trkpt><trkpt lat="43.08611953016337" lon="10.76322322893793"><ele>81.33333333333334</ele><time>2026-03-22T10:00:00Z</time></trkpt><trkpt lat="43.08604660729943" lon="10.763143208552444"><ele>82.16666666666667</ele><time>2026-03-22T10:00:02Z</time></trkpt><trkpt lat="43.08599389316758" lon="10.763090384176076"><ele>83.0</ele><time>2026-03-22T10:00:05Z</time></trkpt><trkpt lat="43.085948218258665" lon="10.763027305038548"><ele>83.0</ele><time>2026-03-22T10:00:08Z</time></trkpt><trkpt lat="43.085881881617894" lon="10.762957959725398"><ele>83.0</ele><time>2026-03-22T10:00:13Z</time></trkpt><trkpt lat="43.0858239764984" lon="10.762892600727492"><ele>83.0</ele><time>2026-03-22T10:00:16Z</time></trkpt><trkpt lat="43.085765788743196" lon="10.762831981860465"><ele>83.0</ele><time>2026-03-22T10:00:18Z</time></trkpt><trkpt lat="43.08570968661302" lon="10.762752747956071"><ele>83.0</ele><time>2026-03-22T10:00:22Z</time></trkpt><trkpt lat="43.08564001474629" lon="10.76268510073888"><ele>83.0</ele><time>2026-03-22T10:00:25Z</time></trkpt><trkpt lat="43.08557478690605" lon="10.762643195927296"><ele>82.4</ele><time>2026-03-22T10:00:27Z</time></trkpt><trkpt lat="43.08548258600827" lon="10.762560103490827"><ele>81.80000000000001</ele><time>2026-03-22T10:00:29Z</time></trkpt><trkpt lat="43.08540070799089" lon="10.762481342532801"><ele>81.2</ele><time>2026-03-22T10:00:31Z</time></trkpt><trkpt lat="43.08530517100873" lon="10.762405087123389"><ele>80.6</ele><time>2026-03-22T10:00:33Z</time></trkpt><trkpt lat="43.08525018328227" lon="10.762346966431773"><ele>80.0</ele><time>2026-03-22T10:00:34Z</time></trkpt><trkpt lat="43.08519866509396" lon="10.762287120669804"><ele>80.0</ele><time>2026-03-22T10:00:35Z</time></trkpt><trkpt lat="43.08513788610199" lon="10.762230109693625"><ele>80.0</ele><time>2026-03-22T10:00:36Z</time></trkpt><trkpt lat="43.0850651198694" lon="10.762177352889285"><ele>80.0</ele><time>2026-03-22T10:00:37Z</time></trkpt><trkpt lat="43.08500068559996" lon="10.762106007375094"><ele>80.0</ele><time>2026-03-22T10:00:38Z</time></trkpt><trkpt lat="43.08493890183267" lon="10.762039817797353"><ele>80.0</ele><time>2026-03-22T10:00:39Z</time></trkpt><trkpt lat="43.084857031138796" lon="10.761983942852769"><ele>80.0</ele><time>2026-03-22T10:00:40Z</time></trkpt><trkpt lat="43.08477249938262" lon="10.761927301293492"><ele>80.0</ele><time>2026-03-22T10:00:41Z</time></trkpt><trkpt lat="43.0847060245288" lon="10.76186653377872"><ele>80.0</ele><time>2026-03-22T10:00:42Z</time></trkpt><trkpt lat="43.084628201228995" lon="10.761800196916141"><ele>80.0</ele><time>2026-03-22T10:00:43Z</time></trkpt><trkpt lat="43.084532349167496" lon="10.761724783201013"><ele>80.0</ele><time>2026-03-22T10:00:44Z</time></trkpt><trkpt lat="43.08442057640289" lon="10.761637834800046"><ele>80.0</ele><time>2026-03-22T10:00:45Z</time></trkpt><trkpt lat="43.08431424199827" lon="10.761538612439216"><ele>80.0</ele><time>2026-03-22T10:00:46Z</time></trkpt><trkpt lat="43.08419530501147" lon="10.761442337001528"><ele>80.0</ele><time>2026-03-22T10:00:47Z</time></trkpt><trkpt lat="43.08408589633514" lon="10.761350094873416"><ele>80.0</ele><time>2026-03-22T10:00:48Z</time></trkpt><trkpt lat="43.08397069756706" lon="10.761244102236148"><ele>80.0</ele><time>2026-03-22T10:00:49Z</time></trkpt><trkpt lat="43.08384595191237" lon="10.761129184744252"><ele>79.66666666666667</ele><time>2026-03-22T10:00:50Z</time></trkpt><trkpt lat="43.08371344389479" lon="10.761016359386606"><ele>79.33333333333333</ele><time>2026-03-22T10:00:51Z</time></trkpt><trkpt lat="43.08358811902723" lon="10.760889493061933"><ele>79.0</ele><time>2026-03-22T10:00:52Z</time></trkpt><trkpt lat="43.08345881242571" lon="10.760772681555006"><ele>79.0</ele><time>2026-03-22T10:00:53Z</time></trkpt><trkpt lat="43.08332903996815" lon="10.760654716904945"><ele>79.0</ele><time>2026-03-22T10:00:54Z</time></trkpt><trkpt lat="43.08319315286119" lon="10.760553738411014"><ele>79.0</ele><time>2026-03-22T10:00:55Z</time></trkpt><trkpt lat="43.083064410189834" lon="10.760434333617123"><ele>78.0</ele><time>2026-03-22T10:00:56Z</time></trkpt><trkpt lat="43.08293420012574" lon="10.760313795172284"><ele>77.0</ele><time>2026-03-22T10:00:57Z</time></trkpt><trkpt lat="43.082808080787615" lon="10.760186903149776"><ele>76.0</ele><time>2026-03-22T10:00:58Z</time></trkpt><trkpt lat="43.082686518131496" lon="10.760071770231988"><ele>76.0</ele><time>2026-03-22T10:00:59Z</time></trkpt><trkpt lat="43.08256050188661" lon="10.759962184430785"><ele>76.0</ele><time>2026-03-22T10:01:00Z</time></trkpt><trkpt lat="43.08242754630668" lon="10.759855774285851"><ele>76.0</ele><time>2026-03-22T10:01:01Z</time></trkpt><trkpt lat="43.08229321564887" lon="10.759741125137465"><ele>74.66666666666666</ele><time>2026-03-22T10:01:02Z</time></trkpt><trkpt lat="43.08215764198269" lon="10.759623044128109"><ele>73.33333333333333</ele><time>2026-03-22T10:01:03Z</time></trkpt><trkpt lat="43.08202431410511" lon="10.759507183336746"><ele>72.0</ele><time>2026-03-22T10:01:04Z</time></trkpt><trkpt lat="43.081886506861366" lon="10.759386581628094"><ele>72.0</ele><time>2026-03-22T10:01:05Z</time></trkpt><trkpt lat="43.08175873331151" lon="10.759274889565656"><ele>72.0</ele><time>2026-03-22T10:01:06Z</time></trkpt><trkpt lat="43.081633881811875" lon="10.759168483898867"><ele>72.0</ele><time>2026-03-22T10:01:07Z</time></trkpt><trkpt lat="43.08151887108653" lon="10.759071102061036"><ele>72.0</ele><time>2026-03-22T10:01:08Z</time></trkpt><trkpt lat="43.0814209183463" lon="10.758976317826198"><ele>72.0</ele><time>2026-03-22T10:01:09Z</time></trkpt><trkpt lat="43.08132234627166" lon="10.75889635724427"><ele>72.0</ele><time>2026-03-22T10:01:10Z</time></trkpt><trkpt lat="43.081227529149615" lon="10.758815984667509"><ele>72.0</ele><time>2026-03-22T10:01:11Z</time></trkpt><trkpt lat="43.08112036023971" lon="10.758728319283888"><ele>72.0</ele><time>2026-03-22T10:01:12Z</time></trkpt><trkpt lat="43.08100374949077" lon="10.758629892393602"><ele>72.0</ele><time>2026-03-22T10:01:13Z</time></trkpt><trkpt lat="43.08088812696299" lon="10.758524770672615"><ele>72.0</ele><time>2026-03-22T10:01:14Z</time></trkpt><trkpt lat="43.08077239176022" lon="10.758423904418274"><ele>72.0</ele><time>2026-03-22T10:01:15Z</time></trkpt><trkpt lat="43.08066055077636" lon="10.758307008643937"><ele>72.0</ele><time>2026-03-22T10:01:16Z</time></trkpt><trkpt lat="43.08056599243814" lon="10.758241642507818"><ele>72.0</ele><time>2026-03-22T10:01:17Z</time></trkpt><trkpt lat="43.08045327411687" lon="10.758140606947826"><ele>72.0</ele><time>2026-03-22T10:01:18Z</time></trkpt><trkpt lat="43.08032804076834" lon="10.758037121546511"><ele>72.0</ele><time>2026-03-22T10:01:19Z</time></trkpt><trkpt lat="43.080202512884405" lon="10.757929722475062"><ele>72.0</ele><time>2026-03-22T10:01:20Z</time></trkpt><trkpt lat="43.08007700779316" lon="10.757823065969545"><ele>72.0</ele><time>2026-03-22T10:01:21Z</time></trkpt><trkpt lat="43.0799578797474" lon="10.7577157957816"><ele>72.0</ele><time>2026-03-22T10:01:22Z</time></trkpt><trkpt lat="43.079831086089655" lon="10.757607987014064"><ele>72.0</ele><time>2026-03-22T10:01:23Z</time></trkpt><trkpt lat="43.0797101535991" lon="10.757489895964712"><ele>72.0</ele><time>2026-03-22T10:01:24Z</time></trkpt><trkpt lat="43.07959201294274" lon="10.757363379550112"><ele>71.75</ele><time>2026-03-22T10:01:25Z</time></trkpt><trkpt lat="43.07947577757907" lon="10.757242628735666"><ele>71.5</ele><time>2026-03-22T10:01:26Z</time></trkpt><trkpt lat="43.07936301540018" lon="10.757118352208957"><ele>71.25</ele><time>2026-03-22T10:01:27Z</time></trkpt><trkpt lat="43.07924491086055" lon="10.756984584317562"><ele>71.0</ele><time>2026-03-22T10:01:28Z</time></trkpt><trkpt lat="43.07912741238239" lon="10.756843269112155"><ele>70.66666666666667</ele><time>2026-03-22T10:01:29Z</time></trkpt><trkpt lat="43.07901116717645" lon="10.756691907622908"><ele>70.33333333333333</ele><time>2026-03-22T10:01:30Z</time></trkpt><trkpt lat="43.07890050917223" lon="10.756535138803562"><ele>70.0</ele><time>2026-03-22T10:01:31Z</time></trkpt><trkpt lat="43.07879660409964" lon="10.756379613705173"><ele>70.0</ele><time>2026-03-22T10:01:32Z</time></trkpt><trkpt lat="43.07869151833672" lon="10.756212414326706"><ele>70.0</ele><time>2026-03-22T10:01:33Z</time></trkpt><trkpt lat="43.07859401421177" lon="10.756047284410194"><ele>70.0</ele><time>2026-03-22T10:01:34Z</time></trkpt><trkpt lat="43.07850301368671" lon="10.755885988528245"><ele>70.33333333333333</ele><time>2026-03-22T10:01:35Z</time></trkpt><trkpt lat="43.078407938251324" lon="10.75572949441564"><ele>70.66666666666667</ele><time>2026-03-22T10:01:36Z</time></trkpt><trkpt lat="43.07830940529147" lon="10.755571516820364"><ele>71.0</ele><time>2026-03-22T10:01:37Z</time></trkpt><trkpt lat="43.07821280355892" lon="10.755408640978562"><ele>69.66666666666667</ele><time>2026-03-22T10:01:38Z</time></trkpt><trkpt lat="43.078114824304805" lon="10.755237743083779"><ele>68.33333333333333</ele><time>2026-03-22T10:01:39Z</time></trkpt><trkpt lat="43.07802005920855" lon="10.75505474981817"><ele>67.0</ele><time>2026-03-22T10:01:40Z</time></trkpt><trkpt lat="43.077924851278745" lon="10.754866860346766"><ele>67.0</ele><time>2026-03-22T10:01:41Z</time></trkpt><trkpt lat="43.077849918998076" lon="10.754708197599783"><ele>67.0</ele><time>2026-03-22T10:01:42Z</time></trkpt><trkpt lat="43.07777930292824" lon="10.7545662235459"><ele>67.0</ele><time>2026-03-22T10:01:43Z</time></trkpt><trkpt lat="43.077707985092914" lon="10.754432640598244"><ele>67.0</ele><time>2026-03-22T10:01:44Z</time></trkpt><trkpt lat="43.077615299622174" lon="10.75430390491931"><ele>67.0</ele><time>2026-03-22T10:01:45Z</time></trkpt><trkpt lat="43.077539406138506" lon="10.754133798097445"><ele>67.0</ele><time>2026-03-22T10:01:46Z</time></trkpt><trkpt lat="43.07744633416341" lon="10.753986759477163"><ele>67.0</ele><time>2026-03-22T10:01:47Z</time></trkpt><trkpt lat="43.07738398037048" lon="10.753820474159859"><ele>67.0</ele><time>2026-03-22T10:01:48Z</time></trkpt><trkpt lat="43.07729229059799" lon="10.753662766024995"><ele>67.75</ele><time>2026-03-22T10:01:49Z</time></trkpt><trkpt lat="43.07721065610465" lon="10.753499337794892"><ele>68.5</ele><time>2026-03-22T10:01:50Z</time></trkpt><trkpt lat="43.07711646894287" lon="10.753346008358927"><ele>69.25</ele><time>2026-03-22T10:01:51Z</time></trkpt><trkpt lat="43.077011224482206" lon="10.753187960149871"><ele>70.0</ele><time>2026-03-22T10:01:52Z</time></trkpt><trkpt lat="43.07691766296" lon="10.75302186764167"><ele>70.0</ele><time>2026-03-22T10:01:53Z</time></trkpt><trkpt lat="43.07679941104287" lon="10.752890656907391"><ele>70.0</ele><time>2026-03-22T10:01:54Z</time></trkpt><trkpt lat="43.07668447391773" lon="10.75275067626413"><ele>70.0</ele><time>2026-03-22T10:01:55Z</time></trkpt><trkpt lat="43.07656404419949" lon="10.75261990673013"><ele>68.33333333333333</ele><time>2026-03-22T10:01:56Z</time></trkpt><trkpt lat="43.07643524439729" lon="10.752500917832045"><ele>66.66666666666667</ele><time>2026-03-22T10:01:57Z</time></trkpt><trkpt lat="43.076301574140324" lon="10.752387117219563"><ele>65.0</ele><time>2026-03-22T10:01:58Z</time></trkpt><trkpt lat="43.076189170798095" lon="10.752279010969538"><ele>65.0</ele><time>2026-03-22T10:01:59Z</time></trkpt><trkpt lat="43.076060228307156" lon="10.752181075543502"><ele>65.0</ele><time>2026-03-22T10:02:00Z</time></trkpt><trkpt lat="43.07592931535083" lon="10.752101621931004"><ele>65.0</ele><time>2026-03-22T10:02:01Z</time></trkpt><trkpt lat="43.07580457288704" lon="10.752037458684164"><ele>65.0</ele><time>2026-03-22T10:02:02Z</time></trkpt><trkpt lat="43.0756906754389" lon="10.752003715077713"><ele>64.66666666666667</ele><time>2026-03-22T10:02:03Z</time></trkpt><trkpt lat="43.07559301646855" lon="10.751957276049657"><ele>64.33333333333334</ele><time>2026-03-22T10:02:04Z</time></trkpt><trkpt lat="43.075504904983" lon="10.75191913733669"><ele>64.0</ele><time>2026-03-22T10:02:05Z</time></trkpt><trkpt lat="43.075433805145835" lon="10.751891746921899"><ele>63.66666666666667</ele><time>2026-03-22T10:02:06Z</time></trkpt><trkpt lat="43.075365265277306" lon="10.751881960441581"><ele>63.333333333333336</ele><time>2026-03-22T10:02:07Z</time></trkpt><trkpt lat="43.07528338611826" lon="10.751895825659933"><ele>63.0</ele><time>2026-03-22T10:02:08Z</time></trkpt><trkpt lat="43.07521514598564" lon="10.751888832274691"><ele>63.0</ele><time>2026-03-22T10:02:09Z</time></trkpt><trkpt lat="43.075138668860006" lon="10.751899779797098"><ele>63.0</ele><time>2026-03-22T10:02:10Z</time></trkpt><trkpt lat="43.07505999469585" lon="10.751936326195171"><ele>63.0</ele><time>2026-03-22T10:02:11Z</time></trkpt><trkpt lat="43.07498186183448" lon="10.751955215896045"><ele>63.0</ele><time>2026-03-22T10:02:12Z</time></trkpt><trkpt lat="43.074912664333645" lon="10.751958804030217"><ele>63.0</ele><time>2026-03-22T10:02:13Z</time></trkpt><trkpt lat="43.07484446333026" lon="10.751965730962338"><ele>63.0</ele><time>2026-03-22T10:02:14Z</time></trkpt><trkpt lat="43.07474844145933" lon="10.75200433250845"><ele>63.166666666666664</ele><time>2026-03-22T10:02:16Z</time></trkpt><trkpt lat="43.07467550701654" lon="10.752010594179644"><ele>63.33333333333333</ele><time>2026-03-22T10:02:18Z</time></trkpt><trkpt lat="43.07457837801296" lon="10.751930519769854"><ele>63.5</ele><time>2026-03-22T10:02:20Z</time></trkpt><trkpt lat="43.07452640253121" lon="10.751867950390231"><ele>63.666666666666664</ele><time>2026-03-22T10:02:21Z</time></trkpt><trkpt lat="43.07445339142427" lon="10.75180693633799"><ele>63.83333333333333</ele><time>2026-03-22T10:02:22Z</time></trkpt><trkpt lat="43.07436710603362" lon="10.751769030017162"><ele>64.0</ele><time>2026-03-22T10:02:23Z</time></trkpt><trkpt lat="43.074272611923924" lon="10.751743059972005"><ele>64.0</ele><time>2026-03-22T10:02:24Z</time></trkpt><trkpt lat="43.07416334720413" lon="10.751717187148804"><ele>64.0</ele><time>2026-03-22T10:02:25Z</time></trkpt><trkpt lat="43.07404599393289" lon="10.751653470054856"><ele>64.0</ele><time>2026-03-22T10:02:26Z</time></trkpt><trkpt lat="43.07392511132687" lon="10.751586982353391"><ele>64.0</ele><time>2026-03-22T10:02:27Z</time></trkpt><trkpt lat="43.07380732047488" lon="10.751507325489351"><ele>64.0</ele><time>2026-03-22T10:02:28Z</time></trkpt><trkpt lat="43.07366760908469" lon="10.751457666593655"><ele>64.0</ele><time>2026-03-22T10:02:29Z</time></trkpt><trkpt lat="43.073527051774626" lon="10.751380615083779"><ele>64.0</ele><time>2026-03-22T10:02:30Z</time></trkpt><trkpt lat="43.073389216445825" lon="10.751306252037283"><ele>64.0</ele><time>2026-03-22T10:02:31Z</time></trkpt><trkpt lat="43.07327160605706" lon="10.751238006949182"><ele>64.2</ele><time>2026-03-22T10:02:32Z</time></trkpt><trkpt lat="43.073156303627" lon="10.751178948356333"><ele>64.4</ele><time>2026-03-22T10:02:33Z</time></trkpt><trkpt lat="43.07306005825691" lon="10.751108960378934"><ele>64.6</ele><time>2026-03-22T10:02:34Z</time></trkpt><trkpt lat="43.07298913415161" lon="10.751051748887214"><ele>64.8</ele><time>2026-03-22T10:02:35Z</time></trkpt><trkpt lat="43.072892427051116" lon="10.750982164242"><ele>65.0</ele><time>2026-03-22T10:02:37Z</time></trkpt><trkpt lat="43.07292466329079" lon="10.751346288145346"><ele>65.0</ele><time>2026-03-22T10:03:15Z</time></trkpt><trkpt lat="43.07298611209752" lon="10.751501236424092"><ele>65.0</ele><time>2026-03-22T10:03:16Z</time></trkpt><trkpt lat="43.073052334192006" lon="10.751668220228089"><ele>65.0</ele><time>2026-03-22T10:03:17Z</time></trkpt><trkpt lat="43.07312889627093" lon="10.75186127732545"><ele>65.0</ele><time>2026-03-22T10:03:18Z</time></trkpt><trkpt lat="43.07321626962194" lon="10.75208159594847"><ele>65.66666666666667</ele><time>2026-03-22T10:03:19Z</time></trkpt><trkpt lat="43.07330642886129" lon="10.752308939315922"><ele>66.33333333333333</ele><time>2026-03-22T10:03:20Z</time></trkpt><trkpt lat="43.07339717003167" lon="10.752537749984924"><ele>67.0</ele><time>2026-03-22T10:03:21Z</time></trkpt><trkpt lat="43.07348816560803" lon="10.752768461106117"><ele>67.66666666666666</ele><time>2026-03-22T10:03:22Z</time></trkpt><trkpt lat="43.07357837444261" lon="10.752999134536099"><ele>68.33333333333333</ele><time>2026-03-22T10:03:23Z</time></trkpt><trkpt lat="43.073659793995304" lon="10.753207332828266"><ele>69.0</ele><time>2026-03-22T10:03:24Z</time></trkpt><trkpt lat="43.07373480084595" lon="10.753395936486722"><ele>69.75</ele><time>2026-03-22T10:03:25Z</time></trkpt><trkpt lat="43.073795557352696" lon="10.7535612938196"><ele>70.5</ele><time>2026-03-22T10:03:26Z</time></trkpt><trkpt lat="43.073841945058994" lon="10.753731507275843"><ele>71.25</ele><time>2026-03-22T10:03:27Z</time></trkpt><trkpt lat="43.07388417746766" lon="10.75393594467731"><ele>72.0</ele><time>2026-03-22T10:03:28Z</time></trkpt><trkpt lat="43.07393131108102" lon="10.754156500819109"><ele>72.0</ele><time>2026-03-22T10:03:29Z</time></trkpt><trkpt lat="43.07398110850181" lon="10.754385281656775"><ele>72.0</ele><time>2026-03-22T10:03:30Z</time></trkpt><trkpt lat="43.07403345872799" lon="10.754607797536162"><ele>72.0</ele><time>2026-03-22T10:03:31Z</time></trkpt><trkpt lat="43.074074229417434" lon="10.754826035852979"><ele>72.0</ele><time>2026-03-22T10:03:32Z</time></trkpt><trkpt lat="43.07409937434288" lon="10.75504978567505"><ele>72.0</ele><time>2026-03-22T10:03:33Z</time></trkpt><trkpt lat="43.07411287502422" lon="10.755277773970484"><ele>72.0</ele><time>2026-03-22T10:03:34Z</time></trkpt><trkpt lat="43.074125115335434" lon="10.755515604904115"><ele>71.66666666666667</ele><time>2026-03-22T10:03:35Z</time></trkpt><trkpt lat="43.07413882106436" lon="10.755752075546088"><ele>71.33333333333334</ele><time>2026-03-22T10:03:36Z</time></trkpt><trkpt lat="43.074152991362126" lon="10.755993280858053"><ele>71.0</ele><time>2026-03-22T10:03:37Z</time></trkpt><trkpt lat="43.07416574919654" lon="10.756231597049936"><ele>71.66666666666667</ele><time>2026-03-22T10:03:38Z</time></trkpt><trkpt lat="43.07417831329175" lon="10.756466972983254"><ele>72.33333333333333</ele><time>2026-03-22T10:03:39Z</time></trkpt><trkpt lat="43.07419001960592" lon="10.756700800335203"><ele>73.0</ele><time>2026-03-22T10:03:40Z</time></trkpt><trkpt lat="43.074201953627885" lon="10.756937592332557"><ele>75.33333333333333</ele><time>2026-03-22T10:03:41Z</time></trkpt><trkpt lat="43.07421503780852" lon="10.757167643094881"><ele>77.66666666666667</ele><time>2026-03-22T10:03:42Z</time></trkpt><trkpt lat="43.074228120524396" lon="10.757397668255319"><ele>80.0</ele><time>2026-03-22T10:03:43Z</time></trkpt><trkpt lat="43.074241376553886" lon="10.757630740368077"><ele>85.0</ele><time>2026-03-22T10:03:44Z</time></trkpt><trkpt lat="43.07425337372365" lon="10.757860437238469"><ele>90.0</ele><time>2026-03-22T10:03:45Z</time></trkpt><trkpt lat="43.074264707495" lon="10.758083382902157"><ele>95.0</ele><time>2026-03-22T10:03:46Z</time></trkpt><trkpt lat="43.07427608804854" lon="10.758306528312072"><ele>95.0</ele><time>2026-03-22T10:03:47Z</time></trkpt><trkpt lat="43.07428826456953" lon="10.75852392179262"><ele>95.0</ele><time>2026-03-22T10:03:48Z</time></trkpt><trkpt lat="43.07430415138666" lon="10.758744440847806"><ele>95.0</ele><time>2026-03-22T10:03:49Z</time></trkpt><trkpt lat="43.07431989542583" lon="10.758940960786507"><ele>97.75</ele><time>2026-03-22T10:03:50Z</time></trkpt><trkpt lat="43.07433980122118" lon="10.759110671439291"><ele>100.5</ele><time>2026-03-22T10:03:51Z</time></trkpt><trkpt lat="43.07437332976976" lon="10.759252006091952"><ele>103.25</ele><time>2026-03-22T10:03:52Z</time></trkpt><trkpt lat="43.07442406256786" lon="10.759369931421832"><ele>106.0</ele><time>2026-03-22T10:03:53Z</time></trkpt><trkpt lat="43.074531613469716" lon="10.759438658041384"><ele>104.75</ele><time>2026-03-22T10:03:54Z</time></trkpt><trkpt lat="43.074639732243924" lon="10.759479472638313"><ele>103.5</ele><time>2026-03-22T10:03:55Z</time></trkpt><trkpt lat="43.07475953088362" lon="10.759465210297517"><ele>102.25</ele><time>2026-03-22T10:03:56Z</time></trkpt><trkpt lat="43.07487097022421" lon="10.759382854702237"><ele>101.0</ele><time>2026-03-22T10:03:57Z</time></trkpt><trkpt lat="43.07498763177751" lon="10.75932941255046"><ele>101.0</ele><time>2026-03-22T10:03:58Z</time></trkpt><trkpt lat="43.075088065003214" lon="10.759316761665769"><ele>101.0</ele><time>2026-03-22T10:03:59Z</time></trkpt><trkpt lat="43.07518069368245" lon="10.759407858537537"><ele>101.0</ele><time>2026-03-22T10:04:00Z</time></trkpt><trkpt lat="43.07527950897144" lon="10.759490224116929"><ele>101.0</ele><time>2026-03-22T10:04:01Z</time></trkpt><trkpt lat="43.075341099797875" lon="10.759617217224466"><ele>101.0</ele><time>2026-03-22T10:04:02Z</time></trkpt><trkpt lat="43.07539187796892" lon="10.759767155652337"><ele>104.5</ele><time>2026-03-22T10:04:03Z</time></trkpt><trkpt lat="43.07543064151078" lon="10.759937496265714"><ele>108.0</ele><time>2026-03-22T10:04:04Z</time></trkpt><trkpt lat="43.07547118687518" lon="10.760120718907128"><ele>111.5</ele><time>2026-03-22T10:04:05Z</time></trkpt><trkpt lat="43.07549812966969" lon="10.760276715512148"><ele>115.0</ele><time>2026-03-22T10:04:06Z</time></trkpt><trkpt lat="43.075496494948595" lon="10.760401216350424"><ele>116.6</ele><time>2026-03-22T10:04:07Z</time></trkpt><trkpt lat="43.07546593138429" lon="10.760525968574685"><ele>118.2</ele><time>2026-03-22T10:04:08Z</time></trkpt><trkpt lat="43.07542069255464" lon="10.760622111216545"><ele>119.80000000000001</ele><time>2026-03-22T10:04:09Z</time></trkpt><trkpt lat="43.07533350970154" lon="10.760665267587878"><ele>121.4</ele><time>2026-03-22T10:04:11Z</time></trkpt><trkpt lat="43.0752761801431" lon="10.760508389828242"><ele>123.0</ele><time>2026-03-22T10:04:13Z</time></trkpt><trkpt lat="43.07527569240458" lon="10.760372194492675"><ele>123.0</ele><time>2026-03-22T10:04:14Z</time></trkpt><trkpt lat="43.07525692735429" lon="10.760253408386086"><ele>123.00000000000001</ele><time>2026-03-22T10:04:15Z</time></trkpt><trkpt lat="43.07518789860541" lon="10.760182509231502"><ele>123.00000000000001</ele><time>2026-03-22T10:04:16Z</time></trkpt><trkpt lat="43.07507603248387" lon="10.7601534363298"><ele>123.0</ele><time>2026-03-22T10:04:17Z</time></trkpt><trkpt lat="43.07494280926197" lon="10.76018267673711"><ele>123.0</ele><time>2026-03-22T10:04:18Z</time></trkpt><trkpt lat="43.07479740583648" lon="10.760267733819347"><ele>124.66666666666666</ele><time>2026-03-22T10:04:19Z</time></trkpt><trkpt lat="43.0746318327187" lon="10.760365353739271"><ele>126.33333333333333</ele><time>2026-03-22T10:04:20Z</time></trkpt><trkpt lat="43.07447071636813" lon="10.760496499413383"><ele>128.0</ele><time>2026-03-22T10:04:21Z</time></trkpt><trkpt lat="43.07431823728475" lon="10.760615574509112"><ele>128.0</ele><time>2026-03-22T10:04:22Z</time></trkpt><trkpt lat="43.07418616556656" lon="10.760713819175695"><ele>128.0</ele><time>2026-03-22T10:04:23Z</time></trkpt><trkpt lat="43.07407041839568" lon="10.760802997746035"><ele>128.0</ele><time>2026-03-22T10:04:24Z</time></trkpt><trkpt lat="43.07397352513594" lon="10.760886283336616"><ele>128.0</ele><time>2026-03-22T10:04:25Z</time></trkpt><trkpt lat="43.07389892170641" lon="10.760980945502919"><ele>125.25</ele><time>2026-03-22T10:04:26Z</time></trkpt><trkpt lat="43.07386630481567" lon="10.761119464485674"><ele>122.5</ele><time>2026-03-22T10:04:27Z</time></trkpt><trkpt lat="43.07386714780511" lon="10.761307835880412"><ele>119.75</ele><time>2026-03-22T10:04:28Z</time></trkpt><trkpt lat="43.07389303534889" lon="10.761541088558294"><ele>117.0</ele><time>2026-03-22T10:04:29Z</time></trkpt><trkpt lat="43.07391832512372" lon="10.761784475072949"><ele>118.33333333333334</ele><time>2026-03-22T10:04:30Z</time></trkpt><trkpt lat="43.0739443846177" lon="10.762046288009275"><ele>119.66666666666667</ele><time>2026-03-22T10:04:31Z</time></trkpt><trkpt lat="43.0739661363851" lon="10.762287424929458"><ele>121.0</ele><time>2026-03-22T10:04:32Z</time></trkpt><trkpt lat="43.07398256015885" lon="10.762484449982678"><ele>121.0</ele><time>2026-03-22T10:04:33Z</time></trkpt><trkpt lat="43.074002630340296" lon="10.762672870016848"><ele>121.0</ele><time>2026-03-22T10:04:34Z</time></trkpt><trkpt lat="43.07405098889641" lon="10.762862826580555"><ele>121.0</ele><time>2026-03-22T10:04:35Z</time></trkpt><trkpt lat="43.0741198289925" lon="10.763003571642571"><ele>121.0</ele><time>2026-03-22T10:04:36Z</time></trkpt><trkpt lat="43.07423086871173" lon="10.76311181296182"><ele>125.5</ele><time>2026-03-22T10:04:37Z</time></trkpt><trkpt lat="43.07435573208896" lon="10.763190294934732"><ele>130.0</ele><time>2026-03-22T10:04:38Z</time></trkpt><trkpt lat="43.0744929798304" lon="10.76323680491986"><ele>134.5</ele><time>2026-03-22T10:04:39Z</time></trkpt><trkpt lat="43.07464954423807" lon="10.763255699071168"><ele>139.0</ele><time>2026-03-22T10:04:40Z</time></trkpt><trkpt lat="43.07481154352857" lon="10.76329376282887"><ele>141.5</ele><time>2026-03-22T10:04:41Z</time></trkpt><trkpt lat="43.07496134774987" lon="10.763329726173897"><ele>144.0</ele><time>2026-03-22T10:04:42Z</time></trkpt><trkpt lat="43.07507979286766" lon="10.763370260706841"><ele>146.5</ele><time>2026-03-22T10:04:43Z</time></trkpt><trkpt lat="43.075165429033625" lon="10.763430436871879"><ele>149.0</ele><time>2026-03-22T10:04:44Z</time></trkpt><trkpt lat="43.07523945373294" lon="10.763517113300702"><ele>151.75</ele><time>2026-03-22T10:04:45Z</time></trkpt><trkpt lat="43.075281787705265" lon="10.763648632860615"><ele>154.5</ele><time>2026-03-22T10:04:46Z</time></trkpt><trkpt lat="43.07533814608544" lon="10.763807610451245"><ele>157.25</ele><time>2026-03-22T10:04:47Z</time></trkpt><trkpt lat="43.075409784596445" lon="10.763985333132567"><ele>160.0</ele><time>2026-03-22T10:04:48Z</time></trkpt><trkpt lat="43.07548726215733" lon="10.76417298204508"><ele>160.0</ele><time>2026-03-22T10:04:49Z</time></trkpt><trkpt lat="43.07558601602456" lon="10.764360159375363"><ele>160.0</ele><time>2026-03-22T10:04:50Z</time></trkpt><trkpt lat="43.075677920586735" lon="10.764509513177565"><ele>160.0</ele><time>2026-03-22T10:04:51Z</time></trkpt><trkpt lat="43.075742690322016" lon="10.764640000061423"><ele>160.0</ele><time>2026-03-22T10:04:52Z</time></trkpt><trkpt lat="43.0757884022454" lon="10.764802845101771"><ele>163.66666666666669</ele><time>2026-03-22T10:04:53Z</time></trkpt><trkpt lat="43.07581767205324" lon="10.765001038031462"><ele>167.33333333333334</ele><time>2026-03-22T10:04:54Z</time></trkpt><trkpt lat="43.075876033653465" lon="10.765204265656186"><ele>171.0</ele><time>2026-03-22T10:04:55Z</time></trkpt><trkpt lat="43.075941625273636" lon="10.765410283551859"><ele>174.33333333333334</ele><time>2026-03-22T10:04:56Z</time></trkpt><trkpt lat="43.07600937222417" lon="10.765625562075783"><ele>177.66666666666669</ele><time>2026-03-22T10:04:57Z</time></trkpt><trkpt lat="43.07607235023062" lon="10.765829481363655"><ele>181.0</ele><time>2026-03-22T10:04:58Z</time></trkpt><trkpt lat="43.07613129142482" lon="10.766013073498607"><ele>183.5</ele><time>2026-03-22T10:04:59Z</time></trkpt><trkpt lat="43.07619630560181" lon="10.76616945259624"><ele>186.0</ele><time>2026-03-22T10:05:00Z</time></trkpt><trkpt lat="43.07630523076236" lon="10.766298253868014"><ele>188.5</ele><time>2026-03-22T10:05:01Z</time></trkpt><trkpt lat="43.076407398557286" lon="10.766436266682412"><ele>191.0</ele><time>2026-03-22T10:05:02Z</time></trkpt><trkpt lat="43.076491279693705" lon="10.766583675333521"><ele>191.0</ele><time>2026-03-22T10:05:03Z</time></trkpt><trkpt lat="43.076541707024795" lon="10.766767994694193"><ele>191.0</ele><time>2026-03-22T10:05:04Z</time></trkpt><trkpt lat="43.07661209421367" lon="10.766980935673248"><ele>191.0</ele><time>2026-03-22T10:05:05Z</time></trkpt><trkpt lat="43.076701842099425" lon="10.767179552569985"><ele>192.75</ele><time>2026-03-22T10:05:06Z</time></trkpt><trkpt lat="43.076782205644335" lon="10.767338675925945"><ele>194.5</ele><time>2026-03-22T10:05:07Z</time></trkpt><trkpt lat="43.076842839107435" lon="10.767469281238549"><ele>196.25</ele><time>2026-03-22T10:05:08Z</time></trkpt><trkpt lat="43.076874552405386" lon="10.76760351486382"><ele>198.0</ele><time>2026-03-22T10:05:09Z</time></trkpt><trkpt lat="43.076873174534974" lon="10.767748687711126"><ele>198.75</ele><time>2026-03-22T10:05:10Z</time></trkpt><trkpt lat="43.07682924439022" lon="10.767894414164838"><ele>199.5</ele><time>2026-03-22T10:05:11Z</time></trkpt><trkpt lat="43.076777934512" lon="10.76809186584987"><ele>200.25</ele><time>2026-03-22T10:05:12Z</time></trkpt><trkpt lat="43.076724548616355" lon="10.768326595394548"><ele>201.0</ele><time>2026-03-22T10:05:13Z</time></trkpt><trkpt lat="43.07667434009152" lon="10.768542326557267"><ele>201.0</ele><time>2026-03-22T10:05:14Z</time></trkpt><trkpt lat="43.07661563504228" lon="10.768692895951459"><ele>201.0</ele><time>2026-03-22T10:05:15Z</time></trkpt><trkpt lat="43.07653110626193" lon="10.768823826730443"><ele>201.0</ele><time>2026-03-22T10:05:16Z</time></trkpt><trkpt lat="43.076465086396354" lon="10.768965197932143"><ele>201.0</ele><time>2026-03-22T10:05:17Z</time></trkpt><trkpt lat="43.07643728160135" lon="10.769146518009162"><ele>202.25</ele><time>2026-03-22T10:05:18Z</time></trkpt><trkpt lat="43.07648669789173" lon="10.769329191032979"><ele>203.5</ele><time>2026-03-22T10:05:19Z</time></trkpt><trkpt lat="43.07654554794289" lon="10.769505664421347"><ele>204.75</ele><time>2026-03-22T10:05:20Z</time></trkpt><trkpt lat="43.076596708274195" lon="10.76971637085998"><ele>206.0</ele><time>2026-03-22T10:05:21Z</time></trkpt><trkpt lat="43.07666846476984" lon="10.769934582199728"><ele>206.33333333333334</ele><time>2026-03-22T10:05:22Z</time></trkpt><trkpt lat="43.07675130831717" lon="10.770152670276675"><ele>206.66666666666669</ele><time>2026-03-22T10:05:23Z</time></trkpt><trkpt lat="43.076844010764916" lon="10.770349407540703"><ele>207.0</ele><time>2026-03-22T10:05:24Z</time></trkpt><trkpt lat="43.07696199611807" lon="10.770532930650122"><ele>211.0</ele><time>2026-03-22T10:05:25Z</time></trkpt><trkpt lat="43.07709550671883" lon="10.770721404403956"><ele>215.0</ele><time>2026-03-22T10:05:26Z</time></trkpt><trkpt lat="43.07719386912208" lon="10.770930466725389"><ele>219.0</ele><time>2026-03-22T10:05:27Z</time></trkpt><trkpt lat="43.077290455342954" lon="10.77113361565265"><ele>220.0</ele><time>2026-03-22T10:05:28Z</time></trkpt><trkpt lat="43.07740723215881" lon="10.771305202604527"><ele>221.0</ele><time>2026-03-22T10:05:29Z</time></trkpt><trkpt lat="43.07751187613156" lon="10.771486924864565"><ele>222.0</ele><time>2026-03-22T10:05:30Z</time></trkpt><trkpt lat="43.077597217898564" lon="10.771676871031474"><ele>222.0</ele><time>2026-03-22T10:05:31Z</time></trkpt><trkpt lat="43.07767046285673" lon="10.771845057623565"><ele>222.0</ele><time>2026-03-22T10:05:32Z</time></trkpt><trkpt lat="43.077722634737015" lon="10.772004353909"><ele>222.0</ele><time>2026-03-22T10:05:33Z</time></trkpt><trkpt lat="43.07776168742689" lon="10.772175462479401"><ele>222.0</ele><time>2026-03-22T10:05:34Z</time></trkpt><trkpt lat="43.07779351639614" lon="10.772359092091826"><ele>223.25</ele><time>2026-03-22T10:05:35Z</time></trkpt><trkpt lat="43.077800665288514" lon="10.772529285145984"><ele>224.5</ele><time>2026-03-22T10:05:36Z</time></trkpt><trkpt lat="43.07779755759873" lon="10.772689416629238"><ele>225.75</ele><time>2026-03-22T10:05:37Z</time></trkpt><trkpt lat="43.07778044927292" lon="10.772847663416345"><ele>227.0</ele><time>2026-03-22T10:05:38Z</time></trkpt><trkpt lat="43.077762488252944" lon="10.773017149181204"><ele>229.33333333333334</ele><time>2026-03-22T10:05:39Z</time></trkpt><trkpt lat="43.07774187181988" lon="10.773209094661153"><ele>231.66666666666669</ele><time>2026-03-22T10:05:40Z</time></trkpt><trkpt lat="43.07772052519272" lon="10.773411543513058"><ele>234.0</ele><time>2026-03-22T10:05:41Z</time></trkpt><trkpt lat="43.07769867697551" lon="10.77362783176153"><ele>236.33333333333331</ele><time>2026-03-22T10:05:42Z</time></trkpt><trkpt lat="43.077678878801855" lon="10.77385255585525"><ele>238.66666666666666</ele><time>2026-03-22T10:05:43Z</time></trkpt><trkpt lat="43.07766069173972" lon="10.77408973968333"><ele>241.0</ele><time>2026-03-22T10:05:44Z</time></trkpt><trkpt lat="43.07763905220675" lon="10.774338803257072"><ele>242.33333333333331</ele><time>2026-03-22T10:05:45Z</time></trkpt><trkpt lat="43.07761268656537" lon="10.774608018103278"><ele>243.66666666666669</ele><time>2026-03-22T10:05:46Z</time></trkpt><trkpt lat="43.07758636267707" lon="10.774872087559306"><ele>245.0</ele><time>2026-03-22T10:05:47Z</time></trkpt><trkpt lat="43.07755587934895" lon="10.775133405504064"><ele>247.0</ele><time>2026-03-22T10:05:48Z</time></trkpt><trkpt lat="43.077519225752496" lon="10.775387467862178"><ele>249.0</ele><time>2026-03-22T10:05:49Z</time></trkpt><trkpt lat="43.077476122461476" lon="10.775638817067788"><ele>251.0</ele><time>2026-03-22T10:05:50Z</time></trkpt><trkpt lat="43.077434561517656" lon="10.77588152920259"><ele>261.0</ele><time>2026-03-22T10:05:51Z</time></trkpt><trkpt lat="43.07739449512588" lon="10.776115513258768"><ele>271.0</ele><time>2026-03-22T10:05:52Z</time></trkpt><trkpt lat="43.07735536532278" lon="10.776348754577185"><ele>281.0</ele><time>2026-03-22T10:05:53Z</time></trkpt><trkpt lat="43.077317010622025" lon="10.776577761216972"><ele>281.0</ele><time>2026-03-22T10:05:54Z</time></trkpt><trkpt lat="43.07727822883486" lon="10.776800671668394"><ele>281.0</ele><time>2026-03-22T10:05:55Z</time></trkpt><trkpt lat="43.07723942587829" lon="10.77702549431905"><ele>281.0</ele><time>2026-03-22T10:05:56Z</time></trkpt><trkpt lat="43.077203090838886" lon="10.777241547018892"><ele>283.0</ele><time>2026-03-22T10:05:57Z</time></trkpt><trkpt lat="43.07717088990361" lon="10.777440638965814"><ele>285.0</ele><time>2026-03-22T10:05:58Z</time></trkpt><trkpt lat="43.07713851937524" lon="10.777632089287053"><ele>287.0</ele><time>2026-03-22T10:05:59Z</time></trkpt><trkpt lat="43.07710296267094" lon="10.777784159027929"><ele>289.0</ele><time>2026-03-22T10:06:00Z</time></trkpt><trkpt lat="43.07704727795018" lon="10.777906061209883"><ele>289.25</ele><time>2026-03-22T10:06:01Z</time></trkpt><trkpt lat="43.076979867974664" lon="10.778050694397743"><ele>289.5</ele><time>2026-03-22T10:06:02Z</time></trkpt><trkpt lat="43.07691422437104" lon="10.778206215010348"><ele>289.75</ele><time>2026-03-22T10:06:03Z</time></trkpt><trkpt lat="43.076879855466835" lon="10.778373801976636"><ele>290.0</ele><time>2026-03-22T10:06:04Z</time></trkpt><trkpt lat="43.07690444961299" lon="10.778550711991087"><ele>290.5</ele><time>2026-03-22T10:06:05Z</time></trkpt><trkpt lat="43.07693250623919" lon="10.778717315652315"><ele>291.0</ele><time>2026-03-22T10:06:06Z</time></trkpt><trkpt lat="43.07693807015907" lon="10.778867545595242"><ele>291.5</ele><time>2026-03-22T10:06:07Z</time></trkpt><trkpt lat="43.076904236521955" lon="10.779019736879263"><ele>292.0</ele><time>2026-03-22T10:06:08Z</time></trkpt><trkpt lat="43.076777785029186" lon="10.77915153903171"><ele>292.66666666666663</ele><time>2026-03-22T10:06:09Z</time></trkpt><trkpt lat="43.07671844379269" lon="10.779360772715844"><ele>293.3333333333333</ele><time>2026-03-22T10:06:10Z</time></trkpt><trkpt lat="43.07666171106719" lon="10.779570694009312"><ele>294.0</ele><time>2026-03-22T10:06:11Z</time></trkpt><trkpt lat="43.07659216032004" lon="10.779742442144947"><ele>298.5</ele><time>2026-03-22T10:06:12Z</time></trkpt><trkpt lat="43.076512474353" lon="10.779872526103548"><ele>303.0</ele><time>2026-03-22T10:06:13Z</time></trkpt><trkpt lat="43.076406838568815" lon="10.780006765166783"><ele>307.5</ele><time>2026-03-22T10:06:14Z</time></trkpt><trkpt lat="43.07629885727854" lon="10.780169095662172"><ele>312.0</ele><time>2026-03-22T10:06:15Z</time></trkpt><trkpt lat="43.07619256019588" lon="10.78034916728102"><ele>312.0</ele><time>2026-03-22T10:06:16Z</time></trkpt><trkpt lat="43.076078855836926" lon="10.78052418757244"><ele>312.0</ele><time>2026-03-22T10:06:17Z</time></trkpt><trkpt lat="43.075972981417266" lon="10.780679042413498"><ele>312.0</ele><time>2026-03-22T10:06:18Z</time></trkpt><trkpt lat="43.07587706925017" lon="10.780818436601987"><ele>312.0</ele><time>2026-03-22T10:06:19Z</time></trkpt><trkpt lat="43.07579967859541" lon="10.780955032712425"><ele>312.0</ele><time>2026-03-22T10:06:20Z</time></trkpt><trkpt lat="43.07574004507531" lon="10.781106979979253"><ele>312.0</ele><time>2026-03-22T10:06:21Z</time></trkpt><trkpt lat="43.07569698337524" lon="10.781262806613"><ele>312.0</ele><time>2026-03-22T10:06:22Z</time></trkpt><trkpt lat="43.07568074279002" lon="10.781433430791637"><ele>316.25</ele><time>2026-03-22T10:06:23Z</time></trkpt><trkpt lat="43.07570029001657" lon="10.781613412253675"><ele>320.5</ele><time>2026-03-22T10:06:24Z</time></trkpt><trkpt lat="43.07574839652784" lon="10.781768443486929"><ele>324.75</ele><time>2026-03-22T10:06:25Z</time></trkpt><trkpt lat="43.075869174203575" lon="10.781887113438447"><ele>329.0</ele><time>2026-03-22T10:06:26Z</time></trkpt><trkpt lat="43.07594729069745" lon="10.782049353802988"><ele>329.0</ele><time>2026-03-22T10:06:27Z</time></trkpt><trkpt lat="43.075989464050416" lon="10.782205987933008"><ele>329.0</ele><time>2026-03-22T10:06:28Z</time></trkpt><trkpt lat="43.07602664642548" lon="10.782397811425232"><ele>329.0</ele><time>2026-03-22T10:06:29Z</time></trkpt><trkpt lat="43.07605810877892" lon="10.782615597185055"><ele>329.0</ele><time>2026-03-22T10:06:30Z</time></trkpt><trkpt lat="43.076086506048725" lon="10.782828065074817"><ele>329.75</ele><time>2026-03-22T10:06:31Z</time></trkpt><trkpt lat="43.07610351653503" lon="10.783006071551258"><ele>330.5</ele><time>2026-03-22T10:06:32Z</time></trkpt><trkpt lat="43.07610794321089" lon="10.783157752014658"><ele>331.25</ele><time>2026-03-22T10:06:33Z</time></trkpt><trkpt lat="43.076102333731754" lon="10.78329536811781"><ele>332.0</ele><time>2026-03-22T10:06:34Z</time></trkpt><trkpt lat="43.076085650569496" lon="10.783445562415034"><ele>332.25</ele><time>2026-03-22T10:06:35Z</time></trkpt><trkpt lat="43.07606653418845" lon="10.783604492167193"><ele>332.5</ele><time>2026-03-22T10:06:36Z</time></trkpt><trkpt lat="43.07604561503385" lon="10.783774825260272"><ele>332.75</ele><time>2026-03-22T10:06:37Z</time></trkpt><trkpt lat="43.076027050831435" lon="10.783949326951996"><ele>333.0</ele><time>2026-03-22T10:06:38Z</time></trkpt><trkpt lat="43.076008887376624" lon="10.784122787970007"><ele>333.0</ele><time>2026-03-22T10:06:39Z</time></trkpt><trkpt lat="43.07599136275678" lon="10.784290148067461"><ele>333.0</ele><time>2026-03-22T10:06:40Z</time></trkpt><trkpt lat="43.075974829484636" lon="10.784456724806365"><ele>333.0</ele><time>2026-03-22T10:06:41Z</time></trkpt><trkpt lat="43.075960628640985" lon="10.78463026343812"><ele>333.0</ele><time>2026-03-22T10:06:42Z</time></trkpt><trkpt lat="43.07594903630605" lon="10.784804332563809"><ele>334.25</ele><time>2026-03-22T10:06:43Z</time></trkpt><trkpt lat="43.07594598567513" lon="10.784981693325703"><ele>335.5</ele><time>2026-03-22T10:06:44Z</time></trkpt><trkpt lat="43.075951295543206" lon="10.785153437326448"><ele>336.75</ele><time>2026-03-22T10:06:45Z</time></trkpt><trkpt lat="43.07596348569289" lon="10.785320049239667"><ele>338.0</ele><time>2026-03-22T10:06:46Z</time></trkpt><trkpt lat="43.07596964835123" lon="10.785483888362299"><ele>338.25</ele><time>2026-03-22T10:06:47Z</time></trkpt><trkpt lat="43.075952621765296" lon="10.785644633394925"><ele>338.5</ele><time>2026-03-22T10:06:48Z</time></trkpt><trkpt lat="43.075910901551104" lon="10.785803734491902"><ele>338.75</ele><time>2026-03-22T10:06:49Z</time></trkpt><trkpt lat="43.075870749875925" lon="10.785985845248282"><ele>339.0</ele><time>2026-03-22T10:06:50Z</time></trkpt><trkpt lat="43.07583596416969" lon="10.786182297181032"><ele>339.3333333333333</ele><time>2026-03-22T10:06:51Z</time></trkpt><trkpt lat="43.07580658501898" lon="10.786385471487508"><ele>339.66666666666663</ele><time>2026-03-22T10:06:52Z</time></trkpt><trkpt lat="43.07577216367874" lon="10.786597408799993"><ele>340.0</ele><time>2026-03-22T10:06:53Z</time></trkpt><trkpt lat="43.075725290696525" lon="10.7868111334564"><ele>340.66666666666663</ele><time>2026-03-22T10:06:54Z</time></trkpt><trkpt lat="43.07566660024383" lon="10.787024277926358"><ele>341.3333333333333</ele><time>2026-03-22T10:06:55Z</time></trkpt><trkpt lat="43.07561045235436" lon="10.787245916444954"><ele>342.0</ele><time>2026-03-22T10:06:56Z</time></trkpt><trkpt lat="43.07556713853875" lon="10.787458588988066"><ele>342.0</ele><time>2026-03-22T10:06:57Z</time></trkpt><trkpt lat="43.07553905803474" lon="10.78767550742102"><ele>342.0</ele><time>2026-03-22T10:06:58Z</time></trkpt><trkpt lat="43.07552354830874" lon="10.787890719163794"><ele>342.0</ele><time>2026-03-22T10:06:59Z</time></trkpt><trkpt lat="43.07550553372603" lon="10.788102113147065"><ele>344.5</ele><time>2026-03-22T10:07:00Z</time></trkpt><trkpt lat="43.07549543037034" lon="10.788297307788152"><ele>347.0</ele><time>2026-03-22T10:07:01Z</time></trkpt><trkpt lat="43.07552109437173" lon="10.78850102782145"><ele>349.5</ele><time>2026-03-22T10:07:02Z</time></trkpt><trkpt lat="43.07557201870091" lon="10.788700308600205"><ele>352.0</ele><time>2026-03-22T10:07:03Z</time></trkpt><trkpt lat="43.075606740412844" lon="10.788933187537749"><ele>352.66666666666663</ele><time>2026-03-22T10:07:04Z</time></trkpt><trkpt lat="43.07564505862707" lon="10.789181417584258"><ele>353.3333333333333</ele><time>2026-03-22T10:07:05Z</time></trkpt><trkpt lat="43.07568425992584" lon="10.789404997897293"><ele>354.0</ele><time>2026-03-22T10:07:05.999Z</time></trkpt><trkpt lat="43.07576205215508" lon="10.789616010835676"><ele>351.6666666666667</ele><time>2026-03-22T10:07:06.999Z</time></trkpt><trkpt lat="43.07583806143789" lon="10.789852159427902"><ele>349.33333333333337</ele><time>2026-03-22T10:07:07.999Z</time></trkpt><trkpt lat="43.07592369026281" lon="10.790078369998303"><ele>347.0</ele><time>2026-03-22T10:07:09Z</time></trkpt><trkpt lat="43.07598963349319" lon="10.79028163984753"><ele>346.0</ele><time>2026-03-22T10:07:10Z</time></trkpt><trkpt lat="43.076045727318366" lon="10.790473796604013"><ele>345.0</ele><time>2026-03-22T10:07:11Z</time></trkpt><trkpt lat="43.07608699940235" lon="10.790654520316888"><ele>344.0</ele><time>2026-03-22T10:07:12Z</time></trkpt><trkpt lat="43.07611549248931" lon="10.790845194316075"><ele>343.0</ele><time>2026-03-22T10:07:13Z</time></trkpt><trkpt lat="43.076138124881595" lon="10.791042211401047"><ele>342.0</ele><time>2026-03-22T10:07:14Z</time></trkpt><trkpt lat="43.07615345454331" lon="10.791243728071246"><ele>341.0</ele><time>2026-03-22T10:07:15Z</time></trkpt><trkpt lat="43.07615619745083" lon="10.791447662306377"><ele>340.0</ele><time>2026-03-22T10:07:16Z</time></trkpt><trkpt lat="43.07614871314063" lon="10.791650377900654"><ele>339.0</ele><time>2026-03-22T10:07:17Z</time></trkpt><trkpt lat="43.07612768974725" lon="10.791854324786492"><ele>338.5</ele><time>2026-03-22T10:07:18Z</time></trkpt><trkpt lat="43.0760970555546" lon="10.792043975395398"><ele>338.0</ele><time>2026-03-22T10:07:19Z</time></trkpt><trkpt lat="43.07605851226877" lon="10.792196079966562"><ele>337.5</ele><time>2026-03-22T10:07:20Z</time></trkpt><trkpt lat="43.07600444418164" lon="10.792334308695908"><ele>337.0</ele><time>2026-03-22T10:07:21Z</time></trkpt><trkpt lat="43.07593821399104" lon="10.792463645215664"><ele>337.0</ele><time>2026-03-22T10:07:22Z</time></trkpt><trkpt lat="43.075863991653236" lon="10.79259915389188"><ele>337.0</ele><time>2026-03-22T10:07:23Z</time></trkpt><trkpt lat="43.075786038761116" lon="10.792739374835318"><ele>337.0</ele><time>2026-03-22T10:07:24Z</time></trkpt><trkpt lat="43.07569809084533" lon="10.792900593391359"><ele>337.0</ele><time>2026-03-22T10:07:25Z</time></trkpt><trkpt lat="43.07559654447489" lon="10.793086739279975"><ele>335.0</ele><time>2026-03-22T10:07:26Z</time></trkpt><trkpt lat="43.075484593881505" lon="10.793290522071908"><ele>333.0</ele><time>2026-03-22T10:07:27Z</time></trkpt><trkpt lat="43.07537633124289" lon="10.793489362202841"><ele>331.0</ele><time>2026-03-22T10:07:28Z</time></trkpt><trkpt lat="43.07528261940525" lon="10.793663911373535"><ele>331.0</ele><time>2026-03-22T10:07:29Z</time></trkpt><trkpt lat="43.07519357220233" lon="10.79382838767675"><ele>331.0</ele><time>2026-03-22T10:07:30Z</time></trkpt><trkpt lat="43.07511019437048" lon="10.793979820863255"><ele>331.0</ele><time>2026-03-22T10:07:31Z</time></trkpt><trkpt lat="43.07502510635184" lon="10.794134675497064"><ele>331.0</ele><time>2026-03-22T10:07:32Z</time></trkpt><trkpt lat="43.07494788632341" lon="10.794276913024925"><ele>328.0</ele><time>2026-03-22T10:07:33Z</time></trkpt><trkpt lat="43.0748703654341" lon="10.794419705240779"><ele>325.0</ele><time>2026-03-22T10:07:34Z</time></trkpt><trkpt lat="43.074787319167875" lon="10.794572674776319"><ele>322.0</ele><time>2026-03-22T10:07:35Z</time></trkpt><trkpt lat="43.0747177718143" lon="10.794702311196104"><ele>319.0</ele><time>2026-03-22T10:07:36Z</time></trkpt><trkpt lat="43.07464576349879" lon="10.794855960812292"><ele>319.0</ele><time>2026-03-22T10:07:37Z</time></trkpt><trkpt lat="43.07458387265152" lon="10.795040464639413"><ele>319.0</ele><time>2026-03-22T10:07:38Z</time></trkpt><trkpt lat="43.07453633334822" lon="10.795229515082813"><ele>319.0</ele><time>2026-03-22T10:07:39Z</time></trkpt><trkpt lat="43.07450694950257" lon="10.795411101433611"><ele>319.0</ele><time>2026-03-22T10:07:40Z</time></trkpt><trkpt lat="43.074488841320864" lon="10.79560027850917"><ele>320.25</ele><time>2026-03-22T10:07:41Z</time></trkpt><trkpt lat="43.074482856933955" lon="10.795791218673013"><ele>321.5</ele><time>2026-03-22T10:07:42Z</time></trkpt><trkpt lat="43.074487108214974" lon="10.795987819592833"><ele>322.75</ele><time>2026-03-22T10:07:43Z</time></trkpt><trkpt lat="43.074511252068405" lon="10.796200231874874"><ele>324.0</ele><time>2026-03-22T10:07:44Z</time></trkpt><trkpt lat="43.0745361614117" lon="10.79638403540362"><ele>324.25</ele><time>2026-03-22T10:07:45Z</time></trkpt><trkpt lat="43.074559171589726" lon="10.796557221112078"><ele>324.5</ele><time>2026-03-22T10:07:46Z</time></trkpt><trkpt lat="43.07457597090202" lon="10.796737925585436"><ele>324.75</ele><time>2026-03-22T10:07:47Z</time></trkpt><trkpt lat="43.07458770134201" lon="10.79692458432969"><ele>325.0</ele><time>2026-03-22T10:07:48Z</time></trkpt><trkpt lat="43.07459806785988" lon="10.797118816621067"><ele>325.0</ele><time>2026-03-22T10:07:49Z</time></trkpt><trkpt lat="43.07460494145546" lon="10.797291120343287"><ele>325.0</ele><time>2026-03-22T10:07:50Z</time></trkpt><trkpt lat="43.07460892834207" lon="10.797456379897897"><ele>325.0</ele><time>2026-03-22T10:07:51Z</time></trkpt><trkpt lat="43.074612278864606" lon="10.797609481365793"><ele>325.0</ele><time>2026-03-22T10:07:52Z</time></trkpt><trkpt lat="43.07461545262309" lon="10.797754505860963"><ele>324.6</ele><time>2026-03-22T10:07:53Z</time></trkpt><trkpt lat="43.074619168034374" lon="10.79789682484432"><ele>324.2</ele><time>2026-03-22T10:07:54Z</time></trkpt><trkpt lat="43.07462438145883" lon="10.798040089839311"><ele>323.79999999999995</ele><time>2026-03-22T10:07:55Z</time></trkpt><trkpt lat="43.0746291630108" lon="10.798171486678786"><ele>323.4</ele><time>2026-03-22T10:07:56Z</time></trkpt><trkpt lat="43.07463387682761" lon="10.798301022280855"><ele>323.0</ele><time>2026-03-22T10:07:57Z</time></trkpt><trkpt lat="43.07463870555484" lon="10.798433715717684"><ele>322.6666666666667</ele><time>2026-03-22T10:07:58Z</time></trkpt><trkpt lat="43.0746436410615" lon="10.798550727994762"><ele>322.33333333333337</ele><time>2026-03-22T10:07:59Z</time></trkpt><trkpt lat="43.07464879372518" lon="10.798664659618312"><ele>322.0</ele><time>2026-03-22T10:08:00Z</time></trkpt><trkpt lat="43.074654545861314" lon="10.798791845350085"><ele>321.6666666666667</ele><time>2026-03-22T10:08:01Z</time></trkpt><trkpt lat="43.074660176672296" lon="10.798916348999269"><ele>321.3333333333333</ele><time>2026-03-22T10:08:02Z</time></trkpt><trkpt lat="43.074665407240495" lon="10.799032002579002"><ele>321.0</ele><time>2026-03-22T10:08:03Z</time></trkpt><trkpt lat="43.07467066741982" lon="10.79914831116646"><ele>321.0</ele><time>2026-03-22T10:08:04Z</time></trkpt><trkpt lat="43.07467573381572" lon="10.799260334755447"><ele>321.0</ele><time>2026-03-22T10:08:05Z</time></trkpt><trkpt lat="43.07468035173303" lon="10.799362442100508"><ele>321.0</ele><time>2026-03-22T10:08:06Z</time></trkpt><trkpt lat="43.07468449641783" lon="10.799454086706266"><ele>321.0</ele><time>2026-03-22T10:08:07Z</time></trkpt><trkpt lat="43.074689162233554" lon="10.799561493236128"><ele>321.0</ele><time>2026-03-22T10:09:19Z</time></trkpt><trkpt lat="43.074687032139735" lon="10.799447295644327"><ele>321.0</ele><time>2026-03-22T10:09:27Z</time></trkpt><trkpt lat="43.07451692488066" lon="10.799287611354886"><ele>321.0</ele><time>2026-03-22T10:09:29Z</time></trkpt><trkpt lat="43.07444867990806" lon="10.799193204731349"><ele>321.0</ele><time>2026-03-22T10:09:30Z</time></trkpt><trkpt lat="43.07438173499494" lon="10.799095656770422"><ele>321.0</ele><time>2026-03-22T10:09:31Z</time></trkpt><trkpt lat="43.07432338365414" lon="10.799000358521461"><ele>321.0</ele><time>2026-03-22T10:09:32Z</time></trkpt><trkpt lat="43.07425030829268" lon="10.79891987046935"><ele>321.0</ele><time>2026-03-22T10:09:33Z</time></trkpt><trkpt lat="43.0742105716327" lon="10.798829127151715"><ele>321.0</ele><time>2026-03-22T10:09:34Z</time></trkpt><trkpt lat="43.0741477409283" lon="10.7987397270283"><ele>321.0</ele><time>2026-03-22T10:09:35Z</time></trkpt><trkpt lat="43.07408818442664" lon="10.798653027194229"><ele>321.0</ele><time>2026-03-22T10:09:36Z</time></trkpt><trkpt lat="43.07403470249688" lon="10.798582316474251"><ele>321.0</ele><time>2026-03-22T10:09:37Z</time></trkpt><trkpt lat="43.07396083271572" lon="10.798504515034331"><ele>321.0</ele><time>2026-03-22T10:09:38Z</time></trkpt><trkpt lat="43.07391756131462" lon="10.798420428639377"><ele>321.0</ele><time>2026-03-22T10:09:39Z</time></trkpt><trkpt lat="43.073867590278894" lon="10.798355867511773"><ele>320.3333333333333</ele><time>2026-03-22T10:09:40Z</time></trkpt><trkpt lat="43.073791616318445" lon="10.798287660678787"><ele>319.6666666666667</ele><time>2026-03-22T10:09:41Z</time></trkpt><trkpt lat="43.07373547292968" lon="10.798189714171182"><ele>319.0</ele><time>2026-03-22T10:09:42Z</time></trkpt><trkpt lat="43.073659497686265" lon="10.798122512241973"><ele>318.33333333333337</ele><time>2026-03-22T10:09:43Z</time></trkpt><trkpt lat="43.07359826075687" lon="10.798045001965553"><ele>317.6666666666667</ele><time>2026-03-22T10:09:44Z</time></trkpt><trkpt lat="43.073538575861825" lon="10.797968044317251"><ele>317.0</ele><time>2026-03-22T10:09:45Z</time></trkpt><trkpt lat="43.073484616577794" lon="10.797868150801113"><ele>317.0</ele><time>2026-03-22T10:09:46Z</time></trkpt><trkpt lat="43.07341841111135" lon="10.797778938005779"><ele>317.0</ele><time>2026-03-22T10:09:47Z</time></trkpt><trkpt lat="43.073360154640206" lon="10.797676490227557"><ele>317.0</ele><time>2026-03-22T10:09:48Z</time></trkpt><trkpt lat="43.07330583287134" lon="10.797574995610818"><ele>317.0</ele><time>2026-03-22T10:09:49Z</time></trkpt><trkpt lat="43.073239156397555" lon="10.797487215777547"><ele>317.0</ele><time>2026-03-22T10:09:50Z</time></trkpt><trkpt lat="43.0731930883256" lon="10.79738878732013"><ele>314.0</ele><time>2026-03-22T10:09:51Z</time></trkpt><trkpt lat="43.073155610727426" lon="10.797269287441488"><ele>311.0</ele><time>2026-03-22T10:09:52Z</time></trkpt><trkpt lat="43.07312837688865" lon="10.797128717138985"><ele>308.0</ele><time>2026-03-22T10:09:53Z</time></trkpt><trkpt lat="43.07310530258644" lon="10.796983773611316"><ele>305.0</ele><time>2026-03-22T10:09:54Z</time></trkpt><trkpt lat="43.073087262242176" lon="10.796858074735331"><ele>302.0</ele><time>2026-03-22T10:09:55Z</time></trkpt><trkpt lat="43.073066785260764" lon="10.796730877481112"><ele>300.6666666666667</ele><time>2026-03-22T10:09:56Z</time></trkpt><trkpt lat="43.0730449558433" lon="10.796595279483183"><ele>299.33333333333337</ele><time>2026-03-22T10:09:57Z</time></trkpt><trkpt lat="43.07302499207296" lon="10.796466669970126"><ele>298.0</ele><time>2026-03-22T10:09:58Z</time></trkpt><trkpt lat="43.073006833703815" lon="10.796347396346215"><ele>296.6666666666667</ele><time>2026-03-22T10:09:59Z</time></trkpt><trkpt lat="43.0729872284747" lon="10.796245603517615"><ele>295.3333333333333</ele><time>2026-03-22T10:10:00Z</time></trkpt><trkpt lat="43.07295771093324" lon="10.796145116761489"><ele>294.0</ele><time>2026-03-22T10:10:01Z</time></trkpt><trkpt lat="43.072934278682894" lon="10.796028911560843"><ele>294.8</ele><time>2026-03-22T10:10:02Z</time></trkpt><trkpt lat="43.072919684639324" lon="10.795912573252155"><ele>295.59999999999997</ele><time>2026-03-22T10:10:03Z</time></trkpt><trkpt lat="43.072898237147434" lon="10.795792622724683"><ele>296.4</ele><time>2026-03-22T10:10:04Z</time></trkpt><trkpt lat="43.072863227312" lon="10.795702364679896"><ele>297.2</ele><time>2026-03-22T10:10:05Z</time></trkpt><trkpt lat="43.0727942891379" lon="10.795626502056091"><ele>298.0</ele><time>2026-03-22T10:10:07Z</time></trkpt><trkpt lat="43.07265701885129" lon="10.795640145414408"><ele>298.0</ele><time>2026-03-22T10:10:09Z</time></trkpt><trkpt lat="43.07258840443785" lon="10.795690191336025"><ele>298.0</ele><time>2026-03-22T10:10:10Z</time></trkpt><trkpt lat="43.07251685774117" lon="10.79573970904463"><ele>298.0</ele><time>2026-03-22T10:10:11Z</time></trkpt><trkpt lat="43.07243244273977" lon="10.795797433652591"><ele>298.0</ele><time>2026-03-22T10:10:12Z</time></trkpt><trkpt lat="43.0723413732219" lon="10.795850559237033"><ele>298.0</ele><time>2026-03-22T10:10:13Z</time></trkpt><trkpt lat="43.072262451202384" lon="10.79588324991842"><ele>298.0</ele><time>2026-03-22T10:10:14Z</time></trkpt><trkpt lat="43.07217648922478" lon="10.795896838711238"><ele>298.2</ele><time>2026-03-22T10:10:15Z</time></trkpt><trkpt lat="43.072077646505285" lon="10.795906823892604"><ele>298.4</ele><time>2026-03-22T10:10:16Z</time></trkpt><trkpt lat="43.0719931925356" lon="10.795933893725337"><ele>298.59999999999997</ele><time>2026-03-22T10:10:17Z</time></trkpt><trkpt lat="43.07189013112617" lon="10.795920275665782"><ele>298.8</ele><time>2026-03-22T10:10:18Z</time></trkpt><trkpt lat="43.07179305652153" lon="10.795939818826113"><ele>299.0</ele><time>2026-03-22T10:10:19Z</time></trkpt><trkpt lat="43.07169111979915" lon="10.795905414447624"><ele>297.4</ele><time>2026-03-22T10:10:20Z</time></trkpt><trkpt lat="43.07158729638322" lon="10.795886502789697"><ele>295.79999999999995</ele><time>2026-03-22T10:10:21Z</time></trkpt><trkpt lat="43.07148630219282" lon="10.795841917220928"><ele>294.20000000000005</ele><time>2026-03-22T10:10:22Z</time></trkpt><trkpt lat="43.071392389221494" lon="10.79578790864848"><ele>292.6</ele><time>2026-03-22T10:10:23Z</time></trkpt><trkpt lat="43.07128302068364" lon="10.795713470595741"><ele>291.0</ele><time>2026-03-22T10:10:24Z</time></trkpt><trkpt lat="43.07117690700537" lon="10.795623164856499"><ele>291.0</ele><time>2026-03-22T10:10:25Z</time></trkpt><trkpt lat="43.07106069212456" lon="10.795549649288786"><ele>291.0</ele><time>2026-03-22T10:10:26Z</time></trkpt><trkpt lat="43.07094629460145" lon="10.795521289550287"><ele>291.0</ele><time>2026-03-22T10:10:27Z</time></trkpt><trkpt lat="43.070848606544864" lon="10.795482051471987"><ele>291.0</ele><time>2026-03-22T10:10:28Z</time></trkpt><trkpt lat="43.07076717740967" lon="10.795431857333492"><ele>291.0</ele><time>2026-03-22T10:10:29Z</time></trkpt><trkpt lat="43.07071214920577" lon="10.795372114078027"><ele>290.57142857142856</ele><time>2026-03-22T10:10:30Z</time></trkpt><trkpt lat="43.07065323981803" lon="10.795311018555298"><ele>290.1428571428571</ele><time>2026-03-22T10:10:31Z</time></trkpt><trkpt lat="43.07059370823602" lon="10.795270234601405"><ele>289.7142857142857</ele><time>2026-03-22T10:10:32Z</time></trkpt><trkpt lat="43.07053097054693" lon="10.795222154930249"><ele>289.2857142857143</ele><time>2026-03-22T10:10:34Z</time></trkpt><trkpt lat="43.070463208721605" lon="10.79517183020311"><ele>288.8571428571429</ele><time>2026-03-22T10:10:36Z</time></trkpt><trkpt lat="43.070434351772775" lon="10.795074822841734"><ele>288.42857142857144</ele><time>2026-03-22T10:10:37Z</time></trkpt><trkpt lat="43.07038963979925" lon="10.795010754262805"><ele>288.0</ele><time>2026-03-22T10:10:38Z</time></trkpt><trkpt lat="43.070318718559975" lon="10.79496082365479"><ele>288.0</ele><time>2026-03-22T10:10:39Z</time></trkpt><trkpt lat="43.070237953840135" lon="10.794904196021227"><ele>288.0</ele><time>2026-03-22T10:10:40Z</time></trkpt><trkpt lat="43.07014598438705" lon="10.794866788488195"><ele>288.0</ele><time>2026-03-22T10:10:41Z</time></trkpt><trkpt lat="43.070048489790366" lon="10.794792205378783"><ele>288.0</ele><time>2026-03-22T10:10:42Z</time></trkpt><trkpt lat="43.06995850749236" lon="10.794732881341664"><ele>288.0</ele><time>2026-03-22T10:10:43Z</time></trkpt><trkpt lat="43.06986508339303" lon="10.794686738497552"><ele>288.0</ele><time>2026-03-22T10:10:44Z</time></trkpt><trkpt lat="43.06975982985307" lon="10.794650091400644"><ele>288.0</ele><time>2026-03-22T10:10:45Z</time></trkpt><trkpt lat="43.06965545135249" lon="10.794644212018534"><ele>288.0</ele><time>2026-03-22T10:10:46Z</time></trkpt><trkpt lat="43.06955350232054" lon="10.794635470728492"><ele>288.0</ele><time>2026-03-22T10:10:47Z</time></trkpt><trkpt lat="43.069458039565816" lon="10.79458981056546"><ele>288.0</ele><time>2026-03-22T10:10:48Z</time></trkpt><trkpt lat="43.069363175771926" lon="10.794580697080818"><ele>288.0</ele><time>2026-03-22T10:10:49Z</time></trkpt><trkpt lat="43.069266413167895" lon="10.794547912629445"><ele>288.0</ele><time>2026-03-22T10:10:50Z</time></trkpt><trkpt lat="43.06916321695968" lon="10.794534528456888"><ele>288.0</ele><time>2026-03-22T10:10:51Z</time></trkpt><trkpt lat="43.06906138436302" lon="10.794528462378091"><ele>288.0</ele><time>2026-03-22T10:10:52Z</time></trkpt><trkpt lat="43.06897520121954" lon="10.794568237041576"><ele>288.0</ele><time>2026-03-22T10:10:53Z</time></trkpt><trkpt lat="43.0688859252215" lon="10.794548989279786"><ele>288.0</ele><time>2026-03-22T10:10:54Z</time></trkpt><trkpt lat="43.06879495907086" lon="10.794486793889098"><ele>288.0</ele><time>2026-03-22T10:10:55Z</time></trkpt><trkpt lat="43.068693881837966" lon="10.794427740271038"><ele>288.0</ele><time>2026-03-22T10:10:56Z</time></trkpt><trkpt lat="43.06858362238249" lon="10.794385457011733"><ele>288.0</ele><time>2026-03-22T10:10:57Z</time></trkpt><trkpt lat="43.068477883473655" lon="10.79432085384355"><ele>288.0</ele><time>2026-03-22T10:10:58Z</time></trkpt><trkpt lat="43.068376379266056" lon="10.794246625289198"><ele>288.0</ele><time>2026-03-22T10:10:59Z</time></trkpt><trkpt lat="43.06827876128031" lon="10.794168322917656"><ele>288.0</ele><time>2026-03-22T10:11:00Z</time></trkpt><trkpt lat="43.06818466482009" lon="10.794097052060426"><ele>288.0</ele><time>2026-03-22T10:11:01Z</time></trkpt><trkpt lat="43.06811509658805" lon="10.793984946069987"><ele>288.0</ele><time>2026-03-22T10:11:02Z</time></trkpt><trkpt lat="43.068035184246845" lon="10.79390237008072"><ele>288.0</ele><time>2026-03-22T10:11:03Z</time></trkpt><trkpt lat="43.06795929787087" lon="10.793808605888302"><ele>289.0</ele><time>2026-03-22T10:11:04Z</time></trkpt><trkpt lat="43.06788083924607" lon="10.793721299147446"><ele>290.0</ele><time>2026-03-22T10:11:05Z</time></trkpt><trkpt lat="43.06778923404821" lon="10.793649692864784"><ele>291.0</ele><time>2026-03-22T10:11:06Z</time></trkpt><trkpt lat="43.067715658140514" lon="10.793555928936067"><ele>292.0</ele><time>2026-03-22T10:11:07Z</time></trkpt><trkpt lat="43.0676268409105" lon="10.79349648644127"><ele>293.0</ele><time>2026-03-22T10:11:08Z</time></trkpt><trkpt lat="43.06756416605439" lon="10.793392062500335"><ele>293.0</ele><time>2026-03-22T10:11:09Z</time></trkpt><trkpt lat="43.06749527703691" lon="10.793296171012676"><ele>293.0</ele><time>2026-03-22T10:11:10Z</time></trkpt><trkpt lat="43.06741888703136" lon="10.793210071274007"><ele>293.0</ele><time>2026-03-22T10:11:10.999Z</time></trkpt><trkpt lat="43.06736135157927" lon="10.793111325645919"><ele>293.0</ele><time>2026-03-22T10:11:11.999Z</time></trkpt><trkpt lat="43.067292352987316" lon="10.793045819153825"><ele>293.0</ele><time>2026-03-22T10:11:12.999Z</time></trkpt><trkpt lat="43.0672351560404" lon="10.792965612447082"><ele>293.0</ele><time>2026-03-22T10:11:13.999Z</time></trkpt><trkpt lat="43.06719610801503" lon="10.79286372613181"><ele>293.0</ele><time>2026-03-22T10:11:14.999Z</time></trkpt><trkpt lat="43.0671217942493" lon="10.792782455391224"><ele>293.0</ele><time>2026-03-22T10:11:15.999Z</time></trkpt><trkpt lat="43.067070627905125" lon="10.792663750641129"><ele>293.0</ele><time>2026-03-22T10:11:16.999Z</time></trkpt><trkpt lat="43.067019590183996" lon="10.792535964753414"><ele>293.0</ele><time>2026-03-22T10:11:17.999Z</time></trkpt><trkpt lat="43.066975603919275" lon="10.79240087251347"><ele>293.2</ele><time>2026-03-22T10:11:18.999Z</time></trkpt><trkpt lat="43.066921168408335" lon="10.792287777702796"><ele>293.4</ele><time>2026-03-22T10:11:19.999Z</time></trkpt><trkpt lat="43.06689085367052" lon="10.792177943426761"><ele>293.59999999999997</ele><time>2026-03-22T10:11:21Z</time></trkpt><trkpt lat="43.06685589933669" lon="10.792075543238427"><ele>293.8</ele><time>2026-03-22T10:11:22Z</time></trkpt><trkpt lat="43.06681715224197" lon="10.79195408889334"><ele>294.0</ele><time>2026-03-22T10:11:23Z</time></trkpt><trkpt lat="43.06677339848716" lon="10.791832573617583"><ele>293.4</ele><time>2026-03-22T10:11:24Z</time></trkpt><trkpt lat="43.06671947616575" lon="10.791715162722266"><ele>292.79999999999995</ele><time>2026-03-22T10:11:25Z</time></trkpt><trkpt lat="43.0666604387667" lon="10.7916088943377"><ele>292.20000000000005</ele><time>2026-03-22T10:11:26Z</time></trkpt><trkpt lat="43.066606067212454" lon="10.791509194559314"><ele>291.6</ele><time>2026-03-22T10:11:27Z</time></trkpt><trkpt lat="43.06654473131788" lon="10.791408224400186"><ele>291.0</ele><time>2026-03-22T10:11:28Z</time></trkpt><trkpt lat="43.06647979176729" lon="10.79132816943274"><ele>290.0</ele><time>2026-03-22T10:11:29Z</time></trkpt><trkpt lat="43.0664119274802" lon="10.791232525820735"><ele>289.0</ele><time>2026-03-22T10:11:30Z</time></trkpt><trkpt lat="43.06636013236817" lon="10.791124910969554"><ele>288.0</ele><time>2026-03-22T10:11:31Z</time></trkpt><trkpt lat="43.06628913654646" lon="10.791042785923597"><ele>287.0</ele><time>2026-03-22T10:11:32Z</time></trkpt><trkpt lat="43.06622249895547" lon="10.790958637441339"><ele>286.0</ele><time>2026-03-22T10:11:33Z</time></trkpt><trkpt lat="43.066155915916596" lon="10.790875002392031"><ele>285.8333333333333</ele><time>2026-03-22T10:11:34Z</time></trkpt><trkpt lat="43.06609292679693" lon="10.790784108334874"><ele>285.66666666666663</ele><time>2026-03-22T10:11:35Z</time></trkpt><trkpt lat="43.066047071940204" lon="10.790705574671378"><ele>285.5</ele><time>2026-03-22T10:11:36Z</time></trkpt><trkpt lat="43.06599525830186" lon="10.790656596599156"><ele>285.3333333333333</ele><time>2026-03-22T10:11:37Z</time></trkpt><trkpt lat="43.065940217827674" lon="10.79061342417477"><ele>285.1666666666667</ele><time>2026-03-22T10:11:38Z</time></trkpt><trkpt lat="43.06585280605097" lon="10.790517257869249"><ele>285.0</ele><time>2026-03-22T10:11:40Z</time></trkpt><trkpt lat="43.06578884311417" lon="10.790360161747754"><ele>284.4</ele><time>2026-03-22T10:11:42Z</time></trkpt><trkpt lat="43.06577367782559" lon="10.79023110333568"><ele>283.8</ele><time>2026-03-22T10:11:43Z</time></trkpt><trkpt lat="43.06574586887826" lon="10.790100205019726"><ele>283.2</ele><time>2026-03-22T10:11:44Z</time></trkpt><trkpt lat="43.0656969496413" lon="10.789990226025516"><ele>282.6</ele><time>2026-03-22T10:11:45Z</time></trkpt><trkpt lat="43.0656381203813" lon="10.789886937623878"><ele>282.0</ele><time>2026-03-22T10:11:46Z</time></trkpt><trkpt lat="43.06557955458053" lon="10.789780909763802"><ele>283.2</ele><time>2026-03-22T10:11:47Z</time></trkpt><trkpt lat="43.06552173131767" lon="10.789684305219334"><ele>284.4</ele><time>2026-03-22T10:11:48Z</time></trkpt><trkpt lat="43.06547162842553" lon="10.78955211762312"><ele>285.6</ele><time>2026-03-22T10:11:49Z</time></trkpt><trkpt lat="43.06539717299226" lon="10.789442266795701"><ele>286.8</ele><time>2026-03-22T10:11:50Z</time></trkpt><trkpt lat="43.0653282410682" lon="10.78935678275193"><ele>288.0</ele><time>2026-03-22T10:11:51Z</time></trkpt><trkpt lat="43.06526892258314" lon="10.789251711101754"><ele>288.0</ele><time>2026-03-22T10:11:52Z</time></trkpt><trkpt lat="43.0652038398918" lon="10.78917883385735"><ele>288.0</ele><time>2026-03-22T10:11:53Z</time></trkpt><trkpt lat="43.0651596835297" lon="10.789112339806607"><ele>288.0</ele><time>2026-03-22T10:11:54Z</time></trkpt><trkpt lat="43.06509542835327" lon="10.78907275613424"><ele>288.0</ele><time>2026-03-22T10:11:55Z</time></trkpt><trkpt lat="43.065018716960054" lon="10.789031228292664"><ele>288.0</ele><time>2026-03-22T10:11:56Z</time></trkpt><trkpt lat="43.06494437947212" lon="10.789001395612203"><ele>288.0</ele><time>2026-03-22T10:11:57Z</time></trkpt><trkpt lat="43.06486343319464" lon="10.788966990206852"><ele>287.3333333333333</ele><time>2026-03-22T10:11:58Z</time></trkpt><trkpt lat="43.06478027634143" lon="10.78892678417218"><ele>286.6666666666667</ele><time>2026-03-22T10:11:59Z</time></trkpt><trkpt lat="43.06470405951298" lon="10.788910394736918"><ele>286.0</ele><time>2026-03-22T10:12:00Z</time></trkpt><trkpt lat="43.06461647874204" lon="10.788854641581326"><ele>285.33333333333337</ele><time>2026-03-22T10:12:01Z</time></trkpt><trkpt lat="43.06453702523654" lon="10.78882113890583"><ele>284.6666666666667</ele><time>2026-03-22T10:12:02Z</time></trkpt><trkpt lat="43.06446217954539" lon="10.788784418523568"><ele>284.0</ele><time>2026-03-22T10:12:03Z</time></trkpt><trkpt lat="43.064386564430315" lon="10.788732567799169"><ele>284.0</ele><time>2026-03-22T10:12:04Z</time></trkpt><trkpt lat="43.06432155224905" lon="10.788677425307874"><ele>284.0</ele><time>2026-03-22T10:12:05Z</time></trkpt><trkpt lat="43.06426870644478" lon="10.78862839108443"><ele>284.0</ele><time>2026-03-22T10:12:06Z</time></trkpt><trkpt lat="43.06418795356186" lon="10.788538363590739"><ele>284.0</ele><time>2026-03-22T10:12:08Z</time></trkpt><trkpt lat="43.06413454396119" lon="10.78847033723338"><ele>284.0</ele><time>2026-03-22T10:12:10Z</time></trkpt><trkpt lat="43.064092460638534" lon="10.788387153314176"><ele>284.0</ele><time>2026-03-22T10:12:12Z</time></trkpt><trkpt lat="43.064056843832894" lon="10.788297174846866"><ele>282.2857142857143</ele><time>2026-03-22T10:12:14Z</time></trkpt><trkpt lat="43.06402877679769" lon="10.78819290446859"><ele>280.57142857142856</ele><time>2026-03-22T10:12:16Z</time></trkpt><trkpt lat="43.064010755341926" lon="10.788105559643254"><ele>278.85714285714283</ele><time>2026-03-22T10:12:18Z</time></trkpt><trkpt lat="43.06398794070822" lon="10.788018543554967"><ele>277.1428571428571</ele><time>2026-03-22T10:12:20Z</time></trkpt><trkpt lat="43.06396431934705" lon="10.787928414394784"><ele>275.42857142857144</ele><time>2026-03-22T10:12:22Z</time></trkpt><trkpt lat="43.063943953074556" lon="10.787843875170685"><ele>273.71428571428567</ele><time>2026-03-22T10:12:24Z</time></trkpt><trkpt lat="43.063927200385756" lon="10.787749565631948"><ele>272.0</ele><time>2026-03-22T10:12:26Z</time></trkpt><trkpt lat="43.06391753982891" lon="10.78765669833213"><ele>272.0</ele><time>2026-03-22T10:12:28Z</time></trkpt><trkpt lat="43.06390161559547" lon="10.78755424712044"><ele>272.0</ele><time>2026-03-22T10:12:31Z</time></trkpt><trkpt lat="43.06386224329824" lon="10.787482698002497"><ele>272.0</ele><time>2026-03-22T10:13:00Z</time></trkpt><trkpt lat="43.063780787503056" lon="10.787447099218397"><ele>272.0</ele><time>2026-03-22T10:13:02Z</time></trkpt><trkpt lat="43.06369830962676" lon="10.787400864235458"><ele>272.0</ele><time>2026-03-22T10:13:04Z</time></trkpt><trkpt lat="43.06366106926609" lon="10.787314289455654"><ele>272.0</ele><time>2026-03-22T10:13:06Z</time></trkpt><trkpt lat="43.0636193272604" lon="10.78724297069983"><ele>272.0</ele><time>2026-03-22T10:13:09Z</time></trkpt><trkpt lat="43.063560358489035" lon="10.787164362728557"><ele>272.0</ele><time>2026-03-22T10:13:12Z</time></trkpt><trkpt lat="43.06351084959767" lon="10.787108055653354"><ele>272.0</ele><time>2026-03-22T10:13:15Z</time></trkpt><trkpt lat="43.063451436201284" lon="10.787067917583546"><ele>272.0</ele><time>2026-03-22T10:13:17Z</time></trkpt><trkpt lat="43.06340002455205" lon="10.78700152211518"><ele>272.0</ele><time>2026-03-22T10:13:20Z</time></trkpt><trkpt lat="43.06337324445197" lon="10.786883741791105"><ele>272.0</ele><time>2026-03-22T10:13:22.999Z</time></trkpt><trkpt lat="43.06338568428202" lon="10.786770179689682"><ele>271.83333333333337</ele><time>2026-03-22T10:13:25.999Z</time></trkpt><trkpt lat="43.06336089633964" lon="10.786641473185067"><ele>271.6666666666667</ele><time>2026-03-22T10:13:29Z</time></trkpt><trkpt lat="43.0633198151348" lon="10.786553216522195"><ele>271.5</ele><time>2026-03-22T10:13:31Z</time></trkpt><trkpt lat="43.063279380531185" lon="10.786476424944828"><ele>271.3333333333333</ele><time>2026-03-22T10:13:33Z</time></trkpt><trkpt lat="43.0631822484722" lon="10.786426084813519"><ele>271.16666666666663</ele><time>2026-03-22T10:13:35Z</time></trkpt><trkpt lat="43.06312401785122" lon="10.786387849286388"><ele>271.0</ele><time>2026-03-22T10:13:36Z</time></trkpt><trkpt lat="43.063051946894916" lon="10.786335338973167"><ele>269.16666666666663</ele><time>2026-03-22T10:13:38Z</time></trkpt><trkpt lat="43.0629924767187" lon="10.786292298125211"><ele>267.3333333333333</ele><time>2026-03-22T10:13:40Z</time></trkpt><trkpt lat="43.06292520462397" lon="10.786228008592255"><ele>265.5</ele><time>2026-03-22T10:13:42Z</time></trkpt><trkpt lat="43.06286838028507" lon="10.786148638633735"><ele>263.6666666666667</ele><time>2026-03-22T10:13:44Z</time></trkpt><trkpt lat="43.062817415182415" lon="10.786090096861932"><ele>261.83333333333337</ele><time>2026-03-22T10:13:46Z</time></trkpt><trkpt lat="43.06276693276695" lon="10.786027588639875"><ele>260.0</ele><time>2026-03-22T10:13:48Z</time></trkpt><trkpt lat="43.06283540791359" lon="10.786102378273611"><ele>260.0</ele><time>2026-03-22T10:14:59Z</time></trkpt><trkpt lat="43.06290227057237" lon="10.786182038789827"><ele>260.0</ele><time>2026-03-22T10:15:01Z</time></trkpt><trkpt lat="43.06301238333542" lon="10.786330262368391"><ele>260.0</ele><time>2026-03-22T10:15:03Z</time></trkpt><trkpt lat="43.06310733876421" lon="10.786372948562144"><ele>260.0</ele><time>2026-03-22T10:15:04Z</time></trkpt><trkpt lat="43.06317567122493" lon="10.786417394675855"><ele>260.0</ele><time>2026-03-22T10:15:05Z</time></trkpt><trkpt lat="43.06323663847347" lon="10.786463489160464"><ele>261.83333333333337</ele><time>2026-03-22T10:15:06Z</time></trkpt><trkpt lat="43.063322601736544" lon="10.78652363493212"><ele>263.6666666666667</ele><time>2026-03-22T10:15:08Z</time></trkpt><trkpt lat="43.06340317329861" lon="10.786567033136262"><ele>265.5</ele><time>2026-03-22T10:15:10Z</time></trkpt><trkpt lat="43.063402832876626" lon="10.786664133710067"><ele>267.3333333333333</ele><time>2026-03-22T10:15:11Z</time></trkpt><trkpt lat="43.06339271424118" lon="10.786751761615802"><ele>269.16666666666663</ele><time>2026-03-22T10:15:12Z</time></trkpt><trkpt lat="43.063425929817804" lon="10.786881815984822"><ele>271.0</ele><time>2026-03-22T10:15:14Z</time></trkpt><trkpt lat="43.06341046311589" lon="10.786983387194073"><ele>271.2</ele><time>2026-03-22T10:15:16Z</time></trkpt><trkpt lat="43.063352173158975" lon="10.787025071594236"><ele>271.40000000000003</ele><time>2026-03-22T10:15:17Z</time></trkpt><trkpt lat="43.06351805936591" lon="10.787140254089715"><ele>271.6</ele><time>2026-03-22T10:15:20Z</time></trkpt><trkpt lat="43.06360775931363" lon="10.787190024497274"><ele>271.8</ele><time>2026-03-22T10:15:22Z</time></trkpt><trkpt lat="43.06367629033257" lon="10.78727164260022"><ele>272.0</ele><time>2026-03-22T10:15:24Z</time></trkpt><trkpt lat="43.063711423904884" lon="10.78737105519132"><ele>272.0</ele><time>2026-03-22T10:15:26Z</time></trkpt><trkpt lat="43.063781235901175" lon="10.787458439227827"><ele>272.0</ele><time>2026-03-22T10:15:28Z</time></trkpt><trkpt lat="43.06388553304868" lon="10.787494023652139"><ele>272.0</ele><time>2026-03-22T10:15:30Z</time></trkpt><trkpt lat="43.0639667620467" lon="10.787557649270282"><ele>272.0</ele><time>2026-03-22T10:15:32Z</time></trkpt><trkpt lat="43.063987358246095" lon="10.787720630943749"><ele>272.0</ele><time>2026-03-22T10:15:34Z</time></trkpt><trkpt lat="43.06399797741512" lon="10.787810728407951"><ele>272.0</ele><time>2026-03-22T10:15:35Z</time></trkpt><trkpt lat="43.063950065692424" lon="10.788009494549032"><ele>272.0</ele><time>2026-03-22T10:15:37Z</time></trkpt><trkpt lat="43.06397173199429" lon="10.788090446793978"><ele>272.0</ele><time>2026-03-22T10:15:38Z</time></trkpt><trkpt lat="43.06401416898251" lon="10.788277319782855"><ele>272.0</ele><time>2026-03-22T10:15:40Z</time></trkpt><trkpt lat="43.06405376456518" lon="10.788388403640399"><ele>272.0</ele><time>2026-03-22T10:15:41Z</time></trkpt><trkpt lat="43.064095602670555" lon="10.788480517455582"><ele>274.0</ele><time>2026-03-22T10:15:42Z</time></trkpt><trkpt lat="43.06413997400384" lon="10.78855685704779"><ele>276.0</ele><time>2026-03-22T10:15:43Z</time></trkpt><trkpt lat="43.06421039858285" lon="10.788631887644462"><ele>278.0</ele><time>2026-03-22T10:15:44Z</time></trkpt><trkpt lat="43.064272221862055" lon="10.788687167661378"><ele>280.0</ele><time>2026-03-22T10:15:45Z</time></trkpt><trkpt lat="43.06433473872028" lon="10.788741679467565"><ele>282.0</ele><time>2026-03-22T10:15:46Z</time></trkpt><trkpt lat="43.064403056676944" lon="10.788798690934584"><ele>284.0</ele><time>2026-03-22T10:15:47Z</time></trkpt><trkpt lat="43.064480544891204" lon="10.788843232222403"><ele>284.0</ele><time>2026-03-22T10:15:48Z</time></trkpt><trkpt lat="43.06456390178531" lon="10.78888001510133"><ele>284.0</ele><time>2026-03-22T10:15:49Z</time></trkpt><trkpt lat="43.06464635551076" lon="10.788905356007467"><ele>284.0</ele><time>2026-03-22T10:15:50Z</time></trkpt><trkpt lat="43.06473508849227" lon="10.78893070569435"><ele>284.0</ele><time>2026-03-22T10:15:51Z</time></trkpt><trkpt lat="43.06480344695035" lon="10.788986178822038"><ele>284.0</ele><time>2026-03-22T10:15:52Z</time></trkpt><trkpt lat="43.064880080949706" lon="10.789014300250246"><ele>284.0</ele><time>2026-03-22T10:15:53Z</time></trkpt><trkpt lat="43.06494768165446" lon="10.789049921337627"><ele>284.6666666666667</ele><time>2026-03-22T10:15:54Z</time></trkpt><trkpt lat="43.06501911361243" lon="10.789067717518895"><ele>285.33333333333337</ele><time>2026-03-22T10:15:55Z</time></trkpt><trkpt lat="43.065081619331885" lon="10.789101441294314"><ele>286.0</ele><time>2026-03-22T10:15:56Z</time></trkpt><trkpt lat="43.0651460229809" lon="10.789128047226548"><ele>286.6666666666667</ele><time>2026-03-22T10:15:57Z</time></trkpt><trkpt lat="43.06519187244254" lon="10.7891918187658"><ele>287.3333333333333</ele><time>2026-03-22T10:15:58Z</time></trkpt><trkpt lat="43.065288506747564" lon="10.789351666683281"><ele>288.0</ele><time>2026-03-22T10:16:00Z</time></trkpt><trkpt lat="43.06535269185743" lon="10.789437792627675"><ele>288.0</ele><time>2026-03-22T10:16:01Z</time></trkpt><trkpt lat="43.06542035774585" lon="10.789536571085"><ele>288.0</ele><time>2026-03-22T10:16:02Z</time></trkpt><trkpt lat="43.06547440939111" lon="10.789636474131848"><ele>288.0</ele><time>2026-03-22T10:16:03Z</time></trkpt><trkpt lat="43.065523867522316" lon="10.789745724909396"><ele>288.0</ele><time>2026-03-22T10:16:04Z</time></trkpt><trkpt lat="43.06557922029354" lon="10.789860227382116"><ele>288.0</ele><time>2026-03-22T10:16:05Z</time></trkpt><trkpt lat="43.065647180147515" lon="10.78997435442987"><ele>288.0</ele><time>2026-03-22T10:16:06Z</time></trkpt><trkpt lat="43.065696703146415" lon="10.79008487587977"><ele>288.0</ele><time>2026-03-22T10:16:07Z</time></trkpt><trkpt lat="43.065729921120855" lon="10.790192318791474"><ele>288.0</ele><time>2026-03-22T10:16:08Z</time></trkpt><trkpt lat="43.06575661152233" lon="10.790314591215491"><ele>288.0</ele><time>2026-03-22T10:16:09Z</time></trkpt><trkpt lat="43.06577986072905" lon="10.790427791249247"><ele>288.0</ele><time>2026-03-22T10:16:10Z</time></trkpt><trkpt lat="43.06579697058507" lon="10.79051904308841"><ele>288.0</ele><time>2026-03-22T10:16:11Z</time></trkpt><trkpt lat="43.065839439837156" lon="10.790596496121008"><ele>287.6</ele><time>2026-03-22T10:16:12Z</time></trkpt><trkpt lat="43.0659175239619" lon="10.7906212938113"><ele>287.20000000000005</ele><time>2026-03-22T10:16:13Z</time></trkpt><trkpt lat="43.06598783414106" lon="10.790683538774339"><ele>286.8</ele><time>2026-03-22T10:16:14Z</time></trkpt><trkpt lat="43.06606068716342" lon="10.790788649333754"><ele>286.40000000000003</ele><time>2026-03-22T10:16:15Z</time></trkpt><trkpt lat="43.06614860247345" lon="10.790901203013867"><ele>286.0</ele><time>2026-03-22T10:16:16Z</time></trkpt><trkpt lat="43.06623623145283" lon="10.791013477830784"><ele>286.0</ele><time>2026-03-22T10:16:17Z</time></trkpt><trkpt lat="43.06631724915245" lon="10.79112779085546"><ele>286.0</ele><time>2026-03-22T10:16:18Z</time></trkpt><trkpt lat="43.06639809513451" lon="10.791250453734458"><ele>286.0</ele><time>2026-03-22T10:16:19Z</time></trkpt><trkpt lat="43.06648587928407" lon="10.791351719583693"><ele>286.0</ele><time>2026-03-22T10:16:20Z</time></trkpt><trkpt lat="43.06654823885465" lon="10.791472114069094"><ele>287.0</ele><time>2026-03-22T10:16:21Z</time></trkpt><trkpt lat="43.06661577184651" lon="10.791585698523106"><ele>288.0</ele><time>2026-03-22T10:16:22Z</time></trkpt><trkpt lat="43.06667630033786" lon="10.791700496410126"><ele>289.0</ele><time>2026-03-22T10:16:23Z</time></trkpt><trkpt lat="43.06673563063129" lon="10.791821548799609"><ele>290.0</ele><time>2026-03-22T10:16:24Z</time></trkpt><trkpt lat="43.06678895889347" lon="10.791948597132988"><ele>291.0</ele><time>2026-03-22T10:16:25Z</time></trkpt><trkpt lat="43.06683552786002" lon="10.792086604730727"><ele>291.5</ele><time>2026-03-22T10:16:26Z</time></trkpt><trkpt lat="43.066884712803116" lon="10.792234783245608"><ele>292.0</ele><time>2026-03-22T10:16:27Z</time></trkpt><trkpt lat="43.06693180836902" lon="10.792377773829825"><ele>292.5</ele><time>2026-03-22T10:16:28Z</time></trkpt><trkpt lat="43.06698667399129" lon="10.79253361401112"><ele>293.0</ele><time>2026-03-22T10:16:29Z</time></trkpt><trkpt lat="43.0670471790718" lon="10.792680518070503"><ele>293.0</ele><time>2026-03-22T10:16:30Z</time></trkpt><trkpt lat="43.06711425209333" lon="10.792809049330275"><ele>293.0</ele><time>2026-03-22T10:16:31Z</time></trkpt><trkpt lat="43.0672027724005" lon="10.792917982600011"><ele>293.0</ele><time>2026-03-22T10:16:32Z</time></trkpt><trkpt lat="43.067269552405826" lon="10.793047109553815"><ele>293.0</ele><time>2026-03-22T10:16:33Z</time></trkpt><trkpt lat="43.067356065422864" lon="10.793168172477431"><ele>293.0</ele><time>2026-03-22T10:16:34Z</time></trkpt><trkpt lat="43.06743567384055" lon="10.79327795277254"><ele>293.0</ele><time>2026-03-22T10:16:35Z</time></trkpt><trkpt lat="43.067514088437555" lon="10.79338744148339"><ele>293.0</ele><time>2026-03-22T10:16:36Z</time></trkpt><trkpt lat="43.067598329543394" lon="10.793497200009798"><ele>293.0</ele><time>2026-03-22T10:16:37Z</time></trkpt><trkpt lat="43.067699275860896" lon="10.79357601706808"><ele>293.0</ele><time>2026-03-22T10:16:38Z</time></trkpt><trkpt lat="43.06779355588644" lon="10.793670258546122"><ele>293.0</ele><time>2026-03-22T10:16:39Z</time></trkpt><trkpt lat="43.06789408869833" lon="10.793757479293884"><ele>293.0</ele><time>2026-03-22T10:16:40Z</time></trkpt><trkpt lat="43.06797363088735" lon="10.793869065713082"><ele>293.0</ele><time>2026-03-22T10:16:41Z</time></trkpt><trkpt lat="43.06806268105027" lon="10.793980702572396"><ele>293.0</ele><time>2026-03-22T10:16:42Z</time></trkpt><trkpt lat="43.0681630553255" lon="10.794077129764295"><ele>293.0</ele><time>2026-03-22T10:16:43Z</time></trkpt><trkpt lat="43.068250786187775" lon="10.79418770520109"><ele>293.0</ele><time>2026-03-22T10:16:44Z</time></trkpt><trkpt lat="43.06834146434839" lon="10.794284299425687"><ele>293.0</ele><time>2026-03-22T10:16:45Z</time></trkpt><trkpt lat="43.068461360329366" lon="10.794346382971618"><ele>289.75</ele><time>2026-03-22T10:16:46Z</time></trkpt><trkpt lat="43.068580757220445" lon="10.794408994251356"><ele>286.5</ele><time>2026-03-22T10:16:47Z</time></trkpt><trkpt lat="43.06870259382504" lon="10.794465332148137"><ele>283.25</ele><time>2026-03-22T10:16:48Z</time></trkpt><trkpt lat="43.06881496067435" lon="10.794526026327608"><ele>280.0</ele><time>2026-03-22T10:16:49Z</time></trkpt><trkpt lat="43.06890878373813" lon="10.794574254792195"><ele>280.0</ele><time>2026-03-22T10:16:50Z</time></trkpt><trkpt lat="43.06899741145067" lon="10.794607780426324"><ele>280.0</ele><time>2026-03-22T10:16:51Z</time></trkpt><trkpt lat="43.069103205497306" lon="10.794565113928758"><ele>280.0</ele><time>2026-03-22T10:16:52Z</time></trkpt><trkpt lat="43.06921566845864" lon="10.794572572143563"><ele>280.0</ele><time>2026-03-22T10:16:53Z</time></trkpt><trkpt lat="43.06933392989764" lon="10.794581305486782"><ele>280.0</ele><time>2026-03-22T10:16:54Z</time></trkpt><trkpt lat="43.06946288543251" lon="10.794637372622141"><ele>282.0</ele><time>2026-03-22T10:16:55Z</time></trkpt><trkpt lat="43.06960225870169" lon="10.794659647697662"><ele>284.0</ele><time>2026-03-22T10:16:56Z</time></trkpt><trkpt lat="43.06971510904443" lon="10.794695571517805"><ele>286.0</ele><time>2026-03-22T10:16:57Z</time></trkpt><trkpt lat="43.06981889824926" lon="10.794730431538241"><ele>288.0</ele><time>2026-03-22T10:16:58Z</time></trkpt><trkpt lat="43.069941087116035" lon="10.794763105984769"><ele>289.5</ele><time>2026-03-22T10:16:59Z</time></trkpt><trkpt lat="43.070067303130664" lon="10.794843755493618"><ele>291.0</ele><time>2026-03-22T10:17:00Z</time></trkpt><trkpt lat="43.0701962242536" lon="10.794904669423705"><ele>292.5</ele><time>2026-03-22T10:17:01Z</time></trkpt><trkpt lat="43.070303318133405" lon="10.794984741438405"><ele>294.0</ele><time>2026-03-22T10:17:02Z</time></trkpt><trkpt lat="43.07038823578338" lon="10.795069102264996"><ele>293.4</ele><time>2026-03-22T10:17:03Z</time></trkpt><trkpt lat="43.07042698942862" lon="10.795202480221798"><ele>292.79999999999995</ele><time>2026-03-22T10:17:04Z</time></trkpt><trkpt lat="43.07048268731903" lon="10.795253668245742"><ele>292.20000000000005</ele><time>2026-03-22T10:17:05Z</time></trkpt><trkpt lat="43.070589045850326" lon="10.795332824177294"><ele>291.6</ele><time>2026-03-22T10:17:06Z</time></trkpt><trkpt lat="43.07070214649197" lon="10.795419943565157"><ele>291.0</ele><time>2026-03-22T10:17:07Z</time></trkpt><trkpt lat="43.070817134187344" lon="10.795497448254986"><ele>291.0</ele><time>2026-03-22T10:17:08Z</time></trkpt><trkpt lat="43.07093754439643" lon="10.79555302388468"><ele>291.0</ele><time>2026-03-22T10:17:09Z</time></trkpt><trkpt lat="43.071088374121345" lon="10.795611187053177"><ele>291.0</ele><time>2026-03-22T10:17:10Z</time></trkpt><trkpt lat="43.07122164893176" lon="10.795710521992227"><ele>291.0</ele><time>2026-03-22T10:17:11Z</time></trkpt><trkpt lat="43.07133821348558" lon="10.795802474029221"><ele>291.0</ele><time>2026-03-22T10:17:12Z</time></trkpt><trkpt lat="43.07145032476339" lon="10.795870058530078"><ele>291.0</ele><time>2026-03-22T10:17:13Z</time></trkpt><trkpt lat="43.071572421583866" lon="10.795902068619029"><ele>291.0</ele><time>2026-03-22T10:17:14Z</time></trkpt><trkpt lat="43.07169510759873" lon="10.795952960041193"><ele>291.0</ele><time>2026-03-22T10:17:15Z</time></trkpt><trkpt lat="43.07184135376748" lon="10.795974540903675"><ele>293.0</ele><time>2026-03-22T10:17:16Z</time></trkpt><trkpt lat="43.07198428326333" lon="10.795973820581235"><ele>295.0</ele><time>2026-03-22T10:17:17Z</time></trkpt><trkpt lat="43.07212098137245" lon="10.795950322111526"><ele>297.0</ele><time>2026-03-22T10:17:18Z</time></trkpt><trkpt lat="43.072222427227196" lon="10.795943465748188"><ele>299.0</ele><time>2026-03-22T10:17:19Z</time></trkpt><trkpt lat="43.07231206028403" lon="10.7959135829303"><ele>299.0</ele><time>2026-03-22T10:17:20Z</time></trkpt><trkpt lat="43.0724040213195" lon="10.795867404248055"><ele>299.0</ele><time>2026-03-22T10:17:21Z</time></trkpt><trkpt lat="43.0725147875536" lon="10.795792082217591"><ele>299.0</ele><time>2026-03-22T10:17:22Z</time></trkpt><trkpt lat="43.072630359994214" lon="10.795712094343182"><ele>299.0</ele><time>2026-03-22T10:17:23Z</time></trkpt><trkpt lat="43.07272542629804" lon="10.795657033502504"><ele>298.8</ele><time>2026-03-22T10:17:24Z</time></trkpt><trkpt lat="43.0728008896158" lon="10.795655613939628"><ele>298.59999999999997</ele><time>2026-03-22T10:17:25Z</time></trkpt><trkpt lat="43.072898308056615" lon="10.795710574721934"><ele>298.4</ele><time>2026-03-22T10:17:27Z</time></trkpt><trkpt lat="43.07290011360428" lon="10.795805286037389"><ele>298.2</ele><time>2026-03-22T10:17:28Z</time></trkpt><trkpt lat="43.072894003463986" lon="10.79599145749453"><ele>298.0</ele><time>2026-03-22T10:17:30Z</time></trkpt><trkpt lat="43.072921365087566" lon="10.796138460585126"><ele>297.0</ele><time>2026-03-22T10:17:31Z</time></trkpt><trkpt lat="43.072958281320005" lon="10.796269654937799"><ele>296.0</ele><time>2026-03-22T10:17:32Z</time></trkpt><trkpt lat="43.07298418747135" lon="10.796422066300009"><ele>295.0</ele><time>2026-03-22T10:17:32.999Z</time></trkpt><trkpt lat="43.073013021035905" lon="10.796608710013238"><ele>294.0</ele><time>2026-03-22T10:17:33.999Z</time></trkpt><trkpt lat="43.0730434450342" lon="10.796797695511357"><ele>296.0</ele><time>2026-03-22T10:17:34.999Z</time></trkpt><trkpt lat="43.073068322700784" lon="10.796961769385273"><ele>298.0</ele><time>2026-03-22T10:17:35.999Z</time></trkpt><trkpt lat="43.07309280594876" lon="10.797121821225034"><ele>300.0</ele><time>2026-03-22T10:17:36.999Z</time></trkpt><trkpt lat="43.073122693370756" lon="10.797274822712396"><ele>302.0</ele><time>2026-03-22T10:17:37.999Z</time></trkpt><trkpt lat="43.07316563861097" lon="10.79742635261927"><ele>302.0</ele><time>2026-03-22T10:17:39Z</time></trkpt><trkpt lat="43.07323514165028" lon="10.797563912409046"><ele>302.0</ele><time>2026-03-22T10:17:40Z</time></trkpt><trkpt lat="43.07331391984546" lon="10.797694368814833"><ele>302.0</ele><time>2026-03-22T10:17:41Z</time></trkpt><trkpt lat="43.07339063853205" lon="10.797823850734293"><ele>302.0</ele><time>2026-03-22T10:17:42Z</time></trkpt><trkpt lat="43.07347742025288" lon="10.797950629410087"><ele>304.25</ele><time>2026-03-22T10:17:43Z</time></trkpt><trkpt lat="43.07356929053419" lon="10.798070159593577"><ele>306.5</ele><time>2026-03-22T10:17:44Z</time></trkpt><trkpt lat="43.073669668936276" lon="10.798196844832928"><ele>308.75</ele><time>2026-03-22T10:17:45Z</time></trkpt><trkpt lat="43.073792621492764" lon="10.798330867413773"><ele>311.0</ele><time>2026-03-22T10:17:46Z</time></trkpt><trkpt lat="43.07391170638362" lon="10.79850258463908"><ele>311.0</ele><time>2026-03-22T10:17:47Z</time></trkpt><trkpt lat="43.07403177499857" lon="10.798668829408204"><ele>311.0</ele><time>2026-03-22T10:17:48Z</time></trkpt><trkpt lat="43.074136217663444" lon="10.798819912662488"><ele>311.0</ele><time>2026-03-22T10:17:49Z</time></trkpt><trkpt lat="43.07424660758454" lon="10.798980994326609"><ele>313.0</ele><time>2026-03-22T10:17:50Z</time></trkpt><trkpt lat="43.07434575062132" lon="10.799125699637422"><ele>315.0</ele><time>2026-03-22T10:17:51Z</time></trkpt><trkpt lat="43.07442912349513" lon="10.799245428021122"><ele>317.0</ele><time>2026-03-22T10:17:52Z</time></trkpt><trkpt lat="43.07450133191934" lon="10.799350760447519"><ele>319.0</ele><time>2026-03-22T10:17:53Z</time></trkpt><trkpt lat="43.07458182194863" lon="10.799449835639527"><ele>319.0</ele><time>2026-03-22T10:17:54Z</time></trkpt><trkpt lat="43.07465651073831" lon="10.79951026247447"><ele>319.0</ele><time>2026-03-22T10:17:55Z</time></trkpt><trkpt lat="43.07471907229531" lon="10.79952616130795"><ele>319.0</ele><time>2026-03-22T10:17:56Z</time></trkpt><trkpt lat="43.07469458290427" lon="10.799661483718932"><ele>319.0</ele><time>2026-03-22T10:17:58Z</time></trkpt><trkpt lat="43.07470215400035" lon="10.79980099770193"><ele>319.0</ele><time>2026-03-22T10:17:59Z</time></trkpt><trkpt lat="43.074711096014525" lon="10.799978686025744"><ele>320.0</ele><time>2026-03-22T10:18:00Z</time></trkpt><trkpt lat="43.07471724763424" lon="10.800183828246226"><ele>321.0</ele><time>2026-03-22T10:18:01Z</time></trkpt><trkpt lat="43.07470981814404" lon="10.800414157523237"><ele>322.0</ele><time>2026-03-22T10:18:02Z</time></trkpt><trkpt lat="43.07468896853799" lon="10.80066602896884"><ele>322.0</ele><time>2026-03-22T10:18:03Z</time></trkpt><trkpt lat="43.074659695840246" lon="10.800923309531822"><ele>322.0</ele><time>2026-03-22T10:18:04Z</time></trkpt><trkpt lat="43.074631149261364" lon="10.801172703580828"><ele>322.0</ele><time>2026-03-22T10:18:05Z</time></trkpt><trkpt lat="43.07460529178375" lon="10.801399157644394"><ele>323.66666666666663</ele><time>2026-03-22T10:18:06Z</time></trkpt><trkpt lat="43.07458006686068" lon="10.801620107242966"><ele>325.3333333333333</ele><time>2026-03-22T10:18:07Z</time></trkpt><trkpt lat="43.0745643374485" lon="10.801829151333807"><ele>327.0</ele><time>2026-03-22T10:18:08Z</time></trkpt><trkpt lat="43.07456708475343" lon="10.802045251192501"><ele>327.6666666666667</ele><time>2026-03-22T10:18:09Z</time></trkpt><trkpt lat="43.074591273199886" lon="10.80225181689032"><ele>328.33333333333337</ele><time>2026-03-22T10:18:10Z</time></trkpt><trkpt lat="43.07463344155302" lon="10.802452226427336"><ele>329.0</ele><time>2026-03-22T10:18:11Z</time></trkpt><trkpt lat="43.074687651152885" lon="10.802650439185781"><ele>329.0</ele><time>2026-03-22T10:18:12Z</time></trkpt><trkpt lat="43.07474769516031" lon="10.80284814066454"><ele>329.0</ele><time>2026-03-22T10:18:13Z</time></trkpt><trkpt lat="43.074810270992025" lon="10.803047400918247"><ele>329.0</ele><time>2026-03-22T10:18:14Z</time></trkpt><trkpt lat="43.074878731260284" lon="10.803259769002231"><ele>329.0</ele><time>2026-03-22T10:18:15Z</time></trkpt><trkpt lat="43.074948818578626" lon="10.803471561603548"><ele>329.0</ele><time>2026-03-22T10:18:16Z</time></trkpt><trkpt lat="43.075014133910685" lon="10.803668365068068"><ele>329.0</ele><time>2026-03-22T10:18:17Z</time></trkpt><trkpt lat="43.07506528311256" lon="10.803833432850613"><ele>328.75</ele><time>2026-03-22T10:18:18Z</time></trkpt><trkpt lat="43.07510007658614" lon="10.80398772847055"><ele>328.5</ele><time>2026-03-22T10:18:19Z</time></trkpt><trkpt lat="43.0751182837993" lon="10.804143868456203"><ele>328.25</ele><time>2026-03-22T10:18:20Z</time></trkpt><trkpt lat="43.075118639895656" lon="10.804314524751332"><ele>328.0</ele><time>2026-03-22T10:18:21Z</time></trkpt><trkpt lat="43.0751162537672" lon="10.804527465629974"><ele>328.0</ele><time>2026-03-22T10:18:22Z</time></trkpt><trkpt lat="43.07510660356603" lon="10.804750887881523"><ele>328.0</ele><time>2026-03-22T10:18:23Z</time></trkpt><trkpt lat="43.075093436391484" lon="10.804983685667384"><ele>328.0</ele><time>2026-03-22T10:18:24Z</time></trkpt><trkpt lat="43.0750810615439" lon="10.805216459594952"><ele>327.3333333333333</ele><time>2026-03-22T10:18:25Z</time></trkpt><trkpt lat="43.07507115691557" lon="10.805424204815031"><ele>326.6666666666667</ele><time>2026-03-22T10:18:26Z</time></trkpt><trkpt lat="43.0750612816067" lon="10.8056313347559"><ele>326.0</ele><time>2026-03-22T10:18:27Z</time></trkpt><trkpt lat="43.075053223637916" lon="10.805833758300043"><ele>326.33333333333337</ele><time>2026-03-22T10:18:28Z</time></trkpt><trkpt lat="43.075061318685535" lon="10.806034384774003"><ele>326.6666666666667</ele><time>2026-03-22T10:18:29Z</time></trkpt><trkpt lat="43.07510641010294" lon="10.806238016191049"><ele>327.0</ele><time>2026-03-22T10:18:30Z</time></trkpt><trkpt lat="43.07516469675198" lon="10.806434653757709"><ele>327.0</ele><time>2026-03-22T10:18:31Z</time></trkpt><trkpt lat="43.075221134639015" lon="10.80661098350148"><ele>327.0</ele><time>2026-03-22T10:18:32Z</time></trkpt><trkpt lat="43.07528807375441" lon="10.806771855474125"><ele>327.0</ele><time>2026-03-22T10:18:33Z</time></trkpt><trkpt lat="43.07537000867123" lon="10.80692926632511"><ele>327.0</ele><time>2026-03-22T10:18:34Z</time></trkpt><trkpt lat="43.07546263106829" lon="10.807087961055547"><ele>325.3333333333333</ele><time>2026-03-22T10:18:35Z</time></trkpt><trkpt lat="43.07555714480733" lon="10.807250447376994"><ele>323.66666666666663</ele><time>2026-03-22T10:18:36Z</time></trkpt><trkpt lat="43.07565063715397" lon="10.807414251710767"><ele>322.0</ele><time>2026-03-22T10:18:37Z</time></trkpt><trkpt lat="43.07574211865344" lon="10.807571553313954"><ele>323.25</ele><time>2026-03-22T10:18:38Z</time></trkpt><trkpt lat="43.075834040266116" lon="10.807715949777453"><ele>324.5</ele><time>2026-03-22T10:18:39Z</time></trkpt><trkpt lat="43.07591475018684" lon="10.807851200727473"><ele>325.75</ele><time>2026-03-22T10:18:40Z</time></trkpt><trkpt lat="43.075968383605336" lon="10.807987315386612"><ele>327.0</ele><time>2026-03-22T10:18:41Z</time></trkpt><trkpt lat="43.0760019978419" lon="10.808138083976745"><ele>327.0</ele><time>2026-03-22T10:18:42Z</time></trkpt><trkpt lat="43.07602562521861" lon="10.80830838543284"><ele>327.0</ele><time>2026-03-22T10:18:43Z</time></trkpt><trkpt lat="43.07605052084238" lon="10.80847112284962"><ele>327.0</ele><time>2026-03-22T10:18:44Z</time></trkpt><trkpt lat="43.07610083810379" lon="10.808626804959825"><ele>327.0</ele><time>2026-03-22T10:18:45Z</time></trkpt><trkpt lat="43.07618465107339" lon="10.80875433198849"><ele>327.25</ele><time>2026-03-22T10:18:46Z</time></trkpt><trkpt lat="43.0763039612792" lon="10.808861522944303"><ele>327.5</ele><time>2026-03-22T10:18:47Z</time></trkpt><trkpt lat="43.07641851257159" lon="10.808963626003749"><ele>327.75</ele><time>2026-03-22T10:18:48Z</time></trkpt><trkpt lat="43.07652079019148" lon="10.809051084773648"><ele>328.0</ele><time>2026-03-22T10:18:49Z</time></trkpt><trkpt lat="43.076613123236555" lon="10.809121028906839"><ele>328.0</ele><time>2026-03-22T10:18:50Z</time></trkpt><trkpt lat="43.07669637406577" lon="10.809180762553751"><ele>328.0</ele><time>2026-03-22T10:18:51Z</time></trkpt><trkpt lat="43.07677504498134" lon="10.809237210085811"><ele>328.0</ele><time>2026-03-22T10:18:52Z</time></trkpt><trkpt lat="43.07685293063417" lon="10.809295195953165"><ele>328.0</ele><time>2026-03-22T10:18:53Z</time></trkpt><trkpt lat="43.076926741030604" lon="10.809357742469118"><ele>328.0</ele><time>2026-03-22T10:18:54Z</time></trkpt><trkpt lat="43.07699501501304" lon="10.80943076984278"><ele>328.0</ele><time>2026-03-22T10:18:55Z</time></trkpt><trkpt lat="43.077047457104506" lon="10.809518580314913"><ele>328.4</ele><time>2026-03-22T10:18:56Z</time></trkpt><trkpt lat="43.077050797411246" lon="10.809697711706576"><ele>328.79999999999995</ele><time>2026-03-22T10:18:58Z</time></trkpt><trkpt lat="43.077030928515164" lon="10.809802244697448"><ele>329.2</ele><time>2026-03-22T10:18:59Z</time></trkpt><trkpt lat="43.07700156262772" lon="10.80992869517255"><ele>329.6</ele><time>2026-03-22T10:19:00Z</time></trkpt><trkpt lat="43.07696993146232" lon="10.810056507582027"><ele>330.0</ele><time>2026-03-22T10:19:01Z</time></trkpt><trkpt lat="43.076941260389454" lon="10.810175129982394"><ele>330.5</ele><time>2026-03-22T10:19:02Z</time></trkpt><trkpt lat="43.076912673537315" lon="10.810306478222335"><ele>331.0</ele><time>2026-03-22T10:19:03Z</time></trkpt><trkpt lat="43.07688715422382" lon="10.810429129198257"><ele>331.5</ele><time>2026-03-22T10:19:04Z</time></trkpt><trkpt lat="43.076861143784626" lon="10.810548185025034"><ele>332.0</ele><time>2026-03-22T10:19:05Z</time></trkpt><trkpt lat="43.07683386664018" lon="10.810652061991862"><ele>332.5</ele><time>2026-03-22T10:19:06Z</time></trkpt><trkpt lat="43.07680162823538" lon="10.81075633453838"><ele>333.0</ele><time>2026-03-22T10:19:07Z</time></trkpt><trkpt lat="43.07676305446651" lon="10.810847437311015"><ele>333.0</ele><time>2026-03-22T10:19:08Z</time></trkpt><trkpt lat="43.07671935962015" lon="10.810920612139247"><ele>333.0</ele><time>2026-03-22T10:19:09Z</time></trkpt><trkpt lat="43.07667724120323" lon="10.810989918142283"><ele>333.0</ele><time>2026-03-22T10:19:10Z</time></trkpt><trkpt lat="43.076616259795664" lon="10.811076672937018"><ele>333.0</ele><time>2026-03-22T10:19:11Z</time></trkpt><trkpt lat="43.07654610383787" lon="10.811168237461423"><ele>333.0</ele><time>2026-03-22T10:19:12Z</time></trkpt><trkpt lat="43.076476879540365" lon="10.811258586150174"><ele>333.0</ele><time>2026-03-22T10:19:13Z</time></trkpt><trkpt lat="43.07640326797983" lon="10.811359323919016"><ele>328.59999999999997</ele><time>2026-03-22T10:19:14Z</time></trkpt><trkpt lat="43.07633331473435" lon="10.811465523668994"><ele>324.2</ele><time>2026-03-22T10:19:15Z</time></trkpt><trkpt lat="43.07626308594463" lon="10.811581181295136"><ele>319.8</ele><time>2026-03-22T10:19:16Z</time></trkpt><trkpt lat="43.076193258610374" lon="10.81169370528531"><ele>315.4</ele><time>2026-03-22T10:19:17Z</time></trkpt><trkpt lat="43.07611630975954" lon="10.811813056508958"><ele>311.0</ele><time>2026-03-22T10:19:18Z</time></trkpt><trkpt lat="43.07603975968248" lon="10.811932462340753"><ele>309.6</ele><time>2026-03-22T10:19:19Z</time></trkpt><trkpt lat="43.07596984737248" lon="10.812047276315292"><ele>308.20000000000005</ele><time>2026-03-22T10:19:20Z</time></trkpt><trkpt lat="43.07591573345507" lon="10.812145732916543"><ele>306.79999999999995</ele><time>2026-03-22T10:19:21Z</time></trkpt><trkpt lat="43.075881410879745" lon="10.812262833077137"><ele>305.4</ele><time>2026-03-22T10:19:22Z</time></trkpt><trkpt lat="43.07586950469522" lon="10.812363573198846"><ele>304.0</ele><time>2026-03-22T10:19:23Z</time></trkpt><trkpt lat="43.07590964544296" lon="10.812494415783165"><ele>304.0</ele><time>2026-03-22T10:19:24Z</time></trkpt><trkpt lat="43.075986422063984" lon="10.812587311335323"><ele>304.0</ele><time>2026-03-22T10:19:25Z</time></trkpt><trkpt lat="43.076044732584755" lon="10.812659219519109"><ele>304.0</ele><time>2026-03-22T10:19:26Z</time></trkpt><trkpt lat="43.07611324610603" lon="10.812719085626396"><ele>304.0</ele><time>2026-03-22T10:19:27Z</time></trkpt><trkpt lat="43.076210493961305" lon="10.81279766681032"><ele>304.0</ele><time>2026-03-22T10:19:29Z</time></trkpt><trkpt lat="43.076281782909554" lon="10.812869597140965"><ele>304.0</ele><time>2026-03-22T10:19:31Z</time></trkpt><trkpt lat="43.07633042610928" lon="10.812925386306187"><ele>304.0</ele><time>2026-03-22T10:19:33Z</time></trkpt><trkpt lat="43.076409109430934" lon="10.812737721973278"><ele>304.0</ele><time>2026-03-22T10:19:36Z</time></trkpt><trkpt lat="43.07647281091275" lon="10.812587388043074"><ele>304.0</ele><time>2026-03-22T10:19:38Z</time></trkpt><trkpt lat="43.076561603781094" lon="10.812464863765554"><ele>303.8333333333333</ele><time>2026-03-22T10:19:40Z</time></trkpt><trkpt lat="43.07663353719295" lon="10.812428923274933"><ele>303.66666666666663</ele><time>2026-03-22T10:19:41Z</time></trkpt><trkpt lat="43.07671318879001" lon="10.812418123650668"><ele>303.5</ele><time>2026-03-22T10:19:42Z</time></trkpt><trkpt lat="43.07679413152566" lon="10.812411749879418"><ele>303.3333333333333</ele><time>2026-03-22T10:19:43Z</time></trkpt><trkpt lat="43.07687212967495" lon="10.81240990385112"><ele>303.1666666666667</ele><time>2026-03-22T10:19:44Z</time></trkpt><trkpt lat="43.076939813649275" lon="10.812429081134734"><ele>303.0</ele><time>2026-03-22T10:19:45Z</time></trkpt><trkpt lat="43.07707113926778" lon="10.812446308367399"><ele>303.0</ele><time>2026-03-22T10:19:47Z</time></trkpt><trkpt lat="43.077142102685016" lon="10.812437994686906"><ele>303.0</ele><time>2026-03-22T10:19:48Z</time></trkpt><trkpt lat="43.07719947782764" lon="10.812396701632933"><ele>303.0</ele><time>2026-03-22T10:19:49Z</time></trkpt><trkpt lat="43.07727918441819" lon="10.812338336646235"><ele>303.0</ele><time>2026-03-22T10:19:51Z</time></trkpt><trkpt lat="43.07738105281952" lon="10.812262527920653"><ele>303.0</ele><time>2026-03-22T10:19:53Z</time></trkpt><trkpt lat="43.077438856296375" lon="10.812216025047329"><ele>303.0</ele><time>2026-03-22T10:19:54Z</time></trkpt><trkpt lat="43.077545457833274" lon="10.812129714940236"><ele>301.7142857142857</ele><time>2026-03-22T10:19:56Z</time></trkpt><trkpt lat="43.077602718534116" lon="10.812081928131402"><ele>300.42857142857144</ele><time>2026-03-22T10:19:57Z</time></trkpt><trkpt lat="43.077664622762605" lon="10.812030266008321"><ele>299.1428571428571</ele><time>2026-03-22T10:19:58Z</time></trkpt><trkpt lat="43.07773440810556" lon="10.811974426799113"><ele>297.8571428571429</ele><time>2026-03-22T10:19:59Z</time></trkpt><trkpt lat="43.077800056704405" lon="10.811925046755281"><ele>296.57142857142856</ele><time>2026-03-22T10:20:00Z</time></trkpt><trkpt lat="43.07786751480463" lon="10.811879190639493"><ele>295.2857142857143</ele><time>2026-03-22T10:20:01Z</time></trkpt><trkpt lat="43.0779357062243" lon="10.81183193406374"><ele>294.0</ele><time>2026-03-22T10:20:02Z</time></trkpt><trkpt lat="43.07801039564972" lon="10.811780174403513"><ele>294.14285714285717</ele><time>2026-03-22T10:20:03Z</time></trkpt><trkpt lat="43.078076795514434" lon="10.811729838820566"><ele>294.2857142857143</ele><time>2026-03-22T10:20:04Z</time></trkpt><trkpt lat="43.07814377342929" lon="10.811658071208129"><ele>294.42857142857144</ele><time>2026-03-22T10:20:05Z</time></trkpt><trkpt lat="43.078186435364785" lon="10.811592432757871"><ele>294.57142857142856</ele><time>2026-03-22T10:20:06Z</time></trkpt><trkpt lat="43.078228610273925" lon="10.81152086904588"><ele>294.7142857142857</ele><time>2026-03-22T10:20:07Z</time></trkpt><trkpt lat="43.078277295934804" lon="10.811439269526513"><ele>294.8571428571429</ele><time>2026-03-22T10:20:08Z</time></trkpt><trkpt lat="43.07832264852185" lon="10.811362553724058"><ele>295.0</ele><time>2026-03-22T10:20:09Z</time></trkpt><trkpt lat="43.07837278775475" lon="10.81127290309086"><ele>295.0</ele><time>2026-03-22T10:20:10Z</time></trkpt><trkpt lat="43.07841738730073" lon="10.811193157371685"><ele>295.0</ele><time>2026-03-22T10:20:11Z</time></trkpt><trkpt lat="43.078464016692855" lon="10.811109782398821"><ele>295.0</ele><time>2026-03-22T10:20:12Z</time></trkpt><trkpt lat="43.07851246696493" lon="10.811026444922598"><ele>295.0</ele><time>2026-03-22T10:20:13Z</time></trkpt><trkpt lat="43.07856784114072" lon="10.810934369146207"><ele>295.0</ele><time>2026-03-22T10:20:14Z</time></trkpt><trkpt lat="43.07862407818956" lon="10.810844492580827"><ele>295.0</ele><time>2026-03-22T10:20:15Z</time></trkpt><trkpt lat="43.07868612962001" lon="10.810757795995436"><ele>296.5714285714286</ele><time>2026-03-22T10:20:16Z</time></trkpt><trkpt lat="43.07874405712808" lon="10.810692053745377"><ele>298.14285714285717</ele><time>2026-03-22T10:20:17Z</time></trkpt><trkpt lat="43.07880753062064" lon="10.810633546548253"><ele>299.7142857142857</ele><time>2026-03-22T10:20:18Z</time></trkpt><trkpt lat="43.07886157347817" lon="10.81056584085844"><ele>301.28571428571433</ele><time>2026-03-22T10:20:19Z</time></trkpt><trkpt lat="43.07890474752416" lon="10.810488376410387"><ele>302.8571428571429</ele><time>2026-03-22T10:20:20Z</time></trkpt><trkpt lat="43.078953345840766" lon="10.810401274894815"><ele>304.42857142857144</ele><time>2026-03-22T10:20:21Z</time></trkpt><trkpt lat="43.07899320460053" lon="10.810331631520256"><ele>306.0</ele><time>2026-03-22T10:20:22Z</time></trkpt><trkpt lat="43.079043006146875" lon="10.810252276639636"><ele>306.0</ele><time>2026-03-22T10:20:23Z</time></trkpt><trkpt lat="43.07909202693838" lon="10.810180590779602"><ele>306.0</ele><time>2026-03-22T10:20:24Z</time></trkpt><trkpt lat="43.07914289840197" lon="10.810111283969716"><ele>306.0</ele><time>2026-03-22T10:20:25Z</time></trkpt><trkpt lat="43.07923379971383" lon="10.809998152656965"><ele>306.0</ele><time>2026-03-22T10:20:27Z</time></trkpt><trkpt lat="43.07931919746524" lon="10.809898331794294"><ele>306.0</ele><time>2026-03-22T10:20:29Z</time></trkpt><trkpt lat="43.079385317092154" lon="10.809791393986464"><ele>302.1666666666667</ele><time>2026-03-22T10:20:31Z</time></trkpt><trkpt lat="43.07943344093474" lon="10.809663330208355"><ele>298.3333333333333</ele><time>2026-03-22T10:20:33Z</time></trkpt><trkpt lat="43.079455179069264" lon="10.8095731729527"><ele>294.5</ele><time>2026-03-22T10:20:34Z</time></trkpt><trkpt lat="43.079472461393614" lon="10.809489480879547"><ele>290.66666666666663</ele><time>2026-03-22T10:20:35Z</time></trkpt><trkpt lat="43.07948642974463" lon="10.80940297048128"><ele>286.8333333333333</ele><time>2026-03-22T10:20:36Z</time></trkpt><trkpt lat="43.07949254230705" lon="10.809228873441269"><ele>283.0</ele><time>2026-03-22T10:20:38Z</time></trkpt><trkpt lat="43.07946590285606" lon="10.809059353540084"><ele>282.57142857142856</ele><time>2026-03-22T10:20:40Z</time></trkpt><trkpt lat="43.07945981620858" lon="10.808966921158218"><ele>282.14285714285717</ele><time>2026-03-22T10:20:41Z</time></trkpt><trkpt lat="43.079423338505535" lon="10.808893533540552"><ele>281.7142857142857</ele><time>2026-03-22T10:20:42Z</time></trkpt><trkpt lat="43.07938723998133" lon="10.808808315016302"><ele>281.2857142857143</ele><time>2026-03-22T10:20:43Z</time></trkpt><trkpt lat="43.079353723717475" lon="10.808705044000888"><ele>280.8571428571429</ele><time>2026-03-22T10:20:44Z</time></trkpt><trkpt lat="43.07932027280958" lon="10.808628670530998"><ele>280.42857142857144</ele><time>2026-03-22T10:20:45Z</time></trkpt><trkpt lat="43.07928850048946" lon="10.808548148712413"><ele>280.0</ele><time>2026-03-22T10:20:46Z</time></trkpt><trkpt lat="43.07926151622418" lon="10.808396484319228"><ele>278.5</ele><time>2026-03-22T10:20:48Z</time></trkpt><trkpt lat="43.07927233077722" lon="10.80830804264182"><ele>277.0</ele><time>2026-03-22T10:20:49Z</time></trkpt><trkpt lat="43.079295871074784" lon="10.808224010656158"><ele>275.5</ele><time>2026-03-22T10:20:50Z</time></trkpt><trkpt lat="43.07930841853439" lon="10.80811667962483"><ele>274.0</ele><time>2026-03-22T10:20:51Z</time></trkpt><trkpt lat="43.07934416606186" lon="10.808017204467713"><ele>272.5</ele><time>2026-03-22T10:20:52Z</time></trkpt><trkpt lat="43.0794129836038" lon="10.807907259289797"><ele>271.0</ele><time>2026-03-22T10:20:53Z</time></trkpt><trkpt lat="43.07948522670444" lon="10.807821536303317"><ele>271.0</ele><time>2026-03-22T10:20:54Z</time></trkpt><trkpt lat="43.07955823605749" lon="10.80772259254788"><ele>271.0</ele><time>2026-03-22T10:20:55Z</time></trkpt><trkpt lat="43.079645758164624" lon="10.807614774728592"><ele>271.0</ele><time>2026-03-22T10:20:56Z</time></trkpt><trkpt lat="43.07970794010795" lon="10.807471844863517"><ele>271.0</ele><time>2026-03-22T10:20:57Z</time></trkpt><trkpt lat="43.07979216868327" lon="10.807365593221283"><ele>269.8</ele><time>2026-03-22T10:20:58Z</time></trkpt><trkpt lat="43.079854123213934" lon="10.80723345259286"><ele>268.6</ele><time>2026-03-22T10:20:59Z</time></trkpt><trkpt lat="43.07991514634068" lon="10.807127090402565"><ele>267.4</ele><time>2026-03-22T10:21:00Z</time></trkpt><trkpt lat="43.07997812925828" lon="10.807034956760651"><ele>266.2</ele><time>2026-03-22T10:21:01Z</time></trkpt><trkpt lat="43.080036868972684" lon="10.806951869890314"><ele>265.0</ele><time>2026-03-22T10:21:02Z</time></trkpt><trkpt lat="43.080100596725394" lon="10.806882105547638"><ele>263.8333333333333</ele><time>2026-03-22T10:21:03Z</time></trkpt><trkpt lat="43.08015842267164" lon="10.806823900225856"><ele>262.66666666666663</ele><time>2026-03-22T10:21:04Z</time></trkpt><trkpt lat="43.08022604093391" lon="10.806761759092192"><ele>261.5</ele><time>2026-03-22T10:21:05Z</time></trkpt><trkpt lat="43.08028877844708" lon="10.80667166845991"><ele>260.3333333333333</ele><time>2026-03-22T10:21:06Z</time></trkpt><trkpt lat="43.08035003307372" lon="10.806619108027986"><ele>259.1666666666667</ele><time>2026-03-22T10:21:07Z</time></trkpt><trkpt lat="43.08040744369375" lon="10.806572435320462"><ele>258.0</ele><time>2026-03-22T10:21:08Z</time></trkpt><trkpt lat="43.08050493772344" lon="10.806505498751063"><ele>258.0</ele><time>2026-03-22T10:21:10Z</time></trkpt><trkpt lat="43.08055912609506" lon="10.806434205110737"><ele>258.0</ele><time>2026-03-22T10:21:11Z</time></trkpt><trkpt lat="43.08060740490266" lon="10.80635601090905"><ele>258.0</ele><time>2026-03-22T10:21:12Z</time></trkpt><trkpt lat="43.080665187153244" lon="10.80629134599315"><ele>258.0</ele><time>2026-03-22T10:21:13Z</time></trkpt><trkpt lat="43.080729143187106" lon="10.806232656650753"><ele>258.0</ele><time>2026-03-22T10:21:14Z</time></trkpt><trkpt lat="43.08079913577377" lon="10.806187876394995"><ele>258.0</ele><time>2026-03-22T10:21:15Z</time></trkpt><trkpt lat="43.08089044645549" lon="10.806150777735093"><ele>257.6</ele><time>2026-03-22T10:21:16Z</time></trkpt><trkpt lat="43.08097503766864" lon="10.806103423019763"><ele>257.20000000000005</ele><time>2026-03-22T10:21:17Z</time></trkpt><trkpt lat="43.081077258239134" lon="10.806091208641611"><ele>256.8</ele><time>2026-03-22T10:21:18Z</time></trkpt><trkpt lat="43.081177091229385" lon="10.806068061688892"><ele>256.40000000000003</ele><time>2026-03-22T10:21:19Z</time></trkpt><trkpt lat="43.08127581643675" lon="10.806018553133692"><ele>256.0</ele><time>2026-03-22T10:21:20Z</time></trkpt><trkpt lat="43.08138062830686" lon="10.805997683022456"><ele>255.99999999999997</ele><time>2026-03-22T10:21:21Z</time></trkpt><trkpt lat="43.08146530709139" lon="10.805998738224647"><ele>256.0</ele><time>2026-03-22T10:21:22Z</time></trkpt><trkpt lat="43.081548015688576" lon="10.805977462165455"><ele>256.0</ele><time>2026-03-22T10:21:23Z</time></trkpt><trkpt lat="43.08163119050715" lon="10.805946531270294"><ele>256.0</ele><time>2026-03-22T10:21:24Z</time></trkpt><trkpt lat="43.0817139813473" lon="10.805894164131418"><ele>255.99999999999997</ele><time>2026-03-22T10:21:25Z</time></trkpt><trkpt lat="43.08180323651856" lon="10.805832680235465"><ele>256.0</ele><time>2026-03-22T10:21:26Z</time></trkpt><trkpt lat="43.08188894278276" lon="10.80577375379818"><ele>258.0</ele><time>2026-03-22T10:21:27Z</time></trkpt><trkpt lat="43.081975901764125" lon="10.805742324973236"><ele>260.0</ele><time>2026-03-22T10:21:28Z</time></trkpt><trkpt lat="43.0820646618886" lon="10.80571019941332"><ele>262.0</ele><time>2026-03-22T10:21:29Z</time></trkpt><trkpt lat="43.08212583801376" lon="10.805659479123278"><ele>264.0</ele><time>2026-03-22T10:21:30Z</time></trkpt><trkpt lat="43.08220972247687" lon="10.805539666399016"><ele>266.0</ele><time>2026-03-22T10:21:32Z</time></trkpt><trkpt lat="43.08227962971376" lon="10.805452799230626"><ele>266.0</ele><time>2026-03-22T10:21:33Z</time></trkpt><trkpt lat="43.08235063414221" lon="10.805375938864833"><ele>266.0</ele><time>2026-03-22T10:21:34Z</time></trkpt><trkpt lat="43.08240886188249" lon="10.805314696230065"><ele>266.0</ele><time>2026-03-22T10:21:35Z</time></trkpt><trkpt lat="43.08247469478537" lon="10.80524121415228"><ele>266.0</ele><time>2026-03-22T10:21:36Z</time></trkpt><trkpt lat="43.08252254611667" lon="10.805183527476588"><ele>266.0</ele><time>2026-03-22T10:21:37Z</time></trkpt><trkpt lat="43.082577934185686" lon="10.805107916740898"><ele>266.0</ele><time>2026-03-22T10:21:38Z</time></trkpt><trkpt lat="43.08263434349264" lon="10.805026223034572"><ele>265.5</ele><time>2026-03-22T10:21:39Z</time></trkpt><trkpt lat="43.08269368959289" lon="10.80493302336239"><ele>265.0</ele><time>2026-03-22T10:21:40Z</time></trkpt><trkpt lat="43.082739112347966" lon="10.804861631284801"><ele>264.5</ele><time>2026-03-22T10:21:41Z</time></trkpt><trkpt lat="43.08278548431298" lon="10.804782318014524"><ele>264.0</ele><time>2026-03-22T10:21:42Z</time></trkpt><trkpt lat="43.08283380057739" lon="10.804694296289078"><ele>263.5</ele><time>2026-03-22T10:21:43Z</time></trkpt><trkpt lat="43.08288293580271" lon="10.804596573055477"><ele>263.0</ele><time>2026-03-22T10:21:44Z</time></trkpt><trkpt lat="43.08294208610488" lon="10.804475451584572"><ele>263.0</ele><time>2026-03-22T10:21:45Z</time></trkpt><trkpt lat="43.082989636280786" lon="10.804385807047924"><ele>263.0</ele><time>2026-03-22T10:21:46Z</time></trkpt><trkpt lat="43.08303356973386" lon="10.804308863911569"><ele>263.0</ele><time>2026-03-22T10:21:48Z</time></trkpt><trkpt lat="43.08307934668699" lon="10.804233764382634"><ele>263.0</ele><time>2026-03-22T10:22:44Z</time></trkpt><trkpt lat="43.08313833941162" lon="10.804139483063532"><ele>263.0</ele><time>2026-03-22T10:22:45Z</time></trkpt><trkpt lat="43.08320055576033" lon="10.80404299874352"><ele>263.0</ele><time>2026-03-22T10:22:46Z</time></trkpt><trkpt lat="43.083246843101804" lon="10.803972768704796"><ele>262.1666666666667</ele><time>2026-03-22T10:22:47Z</time></trkpt><trkpt lat="43.083296597145285" lon="10.803901438332256"><ele>261.33333333333337</ele><time>2026-03-22T10:22:48Z</time></trkpt><trkpt lat="43.08334890821978" lon="10.803830564374277"><ele>260.5</ele><time>2026-03-22T10:22:49Z</time></trkpt><trkpt lat="43.083410989291906" lon="10.803753014099126"><ele>259.6666666666667</ele><time>2026-03-22T10:22:50Z</time></trkpt><trkpt lat="43.08347068502056" lon="10.803678550612068"><ele>258.8333333333333</ele><time>2026-03-22T10:22:51Z</time></trkpt><trkpt lat="43.083527892272905" lon="10.803603281395677"><ele>258.0</ele><time>2026-03-22T10:22:52Z</time></trkpt><trkpt lat="43.08358530151989" lon="10.803519982719394"><ele>259.6666666666667</ele><time>2026-03-22T10:22:53Z</time></trkpt><trkpt lat="43.08363127693866" lon="10.80345196145065"><ele>261.3333333333333</ele><time>2026-03-22T10:22:54Z</time></trkpt><trkpt lat="43.08368033923373" lon="10.803373956974948"><ele>263.0</ele><time>2026-03-22T10:22:55Z</time></trkpt><trkpt lat="43.08372507215205" lon="10.803297039867003"><ele>264.66666666666663</ele><time>2026-03-22T10:22:56Z</time></trkpt><trkpt lat="43.083765685053415" lon="10.803218057467339"><ele>266.3333333333333</ele><time>2026-03-22T10:22:57Z</time></trkpt><trkpt lat="43.08380820380967" lon="10.80312458097046"><ele>268.0</ele><time>2026-03-22T10:22:58Z</time></trkpt><trkpt lat="43.083850608175524" lon="10.803016627359042"><ele>268.0</ele><time>2026-03-22T10:22:59Z</time></trkpt><trkpt lat="43.08388505156352" lon="10.802912032518929"><ele>268.0</ele><time>2026-03-22T10:23:00Z</time></trkpt><trkpt lat="43.08391097677969" lon="10.802808334128072"><ele>268.0</ele><time>2026-03-22T10:23:01Z</time></trkpt><trkpt lat="43.08391120602813" lon="10.802696884751994"><ele>268.0</ele><time>2026-03-22T10:23:02Z</time></trkpt><trkpt lat="43.083942449218426" lon="10.802606118348827"><ele>268.0</ele><time>2026-03-22T10:23:03Z</time></trkpt><trkpt lat="43.08398673160991" lon="10.802540555578293"><ele>268.0</ele><time>2026-03-22T10:23:04Z</time></trkpt><trkpt lat="43.084082259847456" lon="10.80246355807236"><ele>265.8333333333333</ele><time>2026-03-22T10:23:06Z</time></trkpt><trkpt lat="43.08414824688068" lon="10.802466065875334"><ele>263.66666666666663</ele><time>2026-03-22T10:23:08Z</time></trkpt><trkpt lat="43.08422103855386" lon="10.802413294748906"><ele>261.5</ele><time>2026-03-22T10:23:13Z</time></trkpt><trkpt lat="43.08428409111604" lon="10.802380720517162"><ele>259.3333333333333</ele><time>2026-03-22T10:23:15Z</time></trkpt><trkpt lat="43.08436091248033" lon="10.802341325705648"><ele>257.1666666666667</ele><time>2026-03-22T10:23:17Z</time></trkpt><trkpt lat="43.08445445924554" lon="10.802293353941392"><ele>255.0</ele><time>2026-03-22T10:23:19Z</time></trkpt><trkpt lat="43.084534967387754" lon="10.802252069311303"><ele>255.0</ele><time>2026-03-22T10:23:21Z</time></trkpt><trkpt lat="43.08459628155136" lon="10.802220627938413"><ele>255.0</ele><time>2026-03-22T10:23:23Z</time></trkpt><trkpt lat="43.08465565534275" lon="10.802190181571957"><ele>255.0</ele><time>2026-03-22T10:23:25Z</time></trkpt><trkpt lat="43.084718031802076" lon="10.802158195462642"><ele>255.0</ele><time>2026-03-22T10:23:27Z</time></trkpt><trkpt lat="43.08459964739671" lon="10.80189361943361"><ele>255.0</ele><time>2026-03-22T10:23:32Z</time></trkpt><trkpt lat="43.08450626509938" lon="10.80198727401446"><ele>255.0</ele><time>2026-03-22T10:23:34Z</time></trkpt><trkpt lat="43.084440918409015" lon="10.802040621616491"><ele>255.0</ele><time>2026-03-22T10:23:35Z</time></trkpt><trkpt lat="43.08436606784893" lon="10.802082657819003"><ele>255.0</ele><time>2026-03-22T10:23:36Z</time></trkpt><trkpt lat="43.084293107424024" lon="10.802122753089515"><ele>255.0</ele><time>2026-03-22T10:23:37Z</time></trkpt><trkpt lat="43.08422476482097" lon="10.802187516693518"><ele>255.0</ele><time>2026-03-22T10:23:38Z</time></trkpt><trkpt lat="43.08417616172677" lon="10.802257782626294"><ele>255.0</ele><time>2026-03-22T10:23:39Z</time></trkpt><trkpt lat="43.08412870754086" lon="10.802352907706174"><ele>257.1666666666667</ele><time>2026-03-22T10:23:40Z</time></trkpt><trkpt lat="43.08408949980032" lon="10.802449570067301"><ele>259.3333333333333</ele><time>2026-03-22T10:23:41Z</time></trkpt><trkpt lat="43.083988801509754" lon="10.802465116121294"><ele>261.5</ele><time>2026-03-22T10:23:42Z</time></trkpt><trkpt lat="43.08394316729355" lon="10.802541602331383"><ele>263.66666666666663</ele><time>2026-03-22T10:23:43Z</time></trkpt><trkpt lat="43.08389004214135" lon="10.802641931409216"><ele>265.8333333333333</ele><time>2026-03-22T10:23:44Z</time></trkpt><trkpt lat="43.08385286755868" lon="10.80276107387555"><ele>268.0</ele><time>2026-03-22T10:23:45Z</time></trkpt><trkpt lat="43.08384746441606" lon="10.802915441312535"><ele>268.0</ele><time>2026-03-22T10:23:46Z</time></trkpt><trkpt lat="43.0838077797923" lon="10.803037344312116"><ele>268.0</ele><time>2026-03-22T10:23:47Z</time></trkpt><trkpt lat="43.08374854340834" lon="10.803173022859315"><ele>268.0</ele><time>2026-03-22T10:23:48Z</time></trkpt><trkpt lat="43.0836906581794" lon="10.803283756953528"><ele>268.0</ele><time>2026-03-22T10:23:49Z</time></trkpt><trkpt lat="43.08362309664779" lon="10.803397162868558"><ele>268.0</ele><time>2026-03-22T10:23:50Z</time></trkpt><trkpt lat="43.083547391121364" lon="10.803508661756062"><ele>267.6</ele><time>2026-03-22T10:23:51Z</time></trkpt><trkpt lat="43.08347319505303" lon="10.803616316043406"><ele>267.20000000000005</ele><time>2026-03-22T10:23:52Z</time></trkpt><trkpt lat="43.08339371945036" lon="10.803712993159426"><ele>266.8</ele><time>2026-03-22T10:23:53Z</time></trkpt><trkpt lat="43.08330947775169" lon="10.803819722327287"><ele>266.40000000000003</ele><time>2026-03-22T10:23:54Z</time></trkpt><trkpt lat="43.08323202539025" lon="10.803928691616857"><ele>266.0</ele><time>2026-03-22T10:23:55Z</time></trkpt><trkpt lat="43.08315371618163" lon="10.804046112905532"><ele>266.0</ele><time>2026-03-22T10:23:56Z</time></trkpt><trkpt lat="43.08306428745507" lon="10.804187851270719"><ele>266.0</ele><time>2026-03-22T10:23:57Z</time></trkpt><trkpt lat="43.08297694041507" lon="10.804332784849509"><ele>266.0</ele><time>2026-03-22T10:23:58Z</time></trkpt><trkpt lat="43.08289746780287" lon="10.804484871869047"><ele>266.0</ele><time>2026-03-22T10:23:59Z</time></trkpt><trkpt lat="43.08283219116763" lon="10.804618099789018"><ele>265.40000000000003</ele><time>2026-03-22T10:24:00Z</time></trkpt><trkpt lat="43.082770467658555" lon="10.804734092117085"><ele>264.8</ele><time>2026-03-22T10:24:01Z</time></trkpt><trkpt lat="43.0827209435899" lon="10.804819349720557"><ele>264.20000000000005</ele><time>2026-03-22T10:24:02Z</time></trkpt><trkpt lat="43.08266129704112" lon="10.804914623078725"><ele>263.6</ele><time>2026-03-22T10:24:03Z</time></trkpt><trkpt lat="43.08259643213993" lon="10.805014866439988"><ele>263.0</ele><time>2026-03-22T10:24:04Z</time></trkpt><trkpt lat="43.08253211546492" lon="10.80510718088516"><ele>263.6</ele><time>2026-03-22T10:24:05Z</time></trkpt><trkpt lat="43.082452413660214" lon="10.80520741929124"><ele>264.20000000000005</ele><time>2026-03-22T10:24:06Z</time></trkpt><trkpt lat="43.08236861770243" lon="10.805299654686765"><ele>264.8</ele><time>2026-03-22T10:24:07Z</time></trkpt><trkpt lat="43.08229582744616" lon="10.805376213599963"><ele>265.40000000000003</ele><time>2026-03-22T10:24:08Z</time></trkpt><trkpt lat="43.08222420012998" lon="10.805457586966694"><ele>266.0</ele><time>2026-03-22T10:24:09Z</time></trkpt><trkpt lat="43.082166343996114" lon="10.805533465975907"><ele>266.0</ele><time>2026-03-22T10:24:10Z</time></trkpt><trkpt lat="43.08207291708142" lon="10.80564284115638"><ele>266.0</ele><time>2026-03-22T10:24:12Z</time></trkpt><trkpt lat="43.08195498499732" lon="10.805716208831125"><ele>266.0</ele><time>2026-03-22T10:24:14Z</time></trkpt><trkpt lat="43.08185985734809" lon="10.805756826957628"><ele>266.0</ele><time>2026-03-22T10:24:15Z</time></trkpt><trkpt lat="43.081757213683744" lon="10.805792071656478"><ele>266.0</ele><time>2026-03-22T10:24:16Z</time></trkpt><trkpt lat="43.081672300199834" lon="10.805861450637478"><ele>266.0</ele><time>2026-03-22T10:24:17Z</time></trkpt><trkpt lat="43.0815895820128" lon="10.805917044457996"><ele>266.0</ele><time>2026-03-22T10:24:18Z</time></trkpt><trkpt lat="43.08149768326558" lon="10.805959177199124"><ele>266.0</ele><time>2026-03-22T10:24:19Z</time></trkpt><trkpt lat="43.081375326147764" lon="10.805972623073334"><ele>266.0</ele><time>2026-03-22T10:24:20Z</time></trkpt><trkpt lat="43.08124617680758" lon="10.805993646720406"><ele>263.5</ele><time>2026-03-22T10:24:21Z</time></trkpt><trkpt lat="43.081137802260045" lon="10.806017654267848"><ele>261.0</ele><time>2026-03-22T10:24:22Z</time></trkpt><trkpt lat="43.08102295654962" lon="10.80604647861074"><ele>258.5</ele><time>2026-03-22T10:24:23Z</time></trkpt><trkpt lat="43.08091137062311" lon="10.80607760993408"><ele>256.0</ele><time>2026-03-22T10:24:24Z</time></trkpt><trkpt lat="43.08080421851769" lon="10.806131018733286"><ele>256.40000000000003</ele><time>2026-03-22T10:24:25Z</time></trkpt><trkpt lat="43.08071768829842" lon="10.806193509822302"><ele>256.8</ele><time>2026-03-22T10:24:26Z</time></trkpt><trkpt lat="43.08062401484831" lon="10.806276952803385"><ele>257.20000000000005</ele><time>2026-03-22T10:24:27Z</time></trkpt><trkpt lat="43.08054143221382" lon="10.806374577083735"><ele>257.6</ele><time>2026-03-22T10:24:28Z</time></trkpt><trkpt lat="43.08047972941304" lon="10.806449686353561"><ele>258.0</ele><time>2026-03-22T10:24:29Z</time></trkpt><trkpt lat="43.080419273623946" lon="10.806508543920529"><ele>258.0</ele><time>2026-03-22T10:24:30Z</time></trkpt><trkpt lat="43.08034502459275" lon="10.806570291486114"><ele>258.0</ele><time>2026-03-22T10:24:31Z</time></trkpt><trkpt lat="43.08025028599783" lon="10.806653748151518"><ele>258.0</ele><time>2026-03-22T10:24:32Z</time></trkpt><trkpt lat="43.080155714286306" lon="10.806749611364916"><ele>258.0</ele><time>2026-03-22T10:24:33Z</time></trkpt><trkpt lat="43.08006846036747" lon="10.80685378334586"><ele>258.0</ele><time>2026-03-22T10:24:34Z</time></trkpt><trkpt lat="43.08000086084838" lon="10.80694929859345"><ele>257.8333333333333</ele><time>2026-03-22T10:24:35Z</time></trkpt><trkpt lat="43.079957651850094" lon="10.807012667887776"><ele>257.6666666666667</ele><time>2026-03-22T10:24:36Z</time></trkpt><trkpt lat="43.079902788110964" lon="10.807096980206284"><ele>257.5</ele><time>2026-03-22T10:24:38Z</time></trkpt><trkpt lat="43.07983395255386" lon="10.807202105982443"><ele>257.33333333333337</ele><time>2026-03-22T10:24:40Z</time></trkpt><trkpt lat="43.07975592587696" lon="10.80732393748184"><ele>257.1666666666667</ele><time>2026-03-22T10:24:42Z</time></trkpt><trkpt lat="43.07970746307778" lon="10.80740418022125"><ele>257.0</ele><time>2026-03-22T10:24:44Z</time></trkpt><trkpt lat="43.079778056854025" lon="10.807288281914396"><ele>257.0</ele><time>2026-03-22T10:25:02Z</time></trkpt><trkpt lat="43.079820767847266" lon="10.807222240319854"><ele>257.0</ele><time>2026-03-22T10:25:03Z</time></trkpt><trkpt lat="43.08003525096875" lon="10.80727701407596"><ele>257.0</ele><time>2026-03-22T10:25:04Z</time></trkpt><trkpt lat="43.08009697920514" lon="10.807225727916403"><ele>257.0</ele><time>2026-03-22T10:25:05Z</time></trkpt><trkpt lat="43.08016362519273" lon="10.807176201629726"><ele>257.0</ele><time>2026-03-22T10:25:06Z</time></trkpt><trkpt lat="43.08023159654143" lon="10.807155696185182"><ele>257.0</ele><time>2026-03-22T10:25:07Z</time></trkpt><trkpt lat="43.080302463606564" lon="10.807166729219462"><ele>257.0</ele><time>2026-03-22T10:25:08Z</time></trkpt><trkpt lat="43.0804443472627" lon="10.807170836811954"><ele>257.0</ele><time>2026-03-22T10:25:10Z</time></trkpt><trkpt lat="43.08050504179529" lon="10.807196733490144"><ele>257.0</ele><time>2026-03-22T10:25:11Z</time></trkpt><trkpt lat="43.08054632767969" lon="10.807278741756607"><ele>257.0</ele><time>2026-03-22T10:25:13Z</time></trkpt><trkpt lat="43.08048604813675" lon="10.807330803134153"><ele>257.0</ele><time>2026-03-22T10:25:16Z</time></trkpt><trkpt lat="43.08043161885068" lon="10.807374128755562"><ele>257.0</ele><time>2026-03-22T10:25:19Z</time></trkpt><trkpt lat="43.08038162586838" lon="10.807472409001402"><ele>257.0</ele><time>2026-03-22T10:25:21Z</time></trkpt><trkpt lat="43.0803572623245" lon="10.807571036069053"><ele>257.0</ele><time>2026-03-22T10:25:22Z</time></trkpt><trkpt lat="43.080389732243496" lon="10.807706244694918"><ele>257.0</ele><time>2026-03-22T10:25:23Z</time></trkpt><trkpt lat="43.08047610204389" lon="10.807795517649161"><ele>257.0</ele><time>2026-03-22T10:25:24Z</time></trkpt><trkpt lat="43.0805242941125" lon="10.807861668663296"><ele>257.0</ele><time>2026-03-22T10:25:25Z</time></trkpt><trkpt lat="43.08057413439368" lon="10.807928506401282"><ele>257.0</ele><time>2026-03-22T10:25:26Z</time></trkpt><trkpt lat="43.08062724712858" lon="10.807999681757101"><ele>257.0</ele><time>2026-03-22T10:25:27Z</time></trkpt><trkpt lat="43.08068285523416" lon="10.808062178618533"><ele>257.0</ele><time>2026-03-22T10:25:28Z</time></trkpt><trkpt lat="43.08075993544594" lon="10.808068521920292"><ele>257.0</ele><time>2026-03-22T10:25:29Z</time></trkpt><trkpt lat="43.08083009554429" lon="10.80806481289952"><ele>257.0</ele><time>2026-03-22T10:25:30Z</time></trkpt><trkpt lat="43.08096039468262" lon="10.808067802261846"><ele>257.0</ele><time>2026-03-22T10:25:32Z</time></trkpt><trkpt lat="43.081035205729314" lon="10.808041062437804"><ele>254.00000000000003</ele><time>2026-03-22T10:25:33Z</time></trkpt><trkpt lat="43.08111151263385" lon="10.808054385144743"><ele>251.0</ele><time>2026-03-22T10:25:34Z</time></trkpt><trkpt lat="43.08118765666362" lon="10.80805249211088"><ele>248.0</ele><time>2026-03-22T10:25:35Z</time></trkpt><trkpt lat="43.08126005772785" lon="10.808059128483682"><ele>245.0</ele><time>2026-03-22T10:25:36Z</time></trkpt><trkpt lat="43.081326787143865" lon="10.808043708151493"><ele>242.00000000000003</ele><time>2026-03-22T10:25:37Z</time></trkpt><trkpt lat="43.0814381207412" lon="10.808076464270332"><ele>239.0</ele><time>2026-03-22T10:25:39Z</time></trkpt><trkpt lat="43.08149471440704" lon="10.808205471112466"><ele>239.0</ele><time>2026-03-22T10:25:41Z</time></trkpt><trkpt lat="43.081592227566674" lon="10.80833479488796"><ele>239.0</ele><time>2026-03-22T10:25:43Z</time></trkpt><trkpt lat="43.08168682673336" lon="10.808472678336404"><ele>239.0</ele><time>2026-03-22T10:25:45Z</time></trkpt><trkpt lat="43.08176145753391" lon="10.808508055980663"><ele>239.0</ele><time>2026-03-22T10:25:46Z</time></trkpt><trkpt lat="43.08187751039404" lon="10.808550096080353"><ele>234.2</ele><time>2026-03-22T10:25:48Z</time></trkpt><trkpt lat="43.08199257044617" lon="10.808577123527167"><ele>229.39999999999998</ele><time>2026-03-22T10:25:50Z</time></trkpt><trkpt lat="43.08214975699901" lon="10.80862194170461"><ele>224.6</ele><time>2026-03-22T10:25:52Z</time></trkpt><trkpt lat="43.08222280794086" lon="10.808687479268963"><ele>219.8</ele><time>2026-03-22T10:25:53Z</time></trkpt><trkpt lat="43.08228609387308" lon="10.808761017135518"><ele>215.0</ele><time>2026-03-22T10:25:54Z</time></trkpt><trkpt lat="43.08233741802603" lon="10.808935779105827"><ele>215.00000000000003</ele><time>2026-03-22T10:25:55Z</time></trkpt><trkpt lat="43.08238108868977" lon="10.809023972243665"><ele>215.0</ele><time>2026-03-22T10:25:56Z</time></trkpt><trkpt lat="43.08242076508576" lon="10.809104096409852"><ele>215.0</ele><time>2026-03-22T10:25:57Z</time></trkpt><trkpt lat="43.08245952978872" lon="10.809182381124309"><ele>215.0</ele><time>2026-03-22T10:25:58Z</time></trkpt><trkpt lat="43.08252130689243" lon="10.809307140449054"><ele>215.00000000000003</ele><time>2026-03-22T10:26:00Z</time></trkpt><trkpt lat="43.08257707735893" lon="10.809419769323334"><ele>215.0</ele><time>2026-03-22T10:26:02Z</time></trkpt><trkpt lat="43.082645731188315" lon="10.809435901210444"><ele>211.8</ele><time>2026-03-22T10:26:04Z</time></trkpt><trkpt lat="43.082743838565314" lon="10.809354313906962"><ele>208.6</ele><time>2026-03-22T10:26:06Z</time></trkpt><trkpt lat="43.08281717050523" lon="10.809345232358686"><ele>205.39999999999998</ele><time>2026-03-22T10:26:08Z</time></trkpt><trkpt lat="43.08291046158536" lon="10.809378638053996"><ele>202.2</ele><time>2026-03-22T10:26:10Z</time></trkpt><trkpt lat="43.08298657731164" lon="10.809378972426714"><ele>199.0</ele><time>2026-03-22T10:26:12Z</time></trkpt><trkpt lat="43.08305532773147" lon="10.809477284980712"><ele>199.0</ele><time>2026-03-22T10:26:14Z</time></trkpt><trkpt lat="43.083056739544844" lon="10.809625321753243"><ele>199.0</ele><time>2026-03-22T10:26:16Z</time></trkpt><trkpt lat="43.08309586903991" lon="10.809730976997058"><ele>199.0</ele><time>2026-03-22T10:26:18Z</time></trkpt><trkpt lat="43.08314869969336" lon="10.809864646688172"><ele>199.0</ele><time>2026-03-22T10:26:20Z</time></trkpt><trkpt lat="43.08321000066092" lon="10.809975777416103"><ele>199.0</ele><time>2026-03-22T10:26:22Z</time></trkpt><trkpt lat="43.083286446187216" lon="10.81007668983822"><ele>197.0</ele><time>2026-03-22T10:26:24Z</time></trkpt><trkpt lat="43.08338933965217" lon="10.810121065046827"><ele>195.0</ele><time>2026-03-22T10:26:26Z</time></trkpt><trkpt lat="43.08348805905227" lon="10.810167206931808"><ele>193.0</ele><time>2026-03-22T10:26:28Z</time></trkpt><trkpt lat="43.08354506858035" lon="10.810219519929081"><ele>191.0</ele><time>2026-03-22T10:26:31Z</time></trkpt><trkpt lat="43.0836128425658" lon="10.81029410653842"><ele>189.0</ele><time>2026-03-22T10:26:33Z</time></trkpt><trkpt lat="43.08371814780364" lon="10.810364896854903"><ele>187.39999999999998</ele><time>2026-03-22T10:26:35Z</time></trkpt><trkpt lat="43.08381465306597" lon="10.81039814586686"><ele>185.8</ele><time>2026-03-22T10:26:37Z</time></trkpt><trkpt lat="43.08392562381903" lon="10.810411713476066"><ele>184.2</ele><time>2026-03-22T10:26:39Z</time></trkpt><trkpt lat="43.084037979658895" lon="10.810415636021842"><ele>182.60000000000002</ele><time>2026-03-22T10:26:41Z</time></trkpt><trkpt lat="43.08415385954705" lon="10.810445858202462"><ele>181.0</ele><time>2026-03-22T10:26:43Z</time></trkpt><trkpt lat="43.08426614966929" lon="10.810485484518079"><ele>181.0</ele><time>2026-03-22T10:26:45Z</time></trkpt><trkpt lat="43.084333025273246" lon="10.810506153550833"><ele>181.0</ele><time>2026-03-22T10:26:46Z</time></trkpt><trkpt lat="43.08444937156124" lon="10.810543811924976"><ele>181.0</ele><time>2026-03-22T10:26:48Z</time></trkpt><trkpt lat="43.084553861807684" lon="10.810615963828642"><ele>181.0</ele><time>2026-03-22T10:26:50Z</time></trkpt><trkpt lat="43.08463177861075" lon="10.810713960354718"><ele>181.0</ele><time>2026-03-22T10:26:52Z</time></trkpt><trkpt lat="43.08467645506928" lon="10.810774962206866"><ele>181.0</ele><time>2026-03-22T10:26:53Z</time></trkpt><trkpt lat="43.08474136297132" lon="10.810881230878543"><ele>181.0</ele><time>2026-03-22T10:26:55Z</time></trkpt><trkpt lat="43.08480811726129" lon="10.810977055595007"><ele>181.0</ele><time>2026-03-22T10:26:57Z</time></trkpt><trkpt lat="43.08488658876559" lon="10.811042641769763"><ele>181.0</ele><time>2026-03-22T10:26:59Z</time></trkpt><trkpt lat="43.08494564603547" lon="10.811085359183531"><ele>181.0</ele><time>2026-03-22T10:27:00Z</time></trkpt><trkpt lat="43.08502919143628" lon="10.81109589545277"><ele>181.0</ele><time>2026-03-22T10:27:01Z</time></trkpt><trkpt lat="43.085134138040495" lon="10.811179611302087"><ele>178.5</ele><time>2026-03-22T10:27:03Z</time></trkpt><trkpt lat="43.08519936324748" lon="10.811220665090564"><ele>176.0</ele><time>2026-03-22T10:27:04Z</time></trkpt><trkpt lat="43.08526398387655" lon="10.811264311671286"><ele>173.5</ele><time>2026-03-22T10:27:05Z</time></trkpt><trkpt lat="43.08532887549121" lon="10.811310813437947"><ele>171.0</ele><time>2026-03-22T10:27:06Z</time></trkpt><trkpt lat="43.08539372550167" lon="10.81135790964028"><ele>168.5</ele><time>2026-03-22T10:27:07Z</time></trkpt><trkpt lat="43.08544869261236" lon="10.811419093431853"><ele>166.0</ele><time>2026-03-22T10:27:08Z</time></trkpt><trkpt lat="43.08556045334687" lon="10.811489605376188"><ele>166.0</ele><time>2026-03-22T10:27:10Z</time></trkpt><trkpt lat="43.08565136196365" lon="10.811598106391966"><ele>166.0</ele><time>2026-03-22T10:27:12Z</time></trkpt><trkpt lat="43.08572361363932" lon="10.811678954992715"><ele>166.0</ele><time>2026-03-22T10:27:14Z</time></trkpt><trkpt lat="43.08582207243656" lon="10.811635552914145"><ele>166.0</ele><time>2026-03-22T10:27:17Z</time></trkpt><trkpt lat="43.085910763342575" lon="10.811562338054804"><ele>166.0</ele><time>2026-03-22T10:27:19Z</time></trkpt><trkpt lat="43.08599554817683" lon="10.811476476585984"><ele>164.33333333333334</ele><time>2026-03-22T10:27:21Z</time></trkpt><trkpt lat="43.0860665072861" lon="10.811474124344368"><ele>162.66666666666669</ele><time>2026-03-22T10:27:23Z</time></trkpt><trkpt lat="43.08614667655655" lon="10.81155166556463"><ele>161.0</ele><time>2026-03-22T10:27:25Z</time></trkpt><trkpt lat="43.08618772106569" lon="10.81165795004166"><ele>159.33333333333334</ele><time>2026-03-22T10:27:27Z</time></trkpt><trkpt lat="43.08625977393503" lon="10.811725566942398"><ele>157.66666666666666</ele><time>2026-03-22T10:27:29Z</time></trkpt><trkpt lat="43.08632308696634" lon="10.811803819401913"><ele>156.0</ele><time>2026-03-22T10:27:31Z</time></trkpt><trkpt lat="43.08638887389491" lon="10.81189321101323"><ele>155.6</ele><time>2026-03-22T10:27:33Z</time></trkpt><trkpt lat="43.08648713969069" lon="10.811950438308074"><ele>155.2</ele><time>2026-03-22T10:27:35Z</time></trkpt><trkpt lat="43.086591529098904" lon="10.811996126163665"><ele>154.8</ele><time>2026-03-22T10:27:37Z</time></trkpt><trkpt lat="43.08670977835201" lon="10.81203465992798"><ele>154.4</ele><time>2026-03-22T10:27:39Z</time></trkpt><trkpt lat="43.08677168247458" lon="10.812050399905864"><ele>154.0</ele><time>2026-03-22T10:27:40Z</time></trkpt><trkpt lat="43.08689283632759" lon="10.81209802153949"><ele>152.0</ele><time>2026-03-22T10:27:42Z</time></trkpt><trkpt lat="43.08695803220122" lon="10.812129606627728"><ele>150.0</ele><time>2026-03-22T10:27:43Z</time></trkpt><trkpt lat="43.08707902649224" lon="10.81217649426158"><ele>148.0</ele><time>2026-03-22T10:27:45Z</time></trkpt><trkpt lat="43.087202658103365" lon="10.812209862446553"><ele>146.0</ele><time>2026-03-22T10:27:47Z</time></trkpt><trkpt lat="43.08726691786086" lon="10.812232277231667"><ele>144.0</ele><time>2026-03-22T10:27:48Z</time></trkpt><trkpt lat="43.08733571427422" lon="10.812262974704318"><ele>144.0</ele><time>2026-03-22T10:27:49Z</time></trkpt><trkpt lat="43.087396273435246" lon="10.812289275957642"><ele>144.0</ele><time>2026-03-22T10:27:50Z</time></trkpt><trkpt lat="43.08746471965853" lon="10.81231605685171"><ele>144.0</ele><time>2026-03-22T10:27:51Z</time></trkpt><trkpt lat="43.08753491822205" lon="10.812326112595667"><ele>144.0</ele><time>2026-03-22T10:27:52Z</time></trkpt><trkpt lat="43.087666686733556" lon="10.812370262706379"><ele>144.0</ele><time>2026-03-22T10:27:54Z</time></trkpt><trkpt lat="43.08773092030461" lon="10.812391321562496"><ele>144.0</ele><time>2026-03-22T10:27:55Z</time></trkpt><trkpt lat="43.08779123337648" lon="10.812417722384568"><ele>142.6</ele><time>2026-03-22T10:27:56Z</time></trkpt><trkpt lat="43.08790363843715" lon="10.812484200105448"><ele>141.2</ele><time>2026-03-22T10:27:58Z</time></trkpt><trkpt lat="43.08802194241831" lon="10.812498260205755"><ele>139.79999999999998</ele><time>2026-03-22T10:28:00Z</time></trkpt><trkpt lat="43.08808513942842" lon="10.812506691586046"><ele>138.4</ele><time>2026-03-22T10:28:01Z</time></trkpt><trkpt lat="43.08821064208314" lon="10.812476028478926"><ele>137.0</ele><time>2026-03-22T10:28:03Z</time></trkpt><trkpt lat="43.088271759509645" lon="10.812445867623673"><ele>136.33333333333331</ele><time>2026-03-22T10:28:04Z</time></trkpt><trkpt lat="43.08833353375968" lon="10.81240545453095"><ele>135.66666666666666</ele><time>2026-03-22T10:28:05Z</time></trkpt><trkpt lat="43.088401306329594" lon="10.812361602802827"><ele>135.0</ele><time>2026-03-22T10:28:06Z</time></trkpt><trkpt lat="43.088467533081165" lon="10.812334640672049"><ele>134.33333333333334</ele><time>2026-03-22T10:28:07Z</time></trkpt><trkpt lat="43.08852424802622" lon="10.812290314774124"><ele>133.66666666666669</ele><time>2026-03-22T10:28:08Z</time></trkpt><trkpt lat="43.08862583302402" lon="10.812203995842538"><ele>133.0</ele><time>2026-03-22T10:28:10Z</time></trkpt><trkpt lat="43.088720994763435" lon="10.812160656130441"><ele>133.0</ele><time>2026-03-22T10:28:12Z</time></trkpt><trkpt lat="43.088786309276905" lon="10.812186835598649"><ele>133.0</ele><time>2026-03-22T10:28:15Z</time></trkpt><trkpt lat="43.08870696614356" lon="10.812163167915873"><ele>133.0</ele><time>2026-03-22T10:28:42Z</time></trkpt><trkpt lat="43.088647131867134" lon="10.812194795299144"><ele>133.0</ele><time>2026-03-22T10:28:43Z</time></trkpt><trkpt lat="43.08853597342268" lon="10.812262673734416"><ele>133.0</ele><time>2026-03-22T10:28:44Z</time></trkpt><trkpt lat="43.08846560124789" lon="10.812315501589222"><ele>133.0</ele><time>2026-03-22T10:28:45Z</time></trkpt><trkpt lat="43.08836018154685" lon="10.812388097746997"><ele>133.66666666666669</ele><time>2026-03-22T10:28:47Z</time></trkpt><trkpt lat="43.08824235024403" lon="10.812437843259893"><ele>134.33333333333334</ele><time>2026-03-22T10:28:49Z</time></trkpt><trkpt lat="43.08818359528377" lon="10.81248011247959"><ele>135.0</ele><time>2026-03-22T10:28:50Z</time></trkpt><trkpt lat="43.08811321470295" lon="10.812512591407735"><ele>135.66666666666666</ele><time>2026-03-22T10:28:51Z</time></trkpt><trkpt lat="43.08803154578823" lon="10.812514695700695"><ele>136.33333333333331</ele><time>2026-03-22T10:28:52Z</time></trkpt><trkpt lat="43.08794324711111" lon="10.812503102366867"><ele>137.0</ele><time>2026-03-22T10:28:53Z</time></trkpt><trkpt lat="43.08785611956893" lon="10.812477589711436"><ele>137.0</ele><time>2026-03-22T10:28:54Z</time></trkpt><trkpt lat="43.087775496408675" lon="10.812435958828228"><ele>137.0</ele><time>2026-03-22T10:28:55Z</time></trkpt><trkpt lat="43.0877002594926" lon="10.812379147424194"><ele>137.0</ele><time>2026-03-22T10:28:56Z</time></trkpt><trkpt lat="43.08760130923979" lon="10.812339413457275"><ele>137.0</ele><time>2026-03-22T10:28:57Z</time></trkpt><trkpt lat="43.087494338531855" lon="10.812308668085755"><ele>137.0</ele><time>2026-03-22T10:28:58Z</time></trkpt><trkpt lat="43.08738894419555" lon="10.812277954882015"><ele>138.4</ele><time>2026-03-22T10:28:59Z</time></trkpt><trkpt lat="43.08729968963347" lon="10.812237735759474"><ele>139.79999999999998</ele><time>2026-03-22T10:29:00Z</time></trkpt><trkpt lat="43.08720413291357" lon="10.812196639596348"><ele>141.2</ele><time>2026-03-22T10:29:01Z</time></trkpt><trkpt lat="43.087107309627676" lon="10.812161793217768"><ele>142.6</ele><time>2026-03-22T10:29:02Z</time></trkpt><trkpt lat="43.087009725131864" lon="10.812129488529722"><ele>144.0</ele><time>2026-03-22T10:29:03Z</time></trkpt><trkpt lat="43.086923266834106" lon="10.812104100177914"><ele>144.0</ele><time>2026-03-22T10:29:04Z</time></trkpt><trkpt lat="43.086827245222025" lon="10.812070366145024"><ele>144.0</ele><time>2026-03-22T10:29:05Z</time></trkpt><trkpt lat="43.08672483292831" lon="10.812024474883337"><ele>144.0</ele><time>2026-03-22T10:29:06Z</time></trkpt><trkpt lat="43.08663136332518" lon="10.811984388310231"><ele>144.0</ele><time>2026-03-22T10:29:07Z</time></trkpt><trkpt lat="43.086548804114685" lon="10.811967536089629"><ele>144.0</ele><time>2026-03-22T10:29:08Z</time></trkpt><trkpt lat="43.08641285396694" lon="10.81191348728025"><ele>145.66666666666666</ele><time>2026-03-22T10:29:10Z</time></trkpt><trkpt lat="43.086332011773145" lon="10.811863199854452"><ele>147.33333333333334</ele><time>2026-03-22T10:29:11Z</time></trkpt><trkpt lat="43.086265228494035" lon="10.811790384293346"><ele>149.0</ele><time>2026-03-22T10:29:12Z</time></trkpt><trkpt lat="43.08621676664713" lon="10.811712692278476"><ele>150.66666666666669</ele><time>2026-03-22T10:29:13Z</time></trkpt><trkpt lat="43.08615536709917" lon="10.811643767243934"><ele>152.33333333333334</ele><time>2026-03-22T10:29:14Z</time></trkpt><trkpt lat="43.086093788357616" lon="10.811553753880013"><ele>154.0</ele><time>2026-03-22T10:29:15Z</time></trkpt><trkpt lat="43.086038834828386" lon="10.811499759000112"><ele>154.4</ele><time>2026-03-22T10:29:16Z</time></trkpt><trkpt lat="43.08595782918972" lon="10.811473460218936"><ele>154.8</ele><time>2026-03-22T10:29:18Z</time></trkpt><trkpt lat="43.08589468443129" lon="10.81153244946824"><ele>155.2</ele><time>2026-03-22T10:29:20Z</time></trkpt><trkpt lat="43.085814578742536" lon="10.811651134935275"><ele>155.6</ele><time>2026-03-22T10:29:22Z</time></trkpt><trkpt lat="43.08570142601227" lon="10.811660535423316"><ele>156.0</ele><time>2026-03-22T10:29:24Z</time></trkpt><trkpt lat="43.08559891307513" lon="10.811586600404025"><ele>158.0</ele><time>2026-03-22T10:29:26Z</time></trkpt><trkpt lat="43.085553227062476" lon="10.811519946432263"><ele>160.0</ele><time>2026-03-22T10:29:27Z</time></trkpt><trkpt lat="43.085482784565315" lon="10.811449451330581"><ele>162.0</ele><time>2026-03-22T10:29:28Z</time></trkpt><trkpt lat="43.085389401445525" lon="10.81138307370361"><ele>164.0</ele><time>2026-03-22T10:29:29Z</time></trkpt><trkpt lat="43.08528937693435" lon="10.811309876959813"><ele>166.0</ele><time>2026-03-22T10:29:30Z</time></trkpt><trkpt lat="43.08519363304118" lon="10.811228707653303"><ele>166.0</ele><time>2026-03-22T10:29:31Z</time></trkpt><trkpt lat="43.08509877602863" lon="10.811159627559334"><ele>166.0</ele><time>2026-03-22T10:29:32Z</time></trkpt><trkpt lat="43.0850080048347" lon="10.811108711566124"><ele>166.0</ele><time>2026-03-22T10:29:33Z</time></trkpt><trkpt lat="43.08492767884423" lon="10.81106202266334"><ele>166.0</ele><time>2026-03-22T10:29:34Z</time></trkpt><trkpt lat="43.08480385728136" lon="10.810977686994253"><ele>166.0</ele><time>2026-03-22T10:29:36Z</time></trkpt><trkpt lat="43.084732390905245" lon="10.810877836479051"><ele>168.5</ele><time>2026-03-22T10:29:38Z</time></trkpt><trkpt lat="43.0846821820703" lon="10.81079894980777"><ele>171.0</ele><time>2026-03-22T10:29:39Z</time></trkpt><trkpt lat="43.08462971171075" lon="10.810699733225377"><ele>173.5</ele><time>2026-03-22T10:29:40Z</time></trkpt><trkpt lat="43.084575039061455" lon="10.81061659966622"><ele>176.0</ele><time>2026-03-22T10:29:41Z</time></trkpt><trkpt lat="43.08451000619053" lon="10.810564302751862"><ele>178.5</ele><time>2026-03-22T10:29:42Z</time></trkpt><trkpt lat="43.08443000495762" lon="10.810521914205355"><ele>181.0</ele><time>2026-03-22T10:29:43Z</time></trkpt><trkpt lat="43.084337813541566" lon="10.8104880023976"><ele>181.0</ele><time>2026-03-22T10:29:44Z</time></trkpt><trkpt lat="43.08423252374075" lon="10.810454703202774"><ele>181.0</ele><time>2026-03-22T10:29:45Z</time></trkpt><trkpt lat="43.084126213858475" lon="10.810431350756396"><ele>181.0</ele><time>2026-03-22T10:29:46Z</time></trkpt><trkpt lat="43.08402941389153" lon="10.810405734888835"><ele>181.0</ele><time>2026-03-22T10:29:47Z</time></trkpt><trkpt lat="43.083936986050794" lon="10.810397645326379"><ele>181.0</ele><time>2026-03-22T10:29:48Z</time></trkpt><trkpt lat="43.08385080380527" lon="10.810402186165891"><ele>179.8</ele><time>2026-03-22T10:29:49Z</time></trkpt><trkpt lat="43.08376467610358" lon="10.810391325090784"><ele>178.60000000000002</ele><time>2026-03-22T10:29:50Z</time></trkpt><trkpt lat="43.08368076899886" lon="10.810343161011906"><ele>177.4</ele><time>2026-03-22T10:29:51Z</time></trkpt><trkpt lat="43.08358819904414" lon="10.810289465101253"><ele>176.2</ele><time>2026-03-22T10:29:52Z</time></trkpt><trkpt lat="43.08350527950407" lon="10.810218429097654"><ele>175.0</ele><time>2026-03-22T10:29:53Z</time></trkpt><trkpt lat="43.08342767843639" lon="10.810139443379699"><ele>177.33333333333334</ele><time>2026-03-22T10:29:54Z</time></trkpt><trkpt lat="43.083349268695606" lon="10.810083670536219"><ele>179.66666666666669</ele><time>2026-03-22T10:29:55Z</time></trkpt><trkpt lat="43.083261782541" lon="10.810043066739482"><ele>182.0</ele><time>2026-03-22T10:29:56Z</time></trkpt><trkpt lat="43.08319585811793" lon="10.809994371903523"><ele>184.33333333333334</ele><time>2026-03-22T10:29:57Z</time></trkpt><trkpt lat="43.083145290380045" lon="10.809889231120808"><ele>186.66666666666666</ele><time>2026-03-22T10:29:58Z</time></trkpt><trkpt lat="43.083104988934366" lon="10.809784815311733"><ele>189.0</ele><time>2026-03-22T10:29:59Z</time></trkpt><trkpt lat="43.0830444672399" lon="10.809701185643997"><ele>190.66666666666666</ele><time>2026-03-22T10:30:00Z</time></trkpt><trkpt lat="43.08301958883164" lon="10.80961468367464"><ele>192.33333333333331</ele><time>2026-03-22T10:30:01Z</time></trkpt><trkpt lat="43.08301057174389" lon="10.809485146416618"><ele>194.0</ele><time>2026-03-22T10:30:02Z</time></trkpt><trkpt lat="43.082998452296124" lon="10.809380956899485"><ele>195.66666666666666</ele><time>2026-03-22T10:30:03Z</time></trkpt><trkpt lat="43.082904027469326" lon="10.809322085187839"><ele>197.33333333333331</ele><time>2026-03-22T10:30:05Z</time></trkpt><trkpt lat="43.08282520214917" lon="10.809336444135582"><ele>199.0</ele><time>2026-03-22T10:30:06Z</time></trkpt><trkpt lat="43.082740524188374" lon="10.80934186996184"><ele>198.99999999999997</ele><time>2026-03-22T10:30:07Z</time></trkpt><trkpt lat="43.08267544469621" lon="10.80933830301408"><ele>199.0</ele><time>2026-03-22T10:30:08Z</time></trkpt><trkpt lat="43.08261238775402" lon="10.809379341582604"><ele>199.0</ele><time>2026-03-22T10:30:09Z</time></trkpt><trkpt lat="43.08253503524279" lon="10.80941929428858"><ele>199.0</ele><time>2026-03-22T10:30:10Z</time></trkpt><trkpt lat="43.08246515729389" lon="10.809419036012413"><ele>198.99999999999997</ele><time>2026-03-22T10:30:11Z</time></trkpt><trkpt lat="43.08239408816694" lon="10.809371951532576"><ele>199.0</ele><time>2026-03-22T10:30:12Z</time></trkpt><trkpt lat="43.08231166595294" lon="10.809285278402621"><ele>202.2</ele><time>2026-03-22T10:30:13Z</time></trkpt><trkpt lat="43.08223650440606" lon="10.809193371013315"><ele>205.39999999999998</ele><time>2026-03-22T10:30:14Z</time></trkpt><trkpt lat="43.08214955836344" lon="10.809069711306227"><ele>208.6</ele><time>2026-03-22T10:30:15Z</time></trkpt><trkpt lat="43.08207426541754" lon="10.808942690817641"><ele>211.8</ele><time>2026-03-22T10:30:16Z</time></trkpt><trkpt lat="43.08200877058523" lon="10.808843667959193"><ele>215.0</ele><time>2026-03-22T10:30:17Z</time></trkpt><trkpt lat="43.08193492769384" lon="10.808793797816417"><ele>215.0</ele><time>2026-03-22T10:30:18Z</time></trkpt><trkpt lat="43.0818572335606" lon="10.808764478010804"><ele>215.0</ele><time>2026-03-22T10:30:19Z</time></trkpt><trkpt lat="43.081796381663715" lon="10.808705867671483"><ele>215.0</ele><time>2026-03-22T10:30:20Z</time></trkpt><trkpt lat="43.081723904336094" lon="10.808603495291846"><ele>215.0</ele><time>2026-03-22T10:30:21Z</time></trkpt><trkpt lat="43.081663512732746" lon="10.808461645282405"><ele>215.0</ele><time>2026-03-22T10:30:22Z</time></trkpt><trkpt lat="43.08161740973912" lon="10.808304859302176"><ele>219.00000000000003</ele><time>2026-03-22T10:30:23Z</time></trkpt><trkpt lat="43.081545729565796" lon="10.808210242741465"><ele>223.0</ele><time>2026-03-22T10:30:24Z</time></trkpt><trkpt lat="43.08148244124099" lon="10.808118664548148"><ele>227.0</ele><time>2026-03-22T10:30:25Z</time></trkpt><trkpt lat="43.08142824847561" lon="10.808060473674944"><ele>231.0</ele><time>2026-03-22T10:30:26Z</time></trkpt><trkpt lat="43.081354278130085" lon="10.808013907718824"><ele>235.00000000000003</ele><time>2026-03-22T10:30:27Z</time></trkpt><trkpt lat="43.08126782605341" lon="10.808000324904048"><ele>239.0</ele><time>2026-03-22T10:30:28Z</time></trkpt><trkpt lat="43.081183887053285" lon="10.808018593999611"><ele>239.0</ele><time>2026-03-22T10:30:29Z</time></trkpt><trkpt lat="43.08108517932538" lon="10.808019127745757"><ele>238.99999999999997</ele><time>2026-03-22T10:30:30Z</time></trkpt><trkpt lat="43.080984587459874" lon="10.808013356822231"><ele>238.99999999999997</ele><time>2026-03-22T10:30:31Z</time></trkpt><trkpt lat="43.0808872050741" lon="10.808012509730743"><ele>239.0</ele><time>2026-03-22T10:30:32Z</time></trkpt><trkpt lat="43.08079659677924" lon="10.808027255988113"><ele>239.0</ele><time>2026-03-22T10:30:33Z</time></trkpt><trkpt lat="43.080700939945665" lon="10.808017165448925"><ele>242.6</ele><time>2026-03-22T10:30:34Z</time></trkpt><trkpt lat="43.0806273166221" lon="10.807964100147332"><ele>246.2</ele><time>2026-03-22T10:30:35Z</time></trkpt><trkpt lat="43.08057041107433" lon="10.807859829391896"><ele>249.79999999999998</ele><time>2026-03-22T10:30:36Z</time></trkpt><trkpt lat="43.08048751493305" lon="10.80777309735674"><ele>253.39999999999998</ele><time>2026-03-22T10:30:37Z</time></trkpt><trkpt lat="43.08043199897212" lon="10.807656371683892"><ele>257.0</ele><time>2026-03-22T10:30:38Z</time></trkpt><trkpt lat="43.080395824272834" lon="10.807556960350949"><ele>257.0</ele><time>2026-03-22T10:30:39Z</time></trkpt><trkpt lat="43.08042248428211" lon="10.80740424450901"><ele>257.0</ele><time>2026-03-22T10:30:41Z</time></trkpt><trkpt lat="43.08049076822116" lon="10.80734117209027"><ele>257.0</ele><time>2026-03-22T10:30:42Z</time></trkpt><trkpt lat="43.08051142569682" lon="10.807234272254052"><ele>257.0</ele><time>2026-03-22T10:30:43Z</time></trkpt><trkpt lat="43.08048019195595" lon="10.807130384334911"><ele>257.0</ele><time>2026-03-22T10:30:45Z</time></trkpt><trkpt lat="43.08038006715767" lon="10.807116914332893"><ele>257.0</ele><time>2026-03-22T10:30:47Z</time></trkpt><trkpt lat="43.08030920131921" lon="10.807103862020075"><ele>257.0</ele><time>2026-03-22T10:30:48Z</time></trkpt><trkpt lat="43.080234485540835" lon="10.807113671067638"><ele>257.0</ele><time>2026-03-22T10:30:49Z</time></trkpt><trkpt lat="43.08014647412022" lon="10.807140380309448"><ele>257.0</ele><time>2026-03-22T10:30:50Z</time></trkpt><trkpt lat="43.08006257304011" lon="10.807223111000955"><ele>257.0</ele><time>2026-03-22T10:30:51Z</time></trkpt><trkpt lat="43.07995186759842" lon="10.807293100225142"><ele>258.6</ele><time>2026-03-22T10:30:52Z</time></trkpt><trkpt lat="43.07985620653454" lon="10.807370585044366"><ele>260.2</ele><time>2026-03-22T10:30:53Z</time></trkpt><trkpt lat="43.079773420613556" lon="10.807423549181696"><ele>261.8</ele><time>2026-03-22T10:30:54Z</time></trkpt><trkpt lat="43.07971188187541" lon="10.807447214436419"><ele>263.4</ele><time>2026-03-22T10:30:55Z</time></trkpt><trkpt lat="43.079636441773914" lon="10.807477391835581"><ele>265.0</ele><time>2026-03-22T10:30:56Z</time></trkpt><trkpt lat="43.079570217059526" lon="10.807638530855916"><ele>266.5</ele><time>2026-03-22T10:30:57Z</time></trkpt><trkpt lat="43.07948830451217" lon="10.807754831544225"><ele>268.0</ele><time>2026-03-22T10:30:58Z</time></trkpt><trkpt lat="43.0794009034898" lon="10.807866340270683"><ele>269.5</ele><time>2026-03-22T10:30:59Z</time></trkpt><trkpt lat="43.07932345557583" lon="10.807974710794241"><ele>271.0</ele><time>2026-03-22T10:31:00Z</time></trkpt><trkpt lat="43.07926455437009" lon="10.80811436450496"><ele>271.0</ele><time>2026-03-22T10:31:01Z</time></trkpt><trkpt lat="43.079239628414015" lon="10.808261472457168"><ele>271.0</ele><time>2026-03-22T10:31:02Z</time></trkpt><trkpt lat="43.07922235946209" lon="10.808368738103303"><ele>271.0</ele><time>2026-03-22T10:31:03Z</time></trkpt><trkpt lat="43.07923014345074" lon="10.808472159263093"><ele>271.0</ele><time>2026-03-22T10:31:04Z</time></trkpt><trkpt lat="43.07927994555377" lon="10.808592141630172"><ele>271.0</ele><time>2026-03-22T10:31:05Z</time></trkpt><trkpt lat="43.07932679380921" lon="10.808716010533743"><ele>272.8</ele><time>2026-03-22T10:31:06Z</time></trkpt><trkpt lat="43.07937276712258" lon="10.808837781501069"><ele>274.6</ele><time>2026-03-22T10:31:07Z</time></trkpt><trkpt lat="43.07940539080291" lon="10.808959481820157"><ele>276.4</ele><time>2026-03-22T10:31:08Z</time></trkpt><trkpt lat="43.079436503056236" lon="10.809084818861374"><ele>278.2</ele><time>2026-03-22T10:31:09Z</time></trkpt><trkpt lat="43.07945637584322" lon="10.809199393824333"><ele>280.0</ele><time>2026-03-22T10:31:10Z</time></trkpt><trkpt lat="43.07946780050004" lon="10.80930682503193"><ele>280.6</ele><time>2026-03-22T10:31:11Z</time></trkpt><trkpt lat="43.079454376702856" lon="10.809408385124568"><ele>281.2</ele><time>2026-03-22T10:31:12Z</time></trkpt><trkpt lat="43.07943322333409" lon="10.809513410337287"><ele>281.8</ele><time>2026-03-22T10:31:13Z</time></trkpt><trkpt lat="43.07940217662003" lon="10.809643567105159"><ele>282.4</ele><time>2026-03-22T10:31:14Z</time></trkpt><trkpt lat="43.0793601211359" lon="10.809767294734657"><ele>283.0</ele><time>2026-03-22T10:31:15Z</time></trkpt><trkpt lat="43.0792869055236" lon="10.80988188002723"><ele>283.0</ele><time>2026-03-22T10:31:16Z</time></trkpt><trkpt lat="43.07919673268194" lon="10.809981380186343"><ele>283.0</ele><time>2026-03-22T10:31:17Z</time></trkpt><trkpt lat="43.079094876334096" lon="10.810112368688856"><ele>283.0</ele><time>2026-03-22T10:31:18Z</time></trkpt><trkpt lat="43.07899683739654" lon="10.810255787660308"><ele>283.0</ele><time>2026-03-22T10:31:19Z</time></trkpt><trkpt lat="43.07890500042892" lon="10.810411921587365"><ele>287.6</ele><time>2026-03-22T10:31:20Z</time></trkpt><trkpt lat="43.078837057788064" lon="10.810535039452587"><ele>292.20000000000005</ele><time>2026-03-22T10:31:21Z</time></trkpt><trkpt lat="43.07875621402327" lon="10.810633461220657"><ele>296.8</ele><time>2026-03-22T10:31:22Z</time></trkpt><trkpt lat="43.07866682842678" lon="10.81072097590487"><ele>301.40000000000003</ele><time>2026-03-22T10:31:23Z</time></trkpt><trkpt lat="43.07858517263155" lon="10.81083526890894"><ele>306.0</ele><time>2026-03-22T10:31:24Z</time></trkpt><trkpt lat="43.078500954435626" lon="10.810986142219564"><ele>303.25</ele><time>2026-03-22T10:31:25Z</time></trkpt><trkpt lat="43.078414390224694" lon="10.811138296311169"><ele>300.5</ele><time>2026-03-22T10:31:26Z</time></trkpt><trkpt lat="43.07833289367595" lon="10.811292970205617"><ele>297.75</ele><time>2026-03-22T10:31:27Z</time></trkpt><trkpt lat="43.07826912978668" lon="10.811410864826517"><ele>295.0</ele><time>2026-03-22T10:31:28Z</time></trkpt><trkpt lat="43.0781977215059" lon="10.811500669448856"><ele>294.8</ele><time>2026-03-22T10:31:29Z</time></trkpt><trkpt lat="43.078142878022106" lon="10.811589414833925"><ele>294.6</ele><time>2026-03-22T10:31:30Z</time></trkpt><trkpt lat="43.078083266142606" lon="10.81166523635163"><ele>294.4</ele><time>2026-03-22T10:31:31Z</time></trkpt><trkpt lat="43.078005703916105" lon="10.81173898992892"><ele>294.2</ele><time>2026-03-22T10:31:32Z</time></trkpt><trkpt lat="43.07789558004766" lon="10.811808782888319"><ele>294.0</ele><time>2026-03-22T10:31:33Z</time></trkpt><trkpt lat="43.077759794101354" lon="10.811903451108346"><ele>294.0</ele><time>2026-03-22T10:31:34Z</time></trkpt><trkpt lat="43.0776129744625" lon="10.812026346294024"><ele>294.0</ele><time>2026-03-22T10:31:35Z</time></trkpt><trkpt lat="43.07748579856596" lon="10.812146735563458"><ele>294.0</ele><time>2026-03-22T10:31:36Z</time></trkpt><trkpt lat="43.07736406379221" lon="10.812246927999952"><ele>295.8</ele><time>2026-03-22T10:31:37Z</time></trkpt><trkpt lat="43.077267982744445" lon="10.812295028931572"><ele>297.59999999999997</ele><time>2026-03-22T10:31:38Z</time></trkpt><trkpt lat="43.07718386457413" lon="10.812343982791175"><ele>299.4</ele><time>2026-03-22T10:31:39Z</time></trkpt><trkpt lat="43.0771069792654" lon="10.812375264985803"><ele>301.2</ele><time>2026-03-22T10:31:40Z</time></trkpt><trkpt lat="43.07701113190571" lon="10.812401188841648"><ele>303.0</ele><time>2026-03-22T10:31:41Z</time></trkpt><trkpt lat="43.0768825845835" lon="10.81236414774791"><ele>303.0</ele><time>2026-03-22T10:31:42Z</time></trkpt><trkpt lat="43.0767631942506" lon="10.812387722059329"><ele>303.0</ele><time>2026-03-22T10:31:43Z</time></trkpt><trkpt lat="43.07665087980693" lon="10.812386633640518"><ele>303.0</ele><time>2026-03-22T10:31:44Z</time></trkpt><trkpt lat="43.07655875101702" lon="10.812426650116059"><ele>303.0</ele><time>2026-03-22T10:31:45Z</time></trkpt><trkpt lat="43.07646943089258" lon="10.812507254573644"><ele>303.0</ele><time>2026-03-22T10:31:46Z</time></trkpt><trkpt lat="43.076408086909254" lon="10.812608250111412"><ele>303.2</ele><time>2026-03-22T10:31:47Z</time></trkpt><trkpt lat="43.076374825570056" lon="10.812717514195846"><ele>303.4</ele><time>2026-03-22T10:31:48Z</time></trkpt><trkpt lat="43.0763323621458" lon="10.81280326656991"><ele>303.59999999999997</ele><time>2026-03-22T10:31:50Z</time></trkpt><trkpt lat="43.07622351613062" lon="10.812776677156725"><ele>303.8</ele><time>2026-03-22T10:31:53Z</time></trkpt><trkpt lat="43.07614554480624" lon="10.81271088632117"><ele>304.0</ele><time>2026-03-22T10:31:54Z</time></trkpt><trkpt lat="43.076047371069" lon="10.812618285078845"><ele>304.0</ele><time>2026-03-22T10:31:55Z</time></trkpt><trkpt lat="43.07597126791653" lon="10.812503795763686"><ele>304.0</ele><time>2026-03-22T10:31:56Z</time></trkpt><trkpt lat="43.07591639288689" lon="10.812376520634043"><ele>304.0</ele><time>2026-03-22T10:31:57Z</time></trkpt><trkpt lat="43.07590165654602" lon="10.812259810235911"><ele>304.0</ele><time>2026-03-22T10:31:58Z</time></trkpt><trkpt lat="43.07593504751257" lon="10.812159651926752"><ele>304.0</ele><time>2026-03-22T10:31:59Z</time></trkpt><trkpt lat="43.07600365478976" lon="10.812049980966709"><ele>304.0</ele><time>2026-03-22T10:32:00Z</time></trkpt><trkpt lat="43.07609155441586" lon="10.811920778802785"><ele>304.0</ele><time>2026-03-22T10:32:01Z</time></trkpt><trkpt lat="43.07618437909178" lon="10.811759953402419"><ele>304.0</ele><time>2026-03-22T10:32:02Z</time></trkpt><trkpt lat="43.07629599999381" lon="10.811583533160071"><ele>304.0</ele><time>2026-03-22T10:32:03Z</time></trkpt><trkpt lat="43.07641783601017" lon="10.811379965418148"><ele>305.75</ele><time>2026-03-22T10:32:04Z</time></trkpt><trkpt lat="43.07652910715876" lon="10.811233226697953"><ele>307.5</ele><time>2026-03-22T10:32:05Z</time></trkpt><trkpt lat="43.07664316583991" lon="10.811114219141123"><ele>309.25</ele><time>2026-03-22T10:32:06Z</time></trkpt><trkpt lat="43.076735638764475" lon="10.810984999017162"><ele>311.0</ele><time>2026-03-22T10:32:07Z</time></trkpt><trkpt lat="43.076793580621704" lon="10.810858502430222"><ele>316.5</ele><time>2026-03-22T10:32:08Z</time></trkpt><trkpt lat="43.076844253983104" lon="10.810737833077125"><ele>322.0</ele><time>2026-03-22T10:32:09Z</time></trkpt><trkpt lat="43.07689839098716" lon="10.810587525884785"><ele>327.5</ele><time>2026-03-22T10:32:10Z</time></trkpt><trkpt lat="43.076934444156926" lon="10.81040324401522"><ele>333.0</ele><time>2026-03-22T10:32:11Z</time></trkpt><trkpt lat="43.076968440236136" lon="10.810211259768536"><ele>332.25</ele><time>2026-03-22T10:32:12Z</time></trkpt><trkpt lat="43.0770122369136" lon="10.81002551844706"><ele>331.5</ele><time>2026-03-22T10:32:13Z</time></trkpt><trkpt lat="43.07705672225782" lon="10.809841097361648"><ele>330.75</ele><time>2026-03-22T10:32:14Z</time></trkpt><trkpt lat="43.07708637380414" lon="10.8096819756828"><ele>330.0</ele><time>2026-03-22T10:32:15Z</time></trkpt><trkpt lat="43.077084859334924" lon="10.809554045963283"><ele>330.0</ele><time>2026-03-22T10:32:16Z</time></trkpt><trkpt lat="43.07704449210147" lon="10.809433466512134"><ele>330.0</ele><time>2026-03-22T10:32:17Z</time></trkpt><trkpt lat="43.07696438277176" lon="10.809317547309032"><ele>330.0</ele><time>2026-03-22T10:32:18Z</time></trkpt><trkpt lat="43.07685691858746" lon="10.809227345693511"><ele>330.0</ele><time>2026-03-22T10:32:19Z</time></trkpt><trkpt lat="43.07673552453207" lon="10.809156256143279"><ele>329.5</ele><time>2026-03-22T10:32:20Z</time></trkpt><trkpt lat="43.07661086593362" lon="10.809078079685744"><ele>329.0</ele><time>2026-03-22T10:32:21Z</time></trkpt><trkpt lat="43.07648258275927" lon="10.808986094508722"><ele>328.5</ele><time>2026-03-22T10:32:22Z</time></trkpt><trkpt lat="43.076361556189276" lon="10.808884528749383"><ele>328.0</ele><time>2026-03-22T10:32:23Z</time></trkpt><trkpt lat="43.076253327379895" lon="10.808778186611654"><ele>327.79999999999995</ele><time>2026-03-22T10:32:24Z</time></trkpt><trkpt lat="43.07616905096338" lon="10.808675854931245"><ele>327.6</ele><time>2026-03-22T10:32:25Z</time></trkpt><trkpt lat="43.076105273089" lon="10.808571439397161"><ele>327.4</ele><time>2026-03-22T10:32:26Z</time></trkpt><trkpt lat="43.076068636121576" lon="10.808432538062124"><ele>327.20000000000005</ele><time>2026-03-22T10:32:27Z</time></trkpt><trkpt lat="43.07605505618507" lon="10.808275938425174"><ele>327.0</ele><time>2026-03-22T10:32:28Z</time></trkpt><trkpt lat="43.07603182415552" lon="10.808123942364116"><ele>327.0</ele><time>2026-03-22T10:32:29Z</time></trkpt><trkpt lat="43.0760086981238" lon="10.80796988438414"><ele>327.0</ele><time>2026-03-22T10:32:30Z</time></trkpt><trkpt lat="43.07595490745394" lon="10.807819619607834"><ele>327.0</ele><time>2026-03-22T10:32:31Z</time></trkpt><trkpt lat="43.07586767872225" lon="10.807673227908177"><ele>327.0</ele><time>2026-03-22T10:32:32Z</time></trkpt><trkpt lat="43.075762856496596" lon="10.807526484010738"><ele>325.75</ele><time>2026-03-22T10:32:33Z</time></trkpt><trkpt lat="43.07565855472707" lon="10.807363572054305"><ele>324.5</ele><time>2026-03-22T10:32:34Z</time></trkpt><trkpt lat="43.0755744448398" lon="10.807212512411501"><ele>323.25</ele><time>2026-03-22T10:32:35Z</time></trkpt><trkpt lat="43.075496544448626" lon="10.80707223761242"><ele>322.0</ele><time>2026-03-22T10:32:36Z</time></trkpt><trkpt lat="43.07541392274331" lon="10.806932789643836"><ele>323.25</ele><time>2026-03-22T10:32:37Z</time></trkpt><trkpt lat="43.07533495222611" lon="10.806792690538536"><ele>324.5</ele><time>2026-03-22T10:32:38Z</time></trkpt><trkpt lat="43.07526076434995" lon="10.806642543358485"><ele>325.75</ele><time>2026-03-22T10:32:39Z</time></trkpt><trkpt lat="43.07520234492373" lon="10.806466854206134"><ele>327.0</ele><time>2026-03-22T10:32:40Z</time></trkpt><trkpt lat="43.075152140693405" lon="10.806282951727503"><ele>327.0</ele><time>2026-03-22T10:32:41Z</time></trkpt><trkpt lat="43.075110378779776" lon="10.806116591084818"><ele>327.0</ele><time>2026-03-22T10:32:42Z</time></trkpt><trkpt lat="43.07508307597104" lon="10.805959378074682"><ele>327.0</ele><time>2026-03-22T10:32:43Z</time></trkpt><trkpt lat="43.07507974788315" lon="10.805787245573061"><ele>327.0</ele><time>2026-03-22T10:32:44Z</time></trkpt><trkpt lat="43.075091251405496" lon="10.805604262949386"><ele>326.75</ele><time>2026-03-22T10:32:45Z</time></trkpt><trkpt lat="43.07510366614021" lon="10.805422390279913"><ele>326.5</ele><time>2026-03-22T10:32:46Z</time></trkpt><trkpt lat="43.07511093093484" lon="10.805242460316292"><ele>326.25</ele><time>2026-03-22T10:32:47Z</time></trkpt><trkpt lat="43.075117358573976" lon="10.805064784757981"><ele>326.0</ele><time>2026-03-22T10:32:48Z</time></trkpt><trkpt lat="43.0751307027809" lon="10.80487998402963"><ele>326.5</ele><time>2026-03-22T10:32:49Z</time></trkpt><trkpt lat="43.07514813739214" lon="10.804694932389054"><ele>327.0</ele><time>2026-03-22T10:32:50Z</time></trkpt><trkpt lat="43.075164996038204" lon="10.804508724471559"><ele>327.5</ele><time>2026-03-22T10:32:51Z</time></trkpt><trkpt lat="43.0751677893176" lon="10.80432176016038"><ele>328.0</ele><time>2026-03-22T10:32:52Z</time></trkpt><trkpt lat="43.075164197638806" lon="10.804140042391728"><ele>328.25</ele><time>2026-03-22T10:32:53Z</time></trkpt><trkpt lat="43.07515092394675" lon="10.80396969732883"><ele>328.5</ele><time>2026-03-22T10:32:54Z</time></trkpt><trkpt lat="43.075111015655665" lon="10.803801582943748"><ele>328.75</ele><time>2026-03-22T10:32:55Z</time></trkpt><trkpt lat="43.07505453522404" lon="10.803632148628989"><ele>329.0</ele><time>2026-03-22T10:32:56Z</time></trkpt><trkpt lat="43.0749887048855" lon="10.803461525098635"><ele>329.0</ele><time>2026-03-22T10:32:57Z</time></trkpt><trkpt lat="43.0749240981427" lon="10.803284316854691"><ele>329.0</ele><time>2026-03-22T10:32:58Z</time></trkpt><trkpt lat="43.07486469178857" lon="10.803106368192333"><ele>329.0</ele><time>2026-03-22T10:32:59Z</time></trkpt><trkpt lat="43.07481096621675" lon="10.802937385467628"><ele>329.0</ele><time>2026-03-22T10:33:00Z</time></trkpt><trkpt lat="43.07475918313304" lon="10.802776112416886"><ele>329.0</ele><time>2026-03-22T10:33:01Z</time></trkpt><trkpt lat="43.07470801959638" lon="10.80261326797884"><ele>329.0</ele><time>2026-03-22T10:33:02Z</time></trkpt><trkpt lat="43.07466714682253" lon="10.8024410724451"><ele>329.0</ele><time>2026-03-22T10:33:03Z</time></trkpt><trkpt lat="43.07462639681217" lon="10.802257083480209"><ele>329.0</ele><time>2026-03-22T10:33:04Z</time></trkpt><trkpt lat="43.07460095120648" lon="10.802072125441239"><ele>329.0</ele><time>2026-03-22T10:33:05Z</time></trkpt><trkpt lat="43.07459371714176" lon="10.801891326843355"><ele>329.0</ele><time>2026-03-22T10:33:06Z</time></trkpt><trkpt lat="43.07459917697406" lon="10.80170358973986"><ele>329.0</ele><time>2026-03-22T10:33:07Z</time></trkpt><trkpt lat="43.074620664286854" lon="10.801502944026591"><ele>329.0</ele><time>2026-03-22T10:33:08Z</time></trkpt><trkpt lat="43.07464405888892" lon="10.80130204779363"><ele>328.33333333333337</ele><time>2026-03-22T10:33:09Z</time></trkpt><trkpt lat="43.07467477117037" lon="10.801091746970974"><ele>327.6666666666667</ele><time>2026-03-22T10:33:10Z</time></trkpt><trkpt lat="43.074706264376225" lon="10.800873101433544"><ele>327.0</ele><time>2026-03-22T10:33:11Z</time></trkpt><trkpt lat="43.074730367982426" lon="10.80064602518438"><ele>325.3333333333333</ele><time>2026-03-22T10:33:12Z</time></trkpt><trkpt lat="43.07474912108442" lon="10.800420898705323"><ele>323.66666666666663</ele><time>2026-03-22T10:33:13Z</time></trkpt><trkpt lat="43.0747581494071" lon="10.800208602026984"><ele>322.0</ele><time>2026-03-22T10:33:14Z</time></trkpt><trkpt lat="43.07475285923138" lon="10.799984504832839"><ele>321.66666666666663</ele><time>2026-03-22T10:33:15Z</time></trkpt><trkpt lat="43.07473702452171" lon="10.799754570139289"><ele>321.3333333333333</ele><time>2026-03-22T10:33:16Z</time></trkpt><trkpt lat="43.07472116173112" lon="10.799518365895574"><ele>321.0</ele><time>2026-03-22T10:33:17Z</time></trkpt><trkpt lat="43.074707206303515" lon="10.799281501367965"><ele>321.0</ele><time>2026-03-22T10:33:18Z</time></trkpt><trkpt lat="43.07469520828617" lon="10.799042098941785"><ele>321.0</ele><time>2026-03-22T10:33:19Z</time></trkpt><trkpt lat="43.074690154425205" lon="10.798811123060126"><ele>321.0</ele><time>2026-03-22T10:33:20Z</time></trkpt><trkpt lat="43.0746834432102" lon="10.798577487770945"><ele>321.6666666666667</ele><time>2026-03-22T10:33:21Z</time></trkpt><trkpt lat="43.07467631619234" lon="10.798347961688895"><ele>322.33333333333337</ele><time>2026-03-22T10:33:22Z</time></trkpt><trkpt lat="43.07466664529867" lon="10.7981064628314"><ele>323.0</ele><time>2026-03-22T10:33:23Z</time></trkpt><trkpt lat="43.07465759279342" lon="10.797869574096154"><ele>323.6666666666667</ele><time>2026-03-22T10:33:24Z</time></trkpt><trkpt lat="43.07465384085847" lon="10.79763311464989"><ele>324.3333333333333</ele><time>2026-03-22T10:33:25Z</time></trkpt><trkpt lat="43.07464826902346" lon="10.797399849505375"><ele>325.0</ele><time>2026-03-22T10:33:26Z</time></trkpt><trkpt lat="43.074640977738014" lon="10.797172619710745"><ele>325.0</ele><time>2026-03-22T10:33:27Z</time></trkpt><trkpt lat="43.0746335685755" lon="10.796950264287272"><ele>325.0</ele><time>2026-03-22T10:33:28Z</time></trkpt><trkpt lat="43.07461818004351" lon="10.796731846939846"><ele>325.0</ele><time>2026-03-22T10:33:29Z</time></trkpt><trkpt lat="43.07459819175314" lon="10.796526364091703"><ele>324.75</ele><time>2026-03-22T10:33:30Z</time></trkpt><trkpt lat="43.07457151354173" lon="10.796334474160343"><ele>324.5</ele><time>2026-03-22T10:33:31Z</time></trkpt><trkpt lat="43.074540629366446" lon="10.796145442342265"><ele>324.25</ele><time>2026-03-22T10:33:32Z</time></trkpt><trkpt lat="43.07451722425482" lon="10.795935078709176"><ele>324.0</ele><time>2026-03-22T10:33:33Z</time></trkpt><trkpt lat="43.07451028629857" lon="10.795730344738342"><ele>324.0</ele><time>2026-03-22T10:33:34Z</time></trkpt><trkpt lat="43.07452128343978" lon="10.79553011359486"><ele>324.0</ele><time>2026-03-22T10:33:35Z</time></trkpt><trkpt lat="43.07454383009469" lon="10.795339906730469"><ele>324.0</ele><time>2026-03-22T10:33:36Z</time></trkpt><trkpt lat="43.074578048060815" lon="10.795161925157025"><ele>324.0</ele><time>2026-03-22T10:33:37Z</time></trkpt><trkpt lat="43.07462444238037" lon="10.794980902755773"><ele>324.5</ele><time>2026-03-22T10:33:38Z</time></trkpt><trkpt lat="43.074697358964016" lon="10.794826824134347"><ele>325.0</ele><time>2026-03-22T10:33:39Z</time></trkpt><trkpt lat="43.074761616089035" lon="10.794658115660999"><ele>325.5</ele><time>2026-03-22T10:33:40Z</time></trkpt><trkpt lat="43.07484798476754" lon="10.794506233055015"><ele>326.0</ele><time>2026-03-22T10:33:41Z</time></trkpt><trkpt lat="43.07494079219308" lon="10.794358892243848"><ele>327.25</ele><time>2026-03-22T10:33:42Z</time></trkpt><trkpt lat="43.075028393978656" lon="10.794209005977185"><ele>328.5</ele><time>2026-03-22T10:33:43Z</time></trkpt><trkpt lat="43.07511963175224" lon="10.794048275970242"><ele>329.75</ele><time>2026-03-22T10:33:44Z</time></trkpt><trkpt lat="43.07521008982546" lon="10.793878993241117"><ele>331.0</ele><time>2026-03-22T10:33:45Z</time></trkpt><trkpt lat="43.07530063276391" lon="10.793711999386879"><ele>331.0</ele><time>2026-03-22T10:33:46Z</time></trkpt><trkpt lat="43.075393725329675" lon="10.793537662815549"><ele>331.0</ele><time>2026-03-22T10:33:47Z</time></trkpt><trkpt lat="43.075485785286304" lon="10.793365051777773"><ele>331.0</ele><time>2026-03-22T10:33:48Z</time></trkpt><trkpt lat="43.07558200988274" lon="10.793185164329676"><ele>330.0</ele><time>2026-03-22T10:33:49Z</time></trkpt><trkpt lat="43.07567425043129" lon="10.793014863965453"><ele>329.0</ele><time>2026-03-22T10:33:50Z</time></trkpt><trkpt lat="43.0757668434274" lon="10.7928484350281"><ele>328.0</ele><time>2026-03-22T10:33:51Z</time></trkpt><trkpt lat="43.075856572642785" lon="10.792685651041813"><ele>330.25</ele><time>2026-03-22T10:33:52Z</time></trkpt><trkpt lat="43.07594811808549" lon="10.792531957880039"><ele>332.5</ele><time>2026-03-22T10:33:53Z</time></trkpt><trkpt lat="43.07603519771286" lon="10.792376104457617"><ele>334.75</ele><time>2026-03-22T10:33:54Z</time></trkpt><trkpt lat="43.07610738998227" lon="10.792201507067821"><ele>337.0</ele><time>2026-03-22T10:33:55Z</time></trkpt><trkpt lat="43.076155442676296" lon="10.79200826721983"><ele>337.5</ele><time>2026-03-22T10:33:56Z</time></trkpt><trkpt lat="43.07617834680092" lon="10.791815589897302"><ele>338.0</ele><time>2026-03-22T10:33:57Z</time></trkpt><trkpt lat="43.07619000021023" lon="10.791645309343085"><ele>338.5</ele><time>2026-03-22T10:33:58Z</time></trkpt><trkpt lat="43.07620016741909" lon="10.791494297979273"><ele>339.0</ele><time>2026-03-22T10:33:59Z</time></trkpt><trkpt lat="43.07619826636634" lon="10.791353014455973"><ele>339.0</ele><time>2026-03-22T10:34:00Z</time></trkpt><trkpt lat="43.07619364055812" lon="10.791219691235902"><ele>339.0</ele><time>2026-03-22T10:34:01Z</time></trkpt><trkpt lat="43.07618997335744" lon="10.791108351888852"><ele>339.0</ele><time>2026-03-22T10:34:02Z</time></trkpt><trkpt lat="43.076187948398434" lon="10.79101597468226"><ele>339.0</ele><time>2026-03-22T10:34:03Z</time></trkpt><trkpt lat="43.07616561362548" lon="10.790901613541948"><ele>343.0</ele><time>2026-03-22T10:34:05Z</time></trkpt></trkseg></trk></gpx>